<?xml version="1.0" encoding="UTF-8" standalone="no" ?>
<gpx xmlns="http://www.topografix.com/GPX/1/1" xmlns:xsi="http://www.w3.org/2001/XMLSchema-instance" xsi:schemaLocation="http://www.topografix.com/GPX/1/1 http://www.topografix.com/GPX/1/1/gpx.xsd" version="1.1" creator="VisuGPX - https://www.visugpx.com">
  <metadata>
    <name>Saint-Nicolas du Pélem : Le long du Faoudel</name>
    <desc><![CDATA[Une balade de 10 km au départ de la Piscine jusqu\'au village de Saint-André le long du Faoudel. Ce circuit est non balisé. Il emprunte des sentiers qu\'il vaut mieux avoir reconnus auparavant.]]></desc>
  </metadata>
  <trk>
    <name><![CDATA[Saint-Nicolas du Pélem : Le long du Faoudel_1]]></name>
    <trkseg>
      <trkpt lat="48.31041" lon="-3.17826">
        <ele>102</ele>
        <time>2013-11-17T08:33:19.1Z</time>
      </trkpt>
      <trkpt lat="48.31044" lon="-3.17828">
        <ele>102</ele>
        <time>2013-11-17T08:33:21.1Z</time>
      </trkpt>
      <trkpt lat="48.31045" lon="-3.17829">
        <ele>102</ele>
        <time>2013-11-17T08:33:23.1Z</time>
      </trkpt>
      <trkpt lat="48.31048" lon="-3.1783">
        <ele>102</ele>
        <time>2013-11-17T08:33:26.1Z</time>
      </trkpt>
      <trkpt lat="48.3105" lon="-3.1783">
        <ele>102</ele>
        <time>2013-11-17T08:33:29.1Z</time>
      </trkpt>
      <trkpt lat="48.31051" lon="-3.1783">
        <ele>102</ele>
        <time>2013-11-17T08:33:31.1Z</time>
      </trkpt>
      <trkpt lat="48.31052" lon="-3.1783">
        <ele>102</ele>
        <time>2013-11-17T08:33:33.1Z</time>
      </trkpt>
      <trkpt lat="48.31055" lon="-3.17831">
        <ele>102</ele>
        <time>2013-11-17T08:33:36.1Z</time>
      </trkpt>
      <trkpt lat="48.31057" lon="-3.17832">
        <ele>102</ele>
        <time>2013-11-17T08:33:38.1Z</time>
      </trkpt>
      <trkpt lat="48.3106" lon="-3.17833">
        <ele>102</ele>
        <time>2013-11-17T08:33:41.1Z</time>
      </trkpt>
      <trkpt lat="48.31062" lon="-3.17833">
        <ele>102</ele>
        <time>2013-11-17T08:33:44.1Z</time>
      </trkpt>
      <trkpt lat="48.31064" lon="-3.17836">
        <ele>102</ele>
        <time>2013-11-17T08:33:46.1Z</time>
      </trkpt>
      <trkpt lat="48.31065" lon="-3.17839">
        <ele>102</ele>
        <time>2013-11-17T08:33:49.1Z</time>
      </trkpt>
      <trkpt lat="48.31067" lon="-3.17841">
        <ele>102</ele>
        <time>2013-11-17T08:33:51.1Z</time>
      </trkpt>
      <trkpt lat="48.31068" lon="-3.17845">
        <ele>101</ele>
        <time>2013-11-17T08:33:54.1Z</time>
      </trkpt>
      <trkpt lat="48.3107" lon="-3.17849">
        <ele>102</ele>
        <time>2013-11-17T08:33:57.1Z</time>
      </trkpt>
      <trkpt lat="48.3107" lon="-3.17853">
        <ele>102</ele>
        <time>2013-11-17T08:33:59.1Z</time>
      </trkpt>
      <trkpt lat="48.31071" lon="-3.17858">
        <ele>102</ele>
        <time>2013-11-17T08:34:02.1Z</time>
      </trkpt>
      <trkpt lat="48.31072" lon="-3.17861">
        <ele>102</ele>
        <time>2013-11-17T08:34:04.1Z</time>
      </trkpt>
      <trkpt lat="48.31073" lon="-3.17866">
        <ele>102</ele>
        <time>2013-11-17T08:34:07.1Z</time>
      </trkpt>
      <trkpt lat="48.31073" lon="-3.17871">
        <ele>101</ele>
        <time>2013-11-17T08:34:10.1Z</time>
      </trkpt>
      <trkpt lat="48.31074" lon="-3.17875">
        <ele>101</ele>
        <time>2013-11-17T08:34:12.1Z</time>
      </trkpt>
      <trkpt lat="48.31075" lon="-3.1788">
        <ele>101</ele>
        <time>2013-11-17T08:34:15.1Z</time>
      </trkpt>
      <trkpt lat="48.31076" lon="-3.17883">
        <ele>101</ele>
        <time>2013-11-17T08:34:17.1Z</time>
      </trkpt>
      <trkpt lat="48.31077" lon="-3.17888">
        <ele>101</ele>
        <time>2013-11-17T08:34:20.1Z</time>
      </trkpt>
      <trkpt lat="48.31078" lon="-3.17893">
        <ele>101</ele>
        <time>2013-11-17T08:34:23.1Z</time>
      </trkpt>
      <trkpt lat="48.31079" lon="-3.17898">
        <ele>101</ele>
        <time>2013-11-17T08:34:26.1Z</time>
      </trkpt>
      <trkpt lat="48.3108" lon="-3.17903">
        <ele>101</ele>
        <time>2013-11-17T08:34:29.1Z</time>
      </trkpt>
      <trkpt lat="48.31081" lon="-3.17907">
        <ele>101</ele>
        <time>2013-11-17T08:34:31.1Z</time>
      </trkpt>
      <trkpt lat="48.31082" lon="-3.17912">
        <ele>102</ele>
        <time>2013-11-17T08:34:34.1Z</time>
      </trkpt>
      <trkpt lat="48.31084" lon="-3.17917">
        <ele>102</ele>
        <time>2013-11-17T08:34:37.1Z</time>
      </trkpt>
      <trkpt lat="48.31085" lon="-3.1792">
        <ele>102</ele>
        <time>2013-11-17T08:34:39.1Z</time>
      </trkpt>
      <trkpt lat="48.31087" lon="-3.17924">
        <ele>101</ele>
        <time>2013-11-17T08:34:42.1Z</time>
      </trkpt>
      <trkpt lat="48.31088" lon="-3.17929">
        <ele>101</ele>
        <time>2013-11-17T08:34:45.1Z</time>
      </trkpt>
      <trkpt lat="48.31089" lon="-3.17933">
        <ele>101</ele>
        <time>2013-11-17T08:34:48.1Z</time>
      </trkpt>
      <trkpt lat="48.31091" lon="-3.17936">
        <ele>101</ele>
        <time>2013-11-17T08:34:50.1Z</time>
      </trkpt>
      <trkpt lat="48.31092" lon="-3.1794">
        <ele>101</ele>
        <time>2013-11-17T08:34:53.1Z</time>
      </trkpt>
      <trkpt lat="48.31094" lon="-3.17944">
        <ele>101</ele>
        <time>2013-11-17T08:34:56.1Z</time>
      </trkpt>
      <trkpt lat="48.31096" lon="-3.17947">
        <ele>101</ele>
        <time>2013-11-17T08:34:58.1Z</time>
      </trkpt>
      <trkpt lat="48.31097" lon="-3.17952">
        <ele>101</ele>
        <time>2013-11-17T08:35:01.1Z</time>
      </trkpt>
      <trkpt lat="48.31098" lon="-3.17957">
        <ele>101</ele>
        <time>2013-11-17T08:35:04.1Z</time>
      </trkpt>
      <trkpt lat="48.31099" lon="-3.1796">
        <ele>101</ele>
        <time>2013-11-17T08:35:06.1Z</time>
      </trkpt>
      <trkpt lat="48.311" lon="-3.17965">
        <ele>101</ele>
        <time>2013-11-17T08:35:09.1Z</time>
      </trkpt>
      <trkpt lat="48.31102" lon="-3.17968">
        <ele>101</ele>
        <time>2013-11-17T08:35:11.1Z</time>
      </trkpt>
      <trkpt lat="48.31104" lon="-3.17972">
        <ele>101</ele>
        <time>2013-11-17T08:35:14.1Z</time>
      </trkpt>
      <trkpt lat="48.31106" lon="-3.17976">
        <ele>101</ele>
        <time>2013-11-17T08:35:17.1Z</time>
      </trkpt>
      <trkpt lat="48.31107" lon="-3.1798">
        <ele>101</ele>
        <time>2013-11-17T08:35:19.1Z</time>
      </trkpt>
      <trkpt lat="48.31109" lon="-3.17985">
        <ele>101</ele>
        <time>2013-11-17T08:35:22.1Z</time>
      </trkpt>
      <trkpt lat="48.31111" lon="-3.17988">
        <ele>101</ele>
        <time>2013-11-17T08:35:25.1Z</time>
      </trkpt>
      <trkpt lat="48.31113" lon="-3.17993">
        <ele>101</ele>
        <time>2013-11-17T08:35:28.1Z</time>
      </trkpt>
      <trkpt lat="48.31115" lon="-3.17997">
        <ele>101</ele>
        <time>2013-11-17T08:35:31.1Z</time>
      </trkpt>
      <trkpt lat="48.31117" lon="-3.17999">
        <ele>101</ele>
        <time>2013-11-17T08:35:33.1Z</time>
      </trkpt>
      <trkpt lat="48.31119" lon="-3.18003">
        <ele>101</ele>
        <time>2013-11-17T08:35:36.1Z</time>
      </trkpt>
      <trkpt lat="48.31121" lon="-3.18006">
        <ele>101</ele>
        <time>2013-11-17T08:35:39.1Z</time>
      </trkpt>
      <trkpt lat="48.31121" lon="-3.18009">
        <ele>101</ele>
        <time>2013-11-17T08:35:41.1Z</time>
      </trkpt>
      <trkpt lat="48.31124" lon="-3.18013">
        <ele>101</ele>
        <time>2013-11-17T08:35:44.1Z</time>
      </trkpt>
      <trkpt lat="48.31125" lon="-3.18017">
        <ele>101</ele>
        <time>2013-11-17T08:35:46.1Z</time>
      </trkpt>
      <trkpt lat="48.31128" lon="-3.18021">
        <ele>101</ele>
        <time>2013-11-17T08:35:49.1Z</time>
      </trkpt>
      <trkpt lat="48.3113" lon="-3.18024">
        <ele>101</ele>
        <time>2013-11-17T08:35:51.1Z</time>
      </trkpt>
      <trkpt lat="48.31133" lon="-3.18027">
        <ele>101</ele>
        <time>2013-11-17T08:35:54.1Z</time>
      </trkpt>
      <trkpt lat="48.31136" lon="-3.18031">
        <ele>101</ele>
        <time>2013-11-17T08:35:57.1Z</time>
      </trkpt>
      <trkpt lat="48.31137" lon="-3.18034">
        <ele>102</ele>
        <time>2013-11-17T08:35:59.1Z</time>
      </trkpt>
      <trkpt lat="48.31138" lon="-3.18038">
        <ele>101</ele>
        <time>2013-11-17T08:36:02.1Z</time>
      </trkpt>
      <trkpt lat="48.3114" lon="-3.18041">
        <ele>101</ele>
        <time>2013-11-17T08:36:04.1Z</time>
      </trkpt>
      <trkpt lat="48.31143" lon="-3.18044">
        <ele>101</ele>
        <time>2013-11-17T08:36:07.1Z</time>
      </trkpt>
      <trkpt lat="48.31144" lon="-3.18047">
        <ele>101</ele>
        <time>2013-11-17T08:36:09.1Z</time>
      </trkpt>
      <trkpt lat="48.31146" lon="-3.1805">
        <ele>102</ele>
        <time>2013-11-17T08:36:11.1Z</time>
      </trkpt>
      <trkpt lat="48.31149" lon="-3.18054">
        <ele>101</ele>
        <time>2013-11-17T08:36:14.1Z</time>
      </trkpt>
      <trkpt lat="48.31153" lon="-3.18059">
        <ele>102</ele>
        <time>2013-11-17T08:36:17.1Z</time>
      </trkpt>
      <trkpt lat="48.31157" lon="-3.18062">
        <ele>101</ele>
        <time>2013-11-17T08:36:20.1Z</time>
      </trkpt>
      <trkpt lat="48.3116" lon="-3.18064">
        <ele>101</ele>
        <time>2013-11-17T08:36:22.1Z</time>
      </trkpt>
      <trkpt lat="48.31162" lon="-3.18067">
        <ele>101</ele>
        <time>2013-11-17T08:36:24.1Z</time>
      </trkpt>
      <trkpt lat="48.31165" lon="-3.18069">
        <ele>101</ele>
        <time>2013-11-17T08:36:27.1Z</time>
      </trkpt>
      <trkpt lat="48.31168" lon="-3.18072">
        <ele>102</ele>
        <time>2013-11-17T08:36:29.1Z</time>
      </trkpt>
      <trkpt lat="48.3117" lon="-3.18076">
        <ele>102</ele>
        <time>2013-11-17T08:36:32.1Z</time>
      </trkpt>
      <trkpt lat="48.31172" lon="-3.18079">
        <ele>102</ele>
        <time>2013-11-17T08:36:34.1Z</time>
      </trkpt>
      <trkpt lat="48.31174" lon="-3.18083">
        <ele>101</ele>
        <time>2013-11-17T08:36:37.1Z</time>
      </trkpt>
      <trkpt lat="48.31176" lon="-3.18085">
        <ele>101</ele>
        <time>2013-11-17T08:36:40.1Z</time>
      </trkpt>
      <trkpt lat="48.31179" lon="-3.18088">
        <ele>101</ele>
        <time>2013-11-17T08:36:43.1Z</time>
      </trkpt>
      <trkpt lat="48.31181" lon="-3.18089">
        <ele>101</ele>
        <time>2013-11-17T08:36:45.1Z</time>
      </trkpt>
      <trkpt lat="48.31184" lon="-3.18091">
        <ele>102</ele>
        <time>2013-11-17T08:36:48.1Z</time>
      </trkpt>
      <trkpt lat="48.31187" lon="-3.18093">
        <ele>101</ele>
        <time>2013-11-17T08:36:51.1Z</time>
      </trkpt>
      <trkpt lat="48.31188" lon="-3.18094">
        <ele>101</ele>
        <time>2013-11-17T08:36:53.1Z</time>
      </trkpt>
      <trkpt lat="48.31191" lon="-3.18096">
        <ele>101</ele>
        <time>2013-11-17T08:36:56.1Z</time>
      </trkpt>
      <trkpt lat="48.31194" lon="-3.18098">
        <ele>101</ele>
        <time>2013-11-17T08:36:59.1Z</time>
      </trkpt>
      <trkpt lat="48.31195" lon="-3.18099">
        <ele>101</ele>
        <time>2013-11-17T08:37:01.1Z</time>
      </trkpt>
      <trkpt lat="48.31199" lon="-3.18101">
        <ele>101</ele>
        <time>2013-11-17T08:37:04.1Z</time>
      </trkpt>
      <trkpt lat="48.31202" lon="-3.18102">
        <ele>102</ele>
        <time>2013-11-17T08:37:07.1Z</time>
      </trkpt>
      <trkpt lat="48.31205" lon="-3.18103">
        <ele>102</ele>
        <time>2013-11-17T08:37:10.1Z</time>
      </trkpt>
      <trkpt lat="48.31207" lon="-3.18105">
        <ele>102</ele>
        <time>2013-11-17T08:37:13.1Z</time>
      </trkpt>
      <trkpt lat="48.3121" lon="-3.18106">
        <ele>102</ele>
        <time>2013-11-17T08:37:15.1Z</time>
      </trkpt>
      <trkpt lat="48.31213" lon="-3.18109">
        <ele>102</ele>
        <time>2013-11-17T08:37:18.1Z</time>
      </trkpt>
      <trkpt lat="48.31216" lon="-3.1811">
        <ele>102</ele>
        <time>2013-11-17T08:37:20.1Z</time>
      </trkpt>
      <trkpt lat="48.31219" lon="-3.18112">
        <ele>102</ele>
        <time>2013-11-17T08:37:23.1Z</time>
      </trkpt>
      <trkpt lat="48.31223" lon="-3.18115">
        <ele>102</ele>
        <time>2013-11-17T08:37:26.1Z</time>
      </trkpt>
      <trkpt lat="48.31226" lon="-3.18117">
        <ele>102</ele>
        <time>2013-11-17T08:37:29.1Z</time>
      </trkpt>
      <trkpt lat="48.31229" lon="-3.1812">
        <ele>102</ele>
        <time>2013-11-17T08:37:32.1Z</time>
      </trkpt>
      <trkpt lat="48.31233" lon="-3.18123">
        <ele>102</ele>
        <time>2013-11-17T08:37:35.1Z</time>
      </trkpt>
      <trkpt lat="48.31236" lon="-3.18125">
        <ele>102</ele>
        <time>2013-11-17T08:37:37.1Z</time>
      </trkpt>
      <trkpt lat="48.31238" lon="-3.18126">
        <ele>103</ele>
        <time>2013-11-17T08:37:39.1Z</time>
      </trkpt>
      <trkpt lat="48.3124" lon="-3.1813">
        <ele>102</ele>
        <time>2013-11-17T08:37:42.1Z</time>
      </trkpt>
      <trkpt lat="48.31242" lon="-3.18131">
        <ele>102</ele>
        <time>2013-11-17T08:37:44.1Z</time>
      </trkpt>
      <trkpt lat="48.31246" lon="-3.18133">
        <ele>103</ele>
        <time>2013-11-17T08:37:47.1Z</time>
      </trkpt>
      <trkpt lat="48.31247" lon="-3.18135">
        <ele>103</ele>
        <time>2013-11-17T08:37:50.1Z</time>
      </trkpt>
      <trkpt lat="48.31247" lon="-3.18137">
        <ele>103</ele>
        <time>2013-11-17T08:37:52.1Z</time>
      </trkpt>
      <trkpt lat="48.31249" lon="-3.1814">
        <ele>103</ele>
        <time>2013-11-17T08:37:55.1Z</time>
      </trkpt>
      <trkpt lat="48.31252" lon="-3.18142">
        <ele>103</ele>
        <time>2013-11-17T08:37:58.1Z</time>
      </trkpt>
      <trkpt lat="48.31253" lon="-3.18143">
        <ele>104</ele>
        <time>2013-11-17T08:38:00.1Z</time>
      </trkpt>
      <trkpt lat="48.31253" lon="-3.18146">
        <ele>104</ele>
        <time>2013-11-17T08:38:02.1Z</time>
      </trkpt>
      <trkpt lat="48.31254" lon="-3.18149">
        <ele>104</ele>
        <time>2013-11-17T08:38:05.1Z</time>
      </trkpt>
      <trkpt lat="48.31254" lon="-3.18151">
        <ele>104</ele>
        <time>2013-11-17T08:38:07.1Z</time>
      </trkpt>
      <trkpt lat="48.31254" lon="-3.18154">
        <ele>104</ele>
        <time>2013-11-17T08:38:10.1Z</time>
      </trkpt>
      <trkpt lat="48.31256" lon="-3.18158">
        <ele>104</ele>
        <time>2013-11-17T08:38:13.1Z</time>
      </trkpt>
      <trkpt lat="48.31257" lon="-3.1816">
        <ele>104</ele>
        <time>2013-11-17T08:38:15.1Z</time>
      </trkpt>
      <trkpt lat="48.31261" lon="-3.18162">
        <ele>104</ele>
        <time>2013-11-17T08:38:18.1Z</time>
      </trkpt>
      <trkpt lat="48.31262" lon="-3.18163">
        <ele>104</ele>
        <time>2013-11-17T08:38:20.1Z</time>
      </trkpt>
      <trkpt lat="48.31266" lon="-3.18164">
        <ele>104</ele>
        <time>2013-11-17T08:38:23.1Z</time>
      </trkpt>
      <trkpt lat="48.31269" lon="-3.18162">
        <ele>105</ele>
        <time>2013-11-17T08:38:26.1Z</time>
      </trkpt>
      <trkpt lat="48.31272" lon="-3.18162">
        <ele>104</ele>
        <time>2013-11-17T08:38:28.1Z</time>
      </trkpt>
      <trkpt lat="48.31276" lon="-3.18161">
        <ele>104</ele>
        <time>2013-11-17T08:38:31.1Z</time>
      </trkpt>
      <trkpt lat="48.31282" lon="-3.1816">
        <ele>104</ele>
        <time>2013-11-17T08:38:34.1Z</time>
      </trkpt>
      <trkpt lat="48.31288" lon="-3.18158">
        <ele>105</ele>
        <time>2013-11-17T08:38:37.1Z</time>
      </trkpt>
      <trkpt lat="48.31292" lon="-3.18157">
        <ele>105</ele>
        <time>2013-11-17T08:38:39.1Z</time>
      </trkpt>
      <trkpt lat="48.31293" lon="-3.18157">
        <ele>105</ele>
        <time>2013-11-17T08:38:41.1Z</time>
      </trkpt>
      <trkpt lat="48.31298" lon="-3.18158">
        <ele>105</ele>
        <time>2013-11-17T08:38:44.1Z</time>
      </trkpt>
      <trkpt lat="48.313" lon="-3.1816">
        <ele>105</ele>
        <time>2013-11-17T08:38:46.1Z</time>
      </trkpt>
      <trkpt lat="48.31303" lon="-3.18161">
        <ele>105</ele>
        <time>2013-11-17T08:38:49.1Z</time>
      </trkpt>
      <trkpt lat="48.31305" lon="-3.18162">
        <ele>105</ele>
        <time>2013-11-17T08:38:51.1Z</time>
      </trkpt>
      <trkpt lat="48.31311" lon="-3.18161">
        <ele>106</ele>
        <time>2013-11-17T08:38:54.1Z</time>
      </trkpt>
      <trkpt lat="48.31314" lon="-3.18162">
        <ele>106</ele>
        <time>2013-11-17T08:38:57.1Z</time>
      </trkpt>
      <trkpt lat="48.31318" lon="-3.18161">
        <ele>106</ele>
        <time>2013-11-17T08:39:00.1Z</time>
      </trkpt>
      <trkpt lat="48.3132" lon="-3.18161">
        <ele>106</ele>
        <time>2013-11-17T08:39:02.1Z</time>
      </trkpt>
      <trkpt lat="48.31321" lon="-3.18162">
        <ele>106</ele>
        <time>2013-11-17T08:39:04.1Z</time>
      </trkpt>
      <trkpt lat="48.31324" lon="-3.18161">
        <ele>106</ele>
        <time>2013-11-17T08:39:06.1Z</time>
      </trkpt>
      <trkpt lat="48.31327" lon="-3.18162">
        <ele>106</ele>
        <time>2013-11-17T08:39:09.1Z</time>
      </trkpt>
      <trkpt lat="48.31328" lon="-3.18163">
        <ele>106</ele>
        <time>2013-11-17T08:39:11.1Z</time>
      </trkpt>
      <trkpt lat="48.3133" lon="-3.18164">
        <ele>106</ele>
        <time>2013-11-17T08:39:14.1Z</time>
      </trkpt>
      <trkpt lat="48.31332" lon="-3.18165">
        <ele>106</ele>
        <time>2013-11-17T08:39:16.1Z</time>
      </trkpt>
      <trkpt lat="48.31335" lon="-3.18166">
        <ele>107</ele>
        <time>2013-11-17T08:39:19.1Z</time>
      </trkpt>
      <trkpt lat="48.31339" lon="-3.18165">
        <ele>107</ele>
        <time>2013-11-17T08:39:22.1Z</time>
      </trkpt>
      <trkpt lat="48.31341" lon="-3.18165">
        <ele>107</ele>
        <time>2013-11-17T08:39:24.1Z</time>
      </trkpt>
      <trkpt lat="48.31342" lon="-3.18167">
        <ele>107</ele>
        <time>2013-11-17T08:39:27.1Z</time>
      </trkpt>
      <trkpt lat="48.31343" lon="-3.18169">
        <ele>107</ele>
        <time>2013-11-17T08:39:30.1Z</time>
      </trkpt>
      <trkpt lat="48.31345" lon="-3.18169">
        <ele>108</ele>
        <time>2013-11-17T08:39:32.1Z</time>
      </trkpt>
      <trkpt lat="48.31348" lon="-3.18169">
        <ele>108</ele>
        <time>2013-11-17T08:39:34.1Z</time>
      </trkpt>
      <trkpt lat="48.3135" lon="-3.18171">
        <ele>108</ele>
        <time>2013-11-17T08:39:37.1Z</time>
      </trkpt>
      <trkpt lat="48.31353" lon="-3.18171">
        <ele>108</ele>
        <time>2013-11-17T08:39:39.1Z</time>
      </trkpt>
      <trkpt lat="48.31356" lon="-3.18169">
        <ele>108</ele>
        <time>2013-11-17T08:39:42.1Z</time>
      </trkpt>
      <trkpt lat="48.31361" lon="-3.18169">
        <ele>108</ele>
        <time>2013-11-17T08:39:45.1Z</time>
      </trkpt>
      <trkpt lat="48.31365" lon="-3.18169">
        <ele>108</ele>
        <time>2013-11-17T08:39:47.1Z</time>
      </trkpt>
      <trkpt lat="48.31369" lon="-3.18169">
        <ele>108</ele>
        <time>2013-11-17T08:39:49.1Z</time>
      </trkpt>
      <trkpt lat="48.31374" lon="-3.1817">
        <ele>109</ele>
        <time>2013-11-17T08:39:52.1Z</time>
      </trkpt>
      <trkpt lat="48.31378" lon="-3.18173">
        <ele>109</ele>
        <time>2013-11-17T08:39:54.1Z</time>
      </trkpt>
      <trkpt lat="48.3138" lon="-3.18176">
        <ele>109</ele>
        <time>2013-11-17T08:39:57.1Z</time>
      </trkpt>
      <trkpt lat="48.31382" lon="-3.18177">
        <ele>109</ele>
        <time>2013-11-17T08:39:59.1Z</time>
      </trkpt>
      <trkpt lat="48.31382" lon="-3.18179">
        <ele>109</ele>
        <time>2013-11-17T08:40:01.1Z</time>
      </trkpt>
      <trkpt lat="48.31384" lon="-3.18181">
        <ele>109</ele>
        <time>2013-11-17T08:40:04.1Z</time>
      </trkpt>
      <trkpt lat="48.31388" lon="-3.18184">
        <ele>108</ele>
        <time>2013-11-17T08:40:07.1Z</time>
      </trkpt>
      <trkpt lat="48.31395" lon="-3.18186">
        <ele>108</ele>
        <time>2013-11-17T08:40:10.1Z</time>
      </trkpt>
      <trkpt lat="48.31398" lon="-3.18186">
        <ele>109</ele>
        <time>2013-11-17T08:40:12.1Z</time>
      </trkpt>
      <trkpt lat="48.31403" lon="-3.18186">
        <ele>109</ele>
        <time>2013-11-17T08:40:14.1Z</time>
      </trkpt>
      <trkpt lat="48.31408" lon="-3.18186">
        <ele>109</ele>
        <time>2013-11-17T08:40:16.1Z</time>
      </trkpt>
      <trkpt lat="48.31411" lon="-3.18186">
        <ele>109</ele>
        <time>2013-11-17T08:40:18.1Z</time>
      </trkpt>
      <trkpt lat="48.31416" lon="-3.18187">
        <ele>109</ele>
        <time>2013-11-17T08:40:21.1Z</time>
      </trkpt>
      <trkpt lat="48.3142" lon="-3.1819">
        <ele>109</ele>
        <time>2013-11-17T08:40:24.1Z</time>
      </trkpt>
      <trkpt lat="48.31423" lon="-3.18192">
        <ele>110</ele>
        <time>2013-11-17T08:40:27.1Z</time>
      </trkpt>
      <trkpt lat="48.31425" lon="-3.18195">
        <ele>110</ele>
        <time>2013-11-17T08:40:30.1Z</time>
      </trkpt>
      <trkpt lat="48.31427" lon="-3.18196">
        <ele>110</ele>
        <time>2013-11-17T08:40:32.1Z</time>
      </trkpt>
      <trkpt lat="48.3143" lon="-3.18197">
        <ele>110</ele>
        <time>2013-11-17T08:40:35.1Z</time>
      </trkpt>
      <trkpt lat="48.31431" lon="-3.18199">
        <ele>110</ele>
        <time>2013-11-17T08:40:37.1Z</time>
      </trkpt>
      <trkpt lat="48.31432" lon="-3.18201">
        <ele>110</ele>
        <time>2013-11-17T08:40:39.1Z</time>
      </trkpt>
      <trkpt lat="48.31433" lon="-3.18204">
        <ele>110</ele>
        <time>2013-11-17T08:40:41.1Z</time>
      </trkpt>
      <trkpt lat="48.31435" lon="-3.18208">
        <ele>110</ele>
        <time>2013-11-17T08:40:44.1Z</time>
      </trkpt>
      <trkpt lat="48.31436" lon="-3.1821">
        <ele>110</ele>
        <time>2013-11-17T08:40:46.1Z</time>
      </trkpt>
      <trkpt lat="48.31438" lon="-3.18213">
        <ele>110</ele>
        <time>2013-11-17T08:40:49.1Z</time>
      </trkpt>
      <trkpt lat="48.31442" lon="-3.18216">
        <ele>111</ele>
        <time>2013-11-17T08:40:52.1Z</time>
      </trkpt>
      <trkpt lat="48.31444" lon="-3.18218">
        <ele>111</ele>
        <time>2013-11-17T08:40:54.1Z</time>
      </trkpt>
      <trkpt lat="48.31447" lon="-3.1822">
        <ele>111</ele>
        <time>2013-11-17T08:40:57.1Z</time>
      </trkpt>
      <trkpt lat="48.31451" lon="-3.18222">
        <ele>111</ele>
        <time>2013-11-17T08:41:00.1Z</time>
      </trkpt>
      <trkpt lat="48.31454" lon="-3.18224">
        <ele>111</ele>
        <time>2013-11-17T08:41:03.1Z</time>
      </trkpt>
      <trkpt lat="48.31456" lon="-3.18225">
        <ele>111</ele>
        <time>2013-11-17T08:41:05.1Z</time>
      </trkpt>
      <trkpt lat="48.31459" lon="-3.18227">
        <ele>112</ele>
        <time>2013-11-17T08:41:08.1Z</time>
      </trkpt>
      <trkpt lat="48.31462" lon="-3.18227">
        <ele>112</ele>
        <time>2013-11-17T08:41:11.1Z</time>
      </trkpt>
      <trkpt lat="48.31463" lon="-3.18228">
        <ele>112</ele>
        <time>2013-11-17T08:41:13.1Z</time>
      </trkpt>
      <trkpt lat="48.31465" lon="-3.18229">
        <ele>112</ele>
        <time>2013-11-17T08:41:15.1Z</time>
      </trkpt>
      <trkpt lat="48.31469" lon="-3.18232">
        <ele>112</ele>
        <time>2013-11-17T08:41:18.1Z</time>
      </trkpt>
      <trkpt lat="48.31472" lon="-3.18235">
        <ele>112</ele>
        <time>2013-11-17T08:41:21.1Z</time>
      </trkpt>
      <trkpt lat="48.31475" lon="-3.18237">
        <ele>112</ele>
        <time>2013-11-17T08:41:23.1Z</time>
      </trkpt>
      <trkpt lat="48.31477" lon="-3.18239">
        <ele>112</ele>
        <time>2013-11-17T08:41:25.1Z</time>
      </trkpt>
      <trkpt lat="48.3148" lon="-3.18241">
        <ele>113</ele>
        <time>2013-11-17T08:41:28.1Z</time>
      </trkpt>
      <trkpt lat="48.3148" lon="-3.18244">
        <ele>113</ele>
        <time>2013-11-17T08:41:31.1Z</time>
      </trkpt>
      <trkpt lat="48.31482" lon="-3.18246">
        <ele>113</ele>
        <time>2013-11-17T08:41:33.1Z</time>
      </trkpt>
      <trkpt lat="48.31485" lon="-3.18247">
        <ele>113</ele>
        <time>2013-11-17T08:41:35.1Z</time>
      </trkpt>
      <trkpt lat="48.31488" lon="-3.18249">
        <ele>113</ele>
        <time>2013-11-17T08:41:38.1Z</time>
      </trkpt>
      <trkpt lat="48.3149" lon="-3.18251">
        <ele>113</ele>
        <time>2013-11-17T08:41:40.1Z</time>
      </trkpt>
      <trkpt lat="48.31495" lon="-3.18253">
        <ele>113</ele>
        <time>2013-11-17T08:41:43.1Z</time>
      </trkpt>
      <trkpt lat="48.31499" lon="-3.18254">
        <ele>113</ele>
        <time>2013-11-17T08:41:45.1Z</time>
      </trkpt>
      <trkpt lat="48.31503" lon="-3.18256">
        <ele>113</ele>
        <time>2013-11-17T08:41:47.1Z</time>
      </trkpt>
      <trkpt lat="48.31507" lon="-3.18259">
        <ele>114</ele>
        <time>2013-11-17T08:41:50.1Z</time>
      </trkpt>
      <trkpt lat="48.31509" lon="-3.18261">
        <ele>114</ele>
        <time>2013-11-17T08:41:53.1Z</time>
      </trkpt>
      <trkpt lat="48.31512" lon="-3.18263">
        <ele>114</ele>
        <time>2013-11-17T08:41:55.1Z</time>
      </trkpt>
      <trkpt lat="48.31516" lon="-3.18264">
        <ele>114</ele>
        <time>2013-11-17T08:41:58.1Z</time>
      </trkpt>
      <trkpt lat="48.31519" lon="-3.18265">
        <ele>114</ele>
        <time>2013-11-17T08:42:00.1Z</time>
      </trkpt>
      <trkpt lat="48.31524" lon="-3.18266">
        <ele>114</ele>
        <time>2013-11-17T08:42:03.1Z</time>
      </trkpt>
      <trkpt lat="48.31527" lon="-3.18267">
        <ele>114</ele>
        <time>2013-11-17T08:42:05.1Z</time>
      </trkpt>
      <trkpt lat="48.31529" lon="-3.18268">
        <ele>114</ele>
        <time>2013-11-17T08:42:07.1Z</time>
      </trkpt>
      <trkpt lat="48.31531" lon="-3.18269">
        <ele>114</ele>
        <time>2013-11-17T08:42:09.1Z</time>
      </trkpt>
      <trkpt lat="48.31534" lon="-3.18272">
        <ele>114</ele>
        <time>2013-11-17T08:42:12.1Z</time>
      </trkpt>
      <trkpt lat="48.31536" lon="-3.18273">
        <ele>115</ele>
        <time>2013-11-17T08:42:14.1Z</time>
      </trkpt>
      <trkpt lat="48.31539" lon="-3.18275">
        <ele>115</ele>
        <time>2013-11-17T08:42:17.1Z</time>
      </trkpt>
      <trkpt lat="48.31541" lon="-3.18276">
        <ele>115</ele>
        <time>2013-11-17T08:42:19.1Z</time>
      </trkpt>
      <trkpt lat="48.31543" lon="-3.18277">
        <ele>115</ele>
        <time>2013-11-17T08:42:21.1Z</time>
      </trkpt>
      <trkpt lat="48.31546" lon="-3.18278">
        <ele>115</ele>
        <time>2013-11-17T08:42:23.1Z</time>
      </trkpt>
      <trkpt lat="48.31546" lon="-3.18279">
        <ele>115</ele>
        <time>2013-11-17T08:42:26.1Z</time>
      </trkpt>
      <trkpt lat="48.31548" lon="-3.18283">
        <ele>115</ele>
        <time>2013-11-17T08:42:28.1Z</time>
      </trkpt>
      <trkpt lat="48.31549" lon="-3.18286">
        <ele>115</ele>
        <time>2013-11-17T08:42:31.1Z</time>
      </trkpt>
      <trkpt lat="48.31552" lon="-3.1829">
        <ele>115</ele>
        <time>2013-11-17T08:42:34.1Z</time>
      </trkpt>
      <trkpt lat="48.31555" lon="-3.18292">
        <ele>115</ele>
        <time>2013-11-17T08:42:37.1Z</time>
      </trkpt>
      <trkpt lat="48.31559" lon="-3.18295">
        <ele>116</ele>
        <time>2013-11-17T08:42:40.1Z</time>
      </trkpt>
      <trkpt lat="48.31561" lon="-3.18297">
        <ele>116</ele>
        <time>2013-11-17T08:42:42.1Z</time>
      </trkpt>
      <trkpt lat="48.31562" lon="-3.183">
        <ele>116</ele>
        <time>2013-11-17T08:42:45.1Z</time>
      </trkpt>
      <trkpt lat="48.31563" lon="-3.18302">
        <ele>116</ele>
        <time>2013-11-17T08:42:48.1Z</time>
      </trkpt>
      <trkpt lat="48.31564" lon="-3.18303">
        <ele>116</ele>
        <time>2013-11-17T08:42:51.1Z</time>
      </trkpt>
      <trkpt lat="48.31565" lon="-3.18304">
        <ele>116</ele>
        <time>2013-11-17T08:42:53.1Z</time>
      </trkpt>
      <trkpt lat="48.31567" lon="-3.18304">
        <ele>116</ele>
        <time>2013-11-17T08:42:56.1Z</time>
      </trkpt>
      <trkpt lat="48.3157" lon="-3.18304">
        <ele>116</ele>
        <time>2013-11-17T08:42:59.1Z</time>
      </trkpt>
      <trkpt lat="48.31572" lon="-3.18305">
        <ele>116</ele>
        <time>2013-11-17T08:43:02.1Z</time>
      </trkpt>
      <trkpt lat="48.31575" lon="-3.18305">
        <ele>116</ele>
        <time>2013-11-17T08:43:05.1Z</time>
      </trkpt>
      <trkpt lat="48.31577" lon="-3.18306">
        <ele>117</ele>
        <time>2013-11-17T08:43:08.1Z</time>
      </trkpt>
      <trkpt lat="48.3158" lon="-3.18308">
        <ele>116</ele>
        <time>2013-11-17T08:43:10.1Z</time>
      </trkpt>
      <trkpt lat="48.31583" lon="-3.18311">
        <ele>116</ele>
        <time>2013-11-17T08:43:13.1Z</time>
      </trkpt>
      <trkpt lat="48.31585" lon="-3.18313">
        <ele>116</ele>
        <time>2013-11-17T08:43:15.1Z</time>
      </trkpt>
      <trkpt lat="48.3159" lon="-3.18316">
        <ele>116</ele>
        <time>2013-11-17T08:43:18.1Z</time>
      </trkpt>
      <trkpt lat="48.31592" lon="-3.18318">
        <ele>116</ele>
        <time>2013-11-17T08:43:20.1Z</time>
      </trkpt>
      <trkpt lat="48.31596" lon="-3.18318">
        <ele>116</ele>
        <time>2013-11-17T08:43:23.1Z</time>
      </trkpt>
      <trkpt lat="48.31599" lon="-3.1832">
        <ele>116</ele>
        <time>2013-11-17T08:43:25.1Z</time>
      </trkpt>
      <trkpt lat="48.31601" lon="-3.1832">
        <ele>117</ele>
        <time>2013-11-17T08:43:27.1Z</time>
      </trkpt>
      <trkpt lat="48.31604" lon="-3.18323">
        <ele>117</ele>
        <time>2013-11-17T08:43:30.1Z</time>
      </trkpt>
      <trkpt lat="48.31606" lon="-3.18326">
        <ele>117</ele>
        <time>2013-11-17T08:43:32.1Z</time>
      </trkpt>
      <trkpt lat="48.31608" lon="-3.18328">
        <ele>117</ele>
        <time>2013-11-17T08:43:34.1Z</time>
      </trkpt>
      <trkpt lat="48.31612" lon="-3.18332">
        <ele>118</ele>
        <time>2013-11-17T08:43:37.1Z</time>
      </trkpt>
      <trkpt lat="48.31616" lon="-3.18335">
        <ele>118</ele>
        <time>2013-11-17T08:43:40.1Z</time>
      </trkpt>
      <trkpt lat="48.31618" lon="-3.18338">
        <ele>118</ele>
        <time>2013-11-17T08:43:42.1Z</time>
      </trkpt>
      <trkpt lat="48.31622" lon="-3.18342">
        <ele>118</ele>
        <time>2013-11-17T08:43:45.1Z</time>
      </trkpt>
      <trkpt lat="48.31625" lon="-3.18345">
        <ele>118</ele>
        <time>2013-11-17T08:43:48.1Z</time>
      </trkpt>
      <trkpt lat="48.31627" lon="-3.18347">
        <ele>118</ele>
        <time>2013-11-17T08:43:50.1Z</time>
      </trkpt>
      <trkpt lat="48.3163" lon="-3.1835">
        <ele>118</ele>
        <time>2013-11-17T08:43:53.1Z</time>
      </trkpt>
      <trkpt lat="48.31632" lon="-3.18353">
        <ele>118</ele>
        <time>2013-11-17T08:43:55.1Z</time>
      </trkpt>
      <trkpt lat="48.31635" lon="-3.18356">
        <ele>119</ele>
        <time>2013-11-17T08:43:58.1Z</time>
      </trkpt>
      <trkpt lat="48.31637" lon="-3.18359">
        <ele>119</ele>
        <time>2013-11-17T08:44:00.1Z</time>
      </trkpt>
      <trkpt lat="48.3164" lon="-3.18363">
        <ele>119</ele>
        <time>2013-11-17T08:44:03.1Z</time>
      </trkpt>
      <trkpt lat="48.31641" lon="-3.18366">
        <ele>119</ele>
        <time>2013-11-17T08:44:05.1Z</time>
      </trkpt>
      <trkpt lat="48.31642" lon="-3.18369">
        <ele>119</ele>
        <time>2013-11-17T08:44:07.1Z</time>
      </trkpt>
      <trkpt lat="48.31646" lon="-3.18373">
        <ele>119</ele>
        <time>2013-11-17T08:44:10.1Z</time>
      </trkpt>
      <trkpt lat="48.31648" lon="-3.18375">
        <ele>119</ele>
        <time>2013-11-17T08:44:12.1Z</time>
      </trkpt>
      <trkpt lat="48.3165" lon="-3.1838">
        <ele>119</ele>
        <time>2013-11-17T08:44:15.1Z</time>
      </trkpt>
      <trkpt lat="48.31652" lon="-3.18383">
        <ele>119</ele>
        <time>2013-11-17T08:44:18.1Z</time>
      </trkpt>
      <trkpt lat="48.31654" lon="-3.18384">
        <ele>119</ele>
        <time>2013-11-17T08:44:20.1Z</time>
      </trkpt>
      <trkpt lat="48.31659" lon="-3.18387">
        <ele>119</ele>
        <time>2013-11-17T08:44:23.1Z</time>
      </trkpt>
      <trkpt lat="48.31662" lon="-3.18389">
        <ele>119</ele>
        <time>2013-11-17T08:44:26.1Z</time>
      </trkpt>
      <trkpt lat="48.31663" lon="-3.18392">
        <ele>120</ele>
        <time>2013-11-17T08:44:28.1Z</time>
      </trkpt>
      <trkpt lat="48.31665" lon="-3.18394">
        <ele>120</ele>
        <time>2013-11-17T08:44:30.1Z</time>
      </trkpt>
      <trkpt lat="48.31668" lon="-3.18397">
        <ele>120</ele>
        <time>2013-11-17T08:44:33.1Z</time>
      </trkpt>
      <trkpt lat="48.31671" lon="-3.18401">
        <ele>120</ele>
        <time>2013-11-17T08:44:36.1Z</time>
      </trkpt>
      <trkpt lat="48.31672" lon="-3.18404">
        <ele>121</ele>
        <time>2013-11-17T08:44:38.1Z</time>
      </trkpt>
      <trkpt lat="48.31673" lon="-3.18406">
        <ele>120</ele>
        <time>2013-11-17T08:44:40.1Z</time>
      </trkpt>
      <trkpt lat="48.31676" lon="-3.1841">
        <ele>120</ele>
        <time>2013-11-17T08:44:43.1Z</time>
      </trkpt>
      <trkpt lat="48.31677" lon="-3.18414">
        <ele>120</ele>
        <time>2013-11-17T08:44:46.1Z</time>
      </trkpt>
      <trkpt lat="48.31679" lon="-3.18419">
        <ele>120</ele>
        <time>2013-11-17T08:44:48.1Z</time>
      </trkpt>
      <trkpt lat="48.31679" lon="-3.18422">
        <ele>120</ele>
        <time>2013-11-17T08:44:51.1Z</time>
      </trkpt>
      <trkpt lat="48.31682" lon="-3.18426">
        <ele>120</ele>
        <time>2013-11-17T08:44:55.1Z</time>
      </trkpt>
      <trkpt lat="48.31683" lon="-3.18429">
        <ele>121</ele>
        <time>2013-11-17T08:44:57.1Z</time>
      </trkpt>
      <trkpt lat="48.31685" lon="-3.18432">
        <ele>121</ele>
        <time>2013-11-17T08:45:00.1Z</time>
      </trkpt>
      <trkpt lat="48.31689" lon="-3.18435">
        <ele>121</ele>
        <time>2013-11-17T08:45:03.1Z</time>
      </trkpt>
      <trkpt lat="48.31692" lon="-3.18438">
        <ele>121</ele>
        <time>2013-11-17T08:45:06.1Z</time>
      </trkpt>
      <trkpt lat="48.31693" lon="-3.1844">
        <ele>121</ele>
        <time>2013-11-17T08:45:08.1Z</time>
      </trkpt>
      <trkpt lat="48.31696" lon="-3.18443">
        <ele>121</ele>
        <time>2013-11-17T08:45:11.1Z</time>
      </trkpt>
      <trkpt lat="48.31697" lon="-3.18444">
        <ele>121</ele>
        <time>2013-11-17T08:45:13.1Z</time>
      </trkpt>
      <trkpt lat="48.31698" lon="-3.18448">
        <ele>121</ele>
        <time>2013-11-17T08:45:16.1Z</time>
      </trkpt>
      <trkpt lat="48.31697" lon="-3.1845">
        <ele>121</ele>
        <time>2013-11-17T08:45:19.1Z</time>
      </trkpt>
      <trkpt lat="48.31696" lon="-3.1845">
        <ele>121</ele>
        <time>2013-11-17T08:45:21.1Z</time>
      </trkpt>
      <trkpt lat="48.31695" lon="-3.1845">
        <ele>121</ele>
        <time>2013-11-17T08:45:24.1Z</time>
      </trkpt>
      <trkpt lat="48.31694" lon="-3.18449">
        <ele>121</ele>
        <time>2013-11-17T08:45:26.1Z</time>
      </trkpt>
      <trkpt lat="48.31693" lon="-3.18447">
        <ele>121</ele>
        <time>2013-11-17T08:45:29.1Z</time>
      </trkpt>
      <trkpt lat="48.31691" lon="-3.18444">
        <ele>122</ele>
        <time>2013-11-17T08:45:32.1Z</time>
      </trkpt>
      <trkpt lat="48.31691" lon="-3.18442">
        <ele>122</ele>
        <time>2013-11-17T08:45:35.1Z</time>
      </trkpt>
      <trkpt lat="48.3169" lon="-3.18439">
        <ele>123</ele>
        <time>2013-11-17T08:45:38.1Z</time>
      </trkpt>
      <trkpt lat="48.31688" lon="-3.18437">
        <ele>123</ele>
        <time>2013-11-17T08:45:40.1Z</time>
      </trkpt>
      <trkpt lat="48.31686" lon="-3.18436">
        <ele>124</ele>
        <time>2013-11-17T08:45:42.1Z</time>
      </trkpt>
      <trkpt lat="48.31685" lon="-3.18434">
        <ele>124</ele>
        <time>2013-11-17T08:45:45.1Z</time>
      </trkpt>
      <trkpt lat="48.31682" lon="-3.18432">
        <ele>125</ele>
        <time>2013-11-17T08:45:48.1Z</time>
      </trkpt>
      <trkpt lat="48.3168" lon="-3.18432">
        <ele>126</ele>
        <time>2013-11-17T08:45:50.1Z</time>
      </trkpt>
      <trkpt lat="48.31679" lon="-3.18431">
        <ele>126</ele>
        <time>2013-11-17T08:45:53.1Z</time>
      </trkpt>
      <trkpt lat="48.31678" lon="-3.18429">
        <ele>126</ele>
        <time>2013-11-17T08:45:55.1Z</time>
      </trkpt>
      <trkpt lat="48.31676" lon="-3.18428">
        <ele>127</ele>
        <time>2013-11-17T08:45:58.1Z</time>
      </trkpt>
      <trkpt lat="48.31676" lon="-3.18427">
        <ele>127</ele>
        <time>2013-11-17T08:46:00.1Z</time>
      </trkpt>
      <trkpt lat="48.31675" lon="-3.18425">
        <ele>128</ele>
        <time>2013-11-17T08:46:03.1Z</time>
      </trkpt>
      <trkpt lat="48.31673" lon="-3.18424">
        <ele>128</ele>
        <time>2013-11-17T08:46:05.1Z</time>
      </trkpt>
      <trkpt lat="48.31672" lon="-3.18423">
        <ele>128</ele>
        <time>2013-11-17T08:46:07.1Z</time>
      </trkpt>
      <trkpt lat="48.3167" lon="-3.18422">
        <ele>129</ele>
        <time>2013-11-17T08:46:10.1Z</time>
      </trkpt>
      <trkpt lat="48.31667" lon="-3.18419">
        <ele>130</ele>
        <time>2013-11-17T08:46:13.1Z</time>
      </trkpt>
      <trkpt lat="48.31663" lon="-3.18416">
        <ele>131</ele>
        <time>2013-11-17T08:46:16.1Z</time>
      </trkpt>
      <trkpt lat="48.3166" lon="-3.18414">
        <ele>131</ele>
        <time>2013-11-17T08:46:18.1Z</time>
      </trkpt>
      <trkpt lat="48.31659" lon="-3.18413">
        <ele>132</ele>
        <time>2013-11-17T08:46:20.1Z</time>
      </trkpt>
      <trkpt lat="48.31657" lon="-3.18412">
        <ele>132</ele>
        <time>2013-11-17T08:46:23.1Z</time>
      </trkpt>
      <trkpt lat="48.31653" lon="-3.1841">
        <ele>133</ele>
        <time>2013-11-17T08:46:26.1Z</time>
      </trkpt>
      <trkpt lat="48.31651" lon="-3.18408">
        <ele>133</ele>
        <time>2013-11-17T08:46:28.1Z</time>
      </trkpt>
      <trkpt lat="48.31647" lon="-3.18407">
        <ele>133</ele>
        <time>2013-11-17T08:46:31.1Z</time>
      </trkpt>
      <trkpt lat="48.31646" lon="-3.18407">
        <ele>133</ele>
        <time>2013-11-17T08:46:33.1Z</time>
      </trkpt>
      <trkpt lat="48.31644" lon="-3.18406">
        <ele>134</ele>
        <time>2013-11-17T08:46:36.1Z</time>
      </trkpt>
      <trkpt lat="48.31644" lon="-3.18404">
        <ele>134</ele>
        <time>2013-11-17T08:46:39.1Z</time>
      </trkpt>
      <trkpt lat="48.31643" lon="-3.18404">
        <ele>134</ele>
        <time>2013-11-17T08:46:42.1Z</time>
      </trkpt>
      <trkpt lat="48.31643" lon="-3.18403">
        <ele>133</ele>
        <time>2013-11-17T08:46:44.1Z</time>
      </trkpt>
      <trkpt lat="48.31641" lon="-3.18403">
        <ele>133</ele>
        <time>2013-11-17T08:46:46.1Z</time>
      </trkpt>
      <trkpt lat="48.31639" lon="-3.18401">
        <ele>133</ele>
        <time>2013-11-17T08:46:49.1Z</time>
      </trkpt>
      <trkpt lat="48.31638" lon="-3.18399">
        <ele>133</ele>
        <time>2013-11-17T08:46:52.1Z</time>
      </trkpt>
      <trkpt lat="48.31636" lon="-3.18398">
        <ele>133</ele>
        <time>2013-11-17T08:46:54.1Z</time>
      </trkpt>
      <trkpt lat="48.31635" lon="-3.18398">
        <ele>133</ele>
        <time>2013-11-17T08:46:57.1Z</time>
      </trkpt>
      <trkpt lat="48.31633" lon="-3.184">
        <ele>133</ele>
        <time>2013-11-17T08:46:59.1Z</time>
      </trkpt>
      <trkpt lat="48.31633" lon="-3.18401">
        <ele>134</ele>
        <time>2013-11-17T08:47:02.1Z</time>
      </trkpt>
      <trkpt lat="48.31631" lon="-3.18403">
        <ele>134</ele>
        <time>2013-11-17T08:47:05.1Z</time>
      </trkpt>
      <trkpt lat="48.3163" lon="-3.18404">
        <ele>135</ele>
        <time>2013-11-17T08:47:07.1Z</time>
      </trkpt>
      <trkpt lat="48.31629" lon="-3.18407">
        <ele>135</ele>
        <time>2013-11-17T08:47:10.1Z</time>
      </trkpt>
      <trkpt lat="48.31629" lon="-3.18409">
        <ele>136</ele>
        <time>2013-11-17T08:47:12.1Z</time>
      </trkpt>
      <trkpt lat="48.31628" lon="-3.18412">
        <ele>136</ele>
        <time>2013-11-17T08:47:15.1Z</time>
      </trkpt>
      <trkpt lat="48.31628" lon="-3.18413">
        <ele>136</ele>
        <time>2013-11-17T08:47:17.1Z</time>
      </trkpt>
      <trkpt lat="48.31628" lon="-3.18417">
        <ele>136</ele>
        <time>2013-11-17T08:47:20.1Z</time>
      </trkpt>
      <trkpt lat="48.31629" lon="-3.18421">
        <ele>136</ele>
        <time>2013-11-17T08:47:23.1Z</time>
      </trkpt>
      <trkpt lat="48.31629" lon="-3.18423">
        <ele>136</ele>
        <time>2013-11-17T08:47:25.1Z</time>
      </trkpt>
      <trkpt lat="48.3163" lon="-3.18426">
        <ele>136</ele>
        <time>2013-11-17T08:47:28.1Z</time>
      </trkpt>
      <trkpt lat="48.31631" lon="-3.18429">
        <ele>136</ele>
        <time>2013-11-17T08:47:30.1Z</time>
      </trkpt>
      <trkpt lat="48.31631" lon="-3.1843">
        <ele>136</ele>
        <time>2013-11-17T08:47:32.1Z</time>
      </trkpt>
      <trkpt lat="48.31633" lon="-3.18434">
        <ele>136</ele>
        <time>2013-11-17T08:47:35.1Z</time>
      </trkpt>
      <trkpt lat="48.31633" lon="-3.18435">
        <ele>136</ele>
        <time>2013-11-17T08:47:37.1Z</time>
      </trkpt>
      <trkpt lat="48.31635" lon="-3.18438">
        <ele>137</ele>
        <time>2013-11-17T08:47:40.1Z</time>
      </trkpt>
      <trkpt lat="48.31636" lon="-3.18441">
        <ele>137</ele>
        <time>2013-11-17T08:47:42.1Z</time>
      </trkpt>
      <trkpt lat="48.31638" lon="-3.18445">
        <ele>137</ele>
        <time>2013-11-17T08:47:45.1Z</time>
      </trkpt>
      <trkpt lat="48.31641" lon="-3.18448">
        <ele>137</ele>
        <time>2013-11-17T08:47:48.1Z</time>
      </trkpt>
      <trkpt lat="48.31643" lon="-3.1845">
        <ele>138</ele>
        <time>2013-11-17T08:47:50.1Z</time>
      </trkpt>
      <trkpt lat="48.31644" lon="-3.18453">
        <ele>138</ele>
        <time>2013-11-17T08:47:53.1Z</time>
      </trkpt>
      <trkpt lat="48.31645" lon="-3.18456">
        <ele>138</ele>
        <time>2013-11-17T08:47:55.1Z</time>
      </trkpt>
      <trkpt lat="48.31645" lon="-3.1846">
        <ele>138</ele>
        <time>2013-11-17T08:47:58.1Z</time>
      </trkpt>
      <trkpt lat="48.31646" lon="-3.18462">
        <ele>138</ele>
        <time>2013-11-17T08:48:00.1Z</time>
      </trkpt>
      <trkpt lat="48.31647" lon="-3.18466">
        <ele>138</ele>
        <time>2013-11-17T08:48:03.1Z</time>
      </trkpt>
      <trkpt lat="48.3165" lon="-3.18469">
        <ele>138</ele>
        <time>2013-11-17T08:48:06.1Z</time>
      </trkpt>
      <trkpt lat="48.31652" lon="-3.18472">
        <ele>138</ele>
        <time>2013-11-17T08:48:09.1Z</time>
      </trkpt>
      <trkpt lat="48.31653" lon="-3.18474">
        <ele>139</ele>
        <time>2013-11-17T08:48:12.1Z</time>
      </trkpt>
      <trkpt lat="48.31653" lon="-3.18477">
        <ele>139</ele>
        <time>2013-11-17T08:48:14.1Z</time>
      </trkpt>
      <trkpt lat="48.31655" lon="-3.18479">
        <ele>139</ele>
        <time>2013-11-17T08:48:17.1Z</time>
      </trkpt>
      <trkpt lat="48.31656" lon="-3.18481">
        <ele>140</ele>
        <time>2013-11-17T08:48:19.1Z</time>
      </trkpt>
      <trkpt lat="48.31657" lon="-3.18486">
        <ele>140</ele>
        <time>2013-11-17T08:48:22.1Z</time>
      </trkpt>
      <trkpt lat="48.31657" lon="-3.18489">
        <ele>141</ele>
        <time>2013-11-17T08:48:24.1Z</time>
      </trkpt>
      <trkpt lat="48.31658" lon="-3.18494">
        <ele>141</ele>
        <time>2013-11-17T08:48:27.1Z</time>
      </trkpt>
      <trkpt lat="48.31659" lon="-3.18497">
        <ele>141</ele>
        <time>2013-11-17T08:48:30.1Z</time>
      </trkpt>
      <trkpt lat="48.31659" lon="-3.18502">
        <ele>142</ele>
        <time>2013-11-17T08:48:33.1Z</time>
      </trkpt>
      <trkpt lat="48.3166" lon="-3.18508">
        <ele>142</ele>
        <time>2013-11-17T08:48:36.1Z</time>
      </trkpt>
      <trkpt lat="48.3166" lon="-3.1851">
        <ele>142</ele>
        <time>2013-11-17T08:48:38.1Z</time>
      </trkpt>
      <trkpt lat="48.31662" lon="-3.18514">
        <ele>142</ele>
        <time>2013-11-17T08:48:41.1Z</time>
      </trkpt>
      <trkpt lat="48.31662" lon="-3.18517">
        <ele>141</ele>
        <time>2013-11-17T08:48:43.1Z</time>
      </trkpt>
      <trkpt lat="48.31663" lon="-3.18519">
        <ele>141</ele>
        <time>2013-11-17T08:48:46.1Z</time>
      </trkpt>
      <trkpt lat="48.31664" lon="-3.18521">
        <ele>141</ele>
        <time>2013-11-17T08:48:49.1Z</time>
      </trkpt>
      <trkpt lat="48.31665" lon="-3.18523">
        <ele>141</ele>
        <time>2013-11-17T08:48:51.1Z</time>
      </trkpt>
      <trkpt lat="48.31665" lon="-3.18526">
        <ele>141</ele>
        <time>2013-11-17T08:48:54.1Z</time>
      </trkpt>
      <trkpt lat="48.31665" lon="-3.18529">
        <ele>140</ele>
        <time>2013-11-17T08:48:57.1Z</time>
      </trkpt>
      <trkpt lat="48.31665" lon="-3.18531">
        <ele>140</ele>
        <time>2013-11-17T08:48:59.1Z</time>
      </trkpt>
      <trkpt lat="48.31665" lon="-3.18533">
        <ele>139</ele>
        <time>2013-11-17T08:49:01.1Z</time>
      </trkpt>
      <trkpt lat="48.31665" lon="-3.18536">
        <ele>139</ele>
        <time>2013-11-17T08:49:03.1Z</time>
      </trkpt>
      <trkpt lat="48.31665" lon="-3.1854">
        <ele>139</ele>
        <time>2013-11-17T08:49:06.1Z</time>
      </trkpt>
      <trkpt lat="48.31664" lon="-3.18544">
        <ele>138</ele>
        <time>2013-11-17T08:49:09.1Z</time>
      </trkpt>
      <trkpt lat="48.31665" lon="-3.18547">
        <ele>138</ele>
        <time>2013-11-17T08:49:12.1Z</time>
      </trkpt>
      <trkpt lat="48.31665" lon="-3.1855">
        <ele>138</ele>
        <time>2013-11-17T08:49:14.1Z</time>
      </trkpt>
      <trkpt lat="48.31666" lon="-3.18555">
        <ele>138</ele>
        <time>2013-11-17T08:49:17.1Z</time>
      </trkpt>
      <trkpt lat="48.31666" lon="-3.18558">
        <ele>138</ele>
        <time>2013-11-17T08:49:19.1Z</time>
      </trkpt>
      <trkpt lat="48.31667" lon="-3.18562">
        <ele>138</ele>
        <time>2013-11-17T08:49:22.1Z</time>
      </trkpt>
      <trkpt lat="48.31667" lon="-3.18563">
        <ele>138</ele>
        <time>2013-11-17T08:49:24.1Z</time>
      </trkpt>
      <trkpt lat="48.31665" lon="-3.18565">
        <ele>138</ele>
        <time>2013-11-17T08:49:27.1Z</time>
      </trkpt>
      <trkpt lat="48.31664" lon="-3.18567">
        <ele>138</ele>
        <time>2013-11-17T08:49:29.1Z</time>
      </trkpt>
      <trkpt lat="48.31663" lon="-3.18569">
        <ele>139</ele>
        <time>2013-11-17T08:49:32.1Z</time>
      </trkpt>
      <trkpt lat="48.31662" lon="-3.1857">
        <ele>139</ele>
        <time>2013-11-17T08:49:34.1Z</time>
      </trkpt>
      <trkpt lat="48.31662" lon="-3.18573">
        <ele>139</ele>
        <time>2013-11-17T08:49:37.1Z</time>
      </trkpt>
      <trkpt lat="48.31661" lon="-3.18576">
        <ele>140</ele>
        <time>2013-11-17T08:49:39.1Z</time>
      </trkpt>
      <trkpt lat="48.3166" lon="-3.18579">
        <ele>140</ele>
        <time>2013-11-17T08:49:42.1Z</time>
      </trkpt>
      <trkpt lat="48.31658" lon="-3.18582">
        <ele>140</ele>
        <time>2013-11-17T08:49:45.1Z</time>
      </trkpt>
      <trkpt lat="48.31658" lon="-3.18583">
        <ele>141</ele>
        <time>2013-11-17T08:49:47.1Z</time>
      </trkpt>
      <trkpt lat="48.31658" lon="-3.18586">
        <ele>141</ele>
        <time>2013-11-17T08:49:49.1Z</time>
      </trkpt>
      <trkpt lat="48.31657" lon="-3.1859">
        <ele>142</ele>
        <time>2013-11-17T08:49:52.1Z</time>
      </trkpt>
      <trkpt lat="48.31657" lon="-3.18593">
        <ele>142</ele>
        <time>2013-11-17T08:49:54.1Z</time>
      </trkpt>
      <trkpt lat="48.31656" lon="-3.18596">
        <ele>142</ele>
        <time>2013-11-17T08:49:56.1Z</time>
      </trkpt>
      <trkpt lat="48.31655" lon="-3.18599">
        <ele>143</ele>
        <time>2013-11-17T08:49:59.1Z</time>
      </trkpt>
      <trkpt lat="48.31654" lon="-3.18601">
        <ele>143</ele>
        <time>2013-11-17T08:50:01.1Z</time>
      </trkpt>
      <trkpt lat="48.31652" lon="-3.18605">
        <ele>143</ele>
        <time>2013-11-17T08:50:04.1Z</time>
      </trkpt>
      <trkpt lat="48.31653" lon="-3.18606">
        <ele>143</ele>
        <time>2013-11-17T08:50:06.1Z</time>
      </trkpt>
      <trkpt lat="48.31653" lon="-3.18605">
        <ele>143</ele>
        <time>2013-11-17T08:50:09.1Z</time>
      </trkpt>
      <trkpt lat="48.31652" lon="-3.18605">
        <ele>143</ele>
        <time>2013-11-17T08:50:11.1Z</time>
      </trkpt>
      <trkpt lat="48.31652" lon="-3.18605">
        <ele>144</ele>
        <time>2013-11-17T08:50:14.1Z</time>
      </trkpt>
      <trkpt lat="48.31652" lon="-3.18605">
        <ele>144</ele>
        <time>2013-11-17T08:50:16.1Z</time>
      </trkpt>
      <trkpt lat="48.31652" lon="-3.18605">
        <ele>144</ele>
        <time>2013-11-17T08:50:19.1Z</time>
      </trkpt>
      <trkpt lat="48.31653" lon="-3.18604">
        <ele>144</ele>
        <time>2013-11-17T08:50:21.1Z</time>
      </trkpt>
      <trkpt lat="48.31652" lon="-3.18605">
        <ele>144</ele>
        <time>2013-11-17T08:50:24.1Z</time>
      </trkpt>
      <trkpt lat="48.31651" lon="-3.18606">
        <ele>144</ele>
        <time>2013-11-17T08:50:27.1Z</time>
      </trkpt>
      <trkpt lat="48.3165" lon="-3.18608">
        <ele>144</ele>
        <time>2013-11-17T08:50:29.1Z</time>
      </trkpt>
      <trkpt lat="48.31649" lon="-3.1861">
        <ele>144</ele>
        <time>2013-11-17T08:50:32.1Z</time>
      </trkpt>
      <trkpt lat="48.31647" lon="-3.18613">
        <ele>144</ele>
        <time>2013-11-17T08:50:35.1Z</time>
      </trkpt>
      <trkpt lat="48.31646" lon="-3.18615">
        <ele>145</ele>
        <time>2013-11-17T08:50:37.1Z</time>
      </trkpt>
      <trkpt lat="48.31643" lon="-3.18618">
        <ele>145</ele>
        <time>2013-11-17T08:50:40.1Z</time>
      </trkpt>
      <trkpt lat="48.31641" lon="-3.18621">
        <ele>145</ele>
        <time>2013-11-17T08:50:43.1Z</time>
      </trkpt>
      <trkpt lat="48.31641" lon="-3.18624">
        <ele>146</ele>
        <time>2013-11-17T08:50:45.1Z</time>
      </trkpt>
      <trkpt lat="48.31639" lon="-3.18627">
        <ele>146</ele>
        <time>2013-11-17T08:50:47.1Z</time>
      </trkpt>
      <trkpt lat="48.31639" lon="-3.18631">
        <ele>146</ele>
        <time>2013-11-17T08:50:50.1Z</time>
      </trkpt>
      <trkpt lat="48.31639" lon="-3.18633">
        <ele>147</ele>
        <time>2013-11-17T08:50:52.1Z</time>
      </trkpt>
      <trkpt lat="48.31639" lon="-3.18636">
        <ele>147</ele>
        <time>2013-11-17T08:50:55.1Z</time>
      </trkpt>
      <trkpt lat="48.31639" lon="-3.18638">
        <ele>147</ele>
        <time>2013-11-17T08:50:57.1Z</time>
      </trkpt>
      <trkpt lat="48.31639" lon="-3.1864">
        <ele>147</ele>
        <time>2013-11-17T08:50:59.1Z</time>
      </trkpt>
      <trkpt lat="48.31637" lon="-3.18643">
        <ele>147</ele>
        <time>2013-11-17T08:51:02.1Z</time>
      </trkpt>
      <trkpt lat="48.31636" lon="-3.18647">
        <ele>148</ele>
        <time>2013-11-17T08:51:05.1Z</time>
      </trkpt>
      <trkpt lat="48.31634" lon="-3.1865">
        <ele>148</ele>
        <time>2013-11-17T08:51:08.1Z</time>
      </trkpt>
      <trkpt lat="48.31633" lon="-3.18652">
        <ele>148</ele>
        <time>2013-11-17T08:51:10.1Z</time>
      </trkpt>
      <trkpt lat="48.31632" lon="-3.18654">
        <ele>148</ele>
        <time>2013-11-17T08:51:13.1Z</time>
      </trkpt>
      <trkpt lat="48.3163" lon="-3.18656">
        <ele>148</ele>
        <time>2013-11-17T08:51:15.1Z</time>
      </trkpt>
      <trkpt lat="48.31628" lon="-3.18659">
        <ele>148</ele>
        <time>2013-11-17T08:51:18.1Z</time>
      </trkpt>
      <trkpt lat="48.31628" lon="-3.18661">
        <ele>149</ele>
        <time>2013-11-17T08:51:20.1Z</time>
      </trkpt>
      <trkpt lat="48.31626" lon="-3.18663">
        <ele>149</ele>
        <time>2013-11-17T08:51:23.1Z</time>
      </trkpt>
      <trkpt lat="48.31625" lon="-3.18666">
        <ele>149</ele>
        <time>2013-11-17T08:51:26.1Z</time>
      </trkpt>
      <trkpt lat="48.31623" lon="-3.18668">
        <ele>149</ele>
        <time>2013-11-17T08:51:28.1Z</time>
      </trkpt>
      <trkpt lat="48.31621" lon="-3.18671">
        <ele>149</ele>
        <time>2013-11-17T08:51:31.1Z</time>
      </trkpt>
      <trkpt lat="48.31619" lon="-3.18675">
        <ele>150</ele>
        <time>2013-11-17T08:51:34.1Z</time>
      </trkpt>
      <trkpt lat="48.31619" lon="-3.18677">
        <ele>150</ele>
        <time>2013-11-17T08:51:36.1Z</time>
      </trkpt>
      <trkpt lat="48.31617" lon="-3.18681">
        <ele>150</ele>
        <time>2013-11-17T08:51:39.1Z</time>
      </trkpt>
      <trkpt lat="48.31616" lon="-3.18683">
        <ele>151</ele>
        <time>2013-11-17T08:51:41.1Z</time>
      </trkpt>
      <trkpt lat="48.31613" lon="-3.18687">
        <ele>151</ele>
        <time>2013-11-17T08:51:44.1Z</time>
      </trkpt>
      <trkpt lat="48.31611" lon="-3.18689">
        <ele>151</ele>
        <time>2013-11-17T08:51:46.1Z</time>
      </trkpt>
      <trkpt lat="48.31608" lon="-3.18692">
        <ele>151</ele>
        <time>2013-11-17T08:51:49.1Z</time>
      </trkpt>
      <trkpt lat="48.31606" lon="-3.18695">
        <ele>151</ele>
        <time>2013-11-17T08:51:52.1Z</time>
      </trkpt>
      <trkpt lat="48.31604" lon="-3.18697">
        <ele>151</ele>
        <time>2013-11-17T08:51:54.1Z</time>
      </trkpt>
      <trkpt lat="48.31602" lon="-3.187">
        <ele>151</ele>
        <time>2013-11-17T08:51:57.1Z</time>
      </trkpt>
      <trkpt lat="48.31601" lon="-3.18704">
        <ele>151</ele>
        <time>2013-11-17T08:52:00.1Z</time>
      </trkpt>
      <trkpt lat="48.316" lon="-3.18706">
        <ele>151</ele>
        <time>2013-11-17T08:52:02.1Z</time>
      </trkpt>
      <trkpt lat="48.31599" lon="-3.18708">
        <ele>152</ele>
        <time>2013-11-17T08:52:04.1Z</time>
      </trkpt>
      <trkpt lat="48.31598" lon="-3.1871">
        <ele>152</ele>
        <time>2013-11-17T08:52:07.1Z</time>
      </trkpt>
      <trkpt lat="48.31597" lon="-3.18712">
        <ele>152</ele>
        <time>2013-11-17T08:52:10.1Z</time>
      </trkpt>
      <trkpt lat="48.31596" lon="-3.18715">
        <ele>152</ele>
        <time>2013-11-17T08:52:13.1Z</time>
      </trkpt>
      <trkpt lat="48.31595" lon="-3.18716">
        <ele>152</ele>
        <time>2013-11-17T08:52:15.1Z</time>
      </trkpt>
      <trkpt lat="48.31592" lon="-3.1872">
        <ele>153</ele>
        <time>2013-11-17T08:52:18.1Z</time>
      </trkpt>
      <trkpt lat="48.31591" lon="-3.18723">
        <ele>153</ele>
        <time>2013-11-17T08:52:21.1Z</time>
      </trkpt>
      <trkpt lat="48.31591" lon="-3.18726">
        <ele>153</ele>
        <time>2013-11-17T08:52:24.1Z</time>
      </trkpt>
      <trkpt lat="48.31591" lon="-3.18727">
        <ele>153</ele>
        <time>2013-11-17T08:52:26.1Z</time>
      </trkpt>
      <trkpt lat="48.31591" lon="-3.18729">
        <ele>153</ele>
        <time>2013-11-17T08:52:29.1Z</time>
      </trkpt>
      <trkpt lat="48.3159" lon="-3.18732">
        <ele>153</ele>
        <time>2013-11-17T08:52:32.1Z</time>
      </trkpt>
      <trkpt lat="48.31589" lon="-3.18734">
        <ele>153</ele>
        <time>2013-11-17T08:52:35.1Z</time>
      </trkpt>
      <trkpt lat="48.31588" lon="-3.18736">
        <ele>153</ele>
        <time>2013-11-17T08:52:37.1Z</time>
      </trkpt>
      <trkpt lat="48.31586" lon="-3.1874">
        <ele>153</ele>
        <time>2013-11-17T08:52:40.1Z</time>
      </trkpt>
      <trkpt lat="48.31583" lon="-3.18743">
        <ele>153</ele>
        <time>2013-11-17T08:52:43.1Z</time>
      </trkpt>
      <trkpt lat="48.31581" lon="-3.18746">
        <ele>153</ele>
        <time>2013-11-17T08:52:46.1Z</time>
      </trkpt>
      <trkpt lat="48.31579" lon="-3.18748">
        <ele>154</ele>
        <time>2013-11-17T08:52:48.1Z</time>
      </trkpt>
      <trkpt lat="48.31577" lon="-3.18751">
        <ele>155</ele>
        <time>2013-11-17T08:52:51.1Z</time>
      </trkpt>
      <trkpt lat="48.31577" lon="-3.18752">
        <ele>155</ele>
        <time>2013-11-17T08:52:53.1Z</time>
      </trkpt>
      <trkpt lat="48.31574" lon="-3.18754">
        <ele>155</ele>
        <time>2013-11-17T08:52:56.1Z</time>
      </trkpt>
      <trkpt lat="48.31575" lon="-3.18755">
        <ele>156</ele>
        <time>2013-11-17T08:52:59.1Z</time>
      </trkpt>
      <trkpt lat="48.31575" lon="-3.18756">
        <ele>156</ele>
        <time>2013-11-17T08:53:01.1Z</time>
      </trkpt>
      <trkpt lat="48.31576" lon="-3.18757">
        <ele>156</ele>
        <time>2013-11-17T08:53:04.1Z</time>
      </trkpt>
      <trkpt lat="48.31578" lon="-3.18759">
        <ele>156</ele>
        <time>2013-11-17T08:53:07.1Z</time>
      </trkpt>
      <trkpt lat="48.31577" lon="-3.18761">
        <ele>156</ele>
        <time>2013-11-17T08:53:10.1Z</time>
      </trkpt>
      <trkpt lat="48.31575" lon="-3.18764">
        <ele>156</ele>
        <time>2013-11-17T08:53:13.1Z</time>
      </trkpt>
      <trkpt lat="48.31572" lon="-3.18766">
        <ele>156</ele>
        <time>2013-11-17T08:53:16.1Z</time>
      </trkpt>
      <trkpt lat="48.31571" lon="-3.18767">
        <ele>156</ele>
        <time>2013-11-17T08:53:18.1Z</time>
      </trkpt>
      <trkpt lat="48.31568" lon="-3.1877">
        <ele>156</ele>
        <time>2013-11-17T08:53:21.1Z</time>
      </trkpt>
      <trkpt lat="48.31567" lon="-3.18771">
        <ele>156</ele>
        <time>2013-11-17T08:53:24.1Z</time>
      </trkpt>
      <trkpt lat="48.31566" lon="-3.18772">
        <ele>157</ele>
        <time>2013-11-17T08:53:26.1Z</time>
      </trkpt>
      <trkpt lat="48.31565" lon="-3.18774">
        <ele>157</ele>
        <time>2013-11-17T08:53:29.1Z</time>
      </trkpt>
      <trkpt lat="48.31564" lon="-3.18776">
        <ele>157</ele>
        <time>2013-11-17T08:53:31.1Z</time>
      </trkpt>
      <trkpt lat="48.31562" lon="-3.18779">
        <ele>157</ele>
        <time>2013-11-17T08:53:34.1Z</time>
      </trkpt>
      <trkpt lat="48.3156" lon="-3.1878">
        <ele>156</ele>
        <time>2013-11-17T08:53:37.1Z</time>
      </trkpt>
      <trkpt lat="48.31556" lon="-3.18782">
        <ele>156</ele>
        <time>2013-11-17T08:53:40.1Z</time>
      </trkpt>
      <trkpt lat="48.31554" lon="-3.18783">
        <ele>156</ele>
        <time>2013-11-17T08:53:42.1Z</time>
      </trkpt>
      <trkpt lat="48.31551" lon="-3.18786">
        <ele>156</ele>
        <time>2013-11-17T08:53:45.1Z</time>
      </trkpt>
      <trkpt lat="48.31548" lon="-3.18787">
        <ele>156</ele>
        <time>2013-11-17T08:53:47.1Z</time>
      </trkpt>
      <trkpt lat="48.31546" lon="-3.18789">
        <ele>155</ele>
        <time>2013-11-17T08:53:50.1Z</time>
      </trkpt>
      <trkpt lat="48.31544" lon="-3.18791">
        <ele>155</ele>
        <time>2013-11-17T08:53:52.1Z</time>
      </trkpt>
      <trkpt lat="48.31543" lon="-3.18791">
        <ele>155</ele>
        <time>2013-11-17T08:53:54.1Z</time>
      </trkpt>
      <trkpt lat="48.31541" lon="-3.18792">
        <ele>155</ele>
        <time>2013-11-17T08:53:57.1Z</time>
      </trkpt>
      <trkpt lat="48.3154" lon="-3.18792">
        <ele>155</ele>
        <time>2013-11-17T08:53:59.1Z</time>
      </trkpt>
      <trkpt lat="48.31537" lon="-3.18795">
        <ele>155</ele>
        <time>2013-11-17T08:54:02.1Z</time>
      </trkpt>
      <trkpt lat="48.31536" lon="-3.18796">
        <ele>155</ele>
        <time>2013-11-17T08:54:04.1Z</time>
      </trkpt>
      <trkpt lat="48.31533" lon="-3.18797">
        <ele>156</ele>
        <time>2013-11-17T08:54:06.1Z</time>
      </trkpt>
      <trkpt lat="48.31532" lon="-3.18798">
        <ele>156</ele>
        <time>2013-11-17T08:54:08.1Z</time>
      </trkpt>
      <trkpt lat="48.31529" lon="-3.188">
        <ele>156</ele>
        <time>2013-11-17T08:54:11.1Z</time>
      </trkpt>
      <trkpt lat="48.31527" lon="-3.18802">
        <ele>156</ele>
        <time>2013-11-17T08:54:14.1Z</time>
      </trkpt>
      <trkpt lat="48.31524" lon="-3.18805">
        <ele>156</ele>
        <time>2013-11-17T08:54:17.1Z</time>
      </trkpt>
      <trkpt lat="48.31524" lon="-3.18808">
        <ele>156</ele>
        <time>2013-11-17T08:54:20.1Z</time>
      </trkpt>
      <trkpt lat="48.31523" lon="-3.1881">
        <ele>157</ele>
        <time>2013-11-17T08:54:22.1Z</time>
      </trkpt>
      <trkpt lat="48.31522" lon="-3.18815">
        <ele>157</ele>
        <time>2013-11-17T08:54:25.1Z</time>
      </trkpt>
      <trkpt lat="48.31521" lon="-3.18818">
        <ele>157</ele>
        <time>2013-11-17T08:54:27.1Z</time>
      </trkpt>
      <trkpt lat="48.3152" lon="-3.18823">
        <ele>158</ele>
        <time>2013-11-17T08:54:30.1Z</time>
      </trkpt>
      <trkpt lat="48.31519" lon="-3.18826">
        <ele>158</ele>
        <time>2013-11-17T08:54:32.1Z</time>
      </trkpt>
      <trkpt lat="48.31517" lon="-3.1883">
        <ele>158</ele>
        <time>2013-11-17T08:54:35.1Z</time>
      </trkpt>
      <trkpt lat="48.31515" lon="-3.18833">
        <ele>158</ele>
        <time>2013-11-17T08:54:37.1Z</time>
      </trkpt>
      <trkpt lat="48.31514" lon="-3.18837">
        <ele>158</ele>
        <time>2013-11-17T08:54:40.1Z</time>
      </trkpt>
      <trkpt lat="48.31513" lon="-3.18839">
        <ele>158</ele>
        <time>2013-11-17T08:54:42.1Z</time>
      </trkpt>
      <trkpt lat="48.31512" lon="-3.18843">
        <ele>159</ele>
        <time>2013-11-17T08:54:45.1Z</time>
      </trkpt>
      <trkpt lat="48.31512" lon="-3.18845">
        <ele>159</ele>
        <time>2013-11-17T08:54:47.1Z</time>
      </trkpt>
      <trkpt lat="48.31511" lon="-3.18848">
        <ele>159</ele>
        <time>2013-11-17T08:54:50.1Z</time>
      </trkpt>
      <trkpt lat="48.31511" lon="-3.18851">
        <ele>159</ele>
        <time>2013-11-17T08:54:53.1Z</time>
      </trkpt>
      <trkpt lat="48.31512" lon="-3.18854">
        <ele>158</ele>
        <time>2013-11-17T08:54:56.1Z</time>
      </trkpt>
      <trkpt lat="48.31511" lon="-3.18857">
        <ele>158</ele>
        <time>2013-11-17T08:54:58.1Z</time>
      </trkpt>
      <trkpt lat="48.31511" lon="-3.18861">
        <ele>158</ele>
        <time>2013-11-17T08:55:01.1Z</time>
      </trkpt>
      <trkpt lat="48.31511" lon="-3.18864">
        <ele>158</ele>
        <time>2013-11-17T08:55:03.1Z</time>
      </trkpt>
      <trkpt lat="48.3151" lon="-3.18867">
        <ele>158</ele>
        <time>2013-11-17T08:55:05.1Z</time>
      </trkpt>
      <trkpt lat="48.3151" lon="-3.18872">
        <ele>158</ele>
        <time>2013-11-17T08:55:08.1Z</time>
      </trkpt>
      <trkpt lat="48.31509" lon="-3.18875">
        <ele>158</ele>
        <time>2013-11-17T08:55:10.1Z</time>
      </trkpt>
      <trkpt lat="48.31509" lon="-3.1888">
        <ele>158</ele>
        <time>2013-11-17T08:55:13.1Z</time>
      </trkpt>
      <trkpt lat="48.31509" lon="-3.18882">
        <ele>158</ele>
        <time>2013-11-17T08:55:15.1Z</time>
      </trkpt>
      <trkpt lat="48.3151" lon="-3.18887">
        <ele>158</ele>
        <time>2013-11-17T08:55:18.1Z</time>
      </trkpt>
      <trkpt lat="48.31511" lon="-3.1889">
        <ele>158</ele>
        <time>2013-11-17T08:55:20.1Z</time>
      </trkpt>
      <trkpt lat="48.31512" lon="-3.18896">
        <ele>159</ele>
        <time>2013-11-17T08:55:23.1Z</time>
      </trkpt>
      <trkpt lat="48.31512" lon="-3.189">
        <ele>159</ele>
        <time>2013-11-17T08:55:25.1Z</time>
      </trkpt>
      <trkpt lat="48.31513" lon="-3.18904">
        <ele>158</ele>
        <time>2013-11-17T08:55:27.1Z</time>
      </trkpt>
      <trkpt lat="48.31514" lon="-3.1891">
        <ele>158</ele>
        <time>2013-11-17T08:55:30.1Z</time>
      </trkpt>
      <trkpt lat="48.31515" lon="-3.18913">
        <ele>158</ele>
        <time>2013-11-17T08:55:32.1Z</time>
      </trkpt>
      <trkpt lat="48.31516" lon="-3.18919">
        <ele>159</ele>
        <time>2013-11-17T08:55:35.1Z</time>
      </trkpt>
      <trkpt lat="48.31515" lon="-3.18924">
        <ele>159</ele>
        <time>2013-11-17T08:55:37.1Z</time>
      </trkpt>
      <trkpt lat="48.31515" lon="-3.18928">
        <ele>159</ele>
        <time>2013-11-17T08:55:39.1Z</time>
      </trkpt>
      <trkpt lat="48.31516" lon="-3.18933">
        <ele>159</ele>
        <time>2013-11-17T08:55:42.1Z</time>
      </trkpt>
      <trkpt lat="48.31516" lon="-3.18935">
        <ele>159</ele>
        <time>2013-11-17T08:55:44.1Z</time>
      </trkpt>
      <trkpt lat="48.31517" lon="-3.18937">
        <ele>159</ele>
        <time>2013-11-17T08:55:47.1Z</time>
      </trkpt>
      <trkpt lat="48.31518" lon="-3.18941">
        <ele>159</ele>
        <time>2013-11-17T08:55:50.1Z</time>
      </trkpt>
      <trkpt lat="48.31519" lon="-3.18945">
        <ele>159</ele>
        <time>2013-11-17T08:55:52.1Z</time>
      </trkpt>
      <trkpt lat="48.31522" lon="-3.18948">
        <ele>158</ele>
        <time>2013-11-17T08:55:55.1Z</time>
      </trkpt>
      <trkpt lat="48.31524" lon="-3.18951">
        <ele>159</ele>
        <time>2013-11-17T08:55:57.1Z</time>
      </trkpt>
      <trkpt lat="48.31526" lon="-3.18955">
        <ele>158</ele>
        <time>2013-11-17T08:56:00.1Z</time>
      </trkpt>
      <trkpt lat="48.31526" lon="-3.18958">
        <ele>158</ele>
        <time>2013-11-17T08:56:02.1Z</time>
      </trkpt>
      <trkpt lat="48.31528" lon="-3.1896">
        <ele>158</ele>
        <time>2013-11-17T08:56:04.1Z</time>
      </trkpt>
      <trkpt lat="48.31529" lon="-3.18963">
        <ele>158</ele>
        <time>2013-11-17T08:56:07.1Z</time>
      </trkpt>
      <trkpt lat="48.31529" lon="-3.18967">
        <ele>158</ele>
        <time>2013-11-17T08:56:10.1Z</time>
      </trkpt>
      <trkpt lat="48.3153" lon="-3.18969">
        <ele>159</ele>
        <time>2013-11-17T08:56:12.1Z</time>
      </trkpt>
      <trkpt lat="48.3153" lon="-3.18974">
        <ele>159</ele>
        <time>2013-11-17T08:56:15.1Z</time>
      </trkpt>
      <trkpt lat="48.3153" lon="-3.18978">
        <ele>159</ele>
        <time>2013-11-17T08:56:18.1Z</time>
      </trkpt>
      <trkpt lat="48.31531" lon="-3.18981">
        <ele>159</ele>
        <time>2013-11-17T08:56:21.1Z</time>
      </trkpt>
      <trkpt lat="48.3153" lon="-3.18984">
        <ele>159</ele>
        <time>2013-11-17T08:56:23.1Z</time>
      </trkpt>
      <trkpt lat="48.31531" lon="-3.18987">
        <ele>159</ele>
        <time>2013-11-17T08:56:26.1Z</time>
      </trkpt>
      <trkpt lat="48.3153" lon="-3.1899">
        <ele>159</ele>
        <time>2013-11-17T08:56:28.1Z</time>
      </trkpt>
      <trkpt lat="48.31529" lon="-3.18991">
        <ele>160</ele>
        <time>2013-11-17T08:56:30.1Z</time>
      </trkpt>
      <trkpt lat="48.3153" lon="-3.18993">
        <ele>160</ele>
        <time>2013-11-17T08:56:33.1Z</time>
      </trkpt>
      <trkpt lat="48.31531" lon="-3.18996">
        <ele>161</ele>
        <time>2013-11-17T08:56:36.1Z</time>
      </trkpt>
      <trkpt lat="48.31532" lon="-3.18998">
        <ele>161</ele>
        <time>2013-11-17T08:56:38.1Z</time>
      </trkpt>
      <trkpt lat="48.31531" lon="-3.19001">
        <ele>161</ele>
        <time>2013-11-17T08:56:40.1Z</time>
      </trkpt>
      <trkpt lat="48.3153" lon="-3.19006">
        <ele>160</ele>
        <time>2013-11-17T08:56:43.1Z</time>
      </trkpt>
      <trkpt lat="48.31528" lon="-3.1901">
        <ele>160</ele>
        <time>2013-11-17T08:56:45.1Z</time>
      </trkpt>
      <trkpt lat="48.31526" lon="-3.19016">
        <ele>161</ele>
        <time>2013-11-17T08:56:48.1Z</time>
      </trkpt>
      <trkpt lat="48.31524" lon="-3.19021">
        <ele>161</ele>
        <time>2013-11-17T08:56:51.1Z</time>
      </trkpt>
      <trkpt lat="48.31523" lon="-3.19024">
        <ele>161</ele>
        <time>2013-11-17T08:56:53.1Z</time>
      </trkpt>
      <trkpt lat="48.31522" lon="-3.19027">
        <ele>161</ele>
        <time>2013-11-17T08:56:56.1Z</time>
      </trkpt>
      <trkpt lat="48.31521" lon="-3.19029">
        <ele>160</ele>
        <time>2013-11-17T08:56:58.1Z</time>
      </trkpt>
      <trkpt lat="48.3152" lon="-3.19031">
        <ele>160</ele>
        <time>2013-11-17T08:57:01.1Z</time>
      </trkpt>
      <trkpt lat="48.3152" lon="-3.19033">
        <ele>160</ele>
        <time>2013-11-17T08:57:03.1Z</time>
      </trkpt>
      <trkpt lat="48.31519" lon="-3.19034">
        <ele>160</ele>
        <time>2013-11-17T08:57:05.1Z</time>
      </trkpt>
      <trkpt lat="48.31517" lon="-3.19037">
        <ele>161</ele>
        <time>2013-11-17T08:57:08.1Z</time>
      </trkpt>
      <trkpt lat="48.31515" lon="-3.1904">
        <ele>160</ele>
        <time>2013-11-17T08:57:10.1Z</time>
      </trkpt>
      <trkpt lat="48.31513" lon="-3.19043">
        <ele>161</ele>
        <time>2013-11-17T08:57:13.1Z</time>
      </trkpt>
      <trkpt lat="48.31511" lon="-3.19045">
        <ele>161</ele>
        <time>2013-11-17T08:57:16.1Z</time>
      </trkpt>
      <trkpt lat="48.31509" lon="-3.19047">
        <ele>161</ele>
        <time>2013-11-17T08:57:18.1Z</time>
      </trkpt>
      <trkpt lat="48.31507" lon="-3.19049">
        <ele>161</ele>
        <time>2013-11-17T08:57:20.1Z</time>
      </trkpt>
      <trkpt lat="48.31504" lon="-3.19053">
        <ele>161</ele>
        <time>2013-11-17T08:57:23.1Z</time>
      </trkpt>
      <trkpt lat="48.31502" lon="-3.19056">
        <ele>161</ele>
        <time>2013-11-17T08:57:26.1Z</time>
      </trkpt>
      <trkpt lat="48.315" lon="-3.19058">
        <ele>161</ele>
        <time>2013-11-17T08:57:28.1Z</time>
      </trkpt>
      <trkpt lat="48.31498" lon="-3.19061">
        <ele>161</ele>
        <time>2013-11-17T08:57:31.1Z</time>
      </trkpt>
      <trkpt lat="48.31496" lon="-3.19064">
        <ele>161</ele>
        <time>2013-11-17T08:57:33.1Z</time>
      </trkpt>
      <trkpt lat="48.31495" lon="-3.19068">
        <ele>161</ele>
        <time>2013-11-17T08:57:36.1Z</time>
      </trkpt>
      <trkpt lat="48.31493" lon="-3.19072">
        <ele>161</ele>
        <time>2013-11-17T08:57:39.1Z</time>
      </trkpt>
      <trkpt lat="48.31492" lon="-3.19074">
        <ele>161</ele>
        <time>2013-11-17T08:57:42.1Z</time>
      </trkpt>
      <trkpt lat="48.3149" lon="-3.19078">
        <ele>161</ele>
        <time>2013-11-17T08:57:45.1Z</time>
      </trkpt>
      <trkpt lat="48.31489" lon="-3.1908">
        <ele>162</ele>
        <time>2013-11-17T08:57:47.1Z</time>
      </trkpt>
      <trkpt lat="48.31488" lon="-3.19083">
        <ele>162</ele>
        <time>2013-11-17T08:57:50.1Z</time>
      </trkpt>
      <trkpt lat="48.31488" lon="-3.19086">
        <ele>163</ele>
        <time>2013-11-17T08:57:53.1Z</time>
      </trkpt>
      <trkpt lat="48.31487" lon="-3.1909">
        <ele>162</ele>
        <time>2013-11-17T08:57:56.1Z</time>
      </trkpt>
      <trkpt lat="48.31487" lon="-3.19091">
        <ele>162</ele>
        <time>2013-11-17T08:57:58.1Z</time>
      </trkpt>
      <trkpt lat="48.31485" lon="-3.19093">
        <ele>162</ele>
        <time>2013-11-17T08:58:01.1Z</time>
      </trkpt>
      <trkpt lat="48.31484" lon="-3.19094">
        <ele>162</ele>
        <time>2013-11-17T08:58:03.1Z</time>
      </trkpt>
      <trkpt lat="48.31483" lon="-3.19096">
        <ele>163</ele>
        <time>2013-11-17T08:58:06.1Z</time>
      </trkpt>
      <trkpt lat="48.31483" lon="-3.19096">
        <ele>163</ele>
        <time>2013-11-17T08:58:08.1Z</time>
      </trkpt>
      <trkpt lat="48.31482" lon="-3.19099">
        <ele>163</ele>
        <time>2013-11-17T08:58:10.1Z</time>
      </trkpt>
      <trkpt lat="48.31482" lon="-3.19101">
        <ele>163</ele>
        <time>2013-11-17T08:58:12.1Z</time>
      </trkpt>
      <trkpt lat="48.31481" lon="-3.19105">
        <ele>163</ele>
        <time>2013-11-17T08:58:15.1Z</time>
      </trkpt>
      <trkpt lat="48.3148" lon="-3.19108">
        <ele>164</ele>
        <time>2013-11-17T08:58:17.1Z</time>
      </trkpt>
      <trkpt lat="48.31478" lon="-3.19113">
        <ele>164</ele>
        <time>2013-11-17T08:58:20.1Z</time>
      </trkpt>
      <trkpt lat="48.31477" lon="-3.19118">
        <ele>165</ele>
        <time>2013-11-17T08:58:23.1Z</time>
      </trkpt>
      <trkpt lat="48.31479" lon="-3.19123">
        <ele>165</ele>
        <time>2013-11-17T08:58:26.1Z</time>
      </trkpt>
      <trkpt lat="48.31479" lon="-3.19126">
        <ele>165</ele>
        <time>2013-11-17T08:58:28.1Z</time>
      </trkpt>
      <trkpt lat="48.3148" lon="-3.19131">
        <ele>166</ele>
        <time>2013-11-17T08:58:31.1Z</time>
      </trkpt>
      <trkpt lat="48.31481" lon="-3.19132">
        <ele>166</ele>
        <time>2013-11-17T08:58:33.1Z</time>
      </trkpt>
      <trkpt lat="48.31481" lon="-3.19135">
        <ele>166</ele>
        <time>2013-11-17T08:58:36.1Z</time>
      </trkpt>
      <trkpt lat="48.31482" lon="-3.1914">
        <ele>166</ele>
        <time>2013-11-17T08:58:39.1Z</time>
      </trkpt>
      <trkpt lat="48.31484" lon="-3.19144">
        <ele>166</ele>
        <time>2013-11-17T08:58:42.1Z</time>
      </trkpt>
      <trkpt lat="48.31485" lon="-3.19147">
        <ele>166</ele>
        <time>2013-11-17T08:58:44.1Z</time>
      </trkpt>
      <trkpt lat="48.31485" lon="-3.19153">
        <ele>166</ele>
        <time>2013-11-17T08:58:47.1Z</time>
      </trkpt>
      <trkpt lat="48.31485" lon="-3.19157">
        <ele>166</ele>
        <time>2013-11-17T08:58:49.1Z</time>
      </trkpt>
      <trkpt lat="48.31486" lon="-3.19161">
        <ele>166</ele>
        <time>2013-11-17T08:58:52.1Z</time>
      </trkpt>
      <trkpt lat="48.31485" lon="-3.19163">
        <ele>166</ele>
        <time>2013-11-17T08:58:54.1Z</time>
      </trkpt>
      <trkpt lat="48.31485" lon="-3.19165">
        <ele>167</ele>
        <time>2013-11-17T08:58:56.1Z</time>
      </trkpt>
      <trkpt lat="48.31487" lon="-3.19169">
        <ele>167</ele>
        <time>2013-11-17T08:58:59.1Z</time>
      </trkpt>
      <trkpt lat="48.31489" lon="-3.1917">
        <ele>167</ele>
        <time>2013-11-17T08:59:01.1Z</time>
      </trkpt>
      <trkpt lat="48.3149" lon="-3.19173">
        <ele>168</ele>
        <time>2013-11-17T08:59:04.1Z</time>
      </trkpt>
      <trkpt lat="48.3149" lon="-3.19175">
        <ele>168</ele>
        <time>2013-11-17T08:59:06.1Z</time>
      </trkpt>
      <trkpt lat="48.31491" lon="-3.19179">
        <ele>168</ele>
        <time>2013-11-17T08:59:09.1Z</time>
      </trkpt>
      <trkpt lat="48.31493" lon="-3.19182">
        <ele>168</ele>
        <time>2013-11-17T08:59:12.1Z</time>
      </trkpt>
      <trkpt lat="48.31494" lon="-3.19184">
        <ele>168</ele>
        <time>2013-11-17T08:59:15.1Z</time>
      </trkpt>
      <trkpt lat="48.31496" lon="-3.19185">
        <ele>169</ele>
        <time>2013-11-17T08:59:18.1Z</time>
      </trkpt>
      <trkpt lat="48.31497" lon="-3.19187">
        <ele>169</ele>
        <time>2013-11-17T08:59:20.1Z</time>
      </trkpt>
      <trkpt lat="48.31499" lon="-3.19189">
        <ele>170</ele>
        <time>2013-11-17T08:59:23.1Z</time>
      </trkpt>
      <trkpt lat="48.31499" lon="-3.19192">
        <ele>170</ele>
        <time>2013-11-17T08:59:25.1Z</time>
      </trkpt>
      <trkpt lat="48.315" lon="-3.19194">
        <ele>170</ele>
        <time>2013-11-17T08:59:27.1Z</time>
      </trkpt>
      <trkpt lat="48.31502" lon="-3.19197">
        <ele>171</ele>
        <time>2013-11-17T08:59:30.1Z</time>
      </trkpt>
      <trkpt lat="48.31503" lon="-3.19198">
        <ele>171</ele>
        <time>2013-11-17T08:59:32.1Z</time>
      </trkpt>
      <trkpt lat="48.31503" lon="-3.19202">
        <ele>171</ele>
        <time>2013-11-17T08:59:35.1Z</time>
      </trkpt>
      <trkpt lat="48.31505" lon="-3.19207">
        <ele>172</ele>
        <time>2013-11-17T08:59:38.1Z</time>
      </trkpt>
      <trkpt lat="48.31508" lon="-3.19211">
        <ele>171</ele>
        <time>2013-11-17T08:59:41.1Z</time>
      </trkpt>
      <trkpt lat="48.31511" lon="-3.19214">
        <ele>172</ele>
        <time>2013-11-17T08:59:43.1Z</time>
      </trkpt>
      <trkpt lat="48.31513" lon="-3.19215">
        <ele>172</ele>
        <time>2013-11-17T08:59:45.1Z</time>
      </trkpt>
      <trkpt lat="48.31516" lon="-3.19214">
        <ele>172</ele>
        <time>2013-11-17T08:59:48.1Z</time>
      </trkpt>
      <trkpt lat="48.3152" lon="-3.19216">
        <ele>172</ele>
        <time>2013-11-17T08:59:51.1Z</time>
      </trkpt>
      <trkpt lat="48.31525" lon="-3.19218">
        <ele>172</ele>
        <time>2013-11-17T08:59:54.1Z</time>
      </trkpt>
      <trkpt lat="48.31528" lon="-3.19218">
        <ele>172</ele>
        <time>2013-11-17T08:59:56.1Z</time>
      </trkpt>
      <trkpt lat="48.3153" lon="-3.1922">
        <ele>172</ele>
        <time>2013-11-17T08:59:59.1Z</time>
      </trkpt>
      <trkpt lat="48.31532" lon="-3.19223">
        <ele>172</ele>
        <time>2013-11-17T09:00:01.1Z</time>
      </trkpt>
      <trkpt lat="48.31533" lon="-3.19224">
        <ele>173</ele>
        <time>2013-11-17T09:00:04.1Z</time>
      </trkpt>
      <trkpt lat="48.31533" lon="-3.19225">
        <ele>173</ele>
        <time>2013-11-17T09:00:06.1Z</time>
      </trkpt>
      <trkpt lat="48.31535" lon="-3.19227">
        <ele>173</ele>
        <time>2013-11-17T09:00:08.1Z</time>
      </trkpt>
      <trkpt lat="48.31538" lon="-3.1923">
        <ele>173</ele>
        <time>2013-11-17T09:00:11.1Z</time>
      </trkpt>
      <trkpt lat="48.31538" lon="-3.19233">
        <ele>173</ele>
        <time>2013-11-17T09:00:13.1Z</time>
      </trkpt>
      <trkpt lat="48.31539" lon="-3.19238">
        <ele>173</ele>
        <time>2013-11-17T09:00:16.1Z</time>
      </trkpt>
      <trkpt lat="48.3154" lon="-3.19241">
        <ele>173</ele>
        <time>2013-11-17T09:00:18.1Z</time>
      </trkpt>
      <trkpt lat="48.31541" lon="-3.19243">
        <ele>173</ele>
        <time>2013-11-17T09:00:20.1Z</time>
      </trkpt>
      <trkpt lat="48.31541" lon="-3.19243">
        <ele>173</ele>
        <time>2013-11-17T09:00:23.1Z</time>
      </trkpt>
      <trkpt lat="48.31543" lon="-3.19244">
        <ele>173</ele>
        <time>2013-11-17T09:00:26.1Z</time>
      </trkpt>
      <trkpt lat="48.31543" lon="-3.19247">
        <ele>174</ele>
        <time>2013-11-17T09:00:28.1Z</time>
      </trkpt>
      <trkpt lat="48.31545" lon="-3.19251">
        <ele>173</ele>
        <time>2013-11-17T09:00:31.1Z</time>
      </trkpt>
      <trkpt lat="48.31546" lon="-3.19256">
        <ele>173</ele>
        <time>2013-11-17T09:00:34.1Z</time>
      </trkpt>
      <trkpt lat="48.31546" lon="-3.19261">
        <ele>173</ele>
        <time>2013-11-17T09:00:37.1Z</time>
      </trkpt>
      <trkpt lat="48.31546" lon="-3.19266">
        <ele>173</ele>
        <time>2013-11-17T09:00:40.1Z</time>
      </trkpt>
      <trkpt lat="48.31546" lon="-3.19271">
        <ele>173</ele>
        <time>2013-11-17T09:00:43.1Z</time>
      </trkpt>
      <trkpt lat="48.31547" lon="-3.19274">
        <ele>173</ele>
        <time>2013-11-17T09:00:45.1Z</time>
      </trkpt>
      <trkpt lat="48.31548" lon="-3.19278">
        <ele>174</ele>
        <time>2013-11-17T09:00:47.1Z</time>
      </trkpt>
      <trkpt lat="48.31549" lon="-3.19282">
        <ele>173</ele>
        <time>2013-11-17T09:00:50.1Z</time>
      </trkpt>
      <trkpt lat="48.31551" lon="-3.19284">
        <ele>173</ele>
        <time>2013-11-17T09:00:52.1Z</time>
      </trkpt>
      <trkpt lat="48.31553" lon="-3.19288">
        <ele>173</ele>
        <time>2013-11-17T09:00:55.1Z</time>
      </trkpt>
      <trkpt lat="48.31554" lon="-3.1929">
        <ele>173</ele>
        <time>2013-11-17T09:00:57.1Z</time>
      </trkpt>
      <trkpt lat="48.31556" lon="-3.19293">
        <ele>173</ele>
        <time>2013-11-17T09:01:00.1Z</time>
      </trkpt>
      <trkpt lat="48.31559" lon="-3.19296">
        <ele>173</ele>
        <time>2013-11-17T09:01:03.1Z</time>
      </trkpt>
      <trkpt lat="48.31562" lon="-3.19298">
        <ele>173</ele>
        <time>2013-11-17T09:01:06.1Z</time>
      </trkpt>
      <trkpt lat="48.31564" lon="-3.19302">
        <ele>173</ele>
        <time>2013-11-17T09:01:09.1Z</time>
      </trkpt>
      <trkpt lat="48.31566" lon="-3.19304">
        <ele>173</ele>
        <time>2013-11-17T09:01:12.1Z</time>
      </trkpt>
      <trkpt lat="48.31567" lon="-3.19306">
        <ele>173</ele>
        <time>2013-11-17T09:01:14.1Z</time>
      </trkpt>
      <trkpt lat="48.31566" lon="-3.19307">
        <ele>173</ele>
        <time>2013-11-17T09:01:17.1Z</time>
      </trkpt>
      <trkpt lat="48.31566" lon="-3.19306">
        <ele>173</ele>
        <time>2013-11-17T09:01:20.1Z</time>
      </trkpt>
      <trkpt lat="48.31567" lon="-3.19306">
        <ele>173</ele>
        <time>2013-11-17T09:01:22.1Z</time>
      </trkpt>
      <trkpt lat="48.31567" lon="-3.19306">
        <ele>173</ele>
        <time>2013-11-17T09:01:25.1Z</time>
      </trkpt>
      <trkpt lat="48.31569" lon="-3.19306">
        <ele>173</ele>
        <time>2013-11-17T09:01:28.1Z</time>
      </trkpt>
      <trkpt lat="48.3157" lon="-3.19306">
        <ele>173</ele>
        <time>2013-11-17T09:01:31.1Z</time>
      </trkpt>
      <trkpt lat="48.3157" lon="-3.19306">
        <ele>172</ele>
        <time>2013-11-17T09:01:33.1Z</time>
      </trkpt>
      <trkpt lat="48.3157" lon="-3.19306">
        <ele>172</ele>
        <time>2013-11-17T09:01:36.1Z</time>
      </trkpt>
      <trkpt lat="48.31571" lon="-3.19306">
        <ele>172</ele>
        <time>2013-11-17T09:01:38.1Z</time>
      </trkpt>
      <trkpt lat="48.31571" lon="-3.19306">
        <ele>172</ele>
        <time>2013-11-17T09:01:41.1Z</time>
      </trkpt>
      <trkpt lat="48.31572" lon="-3.19306">
        <ele>172</ele>
        <time>2013-11-17T09:01:44.1Z</time>
      </trkpt>
      <trkpt lat="48.31572" lon="-3.19306">
        <ele>173</ele>
        <time>2013-11-17T09:01:46.1Z</time>
      </trkpt>
      <trkpt lat="48.31572" lon="-3.19306">
        <ele>173</ele>
        <time>2013-11-17T09:01:49.1Z</time>
      </trkpt>
      <trkpt lat="48.31572" lon="-3.19306">
        <ele>173</ele>
        <time>2013-11-17T09:01:51.1Z</time>
      </trkpt>
      <trkpt lat="48.31573" lon="-3.19306">
        <ele>173</ele>
        <time>2013-11-17T09:01:54.1Z</time>
      </trkpt>
      <trkpt lat="48.31573" lon="-3.19307">
        <ele>173</ele>
        <time>2013-11-17T09:01:57.1Z</time>
      </trkpt>
      <trkpt lat="48.31574" lon="-3.19308">
        <ele>173</ele>
        <time>2013-11-17T09:01:59.1Z</time>
      </trkpt>
      <trkpt lat="48.31574" lon="-3.19307">
        <ele>173</ele>
        <time>2013-11-17T09:02:02.1Z</time>
      </trkpt>
      <trkpt lat="48.31574" lon="-3.19308">
        <ele>173</ele>
        <time>2013-11-17T09:02:04.1Z</time>
      </trkpt>
      <trkpt lat="48.31573" lon="-3.19313">
        <ele>173</ele>
        <time>2013-11-17T09:02:07.1Z</time>
      </trkpt>
      <trkpt lat="48.31574" lon="-3.19314">
        <ele>173</ele>
        <time>2013-11-17T09:02:09.1Z</time>
      </trkpt>
      <trkpt lat="48.31575" lon="-3.19314">
        <ele>172</ele>
        <time>2013-11-17T09:02:12.1Z</time>
      </trkpt>
      <trkpt lat="48.31575" lon="-3.19313">
        <ele>172</ele>
        <time>2013-11-17T09:02:14.1Z</time>
      </trkpt>
      <trkpt lat="48.31577" lon="-3.19312">
        <ele>172</ele>
        <time>2013-11-17T09:02:17.1Z</time>
      </trkpt>
      <trkpt lat="48.3158" lon="-3.1931">
        <ele>172</ele>
        <time>2013-11-17T09:02:20.1Z</time>
      </trkpt>
      <trkpt lat="48.31582" lon="-3.19307">
        <ele>172</ele>
        <time>2013-11-17T09:02:23.1Z</time>
      </trkpt>
      <trkpt lat="48.31583" lon="-3.19305">
        <ele>172</ele>
        <time>2013-11-17T09:02:25.1Z</time>
      </trkpt>
      <trkpt lat="48.31587" lon="-3.19303">
        <ele>172</ele>
        <time>2013-11-17T09:02:28.1Z</time>
      </trkpt>
      <trkpt lat="48.31589" lon="-3.193">
        <ele>172</ele>
        <time>2013-11-17T09:02:30.1Z</time>
      </trkpt>
      <trkpt lat="48.31592" lon="-3.19297">
        <ele>172</ele>
        <time>2013-11-17T09:02:33.1Z</time>
      </trkpt>
      <trkpt lat="48.31593" lon="-3.19295">
        <ele>172</ele>
        <time>2013-11-17T09:02:35.1Z</time>
      </trkpt>
      <trkpt lat="48.31597" lon="-3.19293">
        <ele>172</ele>
        <time>2013-11-17T09:02:38.1Z</time>
      </trkpt>
      <trkpt lat="48.31599" lon="-3.19291">
        <ele>172</ele>
        <time>2013-11-17T09:02:40.1Z</time>
      </trkpt>
      <trkpt lat="48.31602" lon="-3.19288">
        <ele>172</ele>
        <time>2013-11-17T09:02:43.1Z</time>
      </trkpt>
      <trkpt lat="48.31604" lon="-3.19286">
        <ele>172</ele>
        <time>2013-11-17T09:02:45.1Z</time>
      </trkpt>
      <trkpt lat="48.31607" lon="-3.19282">
        <ele>171</ele>
        <time>2013-11-17T09:02:48.1Z</time>
      </trkpt>
      <trkpt lat="48.31611" lon="-3.19277">
        <ele>171</ele>
        <time>2013-11-17T09:02:51.1Z</time>
      </trkpt>
      <trkpt lat="48.31612" lon="-3.19273">
        <ele>171</ele>
        <time>2013-11-17T09:02:53.1Z</time>
      </trkpt>
      <trkpt lat="48.31613" lon="-3.1927">
        <ele>171</ele>
        <time>2013-11-17T09:02:55.1Z</time>
      </trkpt>
      <trkpt lat="48.31614" lon="-3.19266">
        <ele>171</ele>
        <time>2013-11-17T09:02:58.1Z</time>
      </trkpt>
      <trkpt lat="48.31615" lon="-3.19262">
        <ele>171</ele>
        <time>2013-11-17T09:03:01.1Z</time>
      </trkpt>
      <trkpt lat="48.31616" lon="-3.19259">
        <ele>171</ele>
        <time>2013-11-17T09:03:03.1Z</time>
      </trkpt>
      <trkpt lat="48.31617" lon="-3.19256">
        <ele>171</ele>
        <time>2013-11-17T09:03:05.1Z</time>
      </trkpt>
      <trkpt lat="48.31617" lon="-3.19252">
        <ele>171</ele>
        <time>2013-11-17T09:03:08.1Z</time>
      </trkpt>
      <trkpt lat="48.31618" lon="-3.19248">
        <ele>171</ele>
        <time>2013-11-17T09:03:11.1Z</time>
      </trkpt>
      <trkpt lat="48.31618" lon="-3.19245">
        <ele>171</ele>
        <time>2013-11-17T09:03:13.1Z</time>
      </trkpt>
      <trkpt lat="48.31618" lon="-3.19241">
        <ele>171</ele>
        <time>2013-11-17T09:03:16.1Z</time>
      </trkpt>
      <trkpt lat="48.31619" lon="-3.19239">
        <ele>171</ele>
        <time>2013-11-17T09:03:18.1Z</time>
      </trkpt>
      <trkpt lat="48.3162" lon="-3.19235">
        <ele>171</ele>
        <time>2013-11-17T09:03:21.1Z</time>
      </trkpt>
      <trkpt lat="48.31622" lon="-3.19231">
        <ele>171</ele>
        <time>2013-11-17T09:03:24.1Z</time>
      </trkpt>
      <trkpt lat="48.31623" lon="-3.19229">
        <ele>171</ele>
        <time>2013-11-17T09:03:26.1Z</time>
      </trkpt>
      <trkpt lat="48.31625" lon="-3.19225">
        <ele>171</ele>
        <time>2013-11-17T09:03:29.1Z</time>
      </trkpt>
      <trkpt lat="48.31627" lon="-3.19222">
        <ele>171</ele>
        <time>2013-11-17T09:03:31.1Z</time>
      </trkpt>
      <trkpt lat="48.31628" lon="-3.19219">
        <ele>170</ele>
        <time>2013-11-17T09:03:33.1Z</time>
      </trkpt>
      <trkpt lat="48.3163" lon="-3.19216">
        <ele>170</ele>
        <time>2013-11-17T09:03:36.1Z</time>
      </trkpt>
      <trkpt lat="48.31633" lon="-3.19212">
        <ele>170</ele>
        <time>2013-11-17T09:03:39.1Z</time>
      </trkpt>
      <trkpt lat="48.31635" lon="-3.19209">
        <ele>170</ele>
        <time>2013-11-17T09:03:41.1Z</time>
      </trkpt>
      <trkpt lat="48.31636" lon="-3.19206">
        <ele>170</ele>
        <time>2013-11-17T09:03:43.1Z</time>
      </trkpt>
      <trkpt lat="48.31639" lon="-3.19202">
        <ele>170</ele>
        <time>2013-11-17T09:03:46.1Z</time>
      </trkpt>
      <trkpt lat="48.31641" lon="-3.19198">
        <ele>170</ele>
        <time>2013-11-17T09:03:49.1Z</time>
      </trkpt>
      <trkpt lat="48.31643" lon="-3.19194">
        <ele>170</ele>
        <time>2013-11-17T09:03:52.1Z</time>
      </trkpt>
      <trkpt lat="48.31646" lon="-3.19189">
        <ele>170</ele>
        <time>2013-11-17T09:03:55.1Z</time>
      </trkpt>
      <trkpt lat="48.31647" lon="-3.19187">
        <ele>170</ele>
        <time>2013-11-17T09:03:57.1Z</time>
      </trkpt>
      <trkpt lat="48.31649" lon="-3.19184">
        <ele>170</ele>
        <time>2013-11-17T09:04:00.1Z</time>
      </trkpt>
      <trkpt lat="48.31651" lon="-3.1918">
        <ele>170</ele>
        <time>2013-11-17T09:04:03.1Z</time>
      </trkpt>
      <trkpt lat="48.31655" lon="-3.19176">
        <ele>170</ele>
        <time>2013-11-17T09:04:06.1Z</time>
      </trkpt>
      <trkpt lat="48.31656" lon="-3.19173">
        <ele>170</ele>
        <time>2013-11-17T09:04:08.1Z</time>
      </trkpt>
      <trkpt lat="48.31659" lon="-3.19169">
        <ele>170</ele>
        <time>2013-11-17T09:04:11.1Z</time>
      </trkpt>
      <trkpt lat="48.31662" lon="-3.19166">
        <ele>170</ele>
        <time>2013-11-17T09:04:14.1Z</time>
      </trkpt>
      <trkpt lat="48.31664" lon="-3.19164">
        <ele>170</ele>
        <time>2013-11-17T09:04:16.1Z</time>
      </trkpt>
      <trkpt lat="48.31667" lon="-3.19161">
        <ele>170</ele>
        <time>2013-11-17T09:04:19.1Z</time>
      </trkpt>
      <trkpt lat="48.31669" lon="-3.19158">
        <ele>169</ele>
        <time>2013-11-17T09:04:21.1Z</time>
      </trkpt>
      <trkpt lat="48.31671" lon="-3.19156">
        <ele>169</ele>
        <time>2013-11-17T09:04:24.1Z</time>
      </trkpt>
      <trkpt lat="48.31673" lon="-3.19154">
        <ele>169</ele>
        <time>2013-11-17T09:04:26.1Z</time>
      </trkpt>
      <trkpt lat="48.31675" lon="-3.1915">
        <ele>170</ele>
        <time>2013-11-17T09:04:29.1Z</time>
      </trkpt>
      <trkpt lat="48.31677" lon="-3.19148">
        <ele>170</ele>
        <time>2013-11-17T09:04:31.1Z</time>
      </trkpt>
      <trkpt lat="48.3168" lon="-3.19145">
        <ele>170</ele>
        <time>2013-11-17T09:04:34.1Z</time>
      </trkpt>
      <trkpt lat="48.31683" lon="-3.19143">
        <ele>170</ele>
        <time>2013-11-17T09:04:36.1Z</time>
      </trkpt>
      <trkpt lat="48.31685" lon="-3.1914">
        <ele>170</ele>
        <time>2013-11-17T09:04:38.1Z</time>
      </trkpt>
      <trkpt lat="48.31688" lon="-3.19137">
        <ele>170</ele>
        <time>2013-11-17T09:04:41.1Z</time>
      </trkpt>
      <trkpt lat="48.31691" lon="-3.19133">
        <ele>170</ele>
        <time>2013-11-17T09:04:43.1Z</time>
      </trkpt>
      <trkpt lat="48.31694" lon="-3.1913">
        <ele>170</ele>
        <time>2013-11-17T09:04:45.1Z</time>
      </trkpt>
      <trkpt lat="48.31698" lon="-3.19125">
        <ele>170</ele>
        <time>2013-11-17T09:04:48.1Z</time>
      </trkpt>
      <trkpt lat="48.31702" lon="-3.19121">
        <ele>170</ele>
        <time>2013-11-17T09:04:50.1Z</time>
      </trkpt>
      <trkpt lat="48.31706" lon="-3.19118">
        <ele>170</ele>
        <time>2013-11-17T09:04:52.1Z</time>
      </trkpt>
      <trkpt lat="48.31712" lon="-3.1911">
        <ele>171</ele>
        <time>2013-11-17T09:04:55.1Z</time>
      </trkpt>
      <trkpt lat="48.31717" lon="-3.19106">
        <ele>171</ele>
        <time>2013-11-17T09:04:57.1Z</time>
      </trkpt>
      <trkpt lat="48.31723" lon="-3.19099">
        <ele>171</ele>
        <time>2013-11-17T09:05:00.1Z</time>
      </trkpt>
      <trkpt lat="48.31729" lon="-3.19093">
        <ele>171</ele>
        <time>2013-11-17T09:05:03.1Z</time>
      </trkpt>
      <trkpt lat="48.31734" lon="-3.19088">
        <ele>172</ele>
        <time>2013-11-17T09:05:06.1Z</time>
      </trkpt>
      <trkpt lat="48.31737" lon="-3.19084">
        <ele>172</ele>
        <time>2013-11-17T09:05:08.1Z</time>
      </trkpt>
      <trkpt lat="48.31741" lon="-3.1908">
        <ele>173</ele>
        <time>2013-11-17T09:05:10.1Z</time>
      </trkpt>
      <trkpt lat="48.31745" lon="-3.19075">
        <ele>173</ele>
        <time>2013-11-17T09:05:13.1Z</time>
      </trkpt>
      <trkpt lat="48.31749" lon="-3.19071">
        <ele>174</ele>
        <time>2013-11-17T09:05:15.1Z</time>
      </trkpt>
      <trkpt lat="48.31755" lon="-3.19065">
        <ele>175</ele>
        <time>2013-11-17T09:05:18.1Z</time>
      </trkpt>
      <trkpt lat="48.31758" lon="-3.19062">
        <ele>175</ele>
        <time>2013-11-17T09:05:21.1Z</time>
      </trkpt>
      <trkpt lat="48.3176" lon="-3.19061">
        <ele>175</ele>
        <time>2013-11-17T09:05:24.1Z</time>
      </trkpt>
      <trkpt lat="48.31762" lon="-3.19059">
        <ele>176</ele>
        <time>2013-11-17T09:05:26.1Z</time>
      </trkpt>
      <trkpt lat="48.31764" lon="-3.19057">
        <ele>176</ele>
        <time>2013-11-17T09:05:28.1Z</time>
      </trkpt>
      <trkpt lat="48.31768" lon="-3.19055">
        <ele>176</ele>
        <time>2013-11-17T09:05:31.1Z</time>
      </trkpt>
      <trkpt lat="48.31773" lon="-3.19051">
        <ele>176</ele>
        <time>2013-11-17T09:05:34.1Z</time>
      </trkpt>
      <trkpt lat="48.31776" lon="-3.19049">
        <ele>176</ele>
        <time>2013-11-17T09:05:36.1Z</time>
      </trkpt>
      <trkpt lat="48.31778" lon="-3.19047">
        <ele>176</ele>
        <time>2013-11-17T09:05:38.1Z</time>
      </trkpt>
      <trkpt lat="48.31782" lon="-3.19043">
        <ele>176</ele>
        <time>2013-11-17T09:05:41.1Z</time>
      </trkpt>
      <trkpt lat="48.31783" lon="-3.19043">
        <ele>176</ele>
        <time>2013-11-17T09:05:44.1Z</time>
      </trkpt>
      <trkpt lat="48.31784" lon="-3.19042">
        <ele>176</ele>
        <time>2013-11-17T09:05:46.1Z</time>
      </trkpt>
      <trkpt lat="48.31787" lon="-3.19041">
        <ele>176</ele>
        <time>2013-11-17T09:05:49.1Z</time>
      </trkpt>
      <trkpt lat="48.31791" lon="-3.19039">
        <ele>176</ele>
        <time>2013-11-17T09:05:52.1Z</time>
      </trkpt>
      <trkpt lat="48.31794" lon="-3.19036">
        <ele>177</ele>
        <time>2013-11-17T09:05:55.1Z</time>
      </trkpt>
      <trkpt lat="48.31794" lon="-3.19036">
        <ele>178</ele>
        <time>2013-11-17T09:05:58.1Z</time>
      </trkpt>
      <trkpt lat="48.31794" lon="-3.19035">
        <ele>178</ele>
        <time>2013-11-17T09:06:00.1Z</time>
      </trkpt>
      <trkpt lat="48.31794" lon="-3.19034">
        <ele>178</ele>
        <time>2013-11-17T09:06:02.1Z</time>
      </trkpt>
      <trkpt lat="48.31794" lon="-3.19033">
        <ele>178</ele>
        <time>2013-11-17T09:06:05.1Z</time>
      </trkpt>
      <trkpt lat="48.31794" lon="-3.19032">
        <ele>178</ele>
        <time>2013-11-17T09:06:08.1Z</time>
      </trkpt>
      <trkpt lat="48.31794" lon="-3.19032">
        <ele>178</ele>
        <time>2013-11-17T09:06:10.1Z</time>
      </trkpt>
      <trkpt lat="48.31793" lon="-3.19032">
        <ele>178</ele>
        <time>2013-11-17T09:06:13.1Z</time>
      </trkpt>
      <trkpt lat="48.31792" lon="-3.19031">
        <ele>177</ele>
        <time>2013-11-17T09:06:15.1Z</time>
      </trkpt>
      <trkpt lat="48.31792" lon="-3.19028">
        <ele>177</ele>
        <time>2013-11-17T09:06:18.1Z</time>
      </trkpt>
      <trkpt lat="48.31795" lon="-3.19026">
        <ele>177</ele>
        <time>2013-11-17T09:06:21.1Z</time>
      </trkpt>
      <trkpt lat="48.31797" lon="-3.19025">
        <ele>177</ele>
        <time>2013-11-17T09:06:23.1Z</time>
      </trkpt>
      <trkpt lat="48.318" lon="-3.19023">
        <ele>177</ele>
        <time>2013-11-17T09:06:26.1Z</time>
      </trkpt>
      <trkpt lat="48.31803" lon="-3.19023">
        <ele>177</ele>
        <time>2013-11-17T09:06:28.1Z</time>
      </trkpt>
      <trkpt lat="48.31806" lon="-3.19022">
        <ele>177</ele>
        <time>2013-11-17T09:06:31.1Z</time>
      </trkpt>
      <trkpt lat="48.31809" lon="-3.19022">
        <ele>177</ele>
        <time>2013-11-17T09:06:34.1Z</time>
      </trkpt>
      <trkpt lat="48.31812" lon="-3.19022">
        <ele>177</ele>
        <time>2013-11-17T09:06:36.1Z</time>
      </trkpt>
      <trkpt lat="48.31815" lon="-3.19023">
        <ele>177</ele>
        <time>2013-11-17T09:06:39.1Z</time>
      </trkpt>
      <trkpt lat="48.31818" lon="-3.19024">
        <ele>177</ele>
        <time>2013-11-17T09:06:42.1Z</time>
      </trkpt>
      <trkpt lat="48.31821" lon="-3.19024">
        <ele>177</ele>
        <time>2013-11-17T09:06:44.1Z</time>
      </trkpt>
      <trkpt lat="48.31823" lon="-3.19026">
        <ele>177</ele>
        <time>2013-11-17T09:06:46.1Z</time>
      </trkpt>
      <trkpt lat="48.31824" lon="-3.19028">
        <ele>177</ele>
        <time>2013-11-17T09:06:48.1Z</time>
      </trkpt>
      <trkpt lat="48.31827" lon="-3.1903">
        <ele>176</ele>
        <time>2013-11-17T09:06:51.1Z</time>
      </trkpt>
      <trkpt lat="48.31829" lon="-3.19033">
        <ele>176</ele>
        <time>2013-11-17T09:06:54.1Z</time>
      </trkpt>
      <trkpt lat="48.31831" lon="-3.19034">
        <ele>176</ele>
        <time>2013-11-17T09:06:56.1Z</time>
      </trkpt>
      <trkpt lat="48.31834" lon="-3.19037">
        <ele>177</ele>
        <time>2013-11-17T09:06:59.1Z</time>
      </trkpt>
      <trkpt lat="48.31837" lon="-3.1904">
        <ele>176</ele>
        <time>2013-11-17T09:07:02.1Z</time>
      </trkpt>
      <trkpt lat="48.31839" lon="-3.19041">
        <ele>176</ele>
        <time>2013-11-17T09:07:04.1Z</time>
      </trkpt>
      <trkpt lat="48.31842" lon="-3.19045">
        <ele>176</ele>
        <time>2013-11-17T09:07:07.1Z</time>
      </trkpt>
      <trkpt lat="48.31844" lon="-3.19046">
        <ele>176</ele>
        <time>2013-11-17T09:07:09.1Z</time>
      </trkpt>
      <trkpt lat="48.31846" lon="-3.19049">
        <ele>176</ele>
        <time>2013-11-17T09:07:12.1Z</time>
      </trkpt>
      <trkpt lat="48.31848" lon="-3.19051">
        <ele>176</ele>
        <time>2013-11-17T09:07:14.1Z</time>
      </trkpt>
      <trkpt lat="48.3185" lon="-3.19055">
        <ele>176</ele>
        <time>2013-11-17T09:07:17.1Z</time>
      </trkpt>
      <trkpt lat="48.31852" lon="-3.19057">
        <ele>176</ele>
        <time>2013-11-17T09:07:20.1Z</time>
      </trkpt>
      <trkpt lat="48.31853" lon="-3.1906">
        <ele>176</ele>
        <time>2013-11-17T09:07:22.1Z</time>
      </trkpt>
      <trkpt lat="48.31854" lon="-3.19062">
        <ele>175</ele>
        <time>2013-11-17T09:07:24.1Z</time>
      </trkpt>
      <trkpt lat="48.31856" lon="-3.19063">
        <ele>175</ele>
        <time>2013-11-17T09:07:26.1Z</time>
      </trkpt>
      <trkpt lat="48.31858" lon="-3.19065">
        <ele>176</ele>
        <time>2013-11-17T09:07:29.1Z</time>
      </trkpt>
      <trkpt lat="48.31862" lon="-3.19067">
        <ele>175</ele>
        <time>2013-11-17T09:07:32.1Z</time>
      </trkpt>
      <trkpt lat="48.31866" lon="-3.1907">
        <ele>175</ele>
        <time>2013-11-17T09:07:35.1Z</time>
      </trkpt>
      <trkpt lat="48.31869" lon="-3.19072">
        <ele>175</ele>
        <time>2013-11-17T09:07:38.1Z</time>
      </trkpt>
      <trkpt lat="48.31873" lon="-3.19073">
        <ele>175</ele>
        <time>2013-11-17T09:07:41.1Z</time>
      </trkpt>
      <trkpt lat="48.31875" lon="-3.19073">
        <ele>175</ele>
        <time>2013-11-17T09:07:43.1Z</time>
      </trkpt>
      <trkpt lat="48.31878" lon="-3.19074">
        <ele>175</ele>
        <time>2013-11-17T09:07:46.1Z</time>
      </trkpt>
      <trkpt lat="48.31881" lon="-3.19075">
        <ele>175</ele>
        <time>2013-11-17T09:07:49.1Z</time>
      </trkpt>
      <trkpt lat="48.31883" lon="-3.19076">
        <ele>175</ele>
        <time>2013-11-17T09:07:51.1Z</time>
      </trkpt>
      <trkpt lat="48.31886" lon="-3.19077">
        <ele>175</ele>
        <time>2013-11-17T09:07:54.1Z</time>
      </trkpt>
      <trkpt lat="48.31888" lon="-3.19077">
        <ele>175</ele>
        <time>2013-11-17T09:07:56.1Z</time>
      </trkpt>
      <trkpt lat="48.31891" lon="-3.19077">
        <ele>175</ele>
        <time>2013-11-17T09:07:58.1Z</time>
      </trkpt>
      <trkpt lat="48.31895" lon="-3.19078">
        <ele>175</ele>
        <time>2013-11-17T09:08:01.1Z</time>
      </trkpt>
      <trkpt lat="48.31897" lon="-3.19078">
        <ele>174</ele>
        <time>2013-11-17T09:08:03.1Z</time>
      </trkpt>
      <trkpt lat="48.319" lon="-3.19079">
        <ele>174</ele>
        <time>2013-11-17T09:08:06.1Z</time>
      </trkpt>
      <trkpt lat="48.31904" lon="-3.19079">
        <ele>174</ele>
        <time>2013-11-17T09:08:09.1Z</time>
      </trkpt>
      <trkpt lat="48.31908" lon="-3.19079">
        <ele>174</ele>
        <time>2013-11-17T09:08:12.1Z</time>
      </trkpt>
      <trkpt lat="48.3191" lon="-3.19079">
        <ele>174</ele>
        <time>2013-11-17T09:08:14.1Z</time>
      </trkpt>
      <trkpt lat="48.31914" lon="-3.19079">
        <ele>174</ele>
        <time>2013-11-17T09:08:17.1Z</time>
      </trkpt>
      <trkpt lat="48.31916" lon="-3.1908">
        <ele>174</ele>
        <time>2013-11-17T09:08:20.1Z</time>
      </trkpt>
      <trkpt lat="48.3192" lon="-3.19079">
        <ele>174</ele>
        <time>2013-11-17T09:08:23.1Z</time>
      </trkpt>
      <trkpt lat="48.31922" lon="-3.19079">
        <ele>174</ele>
        <time>2013-11-17T09:08:25.1Z</time>
      </trkpt>
      <trkpt lat="48.31924" lon="-3.1908">
        <ele>173</ele>
        <time>2013-11-17T09:08:27.1Z</time>
      </trkpt>
      <trkpt lat="48.31925" lon="-3.19081">
        <ele>173</ele>
        <time>2013-11-17T09:08:29.1Z</time>
      </trkpt>
      <trkpt lat="48.31928" lon="-3.19081">
        <ele>173</ele>
        <time>2013-11-17T09:08:32.1Z</time>
      </trkpt>
      <trkpt lat="48.31929" lon="-3.19082">
        <ele>173</ele>
        <time>2013-11-17T09:08:34.1Z</time>
      </trkpt>
      <trkpt lat="48.31931" lon="-3.19082">
        <ele>173</ele>
        <time>2013-11-17T09:08:36.1Z</time>
      </trkpt>
      <trkpt lat="48.31934" lon="-3.19082">
        <ele>173</ele>
        <time>2013-11-17T09:08:39.1Z</time>
      </trkpt>
      <trkpt lat="48.31937" lon="-3.19082">
        <ele>173</ele>
        <time>2013-11-17T09:08:42.1Z</time>
      </trkpt>
      <trkpt lat="48.3194" lon="-3.19082">
        <ele>173</ele>
        <time>2013-11-17T09:08:45.1Z</time>
      </trkpt>
      <trkpt lat="48.31942" lon="-3.19082">
        <ele>173</ele>
        <time>2013-11-17T09:08:47.1Z</time>
      </trkpt>
      <trkpt lat="48.31944" lon="-3.19082">
        <ele>173</ele>
        <time>2013-11-17T09:08:50.1Z</time>
      </trkpt>
      <trkpt lat="48.31947" lon="-3.19081">
        <ele>172</ele>
        <time>2013-11-17T09:08:53.1Z</time>
      </trkpt>
      <trkpt lat="48.31951" lon="-3.19081">
        <ele>172</ele>
        <time>2013-11-17T09:08:56.1Z</time>
      </trkpt>
      <trkpt lat="48.31955" lon="-3.19081">
        <ele>172</ele>
        <time>2013-11-17T09:08:59.1Z</time>
      </trkpt>
      <trkpt lat="48.31957" lon="-3.19081">
        <ele>172</ele>
        <time>2013-11-17T09:09:01.1Z</time>
      </trkpt>
      <trkpt lat="48.31961" lon="-3.1908">
        <ele>172</ele>
        <time>2013-11-17T09:09:04.1Z</time>
      </trkpt>
      <trkpt lat="48.31962" lon="-3.1908">
        <ele>172</ele>
        <time>2013-11-17T09:09:06.1Z</time>
      </trkpt>
      <trkpt lat="48.31965" lon="-3.1908">
        <ele>172</ele>
        <time>2013-11-17T09:09:08.1Z</time>
      </trkpt>
      <trkpt lat="48.31968" lon="-3.19079">
        <ele>172</ele>
        <time>2013-11-17T09:09:10.1Z</time>
      </trkpt>
      <trkpt lat="48.3197" lon="-3.1908">
        <ele>171</ele>
        <time>2013-11-17T09:09:13.1Z</time>
      </trkpt>
      <trkpt lat="48.31972" lon="-3.19081">
        <ele>171</ele>
        <time>2013-11-17T09:09:15.1Z</time>
      </trkpt>
      <trkpt lat="48.31974" lon="-3.19081">
        <ele>171</ele>
        <time>2013-11-17T09:09:18.1Z</time>
      </trkpt>
      <trkpt lat="48.31976" lon="-3.19081">
        <ele>171</ele>
        <time>2013-11-17T09:09:20.1Z</time>
      </trkpt>
      <trkpt lat="48.31978" lon="-3.19082">
        <ele>171</ele>
        <time>2013-11-17T09:09:22.1Z</time>
      </trkpt>
      <trkpt lat="48.31981" lon="-3.19082">
        <ele>170</ele>
        <time>2013-11-17T09:09:25.1Z</time>
      </trkpt>
      <trkpt lat="48.31984" lon="-3.19082">
        <ele>170</ele>
        <time>2013-11-17T09:09:27.1Z</time>
      </trkpt>
      <trkpt lat="48.31987" lon="-3.19082">
        <ele>170</ele>
        <time>2013-11-17T09:09:30.1Z</time>
      </trkpt>
      <trkpt lat="48.31989" lon="-3.19082">
        <ele>170</ele>
        <time>2013-11-17T09:09:32.1Z</time>
      </trkpt>
      <trkpt lat="48.31991" lon="-3.19083">
        <ele>170</ele>
        <time>2013-11-17T09:09:34.1Z</time>
      </trkpt>
      <trkpt lat="48.31994" lon="-3.19084">
        <ele>170</ele>
        <time>2013-11-17T09:09:37.1Z</time>
      </trkpt>
      <trkpt lat="48.31998" lon="-3.19085">
        <ele>170</ele>
        <time>2013-11-17T09:09:40.1Z</time>
      </trkpt>
      <trkpt lat="48.32002" lon="-3.19086">
        <ele>170</ele>
        <time>2013-11-17T09:09:42.1Z</time>
      </trkpt>
      <trkpt lat="48.32005" lon="-3.19089">
        <ele>169</ele>
        <time>2013-11-17T09:09:45.1Z</time>
      </trkpt>
      <trkpt lat="48.32011" lon="-3.19091">
        <ele>169</ele>
        <time>2013-11-17T09:09:48.1Z</time>
      </trkpt>
      <trkpt lat="48.32014" lon="-3.19092">
        <ele>169</ele>
        <time>2013-11-17T09:09:50.1Z</time>
      </trkpt>
      <trkpt lat="48.3202" lon="-3.19094">
        <ele>169</ele>
        <time>2013-11-17T09:09:53.1Z</time>
      </trkpt>
      <trkpt lat="48.32025" lon="-3.19095">
        <ele>169</ele>
        <time>2013-11-17T09:09:56.1Z</time>
      </trkpt>
      <trkpt lat="48.32029" lon="-3.19096">
        <ele>169</ele>
        <time>2013-11-17T09:09:59.1Z</time>
      </trkpt>
      <trkpt lat="48.32035" lon="-3.19098">
        <ele>169</ele>
        <time>2013-11-17T09:10:02.1Z</time>
      </trkpt>
      <trkpt lat="48.32037" lon="-3.191">
        <ele>169</ele>
        <time>2013-11-17T09:10:04.1Z</time>
      </trkpt>
      <trkpt lat="48.32041" lon="-3.19103">
        <ele>169</ele>
        <time>2013-11-17T09:10:07.1Z</time>
      </trkpt>
      <trkpt lat="48.32045" lon="-3.19104">
        <ele>168</ele>
        <time>2013-11-17T09:10:09.1Z</time>
      </trkpt>
      <trkpt lat="48.32049" lon="-3.19105">
        <ele>168</ele>
        <time>2013-11-17T09:10:12.1Z</time>
      </trkpt>
      <trkpt lat="48.32051" lon="-3.19107">
        <ele>168</ele>
        <time>2013-11-17T09:10:14.1Z</time>
      </trkpt>
      <trkpt lat="48.32054" lon="-3.19108">
        <ele>168</ele>
        <time>2013-11-17T09:10:16.1Z</time>
      </trkpt>
      <trkpt lat="48.32056" lon="-3.19109">
        <ele>168</ele>
        <time>2013-11-17T09:10:18.1Z</time>
      </trkpt>
      <trkpt lat="48.32059" lon="-3.1911">
        <ele>167</ele>
        <time>2013-11-17T09:10:21.1Z</time>
      </trkpt>
      <trkpt lat="48.32064" lon="-3.19112">
        <ele>167</ele>
        <time>2013-11-17T09:10:24.1Z</time>
      </trkpt>
      <trkpt lat="48.32066" lon="-3.19113">
        <ele>167</ele>
        <time>2013-11-17T09:10:26.1Z</time>
      </trkpt>
      <trkpt lat="48.3207" lon="-3.19114">
        <ele>167</ele>
        <time>2013-11-17T09:10:29.1Z</time>
      </trkpt>
      <trkpt lat="48.32072" lon="-3.19115">
        <ele>167</ele>
        <time>2013-11-17T09:10:31.1Z</time>
      </trkpt>
      <trkpt lat="48.32074" lon="-3.19115">
        <ele>167</ele>
        <time>2013-11-17T09:10:34.1Z</time>
      </trkpt>
      <trkpt lat="48.32077" lon="-3.19118">
        <ele>167</ele>
        <time>2013-11-17T09:10:37.1Z</time>
      </trkpt>
      <trkpt lat="48.32081" lon="-3.19121">
        <ele>167</ele>
        <time>2013-11-17T09:10:40.1Z</time>
      </trkpt>
      <trkpt lat="48.32084" lon="-3.19122">
        <ele>166</ele>
        <time>2013-11-17T09:10:42.1Z</time>
      </trkpt>
      <trkpt lat="48.32088" lon="-3.19124">
        <ele>166</ele>
        <time>2013-11-17T09:10:45.1Z</time>
      </trkpt>
      <trkpt lat="48.32092" lon="-3.19126">
        <ele>166</ele>
        <time>2013-11-17T09:10:48.1Z</time>
      </trkpt>
      <trkpt lat="48.32095" lon="-3.19127">
        <ele>166</ele>
        <time>2013-11-17T09:10:51.1Z</time>
      </trkpt>
      <trkpt lat="48.32097" lon="-3.1913">
        <ele>166</ele>
        <time>2013-11-17T09:10:53.1Z</time>
      </trkpt>
      <trkpt lat="48.32099" lon="-3.1913">
        <ele>166</ele>
        <time>2013-11-17T09:10:55.1Z</time>
      </trkpt>
      <trkpt lat="48.32102" lon="-3.19131">
        <ele>166</ele>
        <time>2013-11-17T09:10:57.1Z</time>
      </trkpt>
      <trkpt lat="48.32105" lon="-3.19131">
        <ele>166</ele>
        <time>2013-11-17T09:11:00.1Z</time>
      </trkpt>
      <trkpt lat="48.32108" lon="-3.1913">
        <ele>166</ele>
        <time>2013-11-17T09:11:02.1Z</time>
      </trkpt>
      <trkpt lat="48.32111" lon="-3.1913">
        <ele>166</ele>
        <time>2013-11-17T09:11:05.1Z</time>
      </trkpt>
      <trkpt lat="48.32115" lon="-3.19129">
        <ele>166</ele>
        <time>2013-11-17T09:11:08.1Z</time>
      </trkpt>
      <trkpt lat="48.32119" lon="-3.19127">
        <ele>165</ele>
        <time>2013-11-17T09:11:11.1Z</time>
      </trkpt>
      <trkpt lat="48.32122" lon="-3.19127">
        <ele>164</ele>
        <time>2013-11-17T09:11:14.1Z</time>
      </trkpt>
      <trkpt lat="48.32124" lon="-3.19127">
        <ele>164</ele>
        <time>2013-11-17T09:11:16.1Z</time>
      </trkpt>
      <trkpt lat="48.32125" lon="-3.19127">
        <ele>164</ele>
        <time>2013-11-17T09:11:18.1Z</time>
      </trkpt>
      <trkpt lat="48.32129" lon="-3.19127">
        <ele>164</ele>
        <time>2013-11-17T09:11:21.1Z</time>
      </trkpt>
      <trkpt lat="48.32131" lon="-3.19128">
        <ele>163</ele>
        <time>2013-11-17T09:11:24.1Z</time>
      </trkpt>
      <trkpt lat="48.32134" lon="-3.19127">
        <ele>163</ele>
        <time>2013-11-17T09:11:26.1Z</time>
      </trkpt>
      <trkpt lat="48.32136" lon="-3.19127">
        <ele>163</ele>
        <time>2013-11-17T09:11:29.1Z</time>
      </trkpt>
      <trkpt lat="48.32138" lon="-3.19126">
        <ele>162</ele>
        <time>2013-11-17T09:11:32.1Z</time>
      </trkpt>
      <trkpt lat="48.3214" lon="-3.19125">
        <ele>162</ele>
        <time>2013-11-17T09:11:34.1Z</time>
      </trkpt>
      <trkpt lat="48.32143" lon="-3.19124">
        <ele>162</ele>
        <time>2013-11-17T09:11:37.1Z</time>
      </trkpt>
      <trkpt lat="48.32146" lon="-3.19124">
        <ele>162</ele>
        <time>2013-11-17T09:11:39.1Z</time>
      </trkpt>
      <trkpt lat="48.32149" lon="-3.19122">
        <ele>161</ele>
        <time>2013-11-17T09:11:42.1Z</time>
      </trkpt>
      <trkpt lat="48.32153" lon="-3.1912">
        <ele>161</ele>
        <time>2013-11-17T09:11:45.1Z</time>
      </trkpt>
      <trkpt lat="48.32155" lon="-3.19119">
        <ele>161</ele>
        <time>2013-11-17T09:11:47.1Z</time>
      </trkpt>
      <trkpt lat="48.32159" lon="-3.19117">
        <ele>160</ele>
        <time>2013-11-17T09:11:50.1Z</time>
      </trkpt>
      <trkpt lat="48.32162" lon="-3.19116">
        <ele>160</ele>
        <time>2013-11-17T09:11:53.1Z</time>
      </trkpt>
      <trkpt lat="48.32165" lon="-3.19114">
        <ele>160</ele>
        <time>2013-11-17T09:11:56.1Z</time>
      </trkpt>
      <trkpt lat="48.32168" lon="-3.19112">
        <ele>159</ele>
        <time>2013-11-17T09:11:59.1Z</time>
      </trkpt>
      <trkpt lat="48.32169" lon="-3.19111">
        <ele>159</ele>
        <time>2013-11-17T09:12:01.1Z</time>
      </trkpt>
      <trkpt lat="48.32172" lon="-3.19107">
        <ele>158</ele>
        <time>2013-11-17T09:12:04.1Z</time>
      </trkpt>
      <trkpt lat="48.32175" lon="-3.19105">
        <ele>158</ele>
        <time>2013-11-17T09:12:07.1Z</time>
      </trkpt>
      <trkpt lat="48.32177" lon="-3.19102">
        <ele>158</ele>
        <time>2013-11-17T09:12:10.1Z</time>
      </trkpt>
      <trkpt lat="48.32179" lon="-3.191">
        <ele>157</ele>
        <time>2013-11-17T09:12:12.1Z</time>
      </trkpt>
      <trkpt lat="48.32182" lon="-3.19097">
        <ele>156</ele>
        <time>2013-11-17T09:12:15.1Z</time>
      </trkpt>
      <trkpt lat="48.32184" lon="-3.19093">
        <ele>156</ele>
        <time>2013-11-17T09:12:18.1Z</time>
      </trkpt>
      <trkpt lat="48.32187" lon="-3.19091">
        <ele>155</ele>
        <time>2013-11-17T09:12:21.1Z</time>
      </trkpt>
      <trkpt lat="48.32189" lon="-3.19088">
        <ele>155</ele>
        <time>2013-11-17T09:12:24.1Z</time>
      </trkpt>
      <trkpt lat="48.32191" lon="-3.19086">
        <ele>154</ele>
        <time>2013-11-17T09:12:26.1Z</time>
      </trkpt>
      <trkpt lat="48.32194" lon="-3.19082">
        <ele>154</ele>
        <time>2013-11-17T09:12:29.1Z</time>
      </trkpt>
      <trkpt lat="48.32196" lon="-3.1908">
        <ele>153</ele>
        <time>2013-11-17T09:12:31.1Z</time>
      </trkpt>
      <trkpt lat="48.32198" lon="-3.19075">
        <ele>153</ele>
        <time>2013-11-17T09:12:33.1Z</time>
      </trkpt>
      <trkpt lat="48.32201" lon="-3.19068">
        <ele>153</ele>
        <time>2013-11-17T09:12:35.1Z</time>
      </trkpt>
      <trkpt lat="48.32206" lon="-3.19059">
        <ele>153</ele>
        <time>2013-11-17T09:12:38.1Z</time>
      </trkpt>
      <trkpt lat="48.32212" lon="-3.19049">
        <ele>152</ele>
        <time>2013-11-17T09:12:41.1Z</time>
      </trkpt>
      <trkpt lat="48.32218" lon="-3.19039">
        <ele>151</ele>
        <time>2013-11-17T09:12:44.1Z</time>
      </trkpt>
      <trkpt lat="48.32222" lon="-3.19034">
        <ele>150</ele>
        <time>2013-11-17T09:12:47.1Z</time>
      </trkpt>
      <trkpt lat="48.32223" lon="-3.19033">
        <ele>150</ele>
        <time>2013-11-17T09:12:50.1Z</time>
      </trkpt>
      <trkpt lat="48.32223" lon="-3.19033">
        <ele>150</ele>
        <time>2013-11-17T09:12:52.1Z</time>
      </trkpt>
      <trkpt lat="48.32224" lon="-3.19033">
        <ele>151</ele>
        <time>2013-11-17T09:12:55.1Z</time>
      </trkpt>
      <trkpt lat="48.32224" lon="-3.19032">
        <ele>151</ele>
        <time>2013-11-17T09:12:58.1Z</time>
      </trkpt>
      <trkpt lat="48.32224" lon="-3.19032">
        <ele>151</ele>
        <time>2013-11-17T09:13:00.1Z</time>
      </trkpt>
      <trkpt lat="48.32224" lon="-3.19031">
        <ele>151</ele>
        <time>2013-11-17T09:13:03.1Z</time>
      </trkpt>
      <trkpt lat="48.32224" lon="-3.1903">
        <ele>151</ele>
        <time>2013-11-17T09:13:05.1Z</time>
      </trkpt>
      <trkpt lat="48.32222" lon="-3.19026">
        <ele>151</ele>
        <time>2013-11-17T09:13:08.1Z</time>
      </trkpt>
      <trkpt lat="48.32224" lon="-3.19023">
        <ele>150</ele>
        <time>2013-11-17T09:13:10.1Z</time>
      </trkpt>
      <trkpt lat="48.32225" lon="-3.19021">
        <ele>149</ele>
        <time>2013-11-17T09:13:12.1Z</time>
      </trkpt>
      <trkpt lat="48.32227" lon="-3.19015">
        <ele>149</ele>
        <time>2013-11-17T09:13:15.1Z</time>
      </trkpt>
      <trkpt lat="48.32229" lon="-3.1901">
        <ele>148</ele>
        <time>2013-11-17T09:13:18.1Z</time>
      </trkpt>
      <trkpt lat="48.3223" lon="-3.19006">
        <ele>148</ele>
        <time>2013-11-17T09:13:20.1Z</time>
      </trkpt>
      <trkpt lat="48.32231" lon="-3.19001">
        <ele>148</ele>
        <time>2013-11-17T09:13:23.1Z</time>
      </trkpt>
      <trkpt lat="48.32233" lon="-3.18997">
        <ele>147</ele>
        <time>2013-11-17T09:13:25.1Z</time>
      </trkpt>
      <trkpt lat="48.32234" lon="-3.18994">
        <ele>147</ele>
        <time>2013-11-17T09:13:27.1Z</time>
      </trkpt>
      <trkpt lat="48.32235" lon="-3.18988">
        <ele>147</ele>
        <time>2013-11-17T09:13:30.1Z</time>
      </trkpt>
      <trkpt lat="48.32236" lon="-3.18984">
        <ele>146</ele>
        <time>2013-11-17T09:13:32.1Z</time>
      </trkpt>
      <trkpt lat="48.32236" lon="-3.18979">
        <ele>146</ele>
        <time>2013-11-17T09:13:35.1Z</time>
      </trkpt>
      <trkpt lat="48.32237" lon="-3.18972">
        <ele>145</ele>
        <time>2013-11-17T09:13:38.1Z</time>
      </trkpt>
      <trkpt lat="48.32237" lon="-3.18968">
        <ele>145</ele>
        <time>2013-11-17T09:13:40.1Z</time>
      </trkpt>
      <trkpt lat="48.32237" lon="-3.18962">
        <ele>145</ele>
        <time>2013-11-17T09:13:43.1Z</time>
      </trkpt>
      <trkpt lat="48.32235" lon="-3.18958">
        <ele>144</ele>
        <time>2013-11-17T09:13:45.1Z</time>
      </trkpt>
      <trkpt lat="48.32233" lon="-3.18954">
        <ele>144</ele>
        <time>2013-11-17T09:13:48.1Z</time>
      </trkpt>
      <trkpt lat="48.3223" lon="-3.18952">
        <ele>143</ele>
        <time>2013-11-17T09:13:51.1Z</time>
      </trkpt>
      <trkpt lat="48.32227" lon="-3.18951">
        <ele>143</ele>
        <time>2013-11-17T09:13:53.1Z</time>
      </trkpt>
      <trkpt lat="48.32224" lon="-3.18948">
        <ele>143</ele>
        <time>2013-11-17T09:13:56.1Z</time>
      </trkpt>
      <trkpt lat="48.32222" lon="-3.18947">
        <ele>143</ele>
        <time>2013-11-17T09:13:58.1Z</time>
      </trkpt>
      <trkpt lat="48.32218" lon="-3.18944">
        <ele>143</ele>
        <time>2013-11-17T09:14:01.1Z</time>
      </trkpt>
      <trkpt lat="48.32214" lon="-3.18941">
        <ele>143</ele>
        <time>2013-11-17T09:14:04.1Z</time>
      </trkpt>
      <trkpt lat="48.32212" lon="-3.18938">
        <ele>142</ele>
        <time>2013-11-17T09:14:07.1Z</time>
      </trkpt>
      <trkpt lat="48.3221" lon="-3.18936">
        <ele>142</ele>
        <time>2013-11-17T09:14:09.1Z</time>
      </trkpt>
      <trkpt lat="48.32208" lon="-3.18934">
        <ele>142</ele>
        <time>2013-11-17T09:14:12.1Z</time>
      </trkpt>
      <trkpt lat="48.32206" lon="-3.18931">
        <ele>141</ele>
        <time>2013-11-17T09:14:15.1Z</time>
      </trkpt>
      <trkpt lat="48.32205" lon="-3.18929">
        <ele>141</ele>
        <time>2013-11-17T09:14:17.1Z</time>
      </trkpt>
      <trkpt lat="48.32204" lon="-3.18925">
        <ele>142</ele>
        <time>2013-11-17T09:14:20.1Z</time>
      </trkpt>
      <trkpt lat="48.32204" lon="-3.18923">
        <ele>141</ele>
        <time>2013-11-17T09:14:22.1Z</time>
      </trkpt>
      <trkpt lat="48.32205" lon="-3.18921">
        <ele>141</ele>
        <time>2013-11-17T09:14:24.1Z</time>
      </trkpt>
      <trkpt lat="48.32206" lon="-3.18921">
        <ele>141</ele>
        <time>2013-11-17T09:14:27.1Z</time>
      </trkpt>
      <trkpt lat="48.32207" lon="-3.18921">
        <ele>141</ele>
        <time>2013-11-17T09:14:30.1Z</time>
      </trkpt>
      <trkpt lat="48.32207" lon="-3.18921">
        <ele>142</ele>
        <time>2013-11-17T09:14:32.1Z</time>
      </trkpt>
      <trkpt lat="48.32207" lon="-3.18921">
        <ele>142</ele>
        <time>2013-11-17T09:14:35.1Z</time>
      </trkpt>
      <trkpt lat="48.32207" lon="-3.1892">
        <ele>142</ele>
        <time>2013-11-17T09:14:38.1Z</time>
      </trkpt>
      <trkpt lat="48.32207" lon="-3.1892">
        <ele>142</ele>
        <time>2013-11-17T09:14:40.1Z</time>
      </trkpt>
      <trkpt lat="48.32207" lon="-3.18919">
        <ele>142</ele>
        <time>2013-11-17T09:14:42.1Z</time>
      </trkpt>
      <trkpt lat="48.32208" lon="-3.18919">
        <ele>142</ele>
        <time>2013-11-17T09:14:46.1Z</time>
      </trkpt>
      <trkpt lat="48.32208" lon="-3.18918">
        <ele>142</ele>
        <time>2013-11-17T09:14:49.1Z</time>
      </trkpt>
      <trkpt lat="48.32208" lon="-3.18919">
        <ele>142</ele>
        <time>2013-11-17T09:14:52.1Z</time>
      </trkpt>
      <trkpt lat="48.32206" lon="-3.18919">
        <ele>142</ele>
        <time>2013-11-17T09:14:54.1Z</time>
      </trkpt>
      <trkpt lat="48.32204" lon="-3.18918">
        <ele>142</ele>
        <time>2013-11-17T09:14:57.1Z</time>
      </trkpt>
      <trkpt lat="48.32204" lon="-3.18918">
        <ele>141</ele>
        <time>2013-11-17T09:14:59.1Z</time>
      </trkpt>
      <trkpt lat="48.32204" lon="-3.18919">
        <ele>141</ele>
        <time>2013-11-17T09:15:02.1Z</time>
      </trkpt>
      <trkpt lat="48.32203" lon="-3.18919">
        <ele>141</ele>
        <time>2013-11-17T09:15:04.1Z</time>
      </trkpt>
      <trkpt lat="48.32203" lon="-3.18918">
        <ele>141</ele>
        <time>2013-11-17T09:15:07.1Z</time>
      </trkpt>
      <trkpt lat="48.32203" lon="-3.18918">
        <ele>141</ele>
        <time>2013-11-17T09:15:09.1Z</time>
      </trkpt>
      <trkpt lat="48.32201" lon="-3.18918">
        <ele>141</ele>
        <time>2013-11-17T09:15:12.1Z</time>
      </trkpt>
      <trkpt lat="48.32202" lon="-3.18918">
        <ele>141</ele>
        <time>2013-11-17T09:15:14.1Z</time>
      </trkpt>
      <trkpt lat="48.32203" lon="-3.18916">
        <ele>141</ele>
        <time>2013-11-17T09:15:17.1Z</time>
      </trkpt>
      <trkpt lat="48.32204" lon="-3.18915">
        <ele>141</ele>
        <time>2013-11-17T09:15:19.1Z</time>
      </trkpt>
      <trkpt lat="48.32205" lon="-3.18914">
        <ele>141</ele>
        <time>2013-11-17T09:15:22.1Z</time>
      </trkpt>
      <trkpt lat="48.32203" lon="-3.18914">
        <ele>141</ele>
        <time>2013-11-17T09:15:25.1Z</time>
      </trkpt>
      <trkpt lat="48.32201" lon="-3.18914">
        <ele>142</ele>
        <time>2013-11-17T09:15:28.1Z</time>
      </trkpt>
      <trkpt lat="48.32201" lon="-3.18914">
        <ele>142</ele>
        <time>2013-11-17T09:15:31.1Z</time>
      </trkpt>
      <trkpt lat="48.32201" lon="-3.18915">
        <ele>142</ele>
        <time>2013-11-17T09:15:33.1Z</time>
      </trkpt>
      <trkpt lat="48.32201" lon="-3.18917">
        <ele>141</ele>
        <time>2013-11-17T09:15:36.1Z</time>
      </trkpt>
      <trkpt lat="48.322" lon="-3.18919">
        <ele>141</ele>
        <time>2013-11-17T09:15:39.1Z</time>
      </trkpt>
      <trkpt lat="48.32198" lon="-3.18921">
        <ele>140</ele>
        <time>2013-11-17T09:15:42.1Z</time>
      </trkpt>
      <trkpt lat="48.32197" lon="-3.18922">
        <ele>140</ele>
        <time>2013-11-17T09:15:45.1Z</time>
      </trkpt>
      <trkpt lat="48.32196" lon="-3.18922">
        <ele>141</ele>
        <time>2013-11-17T09:15:47.1Z</time>
      </trkpt>
      <trkpt lat="48.32195" lon="-3.18922">
        <ele>141</ele>
        <time>2013-11-17T09:15:50.1Z</time>
      </trkpt>
      <trkpt lat="48.32194" lon="-3.18922">
        <ele>141</ele>
        <time>2013-11-17T09:15:52.1Z</time>
      </trkpt>
      <trkpt lat="48.32193" lon="-3.18923">
        <ele>141</ele>
        <time>2013-11-17T09:15:54.1Z</time>
      </trkpt>
      <trkpt lat="48.32193" lon="-3.18924">
        <ele>141</ele>
        <time>2013-11-17T09:15:57.1Z</time>
      </trkpt>
      <trkpt lat="48.32192" lon="-3.18924">
        <ele>141</ele>
        <time>2013-11-17T09:16:01.1Z</time>
      </trkpt>
      <trkpt lat="48.32191" lon="-3.18925">
        <ele>141</ele>
        <time>2013-11-17T09:16:04.1Z</time>
      </trkpt>
      <trkpt lat="48.32191" lon="-3.18925">
        <ele>141</ele>
        <time>2013-11-17T09:16:07.1Z</time>
      </trkpt>
      <trkpt lat="48.32191" lon="-3.18925">
        <ele>141</ele>
        <time>2013-11-17T09:16:10.1Z</time>
      </trkpt>
      <trkpt lat="48.32191" lon="-3.18926">
        <ele>141</ele>
        <time>2013-11-17T09:16:13.1Z</time>
      </trkpt>
      <trkpt lat="48.32191" lon="-3.18927">
        <ele>141</ele>
        <time>2013-11-17T09:16:15.1Z</time>
      </trkpt>
      <trkpt lat="48.3219" lon="-3.18927">
        <ele>141</ele>
        <time>2013-11-17T09:16:17.1Z</time>
      </trkpt>
      <trkpt lat="48.3219" lon="-3.18927">
        <ele>141</ele>
        <time>2013-11-17T09:16:20.1Z</time>
      </trkpt>
      <trkpt lat="48.3219" lon="-3.18927">
        <ele>142</ele>
        <time>2013-11-17T09:16:22.1Z</time>
      </trkpt>
      <trkpt lat="48.3219" lon="-3.18926">
        <ele>142</ele>
        <time>2013-11-17T09:16:25.1Z</time>
      </trkpt>
      <trkpt lat="48.32191" lon="-3.18925">
        <ele>141</ele>
        <time>2013-11-17T09:16:27.1Z</time>
      </trkpt>
      <trkpt lat="48.32193" lon="-3.18925">
        <ele>141</ele>
        <time>2013-11-17T09:16:30.1Z</time>
      </trkpt>
      <trkpt lat="48.32195" lon="-3.18925">
        <ele>141</ele>
        <time>2013-11-17T09:16:33.1Z</time>
      </trkpt>
      <trkpt lat="48.32197" lon="-3.18925">
        <ele>141</ele>
        <time>2013-11-17T09:16:36.1Z</time>
      </trkpt>
      <trkpt lat="48.32199" lon="-3.18925">
        <ele>141</ele>
        <time>2013-11-17T09:16:39.1Z</time>
      </trkpt>
      <trkpt lat="48.32201" lon="-3.18926">
        <ele>141</ele>
        <time>2013-11-17T09:16:42.1Z</time>
      </trkpt>
      <trkpt lat="48.32202" lon="-3.18926">
        <ele>140</ele>
        <time>2013-11-17T09:16:44.1Z</time>
      </trkpt>
      <trkpt lat="48.32202" lon="-3.18927">
        <ele>140</ele>
        <time>2013-11-17T09:16:47.1Z</time>
      </trkpt>
      <trkpt lat="48.32203" lon="-3.18927">
        <ele>140</ele>
        <time>2013-11-17T09:16:50.1Z</time>
      </trkpt>
      <trkpt lat="48.32204" lon="-3.18928">
        <ele>140</ele>
        <time>2013-11-17T09:16:53.1Z</time>
      </trkpt>
      <trkpt lat="48.32204" lon="-3.18928">
        <ele>140</ele>
        <time>2013-11-17T09:16:55.1Z</time>
      </trkpt>
      <trkpt lat="48.32205" lon="-3.18928">
        <ele>141</ele>
        <time>2013-11-17T09:16:57.1Z</time>
      </trkpt>
      <trkpt lat="48.32204" lon="-3.18928">
        <ele>141</ele>
        <time>2013-11-17T09:17:01.1Z</time>
      </trkpt>
      <trkpt lat="48.32205" lon="-3.18927">
        <ele>141</ele>
        <time>2013-11-17T09:17:03.1Z</time>
      </trkpt>
      <trkpt lat="48.32205" lon="-3.18927">
        <ele>141</ele>
        <time>2013-11-17T09:17:06.1Z</time>
      </trkpt>
      <trkpt lat="48.32205" lon="-3.18927">
        <ele>141</ele>
        <time>2013-11-17T09:17:09.1Z</time>
      </trkpt>
      <trkpt lat="48.32206" lon="-3.18927">
        <ele>141</ele>
        <time>2013-11-17T09:17:11.1Z</time>
      </trkpt>
      <trkpt lat="48.32207" lon="-3.18927">
        <ele>141</ele>
        <time>2013-11-17T09:17:14.1Z</time>
      </trkpt>
      <trkpt lat="48.32207" lon="-3.18928">
        <ele>141</ele>
        <time>2013-11-17T09:17:16.1Z</time>
      </trkpt>
      <trkpt lat="48.32206" lon="-3.18929">
        <ele>141</ele>
        <time>2013-11-17T09:17:19.1Z</time>
      </trkpt>
      <trkpt lat="48.32205" lon="-3.1893">
        <ele>142</ele>
        <time>2013-11-17T09:17:22.1Z</time>
      </trkpt>
      <trkpt lat="48.32205" lon="-3.1893">
        <ele>142</ele>
        <time>2013-11-17T09:17:24.1Z</time>
      </trkpt>
      <trkpt lat="48.32205" lon="-3.1893">
        <ele>142</ele>
        <time>2013-11-17T09:17:26.1Z</time>
      </trkpt>
      <trkpt lat="48.32205" lon="-3.1893">
        <ele>142</ele>
        <time>2013-11-17T09:17:30.1Z</time>
      </trkpt>
      <trkpt lat="48.32204" lon="-3.18929">
        <ele>142</ele>
        <time>2013-11-17T09:17:33.1Z</time>
      </trkpt>
      <trkpt lat="48.32204" lon="-3.1893">
        <ele>142</ele>
        <time>2013-11-17T09:17:35.1Z</time>
      </trkpt>
      <trkpt lat="48.32203" lon="-3.1893">
        <ele>142</ele>
        <time>2013-11-17T09:17:37.1Z</time>
      </trkpt>
      <trkpt lat="48.32202" lon="-3.1893">
        <ele>141</ele>
        <time>2013-11-17T09:17:40.1Z</time>
      </trkpt>
      <trkpt lat="48.32201" lon="-3.1893">
        <ele>141</ele>
        <time>2013-11-17T09:17:42.1Z</time>
      </trkpt>
      <trkpt lat="48.322" lon="-3.18928">
        <ele>141</ele>
        <time>2013-11-17T09:17:45.1Z</time>
      </trkpt>
      <trkpt lat="48.322" lon="-3.18927">
        <ele>141</ele>
        <time>2013-11-17T09:17:47.1Z</time>
      </trkpt>
      <trkpt lat="48.322" lon="-3.18926">
        <ele>141</ele>
        <time>2013-11-17T09:17:49.1Z</time>
      </trkpt>
      <trkpt lat="48.32201" lon="-3.18924">
        <ele>141</ele>
        <time>2013-11-17T09:17:52.1Z</time>
      </trkpt>
      <trkpt lat="48.32201" lon="-3.18922">
        <ele>140</ele>
        <time>2013-11-17T09:17:55.1Z</time>
      </trkpt>
      <trkpt lat="48.32201" lon="-3.18921">
        <ele>140</ele>
        <time>2013-11-17T09:17:57.1Z</time>
      </trkpt>
      <trkpt lat="48.32201" lon="-3.18919">
        <ele>140</ele>
        <time>2013-11-17T09:18:00.1Z</time>
      </trkpt>
      <trkpt lat="48.32201" lon="-3.18919">
        <ele>140</ele>
        <time>2013-11-17T09:18:02.1Z</time>
      </trkpt>
      <trkpt lat="48.32201" lon="-3.18918">
        <ele>140</ele>
        <time>2013-11-17T09:18:05.1Z</time>
      </trkpt>
      <trkpt lat="48.32199" lon="-3.18917">
        <ele>140</ele>
        <time>2013-11-17T09:18:08.1Z</time>
      </trkpt>
      <trkpt lat="48.32198" lon="-3.18915">
        <ele>140</ele>
        <time>2013-11-17T09:18:11.1Z</time>
      </trkpt>
      <trkpt lat="48.32196" lon="-3.18914">
        <ele>140</ele>
        <time>2013-11-17T09:18:13.1Z</time>
      </trkpt>
      <trkpt lat="48.32194" lon="-3.18912">
        <ele>140</ele>
        <time>2013-11-17T09:18:15.1Z</time>
      </trkpt>
      <trkpt lat="48.32191" lon="-3.18911">
        <ele>139</ele>
        <time>2013-11-17T09:18:17.1Z</time>
      </trkpt>
      <trkpt lat="48.32188" lon="-3.18911">
        <ele>139</ele>
        <time>2013-11-17T09:18:20.1Z</time>
      </trkpt>
      <trkpt lat="48.32187" lon="-3.18911">
        <ele>138</ele>
        <time>2013-11-17T09:18:22.1Z</time>
      </trkpt>
      <trkpt lat="48.32186" lon="-3.18911">
        <ele>138</ele>
        <time>2013-11-17T09:18:24.1Z</time>
      </trkpt>
      <trkpt lat="48.32184" lon="-3.18912">
        <ele>138</ele>
        <time>2013-11-17T09:18:27.1Z</time>
      </trkpt>
      <trkpt lat="48.32182" lon="-3.18912">
        <ele>138</ele>
        <time>2013-11-17T09:18:29.1Z</time>
      </trkpt>
      <trkpt lat="48.3218" lon="-3.18914">
        <ele>138</ele>
        <time>2013-11-17T09:18:32.1Z</time>
      </trkpt>
      <trkpt lat="48.32179" lon="-3.18916">
        <ele>137</ele>
        <time>2013-11-17T09:18:35.1Z</time>
      </trkpt>
      <trkpt lat="48.32177" lon="-3.18917">
        <ele>137</ele>
        <time>2013-11-17T09:18:38.1Z</time>
      </trkpt>
      <trkpt lat="48.32177" lon="-3.18918">
        <ele>137</ele>
        <time>2013-11-17T09:18:41.1Z</time>
      </trkpt>
      <trkpt lat="48.32176" lon="-3.18919">
        <ele>137</ele>
        <time>2013-11-17T09:18:44.1Z</time>
      </trkpt>
      <trkpt lat="48.32176" lon="-3.1892">
        <ele>138</ele>
        <time>2013-11-17T09:18:47.1Z</time>
      </trkpt>
      <trkpt lat="48.32176" lon="-3.1892">
        <ele>138</ele>
        <time>2013-11-17T09:18:50.1Z</time>
      </trkpt>
      <trkpt lat="48.32176" lon="-3.18921">
        <ele>138</ele>
        <time>2013-11-17T09:18:53.1Z</time>
      </trkpt>
      <trkpt lat="48.32175" lon="-3.18922">
        <ele>138</ele>
        <time>2013-11-17T09:18:55.1Z</time>
      </trkpt>
      <trkpt lat="48.32175" lon="-3.18923">
        <ele>138</ele>
        <time>2013-11-17T09:18:58.1Z</time>
      </trkpt>
      <trkpt lat="48.32175" lon="-3.18922">
        <ele>137</ele>
        <time>2013-11-17T09:19:01.1Z</time>
      </trkpt>
      <trkpt lat="48.32175" lon="-3.18922">
        <ele>137</ele>
        <time>2013-11-17T09:19:04.1Z</time>
      </trkpt>
      <trkpt lat="48.32174" lon="-3.18923">
        <ele>137</ele>
        <time>2013-11-17T09:19:06.1Z</time>
      </trkpt>
      <trkpt lat="48.32174" lon="-3.18922">
        <ele>138</ele>
        <time>2013-11-17T09:19:09.1Z</time>
      </trkpt>
      <trkpt lat="48.32175" lon="-3.18922">
        <ele>138</ele>
        <time>2013-11-17T09:19:11.1Z</time>
      </trkpt>
      <trkpt lat="48.32176" lon="-3.18922">
        <ele>137</ele>
        <time>2013-11-17T09:19:14.1Z</time>
      </trkpt>
      <trkpt lat="48.32176" lon="-3.1892">
        <ele>137</ele>
        <time>2013-11-17T09:19:17.1Z</time>
      </trkpt>
      <trkpt lat="48.32176" lon="-3.1892">
        <ele>137</ele>
        <time>2013-11-17T09:19:19.1Z</time>
      </trkpt>
      <trkpt lat="48.32178" lon="-3.18918">
        <ele>137</ele>
        <time>2013-11-17T09:19:22.1Z</time>
      </trkpt>
      <trkpt lat="48.32179" lon="-3.18917">
        <ele>137</ele>
        <time>2013-11-17T09:19:24.1Z</time>
      </trkpt>
      <trkpt lat="48.3218" lon="-3.18916">
        <ele>137</ele>
        <time>2013-11-17T09:19:27.1Z</time>
      </trkpt>
      <trkpt lat="48.32181" lon="-3.18916">
        <ele>137</ele>
        <time>2013-11-17T09:19:29.1Z</time>
      </trkpt>
      <trkpt lat="48.32183" lon="-3.18915">
        <ele>138</ele>
        <time>2013-11-17T09:19:31.1Z</time>
      </trkpt>
      <trkpt lat="48.32185" lon="-3.18914">
        <ele>138</ele>
        <time>2013-11-17T09:19:34.1Z</time>
      </trkpt>
      <trkpt lat="48.32186" lon="-3.18916">
        <ele>138</ele>
        <time>2013-11-17T09:19:37.1Z</time>
      </trkpt>
      <trkpt lat="48.32188" lon="-3.18916">
        <ele>138</ele>
        <time>2013-11-17T09:19:39.1Z</time>
      </trkpt>
      <trkpt lat="48.32189" lon="-3.18917">
        <ele>139</ele>
        <time>2013-11-17T09:19:42.1Z</time>
      </trkpt>
      <trkpt lat="48.3219" lon="-3.18917">
        <ele>139</ele>
        <time>2013-11-17T09:19:45.1Z</time>
      </trkpt>
      <trkpt lat="48.32192" lon="-3.18918">
        <ele>139</ele>
        <time>2013-11-17T09:19:48.1Z</time>
      </trkpt>
      <trkpt lat="48.32192" lon="-3.18922">
        <ele>140</ele>
        <time>2013-11-17T09:19:51.1Z</time>
      </trkpt>
      <trkpt lat="48.32193" lon="-3.18922">
        <ele>140</ele>
        <time>2013-11-17T09:19:53.1Z</time>
      </trkpt>
      <trkpt lat="48.32194" lon="-3.18923">
        <ele>140</ele>
        <time>2013-11-17T09:19:56.1Z</time>
      </trkpt>
      <trkpt lat="48.32194" lon="-3.18923">
        <ele>140</ele>
        <time>2013-11-17T09:19:58.1Z</time>
      </trkpt>
      <trkpt lat="48.32196" lon="-3.18922">
        <ele>140</ele>
        <time>2013-11-17T09:20:01.1Z</time>
      </trkpt>
      <trkpt lat="48.32196" lon="-3.18922">
        <ele>140</ele>
        <time>2013-11-17T09:20:03.1Z</time>
      </trkpt>
      <trkpt lat="48.32197" lon="-3.18922">
        <ele>140</ele>
        <time>2013-11-17T09:20:06.1Z</time>
      </trkpt>
      <trkpt lat="48.32198" lon="-3.18921">
        <ele>140</ele>
        <time>2013-11-17T09:20:09.1Z</time>
      </trkpt>
      <trkpt lat="48.32198" lon="-3.18921">
        <ele>141</ele>
        <time>2013-11-17T09:20:11.1Z</time>
      </trkpt>
      <trkpt lat="48.32199" lon="-3.18921">
        <ele>140</ele>
        <time>2013-11-17T09:20:14.1Z</time>
      </trkpt>
      <trkpt lat="48.32201" lon="-3.1892">
        <ele>140</ele>
        <time>2013-11-17T09:20:17.1Z</time>
      </trkpt>
      <trkpt lat="48.32202" lon="-3.1892">
        <ele>140</ele>
        <time>2013-11-17T09:20:20.1Z</time>
      </trkpt>
      <trkpt lat="48.32202" lon="-3.18919">
        <ele>140</ele>
        <time>2013-11-17T09:20:22.1Z</time>
      </trkpt>
      <trkpt lat="48.32203" lon="-3.1892">
        <ele>140</ele>
        <time>2013-11-17T09:20:25.1Z</time>
      </trkpt>
      <trkpt lat="48.32204" lon="-3.1892">
        <ele>140</ele>
        <time>2013-11-17T09:20:27.1Z</time>
      </trkpt>
      <trkpt lat="48.32204" lon="-3.1892">
        <ele>140</ele>
        <time>2013-11-17T09:20:29.1Z</time>
      </trkpt>
      <trkpt lat="48.32205" lon="-3.18919">
        <ele>140</ele>
        <time>2013-11-17T09:20:32.1Z</time>
      </trkpt>
      <trkpt lat="48.32205" lon="-3.18919">
        <ele>140</ele>
        <time>2013-11-17T09:20:34.1Z</time>
      </trkpt>
      <trkpt lat="48.32205" lon="-3.1892">
        <ele>141</ele>
        <time>2013-11-17T09:20:37.1Z</time>
      </trkpt>
      <trkpt lat="48.32205" lon="-3.18921">
        <ele>141</ele>
        <time>2013-11-17T09:20:40.1Z</time>
      </trkpt>
      <trkpt lat="48.32205" lon="-3.18921">
        <ele>140</ele>
        <time>2013-11-17T09:20:44.1Z</time>
      </trkpt>
      <trkpt lat="48.32205" lon="-3.18922">
        <ele>140</ele>
        <time>2013-11-17T09:20:47.1Z</time>
      </trkpt>
      <trkpt lat="48.32206" lon="-3.18922">
        <ele>141</ele>
        <time>2013-11-17T09:20:50.1Z</time>
      </trkpt>
      <trkpt lat="48.32206" lon="-3.18922">
        <ele>141</ele>
        <time>2013-11-17T09:20:53.1Z</time>
      </trkpt>
      <trkpt lat="48.32206" lon="-3.18922">
        <ele>141</ele>
        <time>2013-11-17T09:20:55.1Z</time>
      </trkpt>
      <trkpt lat="48.32209" lon="-3.18922">
        <ele>140</ele>
        <time>2013-11-17T09:20:58.1Z</time>
      </trkpt>
      <trkpt lat="48.3221" lon="-3.18921">
        <ele>140</ele>
        <time>2013-11-17T09:21:01.1Z</time>
      </trkpt>
      <trkpt lat="48.32212" lon="-3.18918">
        <ele>140</ele>
        <time>2013-11-17T09:21:04.1Z</time>
      </trkpt>
      <trkpt lat="48.32214" lon="-3.18916">
        <ele>140</ele>
        <time>2013-11-17T09:21:06.1Z</time>
      </trkpt>
      <trkpt lat="48.32215" lon="-3.18914">
        <ele>139</ele>
        <time>2013-11-17T09:21:09.1Z</time>
      </trkpt>
      <trkpt lat="48.32215" lon="-3.18913">
        <ele>139</ele>
        <time>2013-11-17T09:21:11.1Z</time>
      </trkpt>
      <trkpt lat="48.32217" lon="-3.18911">
        <ele>139</ele>
        <time>2013-11-17T09:21:14.1Z</time>
      </trkpt>
      <trkpt lat="48.32218" lon="-3.18911">
        <ele>139</ele>
        <time>2013-11-17T09:21:16.1Z</time>
      </trkpt>
      <trkpt lat="48.32219" lon="-3.18912">
        <ele>139</ele>
        <time>2013-11-17T09:21:19.1Z</time>
      </trkpt>
      <trkpt lat="48.32221" lon="-3.18912">
        <ele>139</ele>
        <time>2013-11-17T09:21:22.1Z</time>
      </trkpt>
      <trkpt lat="48.32224" lon="-3.18912">
        <ele>138</ele>
        <time>2013-11-17T09:21:25.1Z</time>
      </trkpt>
      <trkpt lat="48.32225" lon="-3.18912">
        <ele>138</ele>
        <time>2013-11-17T09:21:27.1Z</time>
      </trkpt>
      <trkpt lat="48.32227" lon="-3.18912">
        <ele>138</ele>
        <time>2013-11-17T09:21:30.1Z</time>
      </trkpt>
      <trkpt lat="48.32229" lon="-3.18912">
        <ele>137</ele>
        <time>2013-11-17T09:21:32.1Z</time>
      </trkpt>
      <trkpt lat="48.32232" lon="-3.18912">
        <ele>137</ele>
        <time>2013-11-17T09:21:35.1Z</time>
      </trkpt>
      <trkpt lat="48.32233" lon="-3.18912">
        <ele>137</ele>
        <time>2013-11-17T09:21:37.1Z</time>
      </trkpt>
      <trkpt lat="48.32235" lon="-3.18912">
        <ele>137</ele>
        <time>2013-11-17T09:21:40.1Z</time>
      </trkpt>
      <trkpt lat="48.32237" lon="-3.18912">
        <ele>136</ele>
        <time>2013-11-17T09:21:43.1Z</time>
      </trkpt>
      <trkpt lat="48.32239" lon="-3.18912">
        <ele>136</ele>
        <time>2013-11-17T09:21:45.1Z</time>
      </trkpt>
      <trkpt lat="48.3224" lon="-3.18912">
        <ele>137</ele>
        <time>2013-11-17T09:21:47.1Z</time>
      </trkpt>
      <trkpt lat="48.32241" lon="-3.18912">
        <ele>136</ele>
        <time>2013-11-17T09:21:50.1Z</time>
      </trkpt>
      <trkpt lat="48.32243" lon="-3.18913">
        <ele>136</ele>
        <time>2013-11-17T09:21:52.1Z</time>
      </trkpt>
      <trkpt lat="48.32245" lon="-3.18913">
        <ele>136</ele>
        <time>2013-11-17T09:21:55.1Z</time>
      </trkpt>
      <trkpt lat="48.32247" lon="-3.18912">
        <ele>136</ele>
        <time>2013-11-17T09:21:57.1Z</time>
      </trkpt>
      <trkpt lat="48.32249" lon="-3.18912">
        <ele>136</ele>
        <time>2013-11-17T09:22:00.1Z</time>
      </trkpt>
      <trkpt lat="48.32251" lon="-3.18912">
        <ele>136</ele>
        <time>2013-11-17T09:22:02.1Z</time>
      </trkpt>
      <trkpt lat="48.32253" lon="-3.1891">
        <ele>136</ele>
        <time>2013-11-17T09:22:05.1Z</time>
      </trkpt>
      <trkpt lat="48.32257" lon="-3.18909">
        <ele>136</ele>
        <time>2013-11-17T09:22:08.1Z</time>
      </trkpt>
      <trkpt lat="48.3226" lon="-3.18908">
        <ele>136</ele>
        <time>2013-11-17T09:22:10.1Z</time>
      </trkpt>
      <trkpt lat="48.32263" lon="-3.18907">
        <ele>135</ele>
        <time>2013-11-17T09:22:13.1Z</time>
      </trkpt>
      <trkpt lat="48.32267" lon="-3.18908">
        <ele>135</ele>
        <time>2013-11-17T09:22:16.1Z</time>
      </trkpt>
      <trkpt lat="48.3227" lon="-3.18908">
        <ele>135</ele>
        <time>2013-11-17T09:22:19.1Z</time>
      </trkpt>
      <trkpt lat="48.32272" lon="-3.18908">
        <ele>135</ele>
        <time>2013-11-17T09:22:22.1Z</time>
      </trkpt>
      <trkpt lat="48.32275" lon="-3.18905">
        <ele>135</ele>
        <time>2013-11-17T09:22:25.1Z</time>
      </trkpt>
      <trkpt lat="48.32278" lon="-3.18904">
        <ele>135</ele>
        <time>2013-11-17T09:22:28.1Z</time>
      </trkpt>
      <trkpt lat="48.3228" lon="-3.18901">
        <ele>135</ele>
        <time>2013-11-17T09:22:30.1Z</time>
      </trkpt>
      <trkpt lat="48.32283" lon="-3.18898">
        <ele>134</ele>
        <time>2013-11-17T09:22:33.1Z</time>
      </trkpt>
      <trkpt lat="48.32285" lon="-3.18897">
        <ele>134</ele>
        <time>2013-11-17T09:22:35.1Z</time>
      </trkpt>
      <trkpt lat="48.32287" lon="-3.18895">
        <ele>134</ele>
        <time>2013-11-17T09:22:37.1Z</time>
      </trkpt>
      <trkpt lat="48.3229" lon="-3.18892">
        <ele>134</ele>
        <time>2013-11-17T09:22:40.1Z</time>
      </trkpt>
      <trkpt lat="48.32295" lon="-3.18889">
        <ele>133</ele>
        <time>2013-11-17T09:22:43.1Z</time>
      </trkpt>
      <trkpt lat="48.32298" lon="-3.18886">
        <ele>133</ele>
        <time>2013-11-17T09:22:46.1Z</time>
      </trkpt>
      <trkpt lat="48.32299" lon="-3.18884">
        <ele>134</ele>
        <time>2013-11-17T09:22:48.1Z</time>
      </trkpt>
      <trkpt lat="48.32302" lon="-3.18882">
        <ele>134</ele>
        <time>2013-11-17T09:22:50.1Z</time>
      </trkpt>
      <trkpt lat="48.32305" lon="-3.1888">
        <ele>133</ele>
        <time>2013-11-17T09:22:52.1Z</time>
      </trkpt>
      <trkpt lat="48.32307" lon="-3.18877">
        <ele>133</ele>
        <time>2013-11-17T09:22:55.1Z</time>
      </trkpt>
      <trkpt lat="48.32311" lon="-3.18876">
        <ele>133</ele>
        <time>2013-11-17T09:22:58.1Z</time>
      </trkpt>
      <trkpt lat="48.32312" lon="-3.18875">
        <ele>132</ele>
        <time>2013-11-17T09:23:00.1Z</time>
      </trkpt>
      <trkpt lat="48.32314" lon="-3.18873">
        <ele>132</ele>
        <time>2013-11-17T09:23:03.1Z</time>
      </trkpt>
      <trkpt lat="48.32317" lon="-3.18872">
        <ele>132</ele>
        <time>2013-11-17T09:23:05.1Z</time>
      </trkpt>
      <trkpt lat="48.32318" lon="-3.18872">
        <ele>132</ele>
        <time>2013-11-17T09:23:07.1Z</time>
      </trkpt>
      <trkpt lat="48.32322" lon="-3.1887">
        <ele>132</ele>
        <time>2013-11-17T09:23:10.1Z</time>
      </trkpt>
      <trkpt lat="48.32323" lon="-3.18869">
        <ele>132</ele>
        <time>2013-11-17T09:23:12.1Z</time>
      </trkpt>
      <trkpt lat="48.32326" lon="-3.18867">
        <ele>132</ele>
        <time>2013-11-17T09:23:15.1Z</time>
      </trkpt>
      <trkpt lat="48.32328" lon="-3.18866">
        <ele>132</ele>
        <time>2013-11-17T09:23:17.1Z</time>
      </trkpt>
      <trkpt lat="48.32331" lon="-3.18864">
        <ele>132</ele>
        <time>2013-11-17T09:23:20.1Z</time>
      </trkpt>
      <trkpt lat="48.32333" lon="-3.18864">
        <ele>132</ele>
        <time>2013-11-17T09:23:22.1Z</time>
      </trkpt>
      <trkpt lat="48.32333" lon="-3.18863">
        <ele>132</ele>
        <time>2013-11-17T09:23:24.1Z</time>
      </trkpt>
      <trkpt lat="48.32336" lon="-3.18861">
        <ele>132</ele>
        <time>2013-11-17T09:23:27.1Z</time>
      </trkpt>
      <trkpt lat="48.32339" lon="-3.1886">
        <ele>131</ele>
        <time>2013-11-17T09:23:29.1Z</time>
      </trkpt>
      <trkpt lat="48.32341" lon="-3.1886">
        <ele>131</ele>
        <time>2013-11-17T09:23:32.1Z</time>
      </trkpt>
      <trkpt lat="48.32344" lon="-3.18859">
        <ele>132</ele>
        <time>2013-11-17T09:23:35.1Z</time>
      </trkpt>
      <trkpt lat="48.32347" lon="-3.18858">
        <ele>132</ele>
        <time>2013-11-17T09:23:38.1Z</time>
      </trkpt>
      <trkpt lat="48.32349" lon="-3.18857">
        <ele>132</ele>
        <time>2013-11-17T09:23:40.1Z</time>
      </trkpt>
      <trkpt lat="48.32352" lon="-3.18856">
        <ele>131</ele>
        <time>2013-11-17T09:23:43.1Z</time>
      </trkpt>
      <trkpt lat="48.32355" lon="-3.18854">
        <ele>132</ele>
        <time>2013-11-17T09:23:46.1Z</time>
      </trkpt>
      <trkpt lat="48.32356" lon="-3.18851">
        <ele>132</ele>
        <time>2013-11-17T09:23:49.1Z</time>
      </trkpt>
      <trkpt lat="48.3236" lon="-3.18849">
        <ele>132</ele>
        <time>2013-11-17T09:23:52.1Z</time>
      </trkpt>
      <trkpt lat="48.32362" lon="-3.18848">
        <ele>132</ele>
        <time>2013-11-17T09:23:54.1Z</time>
      </trkpt>
      <trkpt lat="48.32366" lon="-3.18846">
        <ele>131</ele>
        <time>2013-11-17T09:23:57.1Z</time>
      </trkpt>
      <trkpt lat="48.32369" lon="-3.18842">
        <ele>131</ele>
        <time>2013-11-17T09:24:00.1Z</time>
      </trkpt>
      <trkpt lat="48.32373" lon="-3.1884">
        <ele>131</ele>
        <time>2013-11-17T09:24:03.1Z</time>
      </trkpt>
      <trkpt lat="48.32375" lon="-3.18837">
        <ele>131</ele>
        <time>2013-11-17T09:24:05.1Z</time>
      </trkpt>
      <trkpt lat="48.32377" lon="-3.18835">
        <ele>131</ele>
        <time>2013-11-17T09:24:07.1Z</time>
      </trkpt>
      <trkpt lat="48.3238" lon="-3.18832">
        <ele>131</ele>
        <time>2013-11-17T09:24:10.1Z</time>
      </trkpt>
      <trkpt lat="48.32382" lon="-3.18829">
        <ele>131</ele>
        <time>2013-11-17T09:24:12.1Z</time>
      </trkpt>
      <trkpt lat="48.32384" lon="-3.18827">
        <ele>132</ele>
        <time>2013-11-17T09:24:15.1Z</time>
      </trkpt>
      <trkpt lat="48.32386" lon="-3.18824">
        <ele>131</ele>
        <time>2013-11-17T09:24:17.1Z</time>
      </trkpt>
      <trkpt lat="48.32389" lon="-3.18821">
        <ele>132</ele>
        <time>2013-11-17T09:24:20.1Z</time>
      </trkpt>
      <trkpt lat="48.32392" lon="-3.18818">
        <ele>131</ele>
        <time>2013-11-17T09:24:23.1Z</time>
      </trkpt>
      <trkpt lat="48.32395" lon="-3.18815">
        <ele>131</ele>
        <time>2013-11-17T09:24:26.1Z</time>
      </trkpt>
      <trkpt lat="48.32396" lon="-3.18815">
        <ele>131</ele>
        <time>2013-11-17T09:24:28.1Z</time>
      </trkpt>
      <trkpt lat="48.32399" lon="-3.18814">
        <ele>131</ele>
        <time>2013-11-17T09:24:31.1Z</time>
      </trkpt>
      <trkpt lat="48.32402" lon="-3.18813">
        <ele>130</ele>
        <time>2013-11-17T09:24:33.1Z</time>
      </trkpt>
      <trkpt lat="48.32406" lon="-3.18812">
        <ele>130</ele>
        <time>2013-11-17T09:24:36.1Z</time>
      </trkpt>
      <trkpt lat="48.3241" lon="-3.1881">
        <ele>130</ele>
        <time>2013-11-17T09:24:39.1Z</time>
      </trkpt>
      <trkpt lat="48.32413" lon="-3.18808">
        <ele>129</ele>
        <time>2013-11-17T09:24:42.1Z</time>
      </trkpt>
      <trkpt lat="48.32416" lon="-3.18805">
        <ele>129</ele>
        <time>2013-11-17T09:24:45.1Z</time>
      </trkpt>
      <trkpt lat="48.32418" lon="-3.18802">
        <ele>129</ele>
        <time>2013-11-17T09:24:48.1Z</time>
      </trkpt>
      <trkpt lat="48.32421" lon="-3.188">
        <ele>128</ele>
        <time>2013-11-17T09:24:50.1Z</time>
      </trkpt>
      <trkpt lat="48.32422" lon="-3.18798">
        <ele>128</ele>
        <time>2013-11-17T09:24:52.1Z</time>
      </trkpt>
      <trkpt lat="48.32423" lon="-3.18793">
        <ele>128</ele>
        <time>2013-11-17T09:24:55.1Z</time>
      </trkpt>
      <trkpt lat="48.32425" lon="-3.18789">
        <ele>128</ele>
        <time>2013-11-17T09:24:57.1Z</time>
      </trkpt>
      <trkpt lat="48.32426" lon="-3.18786">
        <ele>128</ele>
        <time>2013-11-17T09:25:00.1Z</time>
      </trkpt>
      <trkpt lat="48.32427" lon="-3.18783">
        <ele>128</ele>
        <time>2013-11-17T09:25:03.1Z</time>
      </trkpt>
      <trkpt lat="48.32428" lon="-3.18781">
        <ele>128</ele>
        <time>2013-11-17T09:25:06.1Z</time>
      </trkpt>
      <trkpt lat="48.32429" lon="-3.1878">
        <ele>128</ele>
        <time>2013-11-17T09:25:09.1Z</time>
      </trkpt>
      <trkpt lat="48.3243" lon="-3.18778">
        <ele>128</ele>
        <time>2013-11-17T09:25:12.1Z</time>
      </trkpt>
      <trkpt lat="48.32431" lon="-3.18778">
        <ele>128</ele>
        <time>2013-11-17T09:25:14.1Z</time>
      </trkpt>
      <trkpt lat="48.32431" lon="-3.18777">
        <ele>129</ele>
        <time>2013-11-17T09:25:17.1Z</time>
      </trkpt>
      <trkpt lat="48.32431" lon="-3.18776">
        <ele>129</ele>
        <time>2013-11-17T09:25:19.1Z</time>
      </trkpt>
      <trkpt lat="48.32429" lon="-3.18774">
        <ele>129</ele>
        <time>2013-11-17T09:25:21.1Z</time>
      </trkpt>
      <trkpt lat="48.32428" lon="-3.18771">
        <ele>129</ele>
        <time>2013-11-17T09:25:24.1Z</time>
      </trkpt>
      <trkpt lat="48.32426" lon="-3.18771">
        <ele>129</ele>
        <time>2013-11-17T09:25:27.1Z</time>
      </trkpt>
      <trkpt lat="48.32425" lon="-3.18771">
        <ele>129</ele>
        <time>2013-11-17T09:25:29.1Z</time>
      </trkpt>
      <trkpt lat="48.32425" lon="-3.1877">
        <ele>129</ele>
        <time>2013-11-17T09:25:31.1Z</time>
      </trkpt>
      <trkpt lat="48.32424" lon="-3.1877">
        <ele>129</ele>
        <time>2013-11-17T09:25:34.1Z</time>
      </trkpt>
      <trkpt lat="48.32423" lon="-3.18771">
        <ele>129</ele>
        <time>2013-11-17T09:25:36.1Z</time>
      </trkpt>
      <trkpt lat="48.32422" lon="-3.18771">
        <ele>129</ele>
        <time>2013-11-17T09:25:39.1Z</time>
      </trkpt>
      <trkpt lat="48.32423" lon="-3.18769">
        <ele>128</ele>
        <time>2013-11-17T09:25:42.1Z</time>
      </trkpt>
      <trkpt lat="48.32423" lon="-3.18769">
        <ele>128</ele>
        <time>2013-11-17T09:25:44.1Z</time>
      </trkpt>
      <trkpt lat="48.32423" lon="-3.1877">
        <ele>128</ele>
        <time>2013-11-17T09:25:46.1Z</time>
      </trkpt>
      <trkpt lat="48.32424" lon="-3.1877">
        <ele>128</ele>
        <time>2013-11-17T09:25:49.1Z</time>
      </trkpt>
      <trkpt lat="48.32425" lon="-3.1877">
        <ele>129</ele>
        <time>2013-11-17T09:25:51.1Z</time>
      </trkpt>
      <trkpt lat="48.32424" lon="-3.1877">
        <ele>129</ele>
        <time>2013-11-17T09:25:54.1Z</time>
      </trkpt>
      <trkpt lat="48.32425" lon="-3.1877">
        <ele>129</ele>
        <time>2013-11-17T09:25:57.1Z</time>
      </trkpt>
      <trkpt lat="48.32427" lon="-3.1877">
        <ele>129</ele>
        <time>2013-11-17T09:26:00.1Z</time>
      </trkpt>
      <trkpt lat="48.32428" lon="-3.18771">
        <ele>129</ele>
        <time>2013-11-17T09:26:03.1Z</time>
      </trkpt>
      <trkpt lat="48.32428" lon="-3.18771">
        <ele>129</ele>
        <time>2013-11-17T09:26:06.1Z</time>
      </trkpt>
      <trkpt lat="48.32428" lon="-3.18773">
        <ele>129</ele>
        <time>2013-11-17T09:26:09.1Z</time>
      </trkpt>
      <trkpt lat="48.32428" lon="-3.18774">
        <ele>130</ele>
        <time>2013-11-17T09:26:11.1Z</time>
      </trkpt>
      <trkpt lat="48.32428" lon="-3.18774">
        <ele>130</ele>
        <time>2013-11-17T09:26:14.1Z</time>
      </trkpt>
      <trkpt lat="48.32428" lon="-3.18774">
        <ele>130</ele>
        <time>2013-11-17T09:26:16.1Z</time>
      </trkpt>
      <trkpt lat="48.32428" lon="-3.18773">
        <ele>130</ele>
        <time>2013-11-17T09:26:18.1Z</time>
      </trkpt>
      <trkpt lat="48.32427" lon="-3.18773">
        <ele>130</ele>
        <time>2013-11-17T09:26:21.1Z</time>
      </trkpt>
      <trkpt lat="48.32428" lon="-3.18773">
        <ele>130</ele>
        <time>2013-11-17T09:26:25.1Z</time>
      </trkpt>
      <trkpt lat="48.32428" lon="-3.18773">
        <ele>130</ele>
        <time>2013-11-17T09:26:28.1Z</time>
      </trkpt>
      <trkpt lat="48.32428" lon="-3.18774">
        <ele>130</ele>
        <time>2013-11-17T09:26:31.1Z</time>
      </trkpt>
      <trkpt lat="48.32429" lon="-3.18773">
        <ele>130</ele>
        <time>2013-11-17T09:26:33.1Z</time>
      </trkpt>
      <trkpt lat="48.3243" lon="-3.18773">
        <ele>130</ele>
        <time>2013-11-17T09:26:36.1Z</time>
      </trkpt>
      <trkpt lat="48.32431" lon="-3.18773">
        <ele>130</ele>
        <time>2013-11-17T09:26:38.1Z</time>
      </trkpt>
      <trkpt lat="48.32432" lon="-3.18771">
        <ele>130</ele>
        <time>2013-11-17T09:26:41.1Z</time>
      </trkpt>
      <trkpt lat="48.32433" lon="-3.1877">
        <ele>130</ele>
        <time>2013-11-17T09:26:44.1Z</time>
      </trkpt>
      <trkpt lat="48.32433" lon="-3.1877">
        <ele>130</ele>
        <time>2013-11-17T09:26:46.1Z</time>
      </trkpt>
      <trkpt lat="48.32433" lon="-3.1877">
        <ele>130</ele>
        <time>2013-11-17T09:26:48.1Z</time>
      </trkpt>
      <trkpt lat="48.32435" lon="-3.18769">
        <ele>130</ele>
        <time>2013-11-17T09:26:51.1Z</time>
      </trkpt>
      <trkpt lat="48.32435" lon="-3.18769">
        <ele>130</ele>
        <time>2013-11-17T09:26:53.1Z</time>
      </trkpt>
      <trkpt lat="48.32433" lon="-3.1877">
        <ele>130</ele>
        <time>2013-11-17T09:26:56.1Z</time>
      </trkpt>
      <trkpt lat="48.32433" lon="-3.18771">
        <ele>130</ele>
        <time>2013-11-17T09:26:59.1Z</time>
      </trkpt>
      <trkpt lat="48.32434" lon="-3.18771">
        <ele>130</ele>
        <time>2013-11-17T09:27:02.1Z</time>
      </trkpt>
      <trkpt lat="48.32434" lon="-3.18772">
        <ele>130</ele>
        <time>2013-11-17T09:27:05.1Z</time>
      </trkpt>
      <trkpt lat="48.32434" lon="-3.18772">
        <ele>130</ele>
        <time>2013-11-17T09:27:07.1Z</time>
      </trkpt>
      <trkpt lat="48.32434" lon="-3.18771">
        <ele>130</ele>
        <time>2013-11-17T09:27:10.1Z</time>
      </trkpt>
      <trkpt lat="48.32434" lon="-3.18772">
        <ele>130</ele>
        <time>2013-11-17T09:27:13.1Z</time>
      </trkpt>
      <trkpt lat="48.32434" lon="-3.18771">
        <ele>130</ele>
        <time>2013-11-17T09:27:16.1Z</time>
      </trkpt>
      <trkpt lat="48.32435" lon="-3.18771">
        <ele>130</ele>
        <time>2013-11-17T09:27:18.1Z</time>
      </trkpt>
      <trkpt lat="48.32435" lon="-3.18772">
        <ele>130</ele>
        <time>2013-11-17T09:27:20.1Z</time>
      </trkpt>
      <trkpt lat="48.32436" lon="-3.18772">
        <ele>130</ele>
        <time>2013-11-17T09:27:22.1Z</time>
      </trkpt>
      <trkpt lat="48.32439" lon="-3.18771">
        <ele>130</ele>
        <time>2013-11-17T09:27:25.1Z</time>
      </trkpt>
      <trkpt lat="48.32441" lon="-3.18771">
        <ele>130</ele>
        <time>2013-11-17T09:27:27.1Z</time>
      </trkpt>
      <trkpt lat="48.32442" lon="-3.18773">
        <ele>130</ele>
        <time>2013-11-17T09:27:30.1Z</time>
      </trkpt>
      <trkpt lat="48.32444" lon="-3.18773">
        <ele>130</ele>
        <time>2013-11-17T09:27:33.1Z</time>
      </trkpt>
      <trkpt lat="48.32447" lon="-3.18773">
        <ele>130</ele>
        <time>2013-11-17T09:27:36.1Z</time>
      </trkpt>
      <trkpt lat="48.3245" lon="-3.18774">
        <ele>130</ele>
        <time>2013-11-17T09:27:39.1Z</time>
      </trkpt>
      <trkpt lat="48.32452" lon="-3.18777">
        <ele>130</ele>
        <time>2013-11-17T09:27:42.1Z</time>
      </trkpt>
      <trkpt lat="48.32455" lon="-3.18778">
        <ele>130</ele>
        <time>2013-11-17T09:27:45.1Z</time>
      </trkpt>
      <trkpt lat="48.32456" lon="-3.1878">
        <ele>130</ele>
        <time>2013-11-17T09:27:47.1Z</time>
      </trkpt>
      <trkpt lat="48.32457" lon="-3.18783">
        <ele>130</ele>
        <time>2013-11-17T09:27:50.1Z</time>
      </trkpt>
      <trkpt lat="48.32458" lon="-3.18784">
        <ele>130</ele>
        <time>2013-11-17T09:27:53.1Z</time>
      </trkpt>
      <trkpt lat="48.3246" lon="-3.18786">
        <ele>130</ele>
        <time>2013-11-17T09:27:56.1Z</time>
      </trkpt>
      <trkpt lat="48.32462" lon="-3.18787">
        <ele>130</ele>
        <time>2013-11-17T09:27:58.1Z</time>
      </trkpt>
      <trkpt lat="48.32462" lon="-3.18788">
        <ele>130</ele>
        <time>2013-11-17T09:28:00.1Z</time>
      </trkpt>
      <trkpt lat="48.32465" lon="-3.1879">
        <ele>130</ele>
        <time>2013-11-17T09:28:03.1Z</time>
      </trkpt>
      <trkpt lat="48.32468" lon="-3.18793">
        <ele>130</ele>
        <time>2013-11-17T09:28:06.1Z</time>
      </trkpt>
      <trkpt lat="48.32472" lon="-3.18796">
        <ele>130</ele>
        <time>2013-11-17T09:28:09.1Z</time>
      </trkpt>
      <trkpt lat="48.32475" lon="-3.18799">
        <ele>130</ele>
        <time>2013-11-17T09:28:12.1Z</time>
      </trkpt>
      <trkpt lat="48.32477" lon="-3.18803">
        <ele>130</ele>
        <time>2013-11-17T09:28:15.1Z</time>
      </trkpt>
      <trkpt lat="48.32478" lon="-3.18805">
        <ele>130</ele>
        <time>2013-11-17T09:28:17.1Z</time>
      </trkpt>
      <trkpt lat="48.3248" lon="-3.18807">
        <ele>130</ele>
        <time>2013-11-17T09:28:20.1Z</time>
      </trkpt>
      <trkpt lat="48.32483" lon="-3.18809">
        <ele>130</ele>
        <time>2013-11-17T09:28:23.1Z</time>
      </trkpt>
      <trkpt lat="48.32487" lon="-3.18812">
        <ele>130</ele>
        <time>2013-11-17T09:28:26.1Z</time>
      </trkpt>
      <trkpt lat="48.32491" lon="-3.18813">
        <ele>130</ele>
        <time>2013-11-17T09:28:29.1Z</time>
      </trkpt>
      <trkpt lat="48.32493" lon="-3.18816">
        <ele>130</ele>
        <time>2013-11-17T09:28:32.1Z</time>
      </trkpt>
      <trkpt lat="48.32495" lon="-3.18817">
        <ele>130</ele>
        <time>2013-11-17T09:28:34.1Z</time>
      </trkpt>
      <trkpt lat="48.32497" lon="-3.1882">
        <ele>130</ele>
        <time>2013-11-17T09:28:37.1Z</time>
      </trkpt>
      <trkpt lat="48.325" lon="-3.18823">
        <ele>131</ele>
        <time>2013-11-17T09:28:40.1Z</time>
      </trkpt>
      <trkpt lat="48.32501" lon="-3.18823">
        <ele>131</ele>
        <time>2013-11-17T09:28:42.1Z</time>
      </trkpt>
      <trkpt lat="48.32503" lon="-3.18826">
        <ele>131</ele>
        <time>2013-11-17T09:28:45.1Z</time>
      </trkpt>
      <trkpt lat="48.32505" lon="-3.18826">
        <ele>131</ele>
        <time>2013-11-17T09:28:47.1Z</time>
      </trkpt>
      <trkpt lat="48.32506" lon="-3.18829">
        <ele>131</ele>
        <time>2013-11-17T09:28:49.1Z</time>
      </trkpt>
      <trkpt lat="48.32509" lon="-3.1883">
        <ele>131</ele>
        <time>2013-11-17T09:28:52.1Z</time>
      </trkpt>
      <trkpt lat="48.32511" lon="-3.18834">
        <ele>131</ele>
        <time>2013-11-17T09:28:55.1Z</time>
      </trkpt>
      <trkpt lat="48.32514" lon="-3.18838">
        <ele>130</ele>
        <time>2013-11-17T09:28:58.1Z</time>
      </trkpt>
      <trkpt lat="48.32517" lon="-3.18839">
        <ele>130</ele>
        <time>2013-11-17T09:29:00.1Z</time>
      </trkpt>
      <trkpt lat="48.32519" lon="-3.18839">
        <ele>131</ele>
        <time>2013-11-17T09:29:02.1Z</time>
      </trkpt>
      <trkpt lat="48.32521" lon="-3.18841">
        <ele>130</ele>
        <time>2013-11-17T09:29:05.1Z</time>
      </trkpt>
      <trkpt lat="48.32523" lon="-3.18845">
        <ele>131</ele>
        <time>2013-11-17T09:29:08.1Z</time>
      </trkpt>
      <trkpt lat="48.32525" lon="-3.18848">
        <ele>131</ele>
        <time>2013-11-17T09:29:10.1Z</time>
      </trkpt>
      <trkpt lat="48.32528" lon="-3.1885">
        <ele>131</ele>
        <time>2013-11-17T09:29:13.1Z</time>
      </trkpt>
      <trkpt lat="48.3253" lon="-3.18852">
        <ele>131</ele>
        <time>2013-11-17T09:29:15.1Z</time>
      </trkpt>
      <trkpt lat="48.32533" lon="-3.18854">
        <ele>131</ele>
        <time>2013-11-17T09:29:18.1Z</time>
      </trkpt>
      <trkpt lat="48.32535" lon="-3.18855">
        <ele>131</ele>
        <time>2013-11-17T09:29:20.1Z</time>
      </trkpt>
      <trkpt lat="48.32537" lon="-3.18857">
        <ele>131</ele>
        <time>2013-11-17T09:29:22.1Z</time>
      </trkpt>
      <trkpt lat="48.32538" lon="-3.1886">
        <ele>131</ele>
        <time>2013-11-17T09:29:25.1Z</time>
      </trkpt>
      <trkpt lat="48.32539" lon="-3.18863">
        <ele>131</ele>
        <time>2013-11-17T09:29:27.1Z</time>
      </trkpt>
      <trkpt lat="48.32542" lon="-3.18864">
        <ele>131</ele>
        <time>2013-11-17T09:29:30.1Z</time>
      </trkpt>
      <trkpt lat="48.32547" lon="-3.18865">
        <ele>132</ele>
        <time>2013-11-17T09:29:33.1Z</time>
      </trkpt>
      <trkpt lat="48.3255" lon="-3.18866">
        <ele>132</ele>
        <time>2013-11-17T09:29:35.1Z</time>
      </trkpt>
      <trkpt lat="48.32551" lon="-3.18868">
        <ele>132</ele>
        <time>2013-11-17T09:29:37.1Z</time>
      </trkpt>
      <trkpt lat="48.32555" lon="-3.1887">
        <ele>131</ele>
        <time>2013-11-17T09:29:40.1Z</time>
      </trkpt>
      <trkpt lat="48.32558" lon="-3.18874">
        <ele>131</ele>
        <time>2013-11-17T09:29:43.1Z</time>
      </trkpt>
      <trkpt lat="48.32561" lon="-3.18877">
        <ele>131</ele>
        <time>2013-11-17T09:29:46.1Z</time>
      </trkpt>
      <trkpt lat="48.32563" lon="-3.1888">
        <ele>131</ele>
        <time>2013-11-17T09:29:48.1Z</time>
      </trkpt>
      <trkpt lat="48.32564" lon="-3.18883">
        <ele>131</ele>
        <time>2013-11-17T09:29:51.1Z</time>
      </trkpt>
      <trkpt lat="48.32567" lon="-3.18887">
        <ele>131</ele>
        <time>2013-11-17T09:29:54.1Z</time>
      </trkpt>
      <trkpt lat="48.32568" lon="-3.1889">
        <ele>132</ele>
        <time>2013-11-17T09:29:56.1Z</time>
      </trkpt>
      <trkpt lat="48.3257" lon="-3.18893">
        <ele>131</ele>
        <time>2013-11-17T09:29:59.1Z</time>
      </trkpt>
      <trkpt lat="48.32571" lon="-3.18896">
        <ele>131</ele>
        <time>2013-11-17T09:30:01.1Z</time>
      </trkpt>
      <trkpt lat="48.32573" lon="-3.18901">
        <ele>132</ele>
        <time>2013-11-17T09:30:04.1Z</time>
      </trkpt>
      <trkpt lat="48.32575" lon="-3.18903">
        <ele>132</ele>
        <time>2013-11-17T09:30:07.1Z</time>
      </trkpt>
      <trkpt lat="48.32579" lon="-3.18903">
        <ele>132</ele>
        <time>2013-11-17T09:30:09.1Z</time>
      </trkpt>
      <trkpt lat="48.32582" lon="-3.18903">
        <ele>132</ele>
        <time>2013-11-17T09:30:11.1Z</time>
      </trkpt>
      <trkpt lat="48.32587" lon="-3.18903">
        <ele>131</ele>
        <time>2013-11-17T09:30:14.1Z</time>
      </trkpt>
      <trkpt lat="48.32588" lon="-3.18905">
        <ele>131</ele>
        <time>2013-11-17T09:30:16.1Z</time>
      </trkpt>
      <trkpt lat="48.32589" lon="-3.18907">
        <ele>131</ele>
        <time>2013-11-17T09:30:18.1Z</time>
      </trkpt>
      <trkpt lat="48.3259" lon="-3.18911">
        <ele>131</ele>
        <time>2013-11-17T09:30:20.1Z</time>
      </trkpt>
      <trkpt lat="48.32592" lon="-3.18914">
        <ele>131</ele>
        <time>2013-11-17T09:30:22.1Z</time>
      </trkpt>
      <trkpt lat="48.32595" lon="-3.18917">
        <ele>131</ele>
        <time>2013-11-17T09:30:25.1Z</time>
      </trkpt>
      <trkpt lat="48.32599" lon="-3.1892">
        <ele>132</ele>
        <time>2013-11-17T09:30:28.1Z</time>
      </trkpt>
      <trkpt lat="48.32601" lon="-3.18922">
        <ele>132</ele>
        <time>2013-11-17T09:30:30.1Z</time>
      </trkpt>
      <trkpt lat="48.32604" lon="-3.18924">
        <ele>132</ele>
        <time>2013-11-17T09:30:32.1Z</time>
      </trkpt>
      <trkpt lat="48.32607" lon="-3.18927">
        <ele>132</ele>
        <time>2013-11-17T09:30:35.1Z</time>
      </trkpt>
      <trkpt lat="48.32609" lon="-3.18929">
        <ele>132</ele>
        <time>2013-11-17T09:30:37.1Z</time>
      </trkpt>
      <trkpt lat="48.32612" lon="-3.18931">
        <ele>132</ele>
        <time>2013-11-17T09:30:39.1Z</time>
      </trkpt>
      <trkpt lat="48.32615" lon="-3.18933">
        <ele>132</ele>
        <time>2013-11-17T09:30:42.1Z</time>
      </trkpt>
      <trkpt lat="48.32617" lon="-3.18934">
        <ele>132</ele>
        <time>2013-11-17T09:30:44.1Z</time>
      </trkpt>
      <trkpt lat="48.3262" lon="-3.18935">
        <ele>132</ele>
        <time>2013-11-17T09:30:47.1Z</time>
      </trkpt>
      <trkpt lat="48.32622" lon="-3.18938">
        <ele>132</ele>
        <time>2013-11-17T09:30:50.1Z</time>
      </trkpt>
      <trkpt lat="48.32624" lon="-3.1894">
        <ele>132</ele>
        <time>2013-11-17T09:30:52.1Z</time>
      </trkpt>
      <trkpt lat="48.32626" lon="-3.18944">
        <ele>132</ele>
        <time>2013-11-17T09:30:55.1Z</time>
      </trkpt>
      <trkpt lat="48.3263" lon="-3.18947">
        <ele>132</ele>
        <time>2013-11-17T09:30:58.1Z</time>
      </trkpt>
      <trkpt lat="48.32632" lon="-3.18949">
        <ele>132</ele>
        <time>2013-11-17T09:31:00.1Z</time>
      </trkpt>
      <trkpt lat="48.32635" lon="-3.18952">
        <ele>132</ele>
        <time>2013-11-17T09:31:03.1Z</time>
      </trkpt>
      <trkpt lat="48.32638" lon="-3.18953">
        <ele>132</ele>
        <time>2013-11-17T09:31:05.1Z</time>
      </trkpt>
      <trkpt lat="48.32641" lon="-3.18954">
        <ele>132</ele>
        <time>2013-11-17T09:31:08.1Z</time>
      </trkpt>
      <trkpt lat="48.32645" lon="-3.18956">
        <ele>132</ele>
        <time>2013-11-17T09:31:11.1Z</time>
      </trkpt>
      <trkpt lat="48.32647" lon="-3.18959">
        <ele>132</ele>
        <time>2013-11-17T09:31:13.1Z</time>
      </trkpt>
      <trkpt lat="48.3265" lon="-3.18961">
        <ele>132</ele>
        <time>2013-11-17T09:31:16.1Z</time>
      </trkpt>
      <trkpt lat="48.32654" lon="-3.18962">
        <ele>132</ele>
        <time>2013-11-17T09:31:19.1Z</time>
      </trkpt>
      <trkpt lat="48.32658" lon="-3.18964">
        <ele>133</ele>
        <time>2013-11-17T09:31:22.1Z</time>
      </trkpt>
      <trkpt lat="48.32661" lon="-3.18966">
        <ele>133</ele>
        <time>2013-11-17T09:31:25.1Z</time>
      </trkpt>
      <trkpt lat="48.32664" lon="-3.18969">
        <ele>133</ele>
        <time>2013-11-17T09:31:28.1Z</time>
      </trkpt>
      <trkpt lat="48.32666" lon="-3.18973">
        <ele>132</ele>
        <time>2013-11-17T09:31:31.1Z</time>
      </trkpt>
      <trkpt lat="48.32669" lon="-3.18975">
        <ele>133</ele>
        <time>2013-11-17T09:31:34.1Z</time>
      </trkpt>
      <trkpt lat="48.32673" lon="-3.1898">
        <ele>133</ele>
        <time>2013-11-17T09:31:37.1Z</time>
      </trkpt>
      <trkpt lat="48.32674" lon="-3.18982">
        <ele>133</ele>
        <time>2013-11-17T09:31:39.1Z</time>
      </trkpt>
      <trkpt lat="48.32675" lon="-3.18985">
        <ele>133</ele>
        <time>2013-11-17T09:31:41.1Z</time>
      </trkpt>
      <trkpt lat="48.32677" lon="-3.18987">
        <ele>133</ele>
        <time>2013-11-17T09:31:44.1Z</time>
      </trkpt>
      <trkpt lat="48.32679" lon="-3.18989">
        <ele>132</ele>
        <time>2013-11-17T09:31:46.1Z</time>
      </trkpt>
      <trkpt lat="48.32682" lon="-3.18991">
        <ele>132</ele>
        <time>2013-11-17T09:31:49.1Z</time>
      </trkpt>
      <trkpt lat="48.32684" lon="-3.18992">
        <ele>132</ele>
        <time>2013-11-17T09:31:51.1Z</time>
      </trkpt>
      <trkpt lat="48.32687" lon="-3.18994">
        <ele>133</ele>
        <time>2013-11-17T09:31:53.1Z</time>
      </trkpt>
      <trkpt lat="48.32688" lon="-3.18996">
        <ele>133</ele>
        <time>2013-11-17T09:31:55.1Z</time>
      </trkpt>
      <trkpt lat="48.3269" lon="-3.18998">
        <ele>133</ele>
        <time>2013-11-17T09:31:58.1Z</time>
      </trkpt>
      <trkpt lat="48.32691" lon="-3.18999">
        <ele>133</ele>
        <time>2013-11-17T09:32:00.1Z</time>
      </trkpt>
      <trkpt lat="48.32692" lon="-3.19003">
        <ele>133</ele>
        <time>2013-11-17T09:32:03.1Z</time>
      </trkpt>
      <trkpt lat="48.32696" lon="-3.19004">
        <ele>133</ele>
        <time>2013-11-17T09:32:06.1Z</time>
      </trkpt>
      <trkpt lat="48.32699" lon="-3.19005">
        <ele>133</ele>
        <time>2013-11-17T09:32:08.1Z</time>
      </trkpt>
      <trkpt lat="48.32701" lon="-3.19006">
        <ele>133</ele>
        <time>2013-11-17T09:32:10.1Z</time>
      </trkpt>
      <trkpt lat="48.32705" lon="-3.19007">
        <ele>133</ele>
        <time>2013-11-17T09:32:13.1Z</time>
      </trkpt>
      <trkpt lat="48.32709" lon="-3.19007">
        <ele>133</ele>
        <time>2013-11-17T09:32:15.1Z</time>
      </trkpt>
      <trkpt lat="48.32714" lon="-3.19007">
        <ele>133</ele>
        <time>2013-11-17T09:32:18.1Z</time>
      </trkpt>
      <trkpt lat="48.32718" lon="-3.19007">
        <ele>133</ele>
        <time>2013-11-17T09:32:21.1Z</time>
      </trkpt>
      <trkpt lat="48.32721" lon="-3.19007">
        <ele>133</ele>
        <time>2013-11-17T09:32:23.1Z</time>
      </trkpt>
      <trkpt lat="48.32725" lon="-3.19006">
        <ele>133</ele>
        <time>2013-11-17T09:32:26.1Z</time>
      </trkpt>
      <trkpt lat="48.32728" lon="-3.19005">
        <ele>133</ele>
        <time>2013-11-17T09:32:28.1Z</time>
      </trkpt>
      <trkpt lat="48.32733" lon="-3.19004">
        <ele>133</ele>
        <time>2013-11-17T09:32:31.1Z</time>
      </trkpt>
      <trkpt lat="48.32735" lon="-3.19004">
        <ele>133</ele>
        <time>2013-11-17T09:32:33.1Z</time>
      </trkpt>
      <trkpt lat="48.3274" lon="-3.19003">
        <ele>133</ele>
        <time>2013-11-17T09:32:36.1Z</time>
      </trkpt>
      <trkpt lat="48.32742" lon="-3.19004">
        <ele>133</ele>
        <time>2013-11-17T09:32:38.1Z</time>
      </trkpt>
      <trkpt lat="48.32746" lon="-3.19004">
        <ele>133</ele>
        <time>2013-11-17T09:32:41.1Z</time>
      </trkpt>
      <trkpt lat="48.3275" lon="-3.19003">
        <ele>133</ele>
        <time>2013-11-17T09:32:44.1Z</time>
      </trkpt>
      <trkpt lat="48.32755" lon="-3.19002">
        <ele>133</ele>
        <time>2013-11-17T09:32:47.1Z</time>
      </trkpt>
      <trkpt lat="48.32757" lon="-3.19003">
        <ele>133</ele>
        <time>2013-11-17T09:32:49.1Z</time>
      </trkpt>
      <trkpt lat="48.32759" lon="-3.19004">
        <ele>133</ele>
        <time>2013-11-17T09:32:51.1Z</time>
      </trkpt>
      <trkpt lat="48.32762" lon="-3.19004">
        <ele>133</ele>
        <time>2013-11-17T09:32:53.1Z</time>
      </trkpt>
      <trkpt lat="48.32764" lon="-3.19004">
        <ele>133</ele>
        <time>2013-11-17T09:32:55.1Z</time>
      </trkpt>
      <trkpt lat="48.32767" lon="-3.19003">
        <ele>133</ele>
        <time>2013-11-17T09:32:58.1Z</time>
      </trkpt>
      <trkpt lat="48.32772" lon="-3.19002">
        <ele>134</ele>
        <time>2013-11-17T09:33:01.1Z</time>
      </trkpt>
      <trkpt lat="48.32776" lon="-3.19">
        <ele>134</ele>
        <time>2013-11-17T09:33:04.1Z</time>
      </trkpt>
      <trkpt lat="48.32779" lon="-3.19">
        <ele>134</ele>
        <time>2013-11-17T09:33:07.1Z</time>
      </trkpt>
      <trkpt lat="48.32782" lon="-3.18998">
        <ele>134</ele>
        <time>2013-11-17T09:33:09.1Z</time>
      </trkpt>
      <trkpt lat="48.32785" lon="-3.18996">
        <ele>134</ele>
        <time>2013-11-17T09:33:11.1Z</time>
      </trkpt>
      <trkpt lat="48.32788" lon="-3.18995">
        <ele>133</ele>
        <time>2013-11-17T09:33:14.1Z</time>
      </trkpt>
      <trkpt lat="48.3279" lon="-3.18993">
        <ele>133</ele>
        <time>2013-11-17T09:33:16.1Z</time>
      </trkpt>
      <trkpt lat="48.32793" lon="-3.18993">
        <ele>133</ele>
        <time>2013-11-17T09:33:19.1Z</time>
      </trkpt>
      <trkpt lat="48.32796" lon="-3.18992">
        <ele>133</ele>
        <time>2013-11-17T09:33:21.1Z</time>
      </trkpt>
      <trkpt lat="48.32798" lon="-3.18994">
        <ele>133</ele>
        <time>2013-11-17T09:33:24.1Z</time>
      </trkpt>
      <trkpt lat="48.328" lon="-3.18992">
        <ele>133</ele>
        <time>2013-11-17T09:33:27.1Z</time>
      </trkpt>
      <trkpt lat="48.32802" lon="-3.18991">
        <ele>133</ele>
        <time>2013-11-17T09:33:29.1Z</time>
      </trkpt>
      <trkpt lat="48.32804" lon="-3.1899">
        <ele>133</ele>
        <time>2013-11-17T09:33:32.1Z</time>
      </trkpt>
      <trkpt lat="48.32806" lon="-3.18989">
        <ele>133</ele>
        <time>2013-11-17T09:33:35.1Z</time>
      </trkpt>
      <trkpt lat="48.3281" lon="-3.18987">
        <ele>133</ele>
        <time>2013-11-17T09:33:38.1Z</time>
      </trkpt>
      <trkpt lat="48.32811" lon="-3.18985">
        <ele>134</ele>
        <time>2013-11-17T09:33:40.1Z</time>
      </trkpt>
      <trkpt lat="48.32814" lon="-3.18982">
        <ele>134</ele>
        <time>2013-11-17T09:33:43.1Z</time>
      </trkpt>
      <trkpt lat="48.32819" lon="-3.18979">
        <ele>134</ele>
        <time>2013-11-17T09:33:46.1Z</time>
      </trkpt>
      <trkpt lat="48.32822" lon="-3.18975">
        <ele>134</ele>
        <time>2013-11-17T09:33:49.1Z</time>
      </trkpt>
      <trkpt lat="48.32824" lon="-3.18974">
        <ele>133</ele>
        <time>2013-11-17T09:33:51.1Z</time>
      </trkpt>
      <trkpt lat="48.32826" lon="-3.18972">
        <ele>133</ele>
        <time>2013-11-17T09:33:53.1Z</time>
      </trkpt>
      <trkpt lat="48.3283" lon="-3.18969">
        <ele>133</ele>
        <time>2013-11-17T09:33:56.1Z</time>
      </trkpt>
      <trkpt lat="48.32833" lon="-3.18967">
        <ele>133</ele>
        <time>2013-11-17T09:33:59.1Z</time>
      </trkpt>
      <trkpt lat="48.32835" lon="-3.18965">
        <ele>133</ele>
        <time>2013-11-17T09:34:01.1Z</time>
      </trkpt>
      <trkpt lat="48.32839" lon="-3.18962">
        <ele>133</ele>
        <time>2013-11-17T09:34:04.1Z</time>
      </trkpt>
      <trkpt lat="48.32841" lon="-3.18959">
        <ele>133</ele>
        <time>2013-11-17T09:34:06.1Z</time>
      </trkpt>
      <trkpt lat="48.32844" lon="-3.18956">
        <ele>133</ele>
        <time>2013-11-17T09:34:08.1Z</time>
      </trkpt>
      <trkpt lat="48.32846" lon="-3.18955">
        <ele>133</ele>
        <time>2013-11-17T09:34:10.1Z</time>
      </trkpt>
      <trkpt lat="48.3285" lon="-3.18952">
        <ele>133</ele>
        <time>2013-11-17T09:34:13.1Z</time>
      </trkpt>
      <trkpt lat="48.32852" lon="-3.1895">
        <ele>133</ele>
        <time>2013-11-17T09:34:15.1Z</time>
      </trkpt>
      <trkpt lat="48.32856" lon="-3.18946">
        <ele>133</ele>
        <time>2013-11-17T09:34:18.1Z</time>
      </trkpt>
      <trkpt lat="48.3286" lon="-3.18941">
        <ele>133</ele>
        <time>2013-11-17T09:34:21.1Z</time>
      </trkpt>
      <trkpt lat="48.32863" lon="-3.18938">
        <ele>133</ele>
        <time>2013-11-17T09:34:23.1Z</time>
      </trkpt>
      <trkpt lat="48.32867" lon="-3.18933">
        <ele>133</ele>
        <time>2013-11-17T09:34:26.1Z</time>
      </trkpt>
      <trkpt lat="48.32869" lon="-3.1893">
        <ele>134</ele>
        <time>2013-11-17T09:34:28.1Z</time>
      </trkpt>
      <trkpt lat="48.32873" lon="-3.18926">
        <ele>134</ele>
        <time>2013-11-17T09:34:31.1Z</time>
      </trkpt>
      <trkpt lat="48.32876" lon="-3.18923">
        <ele>133</ele>
        <time>2013-11-17T09:34:34.1Z</time>
      </trkpt>
      <trkpt lat="48.32878" lon="-3.1892">
        <ele>133</ele>
        <time>2013-11-17T09:34:36.1Z</time>
      </trkpt>
      <trkpt lat="48.32882" lon="-3.18918">
        <ele>133</ele>
        <time>2013-11-17T09:34:39.1Z</time>
      </trkpt>
      <trkpt lat="48.32885" lon="-3.18916">
        <ele>133</ele>
        <time>2013-11-17T09:34:42.1Z</time>
      </trkpt>
      <trkpt lat="48.32888" lon="-3.18914">
        <ele>133</ele>
        <time>2013-11-17T09:34:44.1Z</time>
      </trkpt>
      <trkpt lat="48.3289" lon="-3.18913">
        <ele>133</ele>
        <time>2013-11-17T09:34:47.1Z</time>
      </trkpt>
      <trkpt lat="48.32892" lon="-3.1891">
        <ele>133</ele>
        <time>2013-11-17T09:34:49.1Z</time>
      </trkpt>
      <trkpt lat="48.32894" lon="-3.18907">
        <ele>133</ele>
        <time>2013-11-17T09:34:51.1Z</time>
      </trkpt>
      <trkpt lat="48.32898" lon="-3.18903">
        <ele>133</ele>
        <time>2013-11-17T09:34:54.1Z</time>
      </trkpt>
      <trkpt lat="48.32902" lon="-3.18901">
        <ele>133</ele>
        <time>2013-11-17T09:34:57.1Z</time>
      </trkpt>
      <trkpt lat="48.32904" lon="-3.18898">
        <ele>134</ele>
        <time>2013-11-17T09:34:59.1Z</time>
      </trkpt>
      <trkpt lat="48.32906" lon="-3.18894">
        <ele>134</ele>
        <time>2013-11-17T09:35:02.1Z</time>
      </trkpt>
      <trkpt lat="48.32908" lon="-3.18891">
        <ele>134</ele>
        <time>2013-11-17T09:35:04.1Z</time>
      </trkpt>
      <trkpt lat="48.3291" lon="-3.18889">
        <ele>133</ele>
        <time>2013-11-17T09:35:07.1Z</time>
      </trkpt>
      <trkpt lat="48.32912" lon="-3.18887">
        <ele>133</ele>
        <time>2013-11-17T09:35:09.1Z</time>
      </trkpt>
      <trkpt lat="48.32913" lon="-3.18884">
        <ele>134</ele>
        <time>2013-11-17T09:35:12.1Z</time>
      </trkpt>
      <trkpt lat="48.32914" lon="-3.18883">
        <ele>134</ele>
        <time>2013-11-17T09:35:14.1Z</time>
      </trkpt>
      <trkpt lat="48.32916" lon="-3.18881">
        <ele>134</ele>
        <time>2013-11-17T09:35:17.1Z</time>
      </trkpt>
      <trkpt lat="48.32918" lon="-3.1888">
        <ele>134</ele>
        <time>2013-11-17T09:35:19.1Z</time>
      </trkpt>
      <trkpt lat="48.3292" lon="-3.18878">
        <ele>134</ele>
        <time>2013-11-17T09:35:22.1Z</time>
      </trkpt>
      <trkpt lat="48.32922" lon="-3.18876">
        <ele>134</ele>
        <time>2013-11-17T09:35:24.1Z</time>
      </trkpt>
      <trkpt lat="48.32926" lon="-3.18872">
        <ele>134</ele>
        <time>2013-11-17T09:35:27.1Z</time>
      </trkpt>
      <trkpt lat="48.32929" lon="-3.1887">
        <ele>134</ele>
        <time>2013-11-17T09:35:30.1Z</time>
      </trkpt>
      <trkpt lat="48.32932" lon="-3.18869">
        <ele>134</ele>
        <time>2013-11-17T09:35:32.1Z</time>
      </trkpt>
      <trkpt lat="48.32935" lon="-3.18867">
        <ele>134</ele>
        <time>2013-11-17T09:35:34.1Z</time>
      </trkpt>
      <trkpt lat="48.32937" lon="-3.18866">
        <ele>134</ele>
        <time>2013-11-17T09:35:36.1Z</time>
      </trkpt>
      <trkpt lat="48.3294" lon="-3.18865">
        <ele>134</ele>
        <time>2013-11-17T09:35:39.1Z</time>
      </trkpt>
      <trkpt lat="48.3294" lon="-3.18864">
        <ele>134</ele>
        <time>2013-11-17T09:35:41.1Z</time>
      </trkpt>
      <trkpt lat="48.32942" lon="-3.18863">
        <ele>134</ele>
        <time>2013-11-17T09:35:44.1Z</time>
      </trkpt>
      <trkpt lat="48.32946" lon="-3.1886">
        <ele>134</ele>
        <time>2013-11-17T09:35:47.1Z</time>
      </trkpt>
      <trkpt lat="48.32949" lon="-3.18859">
        <ele>133</ele>
        <time>2013-11-17T09:35:50.1Z</time>
      </trkpt>
      <trkpt lat="48.3295" lon="-3.18856">
        <ele>133</ele>
        <time>2013-11-17T09:35:53.1Z</time>
      </trkpt>
      <trkpt lat="48.3295" lon="-3.18855">
        <ele>133</ele>
        <time>2013-11-17T09:35:55.1Z</time>
      </trkpt>
      <trkpt lat="48.3295" lon="-3.18854">
        <ele>134</ele>
        <time>2013-11-17T09:35:58.1Z</time>
      </trkpt>
      <trkpt lat="48.32949" lon="-3.18853">
        <ele>134</ele>
        <time>2013-11-17T09:36:01.1Z</time>
      </trkpt>
      <trkpt lat="48.32949" lon="-3.18851">
        <ele>134</ele>
        <time>2013-11-17T09:36:04.1Z</time>
      </trkpt>
      <trkpt lat="48.32949" lon="-3.1885">
        <ele>133</ele>
        <time>2013-11-17T09:36:06.1Z</time>
      </trkpt>
      <trkpt lat="48.3295" lon="-3.18849">
        <ele>133</ele>
        <time>2013-11-17T09:36:09.1Z</time>
      </trkpt>
      <trkpt lat="48.32951" lon="-3.18848">
        <ele>133</ele>
        <time>2013-11-17T09:36:12.1Z</time>
      </trkpt>
      <trkpt lat="48.32951" lon="-3.18848">
        <ele>134</ele>
        <time>2013-11-17T09:36:14.1Z</time>
      </trkpt>
      <trkpt lat="48.32952" lon="-3.18848">
        <ele>134</ele>
        <time>2013-11-17T09:36:17.1Z</time>
      </trkpt>
      <trkpt lat="48.32953" lon="-3.18847">
        <ele>134</ele>
        <time>2013-11-17T09:36:19.1Z</time>
      </trkpt>
      <trkpt lat="48.32953" lon="-3.18846">
        <ele>134</ele>
        <time>2013-11-17T09:36:22.1Z</time>
      </trkpt>
      <trkpt lat="48.32954" lon="-3.18847">
        <ele>134</ele>
        <time>2013-11-17T09:36:25.1Z</time>
      </trkpt>
      <trkpt lat="48.32954" lon="-3.18846">
        <ele>134</ele>
        <time>2013-11-17T09:36:28.1Z</time>
      </trkpt>
      <trkpt lat="48.32955" lon="-3.18846">
        <ele>134</ele>
        <time>2013-11-17T09:36:30.1Z</time>
      </trkpt>
      <trkpt lat="48.32955" lon="-3.18847">
        <ele>134</ele>
        <time>2013-11-17T09:36:33.1Z</time>
      </trkpt>
      <trkpt lat="48.32954" lon="-3.18847">
        <ele>134</ele>
        <time>2013-11-17T09:36:35.1Z</time>
      </trkpt>
      <trkpt lat="48.32955" lon="-3.18848">
        <ele>134</ele>
        <time>2013-11-17T09:36:37.1Z</time>
      </trkpt>
      <trkpt lat="48.32956" lon="-3.18847">
        <ele>134</ele>
        <time>2013-11-17T09:36:40.1Z</time>
      </trkpt>
      <trkpt lat="48.32956" lon="-3.18847">
        <ele>134</ele>
        <time>2013-11-17T09:36:43.1Z</time>
      </trkpt>
      <trkpt lat="48.32956" lon="-3.18847">
        <ele>134</ele>
        <time>2013-11-17T09:36:46.1Z</time>
      </trkpt>
      <trkpt lat="48.32957" lon="-3.18846">
        <ele>134</ele>
        <time>2013-11-17T09:36:48.1Z</time>
      </trkpt>
      <trkpt lat="48.32958" lon="-3.18845">
        <ele>134</ele>
        <time>2013-11-17T09:36:51.1Z</time>
      </trkpt>
      <trkpt lat="48.32958" lon="-3.18845">
        <ele>134</ele>
        <time>2013-11-17T09:36:54.1Z</time>
      </trkpt>
      <trkpt lat="48.32958" lon="-3.18845">
        <ele>134</ele>
        <time>2013-11-17T09:36:56.1Z</time>
      </trkpt>
      <trkpt lat="48.32955" lon="-3.18847">
        <ele>134</ele>
        <time>2013-11-17T09:36:59.1Z</time>
      </trkpt>
      <trkpt lat="48.32955" lon="-3.18847">
        <ele>134</ele>
        <time>2013-11-17T09:37:02.1Z</time>
      </trkpt>
      <trkpt lat="48.32955" lon="-3.18847">
        <ele>134</ele>
        <time>2013-11-17T09:37:05.1Z</time>
      </trkpt>
      <trkpt lat="48.32954" lon="-3.18848">
        <ele>134</ele>
        <time>2013-11-17T09:37:08.1Z</time>
      </trkpt>
      <trkpt lat="48.32954" lon="-3.18849">
        <ele>134</ele>
        <time>2013-11-17T09:37:10.1Z</time>
      </trkpt>
      <trkpt lat="48.32953" lon="-3.18851">
        <ele>134</ele>
        <time>2013-11-17T09:37:13.1Z</time>
      </trkpt>
      <trkpt lat="48.32952" lon="-3.18851">
        <ele>134</ele>
        <time>2013-11-17T09:37:17.1Z</time>
      </trkpt>
      <trkpt lat="48.32951" lon="-3.18851">
        <ele>134</ele>
        <time>2013-11-17T09:37:20.1Z</time>
      </trkpt>
      <trkpt lat="48.32952" lon="-3.18851">
        <ele>134</ele>
        <time>2013-11-17T09:37:22.1Z</time>
      </trkpt>
      <trkpt lat="48.32953" lon="-3.18851">
        <ele>134</ele>
        <time>2013-11-17T09:37:25.1Z</time>
      </trkpt>
      <trkpt lat="48.32954" lon="-3.1885">
        <ele>134</ele>
        <time>2013-11-17T09:37:27.1Z</time>
      </trkpt>
      <trkpt lat="48.32955" lon="-3.1885">
        <ele>134</ele>
        <time>2013-11-17T09:37:30.1Z</time>
      </trkpt>
      <trkpt lat="48.32956" lon="-3.1885">
        <ele>134</ele>
        <time>2013-11-17T09:37:33.1Z</time>
      </trkpt>
      <trkpt lat="48.32956" lon="-3.1885">
        <ele>134</ele>
        <time>2013-11-17T09:37:36.1Z</time>
      </trkpt>
      <trkpt lat="48.32956" lon="-3.18851">
        <ele>134</ele>
        <time>2013-11-17T09:37:38.1Z</time>
      </trkpt>
      <trkpt lat="48.32956" lon="-3.18852">
        <ele>134</ele>
        <time>2013-11-17T09:37:40.1Z</time>
      </trkpt>
      <trkpt lat="48.32957" lon="-3.18852">
        <ele>134</ele>
        <time>2013-11-17T09:37:43.1Z</time>
      </trkpt>
      <trkpt lat="48.32957" lon="-3.18852">
        <ele>134</ele>
        <time>2013-11-17T09:37:45.1Z</time>
      </trkpt>
      <trkpt lat="48.32957" lon="-3.18851">
        <ele>134</ele>
        <time>2013-11-17T09:37:48.1Z</time>
      </trkpt>
      <trkpt lat="48.32959" lon="-3.18851">
        <ele>134</ele>
        <time>2013-11-17T09:37:51.1Z</time>
      </trkpt>
      <trkpt lat="48.32959" lon="-3.18851">
        <ele>134</ele>
        <time>2013-11-17T09:37:53.1Z</time>
      </trkpt>
      <trkpt lat="48.32959" lon="-3.18851">
        <ele>134</ele>
        <time>2013-11-17T09:37:56.1Z</time>
      </trkpt>
      <trkpt lat="48.32958" lon="-3.18851">
        <ele>134</ele>
        <time>2013-11-17T09:37:58.1Z</time>
      </trkpt>
      <trkpt lat="48.32958" lon="-3.18851">
        <ele>134</ele>
        <time>2013-11-17T09:38:01.1Z</time>
      </trkpt>
      <trkpt lat="48.32958" lon="-3.1885">
        <ele>134</ele>
        <time>2013-11-17T09:38:04.1Z</time>
      </trkpt>
      <trkpt lat="48.32958" lon="-3.18849">
        <ele>134</ele>
        <time>2013-11-17T09:38:07.1Z</time>
      </trkpt>
      <trkpt lat="48.32958" lon="-3.18849">
        <ele>134</ele>
        <time>2013-11-17T09:38:09.1Z</time>
      </trkpt>
      <trkpt lat="48.32957" lon="-3.1885">
        <ele>134</ele>
        <time>2013-11-17T09:38:12.1Z</time>
      </trkpt>
      <trkpt lat="48.32956" lon="-3.18852">
        <ele>134</ele>
        <time>2013-11-17T09:38:15.1Z</time>
      </trkpt>
      <trkpt lat="48.32956" lon="-3.18854">
        <ele>134</ele>
        <time>2013-11-17T09:38:17.1Z</time>
      </trkpt>
      <trkpt lat="48.32956" lon="-3.18855">
        <ele>134</ele>
        <time>2013-11-17T09:38:19.1Z</time>
      </trkpt>
      <trkpt lat="48.32955" lon="-3.18856">
        <ele>134</ele>
        <time>2013-11-17T09:38:22.1Z</time>
      </trkpt>
      <trkpt lat="48.32957" lon="-3.18855">
        <ele>134</ele>
        <time>2013-11-17T09:38:25.1Z</time>
      </trkpt>
      <trkpt lat="48.32957" lon="-3.18855">
        <ele>135</ele>
        <time>2013-11-17T09:38:28.1Z</time>
      </trkpt>
      <trkpt lat="48.32957" lon="-3.18854">
        <ele>134</ele>
        <time>2013-11-17T09:38:31.1Z</time>
      </trkpt>
      <trkpt lat="48.32957" lon="-3.18854">
        <ele>134</ele>
        <time>2013-11-17T09:38:33.1Z</time>
      </trkpt>
      <trkpt lat="48.32957" lon="-3.18853">
        <ele>134</ele>
        <time>2013-11-17T09:38:35.1Z</time>
      </trkpt>
      <trkpt lat="48.32957" lon="-3.18852">
        <ele>134</ele>
        <time>2013-11-17T09:38:38.1Z</time>
      </trkpt>
      <trkpt lat="48.32957" lon="-3.18851">
        <ele>134</ele>
        <time>2013-11-17T09:38:40.1Z</time>
      </trkpt>
      <trkpt lat="48.32957" lon="-3.1885">
        <ele>134</ele>
        <time>2013-11-17T09:38:42.1Z</time>
      </trkpt>
      <trkpt lat="48.32956" lon="-3.18849">
        <ele>134</ele>
        <time>2013-11-17T09:38:45.1Z</time>
      </trkpt>
      <trkpt lat="48.32955" lon="-3.18848">
        <ele>134</ele>
        <time>2013-11-17T09:38:48.1Z</time>
      </trkpt>
      <trkpt lat="48.32955" lon="-3.18848">
        <ele>134</ele>
        <time>2013-11-17T09:38:50.1Z</time>
      </trkpt>
      <trkpt lat="48.32954" lon="-3.18848">
        <ele>134</ele>
        <time>2013-11-17T09:38:53.1Z</time>
      </trkpt>
      <trkpt lat="48.32954" lon="-3.18847">
        <ele>135</ele>
        <time>2013-11-17T09:38:56.1Z</time>
      </trkpt>
      <trkpt lat="48.32954" lon="-3.18846">
        <ele>134</ele>
        <time>2013-11-17T09:38:59.1Z</time>
      </trkpt>
      <trkpt lat="48.32955" lon="-3.18845">
        <ele>134</ele>
        <time>2013-11-17T09:39:01.1Z</time>
      </trkpt>
      <trkpt lat="48.32956" lon="-3.18845">
        <ele>134</ele>
        <time>2013-11-17T09:39:04.1Z</time>
      </trkpt>
      <trkpt lat="48.32956" lon="-3.18845">
        <ele>134</ele>
        <time>2013-11-17T09:39:06.1Z</time>
      </trkpt>
      <trkpt lat="48.32956" lon="-3.18845">
        <ele>134</ele>
        <time>2013-11-17T09:39:10.1Z</time>
      </trkpt>
      <trkpt lat="48.32956" lon="-3.18846">
        <ele>134</ele>
        <time>2013-11-17T09:39:12.1Z</time>
      </trkpt>
      <trkpt lat="48.32955" lon="-3.18847">
        <ele>134</ele>
        <time>2013-11-17T09:39:14.1Z</time>
      </trkpt>
      <trkpt lat="48.32955" lon="-3.18847">
        <ele>134</ele>
        <time>2013-11-17T09:39:17.1Z</time>
      </trkpt>
      <trkpt lat="48.32956" lon="-3.18847">
        <ele>134</ele>
        <time>2013-11-17T09:39:19.1Z</time>
      </trkpt>
      <trkpt lat="48.32956" lon="-3.18847">
        <ele>134</ele>
        <time>2013-11-17T09:39:21.1Z</time>
      </trkpt>
      <trkpt lat="48.32957" lon="-3.18847">
        <ele>134</ele>
        <time>2013-11-17T09:39:24.1Z</time>
      </trkpt>
      <trkpt lat="48.32957" lon="-3.18847">
        <ele>134</ele>
        <time>2013-11-17T09:39:26.1Z</time>
      </trkpt>
      <trkpt lat="48.32957" lon="-3.18847">
        <ele>134</ele>
        <time>2013-11-17T09:39:29.1Z</time>
      </trkpt>
      <trkpt lat="48.32958" lon="-3.18847">
        <ele>134</ele>
        <time>2013-11-17T09:39:32.1Z</time>
      </trkpt>
      <trkpt lat="48.32958" lon="-3.18847">
        <ele>134</ele>
        <time>2013-11-17T09:39:34.1Z</time>
      </trkpt>
      <trkpt lat="48.32958" lon="-3.18847">
        <ele>134</ele>
        <time>2013-11-17T09:39:37.1Z</time>
      </trkpt>
      <trkpt lat="48.32958" lon="-3.18847">
        <ele>134</ele>
        <time>2013-11-17T09:39:39.1Z</time>
      </trkpt>
      <trkpt lat="48.32958" lon="-3.18846">
        <ele>135</ele>
        <time>2013-11-17T09:39:41.1Z</time>
      </trkpt>
      <trkpt lat="48.32958" lon="-3.18846">
        <ele>135</ele>
        <time>2013-11-17T09:39:44.1Z</time>
      </trkpt>
      <trkpt lat="48.32959" lon="-3.18846">
        <ele>135</ele>
        <time>2013-11-17T09:39:46.1Z</time>
      </trkpt>
      <trkpt lat="48.32959" lon="-3.18846">
        <ele>135</ele>
        <time>2013-11-17T09:39:49.1Z</time>
      </trkpt>
      <trkpt lat="48.32959" lon="-3.18845">
        <ele>134</ele>
        <time>2013-11-17T09:39:52.1Z</time>
      </trkpt>
      <trkpt lat="48.32959" lon="-3.18845">
        <ele>134</ele>
        <time>2013-11-17T09:39:54.1Z</time>
      </trkpt>
      <trkpt lat="48.32959" lon="-3.18845">
        <ele>134</ele>
        <time>2013-11-17T09:39:57.1Z</time>
      </trkpt>
      <trkpt lat="48.32958" lon="-3.18846">
        <ele>134</ele>
        <time>2013-11-17T09:39:59.1Z</time>
      </trkpt>
      <trkpt lat="48.32957" lon="-3.18847">
        <ele>134</ele>
        <time>2013-11-17T09:40:02.1Z</time>
      </trkpt>
      <trkpt lat="48.32957" lon="-3.18847">
        <ele>134</ele>
        <time>2013-11-17T09:40:04.1Z</time>
      </trkpt>
      <trkpt lat="48.32956" lon="-3.18848">
        <ele>134</ele>
        <time>2013-11-17T09:40:07.1Z</time>
      </trkpt>
      <trkpt lat="48.32956" lon="-3.18849">
        <ele>134</ele>
        <time>2013-11-17T09:40:09.1Z</time>
      </trkpt>
      <trkpt lat="48.32956" lon="-3.1885">
        <ele>134</ele>
        <time>2013-11-17T09:40:11.1Z</time>
      </trkpt>
      <trkpt lat="48.32956" lon="-3.18851">
        <ele>134</ele>
        <time>2013-11-17T09:40:14.1Z</time>
      </trkpt>
      <trkpt lat="48.32956" lon="-3.18851">
        <ele>134</ele>
        <time>2013-11-17T09:40:16.1Z</time>
      </trkpt>
      <trkpt lat="48.32957" lon="-3.1885">
        <ele>133</ele>
        <time>2013-11-17T09:40:19.1Z</time>
      </trkpt>
      <trkpt lat="48.32957" lon="-3.18849">
        <ele>133</ele>
        <time>2013-11-17T09:40:22.1Z</time>
      </trkpt>
      <trkpt lat="48.32958" lon="-3.18848">
        <ele>134</ele>
        <time>2013-11-17T09:40:25.1Z</time>
      </trkpt>
      <trkpt lat="48.32958" lon="-3.18848">
        <ele>134</ele>
        <time>2013-11-17T09:40:28.1Z</time>
      </trkpt>
      <trkpt lat="48.32958" lon="-3.18848">
        <ele>134</ele>
        <time>2013-11-17T09:40:31.1Z</time>
      </trkpt>
      <trkpt lat="48.32958" lon="-3.18847">
        <ele>134</ele>
        <time>2013-11-17T09:40:34.1Z</time>
      </trkpt>
      <trkpt lat="48.32959" lon="-3.18846">
        <ele>134</ele>
        <time>2013-11-17T09:40:37.1Z</time>
      </trkpt>
      <trkpt lat="48.32959" lon="-3.18846">
        <ele>134</ele>
        <time>2013-11-17T09:40:39.1Z</time>
      </trkpt>
      <trkpt lat="48.32959" lon="-3.18846">
        <ele>134</ele>
        <time>2013-11-17T09:40:41.1Z</time>
      </trkpt>
      <trkpt lat="48.3296" lon="-3.18847">
        <ele>134</ele>
        <time>2013-11-17T09:40:43.1Z</time>
      </trkpt>
      <trkpt lat="48.3296" lon="-3.18846">
        <ele>134</ele>
        <time>2013-11-17T09:40:46.1Z</time>
      </trkpt>
      <trkpt lat="48.3296" lon="-3.18846">
        <ele>134</ele>
        <time>2013-11-17T09:40:48.1Z</time>
      </trkpt>
      <trkpt lat="48.3296" lon="-3.18846">
        <ele>135</ele>
        <time>2013-11-17T09:40:51.1Z</time>
      </trkpt>
      <trkpt lat="48.3296" lon="-3.18846">
        <ele>135</ele>
        <time>2013-11-17T09:40:53.1Z</time>
      </trkpt>
      <trkpt lat="48.32958" lon="-3.18847">
        <ele>135</ele>
        <time>2013-11-17T09:40:55.1Z</time>
      </trkpt>
      <trkpt lat="48.32957" lon="-3.18848">
        <ele>134</ele>
        <time>2013-11-17T09:40:59.1Z</time>
      </trkpt>
      <trkpt lat="48.32955" lon="-3.1885">
        <ele>134</ele>
        <time>2013-11-17T09:41:01.1Z</time>
      </trkpt>
      <trkpt lat="48.32954" lon="-3.18851">
        <ele>134</ele>
        <time>2013-11-17T09:41:04.1Z</time>
      </trkpt>
      <trkpt lat="48.32953" lon="-3.18851">
        <ele>134</ele>
        <time>2013-11-17T09:41:06.1Z</time>
      </trkpt>
      <trkpt lat="48.32952" lon="-3.18852">
        <ele>134</ele>
        <time>2013-11-17T09:41:09.1Z</time>
      </trkpt>
      <trkpt lat="48.32952" lon="-3.18852">
        <ele>134</ele>
        <time>2013-11-17T09:41:13.1Z</time>
      </trkpt>
      <trkpt lat="48.32952" lon="-3.18852">
        <ele>134</ele>
        <time>2013-11-17T09:41:16.1Z</time>
      </trkpt>
      <trkpt lat="48.32952" lon="-3.18851">
        <ele>134</ele>
        <time>2013-11-17T09:41:18.1Z</time>
      </trkpt>
      <trkpt lat="48.32952" lon="-3.1885">
        <ele>134</ele>
        <time>2013-11-17T09:41:20.1Z</time>
      </trkpt>
      <trkpt lat="48.32952" lon="-3.18848">
        <ele>134</ele>
        <time>2013-11-17T09:41:23.1Z</time>
      </trkpt>
      <trkpt lat="48.32953" lon="-3.18846">
        <ele>134</ele>
        <time>2013-11-17T09:41:25.1Z</time>
      </trkpt>
      <trkpt lat="48.32953" lon="-3.18845">
        <ele>134</ele>
        <time>2013-11-17T09:41:30.1Z</time>
      </trkpt>
      <trkpt lat="48.32952" lon="-3.18846">
        <ele>134</ele>
        <time>2013-11-17T09:41:33.1Z</time>
      </trkpt>
      <trkpt lat="48.32951" lon="-3.18846">
        <ele>134</ele>
        <time>2013-11-17T09:41:35.1Z</time>
      </trkpt>
      <trkpt lat="48.3295" lon="-3.18847">
        <ele>134</ele>
        <time>2013-11-17T09:41:39.1Z</time>
      </trkpt>
      <trkpt lat="48.3295" lon="-3.18848">
        <ele>134</ele>
        <time>2013-11-17T09:41:42.1Z</time>
      </trkpt>
      <trkpt lat="48.3295" lon="-3.18848">
        <ele>134</ele>
        <time>2013-11-17T09:41:44.1Z</time>
      </trkpt>
      <trkpt lat="48.32949" lon="-3.18849">
        <ele>134</ele>
        <time>2013-11-17T09:41:47.1Z</time>
      </trkpt>
      <trkpt lat="48.32949" lon="-3.18849">
        <ele>134</ele>
        <time>2013-11-17T09:41:49.1Z</time>
      </trkpt>
      <trkpt lat="48.32949" lon="-3.18849">
        <ele>134</ele>
        <time>2013-11-17T09:41:52.1Z</time>
      </trkpt>
      <trkpt lat="48.32948" lon="-3.18849">
        <ele>134</ele>
        <time>2013-11-17T09:41:54.1Z</time>
      </trkpt>
      <trkpt lat="48.32949" lon="-3.18848">
        <ele>134</ele>
        <time>2013-11-17T09:41:56.1Z</time>
      </trkpt>
      <trkpt lat="48.3295" lon="-3.18847">
        <ele>134</ele>
        <time>2013-11-17T09:41:59.1Z</time>
      </trkpt>
      <trkpt lat="48.32951" lon="-3.18847">
        <ele>134</ele>
        <time>2013-11-17T09:42:01.1Z</time>
      </trkpt>
      <trkpt lat="48.32952" lon="-3.18846">
        <ele>134</ele>
        <time>2013-11-17T09:42:03.1Z</time>
      </trkpt>
      <trkpt lat="48.32952" lon="-3.18846">
        <ele>134</ele>
        <time>2013-11-17T09:42:05.1Z</time>
      </trkpt>
      <trkpt lat="48.32953" lon="-3.18847">
        <ele>134</ele>
        <time>2013-11-17T09:42:08.1Z</time>
      </trkpt>
      <trkpt lat="48.32953" lon="-3.18847">
        <ele>134</ele>
        <time>2013-11-17T09:42:11.1Z</time>
      </trkpt>
      <trkpt lat="48.32954" lon="-3.18847">
        <ele>134</ele>
        <time>2013-11-17T09:42:15.1Z</time>
      </trkpt>
      <trkpt lat="48.32954" lon="-3.18847">
        <ele>134</ele>
        <time>2013-11-17T09:42:17.1Z</time>
      </trkpt>
      <trkpt lat="48.32955" lon="-3.18847">
        <ele>134</ele>
        <time>2013-11-17T09:42:20.1Z</time>
      </trkpt>
      <trkpt lat="48.32957" lon="-3.18847">
        <ele>135</ele>
        <time>2013-11-17T09:42:22.1Z</time>
      </trkpt>
      <trkpt lat="48.32957" lon="-3.18847">
        <ele>135</ele>
        <time>2013-11-17T09:42:25.1Z</time>
      </trkpt>
      <trkpt lat="48.32959" lon="-3.18847">
        <ele>134</ele>
        <time>2013-11-17T09:42:28.1Z</time>
      </trkpt>
      <trkpt lat="48.32962" lon="-3.18847">
        <ele>134</ele>
        <time>2013-11-17T09:42:30.1Z</time>
      </trkpt>
      <trkpt lat="48.32963" lon="-3.18848">
        <ele>134</ele>
        <time>2013-11-17T09:42:33.1Z</time>
      </trkpt>
      <trkpt lat="48.32965" lon="-3.18848">
        <ele>134</ele>
        <time>2013-11-17T09:42:35.1Z</time>
      </trkpt>
      <trkpt lat="48.32967" lon="-3.18848">
        <ele>134</ele>
        <time>2013-11-17T09:42:37.1Z</time>
      </trkpt>
      <trkpt lat="48.32969" lon="-3.18849">
        <ele>134</ele>
        <time>2013-11-17T09:42:40.1Z</time>
      </trkpt>
      <trkpt lat="48.3297" lon="-3.18848">
        <ele>134</ele>
        <time>2013-11-17T09:42:43.1Z</time>
      </trkpt>
      <trkpt lat="48.32973" lon="-3.18848">
        <ele>134</ele>
        <time>2013-11-17T09:42:45.1Z</time>
      </trkpt>
      <trkpt lat="48.32974" lon="-3.18848">
        <ele>134</ele>
        <time>2013-11-17T09:42:48.1Z</time>
      </trkpt>
      <trkpt lat="48.32976" lon="-3.18848">
        <ele>134</ele>
        <time>2013-11-17T09:42:50.1Z</time>
      </trkpt>
      <trkpt lat="48.32977" lon="-3.18847">
        <ele>134</ele>
        <time>2013-11-17T09:42:53.1Z</time>
      </trkpt>
      <trkpt lat="48.32978" lon="-3.18846">
        <ele>134</ele>
        <time>2013-11-17T09:42:55.1Z</time>
      </trkpt>
      <trkpt lat="48.3298" lon="-3.18844">
        <ele>134</ele>
        <time>2013-11-17T09:42:58.1Z</time>
      </trkpt>
      <trkpt lat="48.32981" lon="-3.18844">
        <ele>134</ele>
        <time>2013-11-17T09:43:01.1Z</time>
      </trkpt>
      <trkpt lat="48.32983" lon="-3.18843">
        <ele>134</ele>
        <time>2013-11-17T09:43:03.1Z</time>
      </trkpt>
      <trkpt lat="48.32986" lon="-3.18843">
        <ele>134</ele>
        <time>2013-11-17T09:43:07.1Z</time>
      </trkpt>
      <trkpt lat="48.32987" lon="-3.18843">
        <ele>134</ele>
        <time>2013-11-17T09:43:09.1Z</time>
      </trkpt>
      <trkpt lat="48.3299" lon="-3.18843">
        <ele>134</ele>
        <time>2013-11-17T09:43:12.1Z</time>
      </trkpt>
      <trkpt lat="48.32993" lon="-3.18844">
        <ele>134</ele>
        <time>2013-11-17T09:43:15.1Z</time>
      </trkpt>
      <trkpt lat="48.32996" lon="-3.18844">
        <ele>134</ele>
        <time>2013-11-17T09:43:17.1Z</time>
      </trkpt>
      <trkpt lat="48.32998" lon="-3.18843">
        <ele>134</ele>
        <time>2013-11-17T09:43:19.1Z</time>
      </trkpt>
      <trkpt lat="48.33002" lon="-3.18843">
        <ele>134</ele>
        <time>2013-11-17T09:43:23.1Z</time>
      </trkpt>
      <trkpt lat="48.33004" lon="-3.18844">
        <ele>134</ele>
        <time>2013-11-17T09:43:25.1Z</time>
      </trkpt>
      <trkpt lat="48.33007" lon="-3.18844">
        <ele>135</ele>
        <time>2013-11-17T09:43:28.1Z</time>
      </trkpt>
      <trkpt lat="48.3301" lon="-3.18846">
        <ele>135</ele>
        <time>2013-11-17T09:43:30.1Z</time>
      </trkpt>
      <trkpt lat="48.33013" lon="-3.18847">
        <ele>134</ele>
        <time>2013-11-17T09:43:33.1Z</time>
      </trkpt>
      <trkpt lat="48.33016" lon="-3.18848">
        <ele>134</ele>
        <time>2013-11-17T09:43:35.1Z</time>
      </trkpt>
      <trkpt lat="48.33018" lon="-3.18849">
        <ele>134</ele>
        <time>2013-11-17T09:43:38.1Z</time>
      </trkpt>
      <trkpt lat="48.33021" lon="-3.18851">
        <ele>134</ele>
        <time>2013-11-17T09:43:40.1Z</time>
      </trkpt>
      <trkpt lat="48.33024" lon="-3.18854">
        <ele>134</ele>
        <time>2013-11-17T09:43:43.1Z</time>
      </trkpt>
      <trkpt lat="48.33027" lon="-3.18859">
        <ele>134</ele>
        <time>2013-11-17T09:43:46.1Z</time>
      </trkpt>
      <trkpt lat="48.33028" lon="-3.18862">
        <ele>134</ele>
        <time>2013-11-17T09:43:48.1Z</time>
      </trkpt>
      <trkpt lat="48.3303" lon="-3.18864">
        <ele>134</ele>
        <time>2013-11-17T09:43:50.1Z</time>
      </trkpt>
      <trkpt lat="48.33032" lon="-3.18868">
        <ele>134</ele>
        <time>2013-11-17T09:43:53.1Z</time>
      </trkpt>
      <trkpt lat="48.33035" lon="-3.18871">
        <ele>134</ele>
        <time>2013-11-17T09:43:55.1Z</time>
      </trkpt>
      <trkpt lat="48.33037" lon="-3.18874">
        <ele>135</ele>
        <time>2013-11-17T09:43:58.1Z</time>
      </trkpt>
      <trkpt lat="48.33038" lon="-3.18876">
        <ele>135</ele>
        <time>2013-11-17T09:44:00.1Z</time>
      </trkpt>
      <trkpt lat="48.33041" lon="-3.18878">
        <ele>135</ele>
        <time>2013-11-17T09:44:03.1Z</time>
      </trkpt>
      <trkpt lat="48.33043" lon="-3.1888">
        <ele>135</ele>
        <time>2013-11-17T09:44:05.1Z</time>
      </trkpt>
      <trkpt lat="48.33044" lon="-3.18883">
        <ele>135</ele>
        <time>2013-11-17T09:44:07.1Z</time>
      </trkpt>
      <trkpt lat="48.33045" lon="-3.18885">
        <ele>135</ele>
        <time>2013-11-17T09:44:09.1Z</time>
      </trkpt>
      <trkpt lat="48.33046" lon="-3.18887">
        <ele>135</ele>
        <time>2013-11-17T09:44:11.1Z</time>
      </trkpt>
      <trkpt lat="48.33047" lon="-3.1889">
        <ele>135</ele>
        <time>2013-11-17T09:44:14.1Z</time>
      </trkpt>
      <trkpt lat="48.33049" lon="-3.18894">
        <ele>135</ele>
        <time>2013-11-17T09:44:16.1Z</time>
      </trkpt>
      <trkpt lat="48.33051" lon="-3.18898">
        <ele>135</ele>
        <time>2013-11-17T09:44:19.1Z</time>
      </trkpt>
      <trkpt lat="48.33052" lon="-3.189">
        <ele>135</ele>
        <time>2013-11-17T09:44:21.1Z</time>
      </trkpt>
      <trkpt lat="48.33055" lon="-3.18902">
        <ele>135</ele>
        <time>2013-11-17T09:44:24.1Z</time>
      </trkpt>
      <trkpt lat="48.33056" lon="-3.18904">
        <ele>135</ele>
        <time>2013-11-17T09:44:27.1Z</time>
      </trkpt>
      <trkpt lat="48.33057" lon="-3.18909">
        <ele>135</ele>
        <time>2013-11-17T09:44:29.1Z</time>
      </trkpt>
      <trkpt lat="48.33059" lon="-3.18911">
        <ele>135</ele>
        <time>2013-11-17T09:44:31.1Z</time>
      </trkpt>
      <trkpt lat="48.3306" lon="-3.18913">
        <ele>135</ele>
        <time>2013-11-17T09:44:34.1Z</time>
      </trkpt>
      <trkpt lat="48.33063" lon="-3.18916">
        <ele>135</ele>
        <time>2013-11-17T09:44:36.1Z</time>
      </trkpt>
      <trkpt lat="48.33064" lon="-3.18918">
        <ele>135</ele>
        <time>2013-11-17T09:44:39.1Z</time>
      </trkpt>
      <trkpt lat="48.33065" lon="-3.18922">
        <ele>135</ele>
        <time>2013-11-17T09:44:42.1Z</time>
      </trkpt>
      <trkpt lat="48.33066" lon="-3.18924">
        <ele>135</ele>
        <time>2013-11-17T09:44:44.1Z</time>
      </trkpt>
      <trkpt lat="48.33067" lon="-3.18928">
        <ele>135</ele>
        <time>2013-11-17T09:44:47.1Z</time>
      </trkpt>
      <trkpt lat="48.33069" lon="-3.18931">
        <ele>135</ele>
        <time>2013-11-17T09:44:50.1Z</time>
      </trkpt>
      <trkpt lat="48.33071" lon="-3.18934">
        <ele>135</ele>
        <time>2013-11-17T09:44:52.1Z</time>
      </trkpt>
      <trkpt lat="48.33073" lon="-3.18936">
        <ele>135</ele>
        <time>2013-11-17T09:44:55.1Z</time>
      </trkpt>
      <trkpt lat="48.33075" lon="-3.18938">
        <ele>135</ele>
        <time>2013-11-17T09:44:57.1Z</time>
      </trkpt>
      <trkpt lat="48.33076" lon="-3.18941">
        <ele>135</ele>
        <time>2013-11-17T09:45:00.1Z</time>
      </trkpt>
      <trkpt lat="48.33076" lon="-3.18945">
        <ele>135</ele>
        <time>2013-11-17T09:45:02.1Z</time>
      </trkpt>
      <trkpt lat="48.33077" lon="-3.18951">
        <ele>135</ele>
        <time>2013-11-17T09:45:05.1Z</time>
      </trkpt>
      <trkpt lat="48.3308" lon="-3.18954">
        <ele>135</ele>
        <time>2013-11-17T09:45:07.1Z</time>
      </trkpt>
      <trkpt lat="48.33081" lon="-3.18957">
        <ele>135</ele>
        <time>2013-11-17T09:45:10.1Z</time>
      </trkpt>
      <trkpt lat="48.33082" lon="-3.18961">
        <ele>135</ele>
        <time>2013-11-17T09:45:13.1Z</time>
      </trkpt>
      <trkpt lat="48.33085" lon="-3.18965">
        <ele>135</ele>
        <time>2013-11-17T09:45:16.1Z</time>
      </trkpt>
      <trkpt lat="48.33086" lon="-3.18968">
        <ele>135</ele>
        <time>2013-11-17T09:45:18.1Z</time>
      </trkpt>
      <trkpt lat="48.33087" lon="-3.18972">
        <ele>135</ele>
        <time>2013-11-17T09:45:20.1Z</time>
      </trkpt>
      <trkpt lat="48.33089" lon="-3.18975">
        <ele>135</ele>
        <time>2013-11-17T09:45:23.1Z</time>
      </trkpt>
      <trkpt lat="48.33091" lon="-3.18978">
        <ele>135</ele>
        <time>2013-11-17T09:45:26.1Z</time>
      </trkpt>
      <trkpt lat="48.33092" lon="-3.1898">
        <ele>135</ele>
        <time>2013-11-17T09:45:28.1Z</time>
      </trkpt>
      <trkpt lat="48.33095" lon="-3.18983">
        <ele>135</ele>
        <time>2013-11-17T09:45:31.1Z</time>
      </trkpt>
      <trkpt lat="48.33098" lon="-3.18985">
        <ele>135</ele>
        <time>2013-11-17T09:45:33.1Z</time>
      </trkpt>
      <trkpt lat="48.33101" lon="-3.18987">
        <ele>135</ele>
        <time>2013-11-17T09:45:37.1Z</time>
      </trkpt>
      <trkpt lat="48.33102" lon="-3.18991">
        <ele>135</ele>
        <time>2013-11-17T09:45:40.1Z</time>
      </trkpt>
      <trkpt lat="48.33104" lon="-3.18994">
        <ele>135</ele>
        <time>2013-11-17T09:45:43.1Z</time>
      </trkpt>
      <trkpt lat="48.33107" lon="-3.18998">
        <ele>135</ele>
        <time>2013-11-17T09:45:45.1Z</time>
      </trkpt>
      <trkpt lat="48.33108" lon="-3.19">
        <ele>135</ele>
        <time>2013-11-17T09:45:47.1Z</time>
      </trkpt>
      <trkpt lat="48.33111" lon="-3.19003">
        <ele>135</ele>
        <time>2013-11-17T09:45:51.1Z</time>
      </trkpt>
      <trkpt lat="48.33114" lon="-3.19005">
        <ele>135</ele>
        <time>2013-11-17T09:45:53.1Z</time>
      </trkpt>
      <trkpt lat="48.33116" lon="-3.19008">
        <ele>135</ele>
        <time>2013-11-17T09:45:56.1Z</time>
      </trkpt>
      <trkpt lat="48.33119" lon="-3.19012">
        <ele>135</ele>
        <time>2013-11-17T09:45:59.1Z</time>
      </trkpt>
      <trkpt lat="48.33122" lon="-3.19017">
        <ele>135</ele>
        <time>2013-11-17T09:46:01.1Z</time>
      </trkpt>
      <trkpt lat="48.33124" lon="-3.19021">
        <ele>135</ele>
        <time>2013-11-17T09:46:04.1Z</time>
      </trkpt>
      <trkpt lat="48.33125" lon="-3.19024">
        <ele>135</ele>
        <time>2013-11-17T09:46:06.1Z</time>
      </trkpt>
      <trkpt lat="48.33128" lon="-3.19029">
        <ele>135</ele>
        <time>2013-11-17T09:46:09.1Z</time>
      </trkpt>
      <trkpt lat="48.3313" lon="-3.19032">
        <ele>135</ele>
        <time>2013-11-17T09:46:12.1Z</time>
      </trkpt>
      <trkpt lat="48.33133" lon="-3.19035">
        <ele>135</ele>
        <time>2013-11-17T09:46:15.1Z</time>
      </trkpt>
      <trkpt lat="48.33136" lon="-3.19039">
        <ele>135</ele>
        <time>2013-11-17T09:46:17.1Z</time>
      </trkpt>
      <trkpt lat="48.33139" lon="-3.19041">
        <ele>135</ele>
        <time>2013-11-17T09:46:20.1Z</time>
      </trkpt>
      <trkpt lat="48.33142" lon="-3.19046">
        <ele>135</ele>
        <time>2013-11-17T09:46:23.1Z</time>
      </trkpt>
      <trkpt lat="48.33145" lon="-3.19049">
        <ele>135</ele>
        <time>2013-11-17T09:46:25.1Z</time>
      </trkpt>
      <trkpt lat="48.33147" lon="-3.19053">
        <ele>135</ele>
        <time>2013-11-17T09:46:28.1Z</time>
      </trkpt>
      <trkpt lat="48.33148" lon="-3.19059">
        <ele>135</ele>
        <time>2013-11-17T09:46:30.1Z</time>
      </trkpt>
      <trkpt lat="48.33149" lon="-3.19063">
        <ele>135</ele>
        <time>2013-11-17T09:46:33.1Z</time>
      </trkpt>
      <trkpt lat="48.33151" lon="-3.19067">
        <ele>135</ele>
        <time>2013-11-17T09:46:35.1Z</time>
      </trkpt>
      <trkpt lat="48.33153" lon="-3.19071">
        <ele>135</ele>
        <time>2013-11-17T09:46:38.1Z</time>
      </trkpt>
      <trkpt lat="48.33155" lon="-3.19074">
        <ele>135</ele>
        <time>2013-11-17T09:46:40.1Z</time>
      </trkpt>
      <trkpt lat="48.33156" lon="-3.19078">
        <ele>135</ele>
        <time>2013-11-17T09:46:43.1Z</time>
      </trkpt>
      <trkpt lat="48.33158" lon="-3.19082">
        <ele>135</ele>
        <time>2013-11-17T09:46:46.1Z</time>
      </trkpt>
      <trkpt lat="48.33159" lon="-3.19086">
        <ele>135</ele>
        <time>2013-11-17T09:46:49.1Z</time>
      </trkpt>
      <trkpt lat="48.3316" lon="-3.19088">
        <ele>135</ele>
        <time>2013-11-17T09:46:51.1Z</time>
      </trkpt>
      <trkpt lat="48.33163" lon="-3.19092">
        <ele>136</ele>
        <time>2013-11-17T09:46:53.1Z</time>
      </trkpt>
      <trkpt lat="48.33165" lon="-3.19095">
        <ele>136</ele>
        <time>2013-11-17T09:46:57.1Z</time>
      </trkpt>
      <trkpt lat="48.33168" lon="-3.19097">
        <ele>136</ele>
        <time>2013-11-17T09:46:59.1Z</time>
      </trkpt>
      <trkpt lat="48.33169" lon="-3.19099">
        <ele>136</ele>
        <time>2013-11-17T09:47:01.1Z</time>
      </trkpt>
      <trkpt lat="48.3317" lon="-3.19101">
        <ele>136</ele>
        <time>2013-11-17T09:47:04.1Z</time>
      </trkpt>
      <trkpt lat="48.33171" lon="-3.19103">
        <ele>136</ele>
        <time>2013-11-17T09:47:06.1Z</time>
      </trkpt>
      <trkpt lat="48.33173" lon="-3.19108">
        <ele>135</ele>
        <time>2013-11-17T09:47:09.1Z</time>
      </trkpt>
      <trkpt lat="48.33174" lon="-3.19111">
        <ele>136</ele>
        <time>2013-11-17T09:47:12.1Z</time>
      </trkpt>
      <trkpt lat="48.33175" lon="-3.19113">
        <ele>136</ele>
        <time>2013-11-17T09:47:14.1Z</time>
      </trkpt>
      <trkpt lat="48.33177" lon="-3.19115">
        <ele>136</ele>
        <time>2013-11-17T09:47:16.1Z</time>
      </trkpt>
      <trkpt lat="48.3318" lon="-3.19117">
        <ele>136</ele>
        <time>2013-11-17T09:47:19.1Z</time>
      </trkpt>
      <trkpt lat="48.33181" lon="-3.19119">
        <ele>136</ele>
        <time>2013-11-17T09:47:22.1Z</time>
      </trkpt>
      <trkpt lat="48.33185" lon="-3.19122">
        <ele>136</ele>
        <time>2013-11-17T09:47:25.1Z</time>
      </trkpt>
      <trkpt lat="48.33188" lon="-3.19125">
        <ele>136</ele>
        <time>2013-11-17T09:47:27.1Z</time>
      </trkpt>
      <trkpt lat="48.3319" lon="-3.19129">
        <ele>136</ele>
        <time>2013-11-17T09:47:29.1Z</time>
      </trkpt>
      <trkpt lat="48.33193" lon="-3.19132">
        <ele>136</ele>
        <time>2013-11-17T09:47:31.1Z</time>
      </trkpt>
      <trkpt lat="48.33194" lon="-3.19135">
        <ele>136</ele>
        <time>2013-11-17T09:47:34.1Z</time>
      </trkpt>
      <trkpt lat="48.33197" lon="-3.19139">
        <ele>136</ele>
        <time>2013-11-17T09:47:36.1Z</time>
      </trkpt>
      <trkpt lat="48.33199" lon="-3.1914">
        <ele>136</ele>
        <time>2013-11-17T09:47:39.1Z</time>
      </trkpt>
      <trkpt lat="48.33202" lon="-3.19142">
        <ele>136</ele>
        <time>2013-11-17T09:47:42.1Z</time>
      </trkpt>
      <trkpt lat="48.33204" lon="-3.19143">
        <ele>136</ele>
        <time>2013-11-17T09:47:44.1Z</time>
      </trkpt>
      <trkpt lat="48.33207" lon="-3.19146">
        <ele>136</ele>
        <time>2013-11-17T09:47:46.1Z</time>
      </trkpt>
      <trkpt lat="48.33209" lon="-3.19147">
        <ele>136</ele>
        <time>2013-11-17T09:47:49.1Z</time>
      </trkpt>
      <trkpt lat="48.33212" lon="-3.1915">
        <ele>136</ele>
        <time>2013-11-17T09:47:51.1Z</time>
      </trkpt>
      <trkpt lat="48.33215" lon="-3.19151">
        <ele>136</ele>
        <time>2013-11-17T09:47:55.1Z</time>
      </trkpt>
      <trkpt lat="48.3322" lon="-3.19152">
        <ele>136</ele>
        <time>2013-11-17T09:47:57.1Z</time>
      </trkpt>
      <trkpt lat="48.33222" lon="-3.19154">
        <ele>137</ele>
        <time>2013-11-17T09:48:00.1Z</time>
      </trkpt>
      <trkpt lat="48.33226" lon="-3.19156">
        <ele>137</ele>
        <time>2013-11-17T09:48:02.1Z</time>
      </trkpt>
      <trkpt lat="48.33228" lon="-3.19158">
        <ele>137</ele>
        <time>2013-11-17T09:48:04.1Z</time>
      </trkpt>
      <trkpt lat="48.3323" lon="-3.19159">
        <ele>137</ele>
        <time>2013-11-17T09:48:07.1Z</time>
      </trkpt>
      <trkpt lat="48.33233" lon="-3.19161">
        <ele>137</ele>
        <time>2013-11-17T09:48:09.1Z</time>
      </trkpt>
      <trkpt lat="48.33236" lon="-3.19163">
        <ele>137</ele>
        <time>2013-11-17T09:48:12.1Z</time>
      </trkpt>
      <trkpt lat="48.33239" lon="-3.19164">
        <ele>137</ele>
        <time>2013-11-17T09:48:15.1Z</time>
      </trkpt>
      <trkpt lat="48.33242" lon="-3.19166">
        <ele>137</ele>
        <time>2013-11-17T09:48:17.1Z</time>
      </trkpt>
      <trkpt lat="48.33243" lon="-3.19168">
        <ele>137</ele>
        <time>2013-11-17T09:48:20.1Z</time>
      </trkpt>
      <trkpt lat="48.33245" lon="-3.1917">
        <ele>137</ele>
        <time>2013-11-17T09:48:22.1Z</time>
      </trkpt>
      <trkpt lat="48.33249" lon="-3.19173">
        <ele>137</ele>
        <time>2013-11-17T09:48:24.1Z</time>
      </trkpt>
      <trkpt lat="48.33251" lon="-3.19175">
        <ele>137</ele>
        <time>2013-11-17T09:48:26.1Z</time>
      </trkpt>
      <trkpt lat="48.33254" lon="-3.19178">
        <ele>137</ele>
        <time>2013-11-17T09:48:29.1Z</time>
      </trkpt>
      <trkpt lat="48.33255" lon="-3.1918">
        <ele>137</ele>
        <time>2013-11-17T09:48:31.1Z</time>
      </trkpt>
      <trkpt lat="48.33258" lon="-3.19183">
        <ele>137</ele>
        <time>2013-11-17T09:48:34.1Z</time>
      </trkpt>
      <trkpt lat="48.3326" lon="-3.19187">
        <ele>137</ele>
        <time>2013-11-17T09:48:37.1Z</time>
      </trkpt>
      <trkpt lat="48.33262" lon="-3.1919">
        <ele>137</ele>
        <time>2013-11-17T09:48:39.1Z</time>
      </trkpt>
      <trkpt lat="48.33265" lon="-3.19194">
        <ele>137</ele>
        <time>2013-11-17T09:48:43.1Z</time>
      </trkpt>
      <trkpt lat="48.33268" lon="-3.19197">
        <ele>137</ele>
        <time>2013-11-17T09:48:46.1Z</time>
      </trkpt>
      <trkpt lat="48.33271" lon="-3.19198">
        <ele>137</ele>
        <time>2013-11-17T09:48:48.1Z</time>
      </trkpt>
      <trkpt lat="48.33274" lon="-3.192">
        <ele>138</ele>
        <time>2013-11-17T09:48:51.1Z</time>
      </trkpt>
      <trkpt lat="48.33277" lon="-3.19202">
        <ele>138</ele>
        <time>2013-11-17T09:48:54.1Z</time>
      </trkpt>
      <trkpt lat="48.33279" lon="-3.19202">
        <ele>138</ele>
        <time>2013-11-17T09:48:57.1Z</time>
      </trkpt>
      <trkpt lat="48.33282" lon="-3.19204">
        <ele>138</ele>
        <time>2013-11-17T09:48:59.1Z</time>
      </trkpt>
      <trkpt lat="48.33284" lon="-3.19205">
        <ele>138</ele>
        <time>2013-11-17T09:49:01.1Z</time>
      </trkpt>
      <trkpt lat="48.33288" lon="-3.19207">
        <ele>138</ele>
        <time>2013-11-17T09:49:04.1Z</time>
      </trkpt>
      <trkpt lat="48.33291" lon="-3.19208">
        <ele>138</ele>
        <time>2013-11-17T09:49:06.1Z</time>
      </trkpt>
      <trkpt lat="48.33295" lon="-3.1921">
        <ele>138</ele>
        <time>2013-11-17T09:49:09.1Z</time>
      </trkpt>
      <trkpt lat="48.33298" lon="-3.1921">
        <ele>138</ele>
        <time>2013-11-17T09:49:12.1Z</time>
      </trkpt>
      <trkpt lat="48.33302" lon="-3.19213">
        <ele>138</ele>
        <time>2013-11-17T09:49:14.1Z</time>
      </trkpt>
      <trkpt lat="48.33306" lon="-3.19213">
        <ele>138</ele>
        <time>2013-11-17T09:49:17.1Z</time>
      </trkpt>
      <trkpt lat="48.33309" lon="-3.19215">
        <ele>138</ele>
        <time>2013-11-17T09:49:21.1Z</time>
      </trkpt>
      <trkpt lat="48.33312" lon="-3.19218">
        <ele>138</ele>
        <time>2013-11-17T09:49:24.1Z</time>
      </trkpt>
      <trkpt lat="48.33315" lon="-3.19221">
        <ele>139</ele>
        <time>2013-11-17T09:49:27.1Z</time>
      </trkpt>
      <trkpt lat="48.33318" lon="-3.19223">
        <ele>139</ele>
        <time>2013-11-17T09:49:29.1Z</time>
      </trkpt>
      <trkpt lat="48.33321" lon="-3.19226">
        <ele>139</ele>
        <time>2013-11-17T09:49:32.1Z</time>
      </trkpt>
      <trkpt lat="48.33323" lon="-3.19227">
        <ele>139</ele>
        <time>2013-11-17T09:49:34.1Z</time>
      </trkpt>
      <trkpt lat="48.33325" lon="-3.19229">
        <ele>139</ele>
        <time>2013-11-17T09:49:37.1Z</time>
      </trkpt>
      <trkpt lat="48.33328" lon="-3.19232">
        <ele>139</ele>
        <time>2013-11-17T09:49:39.1Z</time>
      </trkpt>
      <trkpt lat="48.33329" lon="-3.19233">
        <ele>139</ele>
        <time>2013-11-17T09:49:41.1Z</time>
      </trkpt>
      <trkpt lat="48.33333" lon="-3.19235">
        <ele>139</ele>
        <time>2013-11-17T09:49:44.1Z</time>
      </trkpt>
      <trkpt lat="48.33335" lon="-3.19238">
        <ele>139</ele>
        <time>2013-11-17T09:49:46.1Z</time>
      </trkpt>
      <trkpt lat="48.33337" lon="-3.19239">
        <ele>139</ele>
        <time>2013-11-17T09:49:48.1Z</time>
      </trkpt>
      <trkpt lat="48.3334" lon="-3.19242">
        <ele>139</ele>
        <time>2013-11-17T09:49:51.1Z</time>
      </trkpt>
      <trkpt lat="48.33342" lon="-3.19245">
        <ele>139</ele>
        <time>2013-11-17T09:49:53.1Z</time>
      </trkpt>
      <trkpt lat="48.33344" lon="-3.19248">
        <ele>139</ele>
        <time>2013-11-17T09:49:55.1Z</time>
      </trkpt>
      <trkpt lat="48.33347" lon="-3.19252">
        <ele>139</ele>
        <time>2013-11-17T09:49:58.1Z</time>
      </trkpt>
      <trkpt lat="48.33349" lon="-3.19254">
        <ele>139</ele>
        <time>2013-11-17T09:50:01.1Z</time>
      </trkpt>
      <trkpt lat="48.33351" lon="-3.19257">
        <ele>139</ele>
        <time>2013-11-17T09:50:03.1Z</time>
      </trkpt>
      <trkpt lat="48.33353" lon="-3.19259">
        <ele>139</ele>
        <time>2013-11-17T09:50:05.1Z</time>
      </trkpt>
      <trkpt lat="48.33356" lon="-3.19261">
        <ele>139</ele>
        <time>2013-11-17T09:50:08.1Z</time>
      </trkpt>
      <trkpt lat="48.33359" lon="-3.19265">
        <ele>140</ele>
        <time>2013-11-17T09:50:11.1Z</time>
      </trkpt>
      <trkpt lat="48.33361" lon="-3.19266">
        <ele>140</ele>
        <time>2013-11-17T09:50:13.1Z</time>
      </trkpt>
      <trkpt lat="48.33363" lon="-3.19267">
        <ele>140</ele>
        <time>2013-11-17T09:50:15.1Z</time>
      </trkpt>
      <trkpt lat="48.33366" lon="-3.19269">
        <ele>140</ele>
        <time>2013-11-17T09:50:19.1Z</time>
      </trkpt>
      <trkpt lat="48.33369" lon="-3.19271">
        <ele>139</ele>
        <time>2013-11-17T09:50:21.1Z</time>
      </trkpt>
      <trkpt lat="48.33371" lon="-3.19275">
        <ele>139</ele>
        <time>2013-11-17T09:50:25.1Z</time>
      </trkpt>
      <trkpt lat="48.33375" lon="-3.19277">
        <ele>140</ele>
        <time>2013-11-17T09:50:27.1Z</time>
      </trkpt>
      <trkpt lat="48.33377" lon="-3.19279">
        <ele>140</ele>
        <time>2013-11-17T09:50:30.1Z</time>
      </trkpt>
      <trkpt lat="48.33382" lon="-3.19281">
        <ele>140</ele>
        <time>2013-11-17T09:50:32.1Z</time>
      </trkpt>
      <trkpt lat="48.33387" lon="-3.19282">
        <ele>139</ele>
        <time>2013-11-17T09:50:35.1Z</time>
      </trkpt>
      <trkpt lat="48.33389" lon="-3.19283">
        <ele>140</ele>
        <time>2013-11-17T09:50:37.1Z</time>
      </trkpt>
      <trkpt lat="48.33391" lon="-3.19284">
        <ele>140</ele>
        <time>2013-11-17T09:50:40.1Z</time>
      </trkpt>
      <trkpt lat="48.33393" lon="-3.19285">
        <ele>140</ele>
        <time>2013-11-17T09:50:42.1Z</time>
      </trkpt>
      <trkpt lat="48.33396" lon="-3.19287">
        <ele>140</ele>
        <time>2013-11-17T09:50:44.1Z</time>
      </trkpt>
      <trkpt lat="48.33398" lon="-3.19289">
        <ele>140</ele>
        <time>2013-11-17T09:50:47.1Z</time>
      </trkpt>
      <trkpt lat="48.33402" lon="-3.19293">
        <ele>140</ele>
        <time>2013-11-17T09:50:49.1Z</time>
      </trkpt>
      <trkpt lat="48.33404" lon="-3.19295">
        <ele>140</ele>
        <time>2013-11-17T09:50:52.1Z</time>
      </trkpt>
      <trkpt lat="48.33408" lon="-3.19298">
        <ele>140</ele>
        <time>2013-11-17T09:50:54.1Z</time>
      </trkpt>
      <trkpt lat="48.33413" lon="-3.19303">
        <ele>140</ele>
        <time>2013-11-17T09:50:57.1Z</time>
      </trkpt>
      <trkpt lat="48.33415" lon="-3.19307">
        <ele>139</ele>
        <time>2013-11-17T09:51:01.1Z</time>
      </trkpt>
      <trkpt lat="48.33419" lon="-3.19313">
        <ele>139</ele>
        <time>2013-11-17T09:51:03.1Z</time>
      </trkpt>
      <trkpt lat="48.33421" lon="-3.19318">
        <ele>139</ele>
        <time>2013-11-17T09:51:06.1Z</time>
      </trkpt>
      <trkpt lat="48.33424" lon="-3.19322">
        <ele>139</ele>
        <time>2013-11-17T09:51:09.1Z</time>
      </trkpt>
      <trkpt lat="48.33428" lon="-3.19326">
        <ele>139</ele>
        <time>2013-11-17T09:51:12.1Z</time>
      </trkpt>
      <trkpt lat="48.33431" lon="-3.1933">
        <ele>140</ele>
        <time>2013-11-17T09:51:15.1Z</time>
      </trkpt>
      <trkpt lat="48.33434" lon="-3.19334">
        <ele>139</ele>
        <time>2013-11-17T09:51:18.1Z</time>
      </trkpt>
      <trkpt lat="48.33437" lon="-3.19337">
        <ele>139</ele>
        <time>2013-11-17T09:51:21.1Z</time>
      </trkpt>
      <trkpt lat="48.3344" lon="-3.19339">
        <ele>139</ele>
        <time>2013-11-17T09:51:23.1Z</time>
      </trkpt>
      <trkpt lat="48.33443" lon="-3.19341">
        <ele>139</ele>
        <time>2013-11-17T09:51:27.1Z</time>
      </trkpt>
      <trkpt lat="48.33446" lon="-3.19345">
        <ele>139</ele>
        <time>2013-11-17T09:51:29.1Z</time>
      </trkpt>
      <trkpt lat="48.33448" lon="-3.19349">
        <ele>140</ele>
        <time>2013-11-17T09:51:32.1Z</time>
      </trkpt>
      <trkpt lat="48.3345" lon="-3.19351">
        <ele>140</ele>
        <time>2013-11-17T09:51:35.1Z</time>
      </trkpt>
      <trkpt lat="48.33454" lon="-3.19354">
        <ele>140</ele>
        <time>2013-11-17T09:51:37.1Z</time>
      </trkpt>
      <trkpt lat="48.33456" lon="-3.19355">
        <ele>140</ele>
        <time>2013-11-17T09:51:39.1Z</time>
      </trkpt>
      <trkpt lat="48.33458" lon="-3.19357">
        <ele>140</ele>
        <time>2013-11-17T09:51:41.1Z</time>
      </trkpt>
      <trkpt lat="48.33462" lon="-3.19359">
        <ele>140</ele>
        <time>2013-11-17T09:51:44.1Z</time>
      </trkpt>
      <trkpt lat="48.33464" lon="-3.19361">
        <ele>140</ele>
        <time>2013-11-17T09:51:47.1Z</time>
      </trkpt>
      <trkpt lat="48.33467" lon="-3.19363">
        <ele>139</ele>
        <time>2013-11-17T09:51:49.1Z</time>
      </trkpt>
      <trkpt lat="48.3347" lon="-3.19364">
        <ele>139</ele>
        <time>2013-11-17T09:51:52.1Z</time>
      </trkpt>
      <trkpt lat="48.33472" lon="-3.19365">
        <ele>139</ele>
        <time>2013-11-17T09:51:54.1Z</time>
      </trkpt>
      <trkpt lat="48.33475" lon="-3.19366">
        <ele>140</ele>
        <time>2013-11-17T09:51:57.1Z</time>
      </trkpt>
      <trkpt lat="48.33479" lon="-3.19366">
        <ele>140</ele>
        <time>2013-11-17T09:52:00.1Z</time>
      </trkpt>
      <trkpt lat="48.33482" lon="-3.19367">
        <ele>140</ele>
        <time>2013-11-17T09:52:02.1Z</time>
      </trkpt>
      <trkpt lat="48.33485" lon="-3.19368">
        <ele>141</ele>
        <time>2013-11-17T09:52:05.1Z</time>
      </trkpt>
      <trkpt lat="48.33488" lon="-3.1937">
        <ele>141</ele>
        <time>2013-11-17T09:52:08.1Z</time>
      </trkpt>
      <trkpt lat="48.3349" lon="-3.19372">
        <ele>141</ele>
        <time>2013-11-17T09:52:10.1Z</time>
      </trkpt>
      <trkpt lat="48.33493" lon="-3.19375">
        <ele>141</ele>
        <time>2013-11-17T09:52:13.1Z</time>
      </trkpt>
      <trkpt lat="48.33495" lon="-3.19377">
        <ele>141</ele>
        <time>2013-11-17T09:52:15.1Z</time>
      </trkpt>
      <trkpt lat="48.33497" lon="-3.19378">
        <ele>141</ele>
        <time>2013-11-17T09:52:17.1Z</time>
      </trkpt>
      <trkpt lat="48.33499" lon="-3.1938">
        <ele>140</ele>
        <time>2013-11-17T09:52:21.1Z</time>
      </trkpt>
      <trkpt lat="48.33503" lon="-3.19383">
        <ele>140</ele>
        <time>2013-11-17T09:52:23.1Z</time>
      </trkpt>
      <trkpt lat="48.33508" lon="-3.19384">
        <ele>140</ele>
        <time>2013-11-17T09:52:26.1Z</time>
      </trkpt>
      <trkpt lat="48.33511" lon="-3.19385">
        <ele>140</ele>
        <time>2013-11-17T09:52:28.1Z</time>
      </trkpt>
      <trkpt lat="48.33514" lon="-3.19387">
        <ele>140</ele>
        <time>2013-11-17T09:52:31.1Z</time>
      </trkpt>
      <trkpt lat="48.33518" lon="-3.19389">
        <ele>141</ele>
        <time>2013-11-17T09:52:34.1Z</time>
      </trkpt>
      <trkpt lat="48.33521" lon="-3.19391">
        <ele>141</ele>
        <time>2013-11-17T09:52:37.1Z</time>
      </trkpt>
      <trkpt lat="48.33524" lon="-3.19393">
        <ele>141</ele>
        <time>2013-11-17T09:52:40.1Z</time>
      </trkpt>
      <trkpt lat="48.33526" lon="-3.19395">
        <ele>141</ele>
        <time>2013-11-17T09:52:42.1Z</time>
      </trkpt>
      <trkpt lat="48.33528" lon="-3.19396">
        <ele>141</ele>
        <time>2013-11-17T09:52:45.1Z</time>
      </trkpt>
      <trkpt lat="48.33529" lon="-3.19397">
        <ele>141</ele>
        <time>2013-11-17T09:52:48.1Z</time>
      </trkpt>
      <trkpt lat="48.33532" lon="-3.194">
        <ele>141</ele>
        <time>2013-11-17T09:52:50.1Z</time>
      </trkpt>
      <trkpt lat="48.33535" lon="-3.19403">
        <ele>141</ele>
        <time>2013-11-17T09:52:53.1Z</time>
      </trkpt>
      <trkpt lat="48.33537" lon="-3.19406">
        <ele>141</ele>
        <time>2013-11-17T09:52:55.1Z</time>
      </trkpt>
      <trkpt lat="48.33538" lon="-3.19409">
        <ele>141</ele>
        <time>2013-11-17T09:52:58.1Z</time>
      </trkpt>
      <trkpt lat="48.33541" lon="-3.19413">
        <ele>141</ele>
        <time>2013-11-17T09:53:00.1Z</time>
      </trkpt>
      <trkpt lat="48.33543" lon="-3.19417">
        <ele>141</ele>
        <time>2013-11-17T09:53:03.1Z</time>
      </trkpt>
      <trkpt lat="48.33545" lon="-3.1942">
        <ele>141</ele>
        <time>2013-11-17T09:53:06.1Z</time>
      </trkpt>
      <trkpt lat="48.33546" lon="-3.19421">
        <ele>141</ele>
        <time>2013-11-17T09:53:09.1Z</time>
      </trkpt>
      <trkpt lat="48.33546" lon="-3.19423">
        <ele>141</ele>
        <time>2013-11-17T09:53:11.1Z</time>
      </trkpt>
      <trkpt lat="48.33546" lon="-3.19425">
        <ele>141</ele>
        <time>2013-11-17T09:53:13.1Z</time>
      </trkpt>
      <trkpt lat="48.33546" lon="-3.19427">
        <ele>141</ele>
        <time>2013-11-17T09:53:15.1Z</time>
      </trkpt>
      <trkpt lat="48.33546" lon="-3.19429">
        <ele>141</ele>
        <time>2013-11-17T09:53:18.1Z</time>
      </trkpt>
      <trkpt lat="48.33547" lon="-3.19429">
        <ele>141</ele>
        <time>2013-11-17T09:53:21.1Z</time>
      </trkpt>
      <trkpt lat="48.33548" lon="-3.19427">
        <ele>141</ele>
        <time>2013-11-17T09:53:24.1Z</time>
      </trkpt>
      <trkpt lat="48.3355" lon="-3.19425">
        <ele>142</ele>
        <time>2013-11-17T09:53:27.1Z</time>
      </trkpt>
      <trkpt lat="48.33551" lon="-3.19423">
        <ele>142</ele>
        <time>2013-11-17T09:53:29.1Z</time>
      </trkpt>
      <trkpt lat="48.33552" lon="-3.19422">
        <ele>142</ele>
        <time>2013-11-17T09:53:31.1Z</time>
      </trkpt>
      <trkpt lat="48.33553" lon="-3.1942">
        <ele>142</ele>
        <time>2013-11-17T09:53:34.1Z</time>
      </trkpt>
      <trkpt lat="48.33553" lon="-3.19418">
        <ele>142</ele>
        <time>2013-11-17T09:53:36.1Z</time>
      </trkpt>
      <trkpt lat="48.33555" lon="-3.19413">
        <ele>142</ele>
        <time>2013-11-17T09:53:39.1Z</time>
      </trkpt>
      <trkpt lat="48.33556" lon="-3.19408">
        <ele>142</ele>
        <time>2013-11-17T09:53:43.1Z</time>
      </trkpt>
      <trkpt lat="48.33557" lon="-3.19405">
        <ele>142</ele>
        <time>2013-11-17T09:53:45.1Z</time>
      </trkpt>
      <trkpt lat="48.33557" lon="-3.19401">
        <ele>142</ele>
        <time>2013-11-17T09:53:48.1Z</time>
      </trkpt>
      <trkpt lat="48.33559" lon="-3.19398">
        <ele>142</ele>
        <time>2013-11-17T09:53:51.1Z</time>
      </trkpt>
      <trkpt lat="48.3356" lon="-3.19396">
        <ele>142</ele>
        <time>2013-11-17T09:53:53.1Z</time>
      </trkpt>
      <trkpt lat="48.3356" lon="-3.19394">
        <ele>142</ele>
        <time>2013-11-17T09:53:55.1Z</time>
      </trkpt>
      <trkpt lat="48.33561" lon="-3.19393">
        <ele>142</ele>
        <time>2013-11-17T09:53:58.1Z</time>
      </trkpt>
      <trkpt lat="48.33559" lon="-3.19393">
        <ele>142</ele>
        <time>2013-11-17T09:54:00.1Z</time>
      </trkpt>
      <trkpt lat="48.33559" lon="-3.19392">
        <ele>142</ele>
        <time>2013-11-17T09:54:03.1Z</time>
      </trkpt>
      <trkpt lat="48.3356" lon="-3.19391">
        <ele>143</ele>
        <time>2013-11-17T09:54:05.1Z</time>
      </trkpt>
      <trkpt lat="48.33561" lon="-3.19391">
        <ele>143</ele>
        <time>2013-11-17T09:54:08.1Z</time>
      </trkpt>
      <trkpt lat="48.3356" lon="-3.19391">
        <ele>144</ele>
        <time>2013-11-17T09:54:12.1Z</time>
      </trkpt>
      <trkpt lat="48.33562" lon="-3.1939">
        <ele>144</ele>
        <time>2013-11-17T09:54:14.1Z</time>
      </trkpt>
      <trkpt lat="48.33562" lon="-3.1939">
        <ele>145</ele>
        <time>2013-11-17T09:54:16.1Z</time>
      </trkpt>
      <trkpt lat="48.33563" lon="-3.19389">
        <ele>145</ele>
        <time>2013-11-17T09:54:18.1Z</time>
      </trkpt>
      <trkpt lat="48.33564" lon="-3.19386">
        <ele>146</ele>
        <time>2013-11-17T09:54:21.1Z</time>
      </trkpt>
      <trkpt lat="48.33565" lon="-3.19384">
        <ele>146</ele>
        <time>2013-11-17T09:54:23.1Z</time>
      </trkpt>
      <trkpt lat="48.33565" lon="-3.1938">
        <ele>146</ele>
        <time>2013-11-17T09:54:26.1Z</time>
      </trkpt>
      <trkpt lat="48.33565" lon="-3.19377">
        <ele>146</ele>
        <time>2013-11-17T09:54:28.1Z</time>
      </trkpt>
      <trkpt lat="48.33565" lon="-3.19375">
        <ele>146</ele>
        <time>2013-11-17T09:54:31.1Z</time>
      </trkpt>
      <trkpt lat="48.33565" lon="-3.19371">
        <ele>146</ele>
        <time>2013-11-17T09:54:33.1Z</time>
      </trkpt>
      <trkpt lat="48.33566" lon="-3.19367">
        <ele>147</ele>
        <time>2013-11-17T09:54:36.1Z</time>
      </trkpt>
      <trkpt lat="48.33566" lon="-3.19364">
        <ele>147</ele>
        <time>2013-11-17T09:54:38.1Z</time>
      </trkpt>
      <trkpt lat="48.33565" lon="-3.19361">
        <ele>147</ele>
        <time>2013-11-17T09:54:40.1Z</time>
      </trkpt>
      <trkpt lat="48.33564" lon="-3.19357">
        <ele>146</ele>
        <time>2013-11-17T09:54:43.1Z</time>
      </trkpt>
      <trkpt lat="48.33563" lon="-3.19353">
        <ele>146</ele>
        <time>2013-11-17T09:54:46.1Z</time>
      </trkpt>
      <trkpt lat="48.33562" lon="-3.19348">
        <ele>146</ele>
        <time>2013-11-17T09:54:49.1Z</time>
      </trkpt>
      <trkpt lat="48.33562" lon="-3.19344">
        <ele>146</ele>
        <time>2013-11-17T09:54:52.1Z</time>
      </trkpt>
      <trkpt lat="48.33562" lon="-3.19339">
        <ele>146</ele>
        <time>2013-11-17T09:54:55.1Z</time>
      </trkpt>
      <trkpt lat="48.33562" lon="-3.19336">
        <ele>147</ele>
        <time>2013-11-17T09:54:57.1Z</time>
      </trkpt>
      <trkpt lat="48.33562" lon="-3.19331">
        <ele>147</ele>
        <time>2013-11-17T09:55:00.1Z</time>
      </trkpt>
      <trkpt lat="48.33563" lon="-3.19326">
        <ele>147</ele>
        <time>2013-11-17T09:55:03.1Z</time>
      </trkpt>
      <trkpt lat="48.33563" lon="-3.19323">
        <ele>147</ele>
        <time>2013-11-17T09:55:05.1Z</time>
      </trkpt>
      <trkpt lat="48.33563" lon="-3.19318">
        <ele>147</ele>
        <time>2013-11-17T09:55:08.1Z</time>
      </trkpt>
      <trkpt lat="48.33564" lon="-3.19315">
        <ele>147</ele>
        <time>2013-11-17T09:55:10.1Z</time>
      </trkpt>
      <trkpt lat="48.33564" lon="-3.1931">
        <ele>147</ele>
        <time>2013-11-17T09:55:13.1Z</time>
      </trkpt>
      <trkpt lat="48.33564" lon="-3.19305">
        <ele>147</ele>
        <time>2013-11-17T09:55:16.1Z</time>
      </trkpt>
      <trkpt lat="48.33563" lon="-3.19302">
        <ele>147</ele>
        <time>2013-11-17T09:55:19.1Z</time>
      </trkpt>
      <trkpt lat="48.33563" lon="-3.19301">
        <ele>147</ele>
        <time>2013-11-17T09:55:22.1Z</time>
      </trkpt>
      <trkpt lat="48.33563" lon="-3.19301">
        <ele>147</ele>
        <time>2013-11-17T09:55:24.1Z</time>
      </trkpt>
      <trkpt lat="48.33564" lon="-3.19299">
        <ele>147</ele>
        <time>2013-11-17T09:55:27.1Z</time>
      </trkpt>
      <trkpt lat="48.33564" lon="-3.19298">
        <ele>148</ele>
        <time>2013-11-17T09:55:29.1Z</time>
      </trkpt>
      <trkpt lat="48.33564" lon="-3.19296">
        <ele>148</ele>
        <time>2013-11-17T09:55:32.1Z</time>
      </trkpt>
      <trkpt lat="48.33564" lon="-3.19294">
        <ele>148</ele>
        <time>2013-11-17T09:55:34.1Z</time>
      </trkpt>
      <trkpt lat="48.33564" lon="-3.19292">
        <ele>148</ele>
        <time>2013-11-17T09:55:36.1Z</time>
      </trkpt>
      <trkpt lat="48.33564" lon="-3.1929">
        <ele>148</ele>
        <time>2013-11-17T09:55:39.1Z</time>
      </trkpt>
      <trkpt lat="48.33564" lon="-3.19286">
        <ele>148</ele>
        <time>2013-11-17T09:55:42.1Z</time>
      </trkpt>
      <trkpt lat="48.33566" lon="-3.19284">
        <ele>148</ele>
        <time>2013-11-17T09:55:44.1Z</time>
      </trkpt>
      <trkpt lat="48.33567" lon="-3.1928">
        <ele>148</ele>
        <time>2013-11-17T09:55:47.1Z</time>
      </trkpt>
      <trkpt lat="48.33569" lon="-3.19275">
        <ele>148</ele>
        <time>2013-11-17T09:55:50.1Z</time>
      </trkpt>
      <trkpt lat="48.3357" lon="-3.19273">
        <ele>148</ele>
        <time>2013-11-17T09:55:52.1Z</time>
      </trkpt>
      <trkpt lat="48.33573" lon="-3.19268">
        <ele>148</ele>
        <time>2013-11-17T09:55:55.1Z</time>
      </trkpt>
      <trkpt lat="48.33574" lon="-3.19265">
        <ele>148</ele>
        <time>2013-11-17T09:55:57.1Z</time>
      </trkpt>
      <trkpt lat="48.33575" lon="-3.1926">
        <ele>148</ele>
        <time>2013-11-17T09:56:00.1Z</time>
      </trkpt>
      <trkpt lat="48.33575" lon="-3.19257">
        <ele>148</ele>
        <time>2013-11-17T09:56:02.1Z</time>
      </trkpt>
      <trkpt lat="48.33576" lon="-3.19253">
        <ele>148</ele>
        <time>2013-11-17T09:56:05.1Z</time>
      </trkpt>
      <trkpt lat="48.33577" lon="-3.19251">
        <ele>148</ele>
        <time>2013-11-17T09:56:07.1Z</time>
      </trkpt>
      <trkpt lat="48.33576" lon="-3.19249">
        <ele>148</ele>
        <time>2013-11-17T09:56:10.1Z</time>
      </trkpt>
      <trkpt lat="48.33576" lon="-3.19248">
        <ele>148</ele>
        <time>2013-11-17T09:56:12.1Z</time>
      </trkpt>
      <trkpt lat="48.33577" lon="-3.19245">
        <ele>148</ele>
        <time>2013-11-17T09:56:15.1Z</time>
      </trkpt>
      <trkpt lat="48.33577" lon="-3.19243">
        <ele>148</ele>
        <time>2013-11-17T09:56:17.1Z</time>
      </trkpt>
      <trkpt lat="48.33578" lon="-3.19239">
        <ele>148</ele>
        <time>2013-11-17T09:56:20.1Z</time>
      </trkpt>
      <trkpt lat="48.33578" lon="-3.19236">
        <ele>149</ele>
        <time>2013-11-17T09:56:22.1Z</time>
      </trkpt>
      <trkpt lat="48.33579" lon="-3.19234">
        <ele>149</ele>
        <time>2013-11-17T09:56:24.1Z</time>
      </trkpt>
      <trkpt lat="48.3358" lon="-3.19229">
        <ele>149</ele>
        <time>2013-11-17T09:56:27.1Z</time>
      </trkpt>
      <trkpt lat="48.33581" lon="-3.19226">
        <ele>148</ele>
        <time>2013-11-17T09:56:29.1Z</time>
      </trkpt>
      <trkpt lat="48.33582" lon="-3.19221">
        <ele>149</ele>
        <time>2013-11-17T09:56:32.1Z</time>
      </trkpt>
      <trkpt lat="48.33582" lon="-3.19218">
        <ele>149</ele>
        <time>2013-11-17T09:56:34.1Z</time>
      </trkpt>
      <trkpt lat="48.33583" lon="-3.19213">
        <ele>148</ele>
        <time>2013-11-17T09:56:37.1Z</time>
      </trkpt>
      <trkpt lat="48.33582" lon="-3.19208">
        <ele>148</ele>
        <time>2013-11-17T09:56:40.1Z</time>
      </trkpt>
      <trkpt lat="48.33582" lon="-3.19205">
        <ele>148</ele>
        <time>2013-11-17T09:56:42.1Z</time>
      </trkpt>
      <trkpt lat="48.33582" lon="-3.19202">
        <ele>148</ele>
        <time>2013-11-17T09:56:45.1Z</time>
      </trkpt>
      <trkpt lat="48.33582" lon="-3.192">
        <ele>148</ele>
        <time>2013-11-17T09:56:48.1Z</time>
      </trkpt>
      <trkpt lat="48.33583" lon="-3.19197">
        <ele>148</ele>
        <time>2013-11-17T09:56:50.1Z</time>
      </trkpt>
      <trkpt lat="48.33583" lon="-3.19193">
        <ele>147</ele>
        <time>2013-11-17T09:56:53.1Z</time>
      </trkpt>
      <trkpt lat="48.33583" lon="-3.19187">
        <ele>147</ele>
        <time>2013-11-17T09:56:56.1Z</time>
      </trkpt>
      <trkpt lat="48.33583" lon="-3.19181">
        <ele>147</ele>
        <time>2013-11-17T09:56:59.1Z</time>
      </trkpt>
      <trkpt lat="48.33583" lon="-3.19175">
        <ele>147</ele>
        <time>2013-11-17T09:57:02.1Z</time>
      </trkpt>
      <trkpt lat="48.33584" lon="-3.19172">
        <ele>147</ele>
        <time>2013-11-17T09:57:04.1Z</time>
      </trkpt>
      <trkpt lat="48.33585" lon="-3.19167">
        <ele>147</ele>
        <time>2013-11-17T09:57:07.1Z</time>
      </trkpt>
      <trkpt lat="48.33586" lon="-3.19164">
        <ele>147</ele>
        <time>2013-11-17T09:57:10.1Z</time>
      </trkpt>
      <trkpt lat="48.33587" lon="-3.19162">
        <ele>147</ele>
        <time>2013-11-17T09:57:12.1Z</time>
      </trkpt>
      <trkpt lat="48.33588" lon="-3.1916">
        <ele>148</ele>
        <time>2013-11-17T09:57:14.1Z</time>
      </trkpt>
      <trkpt lat="48.33588" lon="-3.19159">
        <ele>148</ele>
        <time>2013-11-17T09:57:17.1Z</time>
      </trkpt>
      <trkpt lat="48.33588" lon="-3.19159">
        <ele>148</ele>
        <time>2013-11-17T09:57:20.1Z</time>
      </trkpt>
      <trkpt lat="48.33589" lon="-3.1916">
        <ele>149</ele>
        <time>2013-11-17T09:57:23.1Z</time>
      </trkpt>
      <trkpt lat="48.3359" lon="-3.1916">
        <ele>150</ele>
        <time>2013-11-17T09:57:26.1Z</time>
      </trkpt>
      <trkpt lat="48.33591" lon="-3.1916">
        <ele>150</ele>
        <time>2013-11-17T09:57:30.1Z</time>
      </trkpt>
      <trkpt lat="48.33593" lon="-3.19159">
        <ele>150</ele>
        <time>2013-11-17T09:57:32.1Z</time>
      </trkpt>
      <trkpt lat="48.33594" lon="-3.19156">
        <ele>150</ele>
        <time>2013-11-17T09:57:34.1Z</time>
      </trkpt>
      <trkpt lat="48.33595" lon="-3.19155">
        <ele>150</ele>
        <time>2013-11-17T09:57:36.1Z</time>
      </trkpt>
      <trkpt lat="48.33598" lon="-3.19155">
        <ele>149</ele>
        <time>2013-11-17T09:57:39.1Z</time>
      </trkpt>
      <trkpt lat="48.336" lon="-3.19154">
        <ele>149</ele>
        <time>2013-11-17T09:57:42.1Z</time>
      </trkpt>
      <trkpt lat="48.33602" lon="-3.19153">
        <ele>149</ele>
        <time>2013-11-17T09:57:44.1Z</time>
      </trkpt>
      <trkpt lat="48.33603" lon="-3.19153">
        <ele>149</ele>
        <time>2013-11-17T09:57:46.1Z</time>
      </trkpt>
      <trkpt lat="48.33605" lon="-3.19153">
        <ele>149</ele>
        <time>2013-11-17T09:57:48.1Z</time>
      </trkpt>
      <trkpt lat="48.33607" lon="-3.19152">
        <ele>149</ele>
        <time>2013-11-17T09:57:51.1Z</time>
      </trkpt>
      <trkpt lat="48.33609" lon="-3.19152">
        <ele>150</ele>
        <time>2013-11-17T09:57:53.1Z</time>
      </trkpt>
      <trkpt lat="48.33612" lon="-3.19151">
        <ele>150</ele>
        <time>2013-11-17T09:57:56.1Z</time>
      </trkpt>
      <trkpt lat="48.33614" lon="-3.1915">
        <ele>150</ele>
        <time>2013-11-17T09:57:58.1Z</time>
      </trkpt>
      <trkpt lat="48.33617" lon="-3.19149">
        <ele>150</ele>
        <time>2013-11-17T09:58:01.1Z</time>
      </trkpt>
      <trkpt lat="48.33619" lon="-3.19148">
        <ele>150</ele>
        <time>2013-11-17T09:58:03.1Z</time>
      </trkpt>
      <trkpt lat="48.3362" lon="-3.19147">
        <ele>150</ele>
        <time>2013-11-17T09:58:05.1Z</time>
      </trkpt>
      <trkpt lat="48.33624" lon="-3.19146">
        <ele>150</ele>
        <time>2013-11-17T09:58:08.1Z</time>
      </trkpt>
      <trkpt lat="48.33625" lon="-3.19145">
        <ele>150</ele>
        <time>2013-11-17T09:58:10.1Z</time>
      </trkpt>
      <trkpt lat="48.33628" lon="-3.19144">
        <ele>151</ele>
        <time>2013-11-17T09:58:13.1Z</time>
      </trkpt>
      <trkpt lat="48.3363" lon="-3.19143">
        <ele>151</ele>
        <time>2013-11-17T09:58:16.1Z</time>
      </trkpt>
      <trkpt lat="48.33631" lon="-3.19142">
        <ele>151</ele>
        <time>2013-11-17T09:58:18.1Z</time>
      </trkpt>
      <trkpt lat="48.33633" lon="-3.19141">
        <ele>151</ele>
        <time>2013-11-17T09:58:21.1Z</time>
      </trkpt>
      <trkpt lat="48.33636" lon="-3.19139">
        <ele>152</ele>
        <time>2013-11-17T09:58:23.1Z</time>
      </trkpt>
      <trkpt lat="48.33638" lon="-3.19136">
        <ele>152</ele>
        <time>2013-11-17T09:58:26.1Z</time>
      </trkpt>
      <trkpt lat="48.33641" lon="-3.19134">
        <ele>152</ele>
        <time>2013-11-17T09:58:29.1Z</time>
      </trkpt>
      <trkpt lat="48.33643" lon="-3.19132">
        <ele>153</ele>
        <time>2013-11-17T09:58:31.1Z</time>
      </trkpt>
      <trkpt lat="48.33645" lon="-3.19129">
        <ele>153</ele>
        <time>2013-11-17T09:58:34.1Z</time>
      </trkpt>
      <trkpt lat="48.33646" lon="-3.19127">
        <ele>153</ele>
        <time>2013-11-17T09:58:36.1Z</time>
      </trkpt>
      <trkpt lat="48.33648" lon="-3.19124">
        <ele>153</ele>
        <time>2013-11-17T09:58:38.1Z</time>
      </trkpt>
      <trkpt lat="48.33651" lon="-3.19121">
        <ele>154</ele>
        <time>2013-11-17T09:58:41.1Z</time>
      </trkpt>
      <trkpt lat="48.33652" lon="-3.19118">
        <ele>154</ele>
        <time>2013-11-17T09:58:43.1Z</time>
      </trkpt>
      <trkpt lat="48.33654" lon="-3.19118">
        <ele>154</ele>
        <time>2013-11-17T09:58:46.1Z</time>
      </trkpt>
      <trkpt lat="48.33655" lon="-3.19116">
        <ele>154</ele>
        <time>2013-11-17T09:58:49.1Z</time>
      </trkpt>
      <trkpt lat="48.33656" lon="-3.19113">
        <ele>154</ele>
        <time>2013-11-17T09:58:52.1Z</time>
      </trkpt>
      <trkpt lat="48.33657" lon="-3.19112">
        <ele>154</ele>
        <time>2013-11-17T09:58:54.1Z</time>
      </trkpt>
      <trkpt lat="48.33657" lon="-3.19112">
        <ele>154</ele>
        <time>2013-11-17T09:58:56.1Z</time>
      </trkpt>
      <trkpt lat="48.3366" lon="-3.19111">
        <ele>154</ele>
        <time>2013-11-17T09:58:59.1Z</time>
      </trkpt>
      <trkpt lat="48.33663" lon="-3.19108">
        <ele>154</ele>
        <time>2013-11-17T09:59:02.1Z</time>
      </trkpt>
      <trkpt lat="48.33665" lon="-3.19107">
        <ele>154</ele>
        <time>2013-11-17T09:59:05.1Z</time>
      </trkpt>
      <trkpt lat="48.33666" lon="-3.19106">
        <ele>154</ele>
        <time>2013-11-17T09:59:07.1Z</time>
      </trkpt>
      <trkpt lat="48.33668" lon="-3.19104">
        <ele>154</ele>
        <time>2013-11-17T09:59:10.1Z</time>
      </trkpt>
      <trkpt lat="48.33669" lon="-3.19103">
        <ele>154</ele>
        <time>2013-11-17T09:59:13.1Z</time>
      </trkpt>
      <trkpt lat="48.33671" lon="-3.19101">
        <ele>154</ele>
        <time>2013-11-17T09:59:15.1Z</time>
      </trkpt>
      <trkpt lat="48.33673" lon="-3.19101">
        <ele>155</ele>
        <time>2013-11-17T09:59:17.1Z</time>
      </trkpt>
      <trkpt lat="48.33675" lon="-3.191">
        <ele>155</ele>
        <time>2013-11-17T09:59:20.1Z</time>
      </trkpt>
      <trkpt lat="48.33676" lon="-3.19099">
        <ele>155</ele>
        <time>2013-11-17T09:59:22.1Z</time>
      </trkpt>
      <trkpt lat="48.33678" lon="-3.19098">
        <ele>156</ele>
        <time>2013-11-17T09:59:24.1Z</time>
      </trkpt>
      <trkpt lat="48.3368" lon="-3.19097">
        <ele>156</ele>
        <time>2013-11-17T09:59:26.1Z</time>
      </trkpt>
      <trkpt lat="48.33681" lon="-3.19096">
        <ele>157</ele>
        <time>2013-11-17T09:59:29.1Z</time>
      </trkpt>
      <trkpt lat="48.33685" lon="-3.19091">
        <ele>157</ele>
        <time>2013-11-17T09:59:32.1Z</time>
      </trkpt>
      <trkpt lat="48.33687" lon="-3.19088">
        <ele>157</ele>
        <time>2013-11-17T09:59:34.1Z</time>
      </trkpt>
      <trkpt lat="48.33689" lon="-3.19086">
        <ele>157</ele>
        <time>2013-11-17T09:59:36.1Z</time>
      </trkpt>
      <trkpt lat="48.33692" lon="-3.1908">
        <ele>157</ele>
        <time>2013-11-17T09:59:39.1Z</time>
      </trkpt>
      <trkpt lat="48.33694" lon="-3.19077">
        <ele>158</ele>
        <time>2013-11-17T09:59:41.1Z</time>
      </trkpt>
      <trkpt lat="48.33696" lon="-3.19072">
        <ele>158</ele>
        <time>2013-11-17T09:59:44.1Z</time>
      </trkpt>
      <trkpt lat="48.33696" lon="-3.19069">
        <ele>158</ele>
        <time>2013-11-17T09:59:46.1Z</time>
      </trkpt>
      <trkpt lat="48.33697" lon="-3.19065">
        <ele>158</ele>
        <time>2013-11-17T09:59:48.1Z</time>
      </trkpt>
      <trkpt lat="48.33699" lon="-3.19061">
        <ele>159</ele>
        <time>2013-11-17T09:59:51.1Z</time>
      </trkpt>
      <trkpt lat="48.337" lon="-3.19058">
        <ele>159</ele>
        <time>2013-11-17T09:59:53.1Z</time>
      </trkpt>
      <trkpt lat="48.33703" lon="-3.19054">
        <ele>159</ele>
        <time>2013-11-17T09:59:56.1Z</time>
      </trkpt>
      <trkpt lat="48.33704" lon="-3.19052">
        <ele>159</ele>
        <time>2013-11-17T09:59:58.1Z</time>
      </trkpt>
      <trkpt lat="48.33706" lon="-3.19051">
        <ele>159</ele>
        <time>2013-11-17T10:00:01.1Z</time>
      </trkpt>
      <trkpt lat="48.33708" lon="-3.19049">
        <ele>159</ele>
        <time>2013-11-17T10:00:04.1Z</time>
      </trkpt>
      <trkpt lat="48.33711" lon="-3.19049">
        <ele>159</ele>
        <time>2013-11-17T10:00:07.1Z</time>
      </trkpt>
      <trkpt lat="48.33712" lon="-3.19048">
        <ele>159</ele>
        <time>2013-11-17T10:00:09.1Z</time>
      </trkpt>
      <trkpt lat="48.33714" lon="-3.19046">
        <ele>160</ele>
        <time>2013-11-17T10:00:12.1Z</time>
      </trkpt>
      <trkpt lat="48.33716" lon="-3.19045">
        <ele>160</ele>
        <time>2013-11-17T10:00:15.1Z</time>
      </trkpt>
      <trkpt lat="48.33717" lon="-3.19044">
        <ele>160</ele>
        <time>2013-11-17T10:00:17.1Z</time>
      </trkpt>
      <trkpt lat="48.33717" lon="-3.19044">
        <ele>160</ele>
        <time>2013-11-17T10:00:20.1Z</time>
      </trkpt>
      <trkpt lat="48.33718" lon="-3.19044">
        <ele>161</ele>
        <time>2013-11-17T10:00:23.1Z</time>
      </trkpt>
      <trkpt lat="48.33719" lon="-3.19043">
        <ele>162</ele>
        <time>2013-11-17T10:00:26.1Z</time>
      </trkpt>
      <trkpt lat="48.33719" lon="-3.19042">
        <ele>162</ele>
        <time>2013-11-17T10:00:28.1Z</time>
      </trkpt>
      <trkpt lat="48.3372" lon="-3.1904">
        <ele>161</ele>
        <time>2013-11-17T10:00:31.1Z</time>
      </trkpt>
      <trkpt lat="48.33721" lon="-3.19039">
        <ele>161</ele>
        <time>2013-11-17T10:00:33.1Z</time>
      </trkpt>
      <trkpt lat="48.33723" lon="-3.19036">
        <ele>160</ele>
        <time>2013-11-17T10:00:36.1Z</time>
      </trkpt>
      <trkpt lat="48.33723" lon="-3.19033">
        <ele>159</ele>
        <time>2013-11-17T10:00:39.1Z</time>
      </trkpt>
      <trkpt lat="48.33724" lon="-3.19032">
        <ele>159</ele>
        <time>2013-11-17T10:00:41.1Z</time>
      </trkpt>
      <trkpt lat="48.33725" lon="-3.1903">
        <ele>159</ele>
        <time>2013-11-17T10:00:44.1Z</time>
      </trkpt>
      <trkpt lat="48.33726" lon="-3.19029">
        <ele>159</ele>
        <time>2013-11-17T10:00:47.1Z</time>
      </trkpt>
      <trkpt lat="48.33727" lon="-3.19028">
        <ele>160</ele>
        <time>2013-11-17T10:00:50.1Z</time>
      </trkpt>
      <trkpt lat="48.33728" lon="-3.19028">
        <ele>160</ele>
        <time>2013-11-17T10:00:53.1Z</time>
      </trkpt>
      <trkpt lat="48.3373" lon="-3.19027">
        <ele>161</ele>
        <time>2013-11-17T10:00:56.1Z</time>
      </trkpt>
      <trkpt lat="48.33732" lon="-3.19028">
        <ele>161</ele>
        <time>2013-11-17T10:00:58.1Z</time>
      </trkpt>
      <trkpt lat="48.33734" lon="-3.19027">
        <ele>161</ele>
        <time>2013-11-17T10:01:01.1Z</time>
      </trkpt>
      <trkpt lat="48.33735" lon="-3.19026">
        <ele>162</ele>
        <time>2013-11-17T10:01:04.1Z</time>
      </trkpt>
      <trkpt lat="48.33736" lon="-3.19026">
        <ele>162</ele>
        <time>2013-11-17T10:01:06.1Z</time>
      </trkpt>
      <trkpt lat="48.33737" lon="-3.19025">
        <ele>162</ele>
        <time>2013-11-17T10:01:09.1Z</time>
      </trkpt>
      <trkpt lat="48.33738" lon="-3.19023">
        <ele>163</ele>
        <time>2013-11-17T10:01:11.1Z</time>
      </trkpt>
      <trkpt lat="48.33739" lon="-3.19021">
        <ele>163</ele>
        <time>2013-11-17T10:01:14.1Z</time>
      </trkpt>
      <trkpt lat="48.33741" lon="-3.1902">
        <ele>164</ele>
        <time>2013-11-17T10:01:16.1Z</time>
      </trkpt>
      <trkpt lat="48.33742" lon="-3.1902">
        <ele>164</ele>
        <time>2013-11-17T10:01:19.1Z</time>
      </trkpt>
      <trkpt lat="48.33744" lon="-3.19019">
        <ele>164</ele>
        <time>2013-11-17T10:01:22.1Z</time>
      </trkpt>
      <trkpt lat="48.33745" lon="-3.19019">
        <ele>164</ele>
        <time>2013-11-17T10:01:24.1Z</time>
      </trkpt>
      <trkpt lat="48.33747" lon="-3.19017">
        <ele>164</ele>
        <time>2013-11-17T10:01:27.1Z</time>
      </trkpt>
      <trkpt lat="48.33749" lon="-3.19017">
        <ele>164</ele>
        <time>2013-11-17T10:01:29.1Z</time>
      </trkpt>
      <trkpt lat="48.33752" lon="-3.19016">
        <ele>164</ele>
        <time>2013-11-17T10:01:32.1Z</time>
      </trkpt>
      <trkpt lat="48.33754" lon="-3.19016">
        <ele>164</ele>
        <time>2013-11-17T10:01:35.1Z</time>
      </trkpt>
      <trkpt lat="48.33757" lon="-3.19015">
        <ele>165</ele>
        <time>2013-11-17T10:01:38.1Z</time>
      </trkpt>
      <trkpt lat="48.33759" lon="-3.19014">
        <ele>165</ele>
        <time>2013-11-17T10:01:40.1Z</time>
      </trkpt>
      <trkpt lat="48.33762" lon="-3.19014">
        <ele>165</ele>
        <time>2013-11-17T10:01:43.1Z</time>
      </trkpt>
      <trkpt lat="48.33764" lon="-3.19013">
        <ele>165</ele>
        <time>2013-11-17T10:01:46.1Z</time>
      </trkpt>
      <trkpt lat="48.33765" lon="-3.19013">
        <ele>165</ele>
        <time>2013-11-17T10:01:48.1Z</time>
      </trkpt>
      <trkpt lat="48.33768" lon="-3.19011">
        <ele>166</ele>
        <time>2013-11-17T10:01:51.1Z</time>
      </trkpt>
      <trkpt lat="48.33771" lon="-3.1901">
        <ele>166</ele>
        <time>2013-11-17T10:01:53.1Z</time>
      </trkpt>
      <trkpt lat="48.33775" lon="-3.1901">
        <ele>166</ele>
        <time>2013-11-17T10:01:56.1Z</time>
      </trkpt>
      <trkpt lat="48.33778" lon="-3.1901">
        <ele>166</ele>
        <time>2013-11-17T10:01:59.1Z</time>
      </trkpt>
      <trkpt lat="48.33781" lon="-3.1901">
        <ele>166</ele>
        <time>2013-11-17T10:02:02.1Z</time>
      </trkpt>
      <trkpt lat="48.33783" lon="-3.19011">
        <ele>166</ele>
        <time>2013-11-17T10:02:04.1Z</time>
      </trkpt>
      <trkpt lat="48.33785" lon="-3.19012">
        <ele>166</ele>
        <time>2013-11-17T10:02:06.1Z</time>
      </trkpt>
      <trkpt lat="48.33788" lon="-3.1901">
        <ele>167</ele>
        <time>2013-11-17T10:02:09.1Z</time>
      </trkpt>
      <trkpt lat="48.33791" lon="-3.19009">
        <ele>167</ele>
        <time>2013-11-17T10:02:12.1Z</time>
      </trkpt>
      <trkpt lat="48.33794" lon="-3.19009">
        <ele>167</ele>
        <time>2013-11-17T10:02:15.1Z</time>
      </trkpt>
      <trkpt lat="48.33796" lon="-3.19008">
        <ele>167</ele>
        <time>2013-11-17T10:02:17.1Z</time>
      </trkpt>
      <trkpt lat="48.33799" lon="-3.19008">
        <ele>167</ele>
        <time>2013-11-17T10:02:20.1Z</time>
      </trkpt>
      <trkpt lat="48.33801" lon="-3.19008">
        <ele>167</ele>
        <time>2013-11-17T10:02:23.1Z</time>
      </trkpt>
      <trkpt lat="48.33804" lon="-3.19007">
        <ele>167</ele>
        <time>2013-11-17T10:02:26.1Z</time>
      </trkpt>
      <trkpt lat="48.33807" lon="-3.19005">
        <ele>167</ele>
        <time>2013-11-17T10:02:29.1Z</time>
      </trkpt>
      <trkpt lat="48.3381" lon="-3.19004">
        <ele>167</ele>
        <time>2013-11-17T10:02:31.1Z</time>
      </trkpt>
      <trkpt lat="48.33812" lon="-3.19002">
        <ele>167</ele>
        <time>2013-11-17T10:02:34.1Z</time>
      </trkpt>
      <trkpt lat="48.33814" lon="-3.19002">
        <ele>167</ele>
        <time>2013-11-17T10:02:36.1Z</time>
      </trkpt>
      <trkpt lat="48.33816" lon="-3.19002">
        <ele>167</ele>
        <time>2013-11-17T10:02:38.1Z</time>
      </trkpt>
      <trkpt lat="48.33819" lon="-3.19002">
        <ele>167</ele>
        <time>2013-11-17T10:02:41.1Z</time>
      </trkpt>
      <trkpt lat="48.3382" lon="-3.19003">
        <ele>167</ele>
        <time>2013-11-17T10:02:43.1Z</time>
      </trkpt>
      <trkpt lat="48.33821" lon="-3.19003">
        <ele>168</ele>
        <time>2013-11-17T10:02:46.1Z</time>
      </trkpt>
      <trkpt lat="48.33824" lon="-3.19003">
        <ele>167</ele>
        <time>2013-11-17T10:02:49.1Z</time>
      </trkpt>
      <trkpt lat="48.33826" lon="-3.19004">
        <ele>168</ele>
        <time>2013-11-17T10:02:52.1Z</time>
      </trkpt>
      <trkpt lat="48.33827" lon="-3.19004">
        <ele>167</ele>
        <time>2013-11-17T10:02:54.1Z</time>
      </trkpt>
      <trkpt lat="48.33827" lon="-3.19005">
        <ele>168</ele>
        <time>2013-11-17T10:02:57.1Z</time>
      </trkpt>
      <trkpt lat="48.33827" lon="-3.19005">
        <ele>168</ele>
        <time>2013-11-17T10:02:59.1Z</time>
      </trkpt>
      <trkpt lat="48.33827" lon="-3.19004">
        <ele>167</ele>
        <time>2013-11-17T10:03:02.1Z</time>
      </trkpt>
      <trkpt lat="48.33828" lon="-3.19004">
        <ele>168</ele>
        <time>2013-11-17T10:03:04.1Z</time>
      </trkpt>
      <trkpt lat="48.33831" lon="-3.19004">
        <ele>168</ele>
        <time>2013-11-17T10:03:07.1Z</time>
      </trkpt>
      <trkpt lat="48.33832" lon="-3.19003">
        <ele>168</ele>
        <time>2013-11-17T10:03:10.1Z</time>
      </trkpt>
      <trkpt lat="48.33833" lon="-3.19002">
        <ele>167</ele>
        <time>2013-11-17T10:03:13.1Z</time>
      </trkpt>
      <trkpt lat="48.33836" lon="-3.19001">
        <ele>167</ele>
        <time>2013-11-17T10:03:15.1Z</time>
      </trkpt>
      <trkpt lat="48.33837" lon="-3.19001">
        <ele>167</ele>
        <time>2013-11-17T10:03:17.1Z</time>
      </trkpt>
      <trkpt lat="48.33839" lon="-3.18999">
        <ele>167</ele>
        <time>2013-11-17T10:03:20.1Z</time>
      </trkpt>
      <trkpt lat="48.33841" lon="-3.18997">
        <ele>168</ele>
        <time>2013-11-17T10:03:23.1Z</time>
      </trkpt>
      <trkpt lat="48.33842" lon="-3.18999">
        <ele>168</ele>
        <time>2013-11-17T10:03:26.1Z</time>
      </trkpt>
      <trkpt lat="48.33846" lon="-3.18999">
        <ele>169</ele>
        <time>2013-11-17T10:03:29.1Z</time>
      </trkpt>
      <trkpt lat="48.33849" lon="-3.18998">
        <ele>169</ele>
        <time>2013-11-17T10:03:32.1Z</time>
      </trkpt>
      <trkpt lat="48.3385" lon="-3.18996">
        <ele>169</ele>
        <time>2013-11-17T10:03:34.1Z</time>
      </trkpt>
      <trkpt lat="48.33853" lon="-3.18995">
        <ele>169</ele>
        <time>2013-11-17T10:03:37.1Z</time>
      </trkpt>
      <trkpt lat="48.33854" lon="-3.18994">
        <ele>169</ele>
        <time>2013-11-17T10:03:39.1Z</time>
      </trkpt>
      <trkpt lat="48.33857" lon="-3.18992">
        <ele>169</ele>
        <time>2013-11-17T10:03:42.1Z</time>
      </trkpt>
      <trkpt lat="48.33859" lon="-3.18989">
        <ele>169</ele>
        <time>2013-11-17T10:03:45.1Z</time>
      </trkpt>
      <trkpt lat="48.3386" lon="-3.18989">
        <ele>170</ele>
        <time>2013-11-17T10:03:47.1Z</time>
      </trkpt>
      <trkpt lat="48.33861" lon="-3.18988">
        <ele>170</ele>
        <time>2013-11-17T10:03:50.1Z</time>
      </trkpt>
      <trkpt lat="48.33863" lon="-3.18987">
        <ele>171</ele>
        <time>2013-11-17T10:03:53.1Z</time>
      </trkpt>
      <trkpt lat="48.33865" lon="-3.18986">
        <ele>171</ele>
        <time>2013-11-17T10:03:55.1Z</time>
      </trkpt>
      <trkpt lat="48.33867" lon="-3.18984">
        <ele>171</ele>
        <time>2013-11-17T10:03:58.1Z</time>
      </trkpt>
      <trkpt lat="48.3387" lon="-3.1898">
        <ele>171</ele>
        <time>2013-11-17T10:04:01.1Z</time>
      </trkpt>
      <trkpt lat="48.33871" lon="-3.18978">
        <ele>171</ele>
        <time>2013-11-17T10:04:03.1Z</time>
      </trkpt>
      <trkpt lat="48.33873" lon="-3.18975">
        <ele>172</ele>
        <time>2013-11-17T10:04:06.1Z</time>
      </trkpt>
      <trkpt lat="48.33876" lon="-3.18972">
        <ele>172</ele>
        <time>2013-11-17T10:04:09.1Z</time>
      </trkpt>
      <trkpt lat="48.33876" lon="-3.1897">
        <ele>173</ele>
        <time>2013-11-17T10:04:11.1Z</time>
      </trkpt>
      <trkpt lat="48.33876" lon="-3.18969">
        <ele>173</ele>
        <time>2013-11-17T10:04:13.1Z</time>
      </trkpt>
      <trkpt lat="48.33878" lon="-3.18967">
        <ele>174</ele>
        <time>2013-11-17T10:04:16.1Z</time>
      </trkpt>
      <trkpt lat="48.33879" lon="-3.18966">
        <ele>174</ele>
        <time>2013-11-17T10:04:18.1Z</time>
      </trkpt>
      <trkpt lat="48.33881" lon="-3.18964">
        <ele>173</ele>
        <time>2013-11-17T10:04:21.1Z</time>
      </trkpt>
      <trkpt lat="48.33882" lon="-3.18963">
        <ele>173</ele>
        <time>2013-11-17T10:04:24.1Z</time>
      </trkpt>
      <trkpt lat="48.33884" lon="-3.18962">
        <ele>173</ele>
        <time>2013-11-17T10:04:26.1Z</time>
      </trkpt>
      <trkpt lat="48.33885" lon="-3.18959">
        <ele>172</ele>
        <time>2013-11-17T10:04:29.1Z</time>
      </trkpt>
      <trkpt lat="48.33887" lon="-3.18956">
        <ele>172</ele>
        <time>2013-11-17T10:04:32.1Z</time>
      </trkpt>
      <trkpt lat="48.33889" lon="-3.18953">
        <ele>172</ele>
        <time>2013-11-17T10:04:35.1Z</time>
      </trkpt>
      <trkpt lat="48.33892" lon="-3.18951">
        <ele>172</ele>
        <time>2013-11-17T10:04:38.1Z</time>
      </trkpt>
      <trkpt lat="48.33893" lon="-3.18949">
        <ele>172</ele>
        <time>2013-11-17T10:04:40.1Z</time>
      </trkpt>
      <trkpt lat="48.33895" lon="-3.18945">
        <ele>173</ele>
        <time>2013-11-17T10:04:43.1Z</time>
      </trkpt>
      <trkpt lat="48.33897" lon="-3.18942">
        <ele>173</ele>
        <time>2013-11-17T10:04:45.1Z</time>
      </trkpt>
      <trkpt lat="48.33899" lon="-3.18939">
        <ele>173</ele>
        <time>2013-11-17T10:04:47.1Z</time>
      </trkpt>
      <trkpt lat="48.33901" lon="-3.18935">
        <ele>174</ele>
        <time>2013-11-17T10:04:50.1Z</time>
      </trkpt>
      <trkpt lat="48.33903" lon="-3.1893">
        <ele>174</ele>
        <time>2013-11-17T10:04:53.1Z</time>
      </trkpt>
      <trkpt lat="48.33905" lon="-3.18926">
        <ele>175</ele>
        <time>2013-11-17T10:04:56.1Z</time>
      </trkpt>
      <trkpt lat="48.33907" lon="-3.18924">
        <ele>175</ele>
        <time>2013-11-17T10:04:58.1Z</time>
      </trkpt>
      <trkpt lat="48.33908" lon="-3.1892">
        <ele>175</ele>
        <time>2013-11-17T10:05:01.1Z</time>
      </trkpt>
      <trkpt lat="48.33909" lon="-3.18919">
        <ele>175</ele>
        <time>2013-11-17T10:05:04.1Z</time>
      </trkpt>
      <trkpt lat="48.33911" lon="-3.18917">
        <ele>175</ele>
        <time>2013-11-17T10:05:07.1Z</time>
      </trkpt>
      <trkpt lat="48.33911" lon="-3.18914">
        <ele>176</ele>
        <time>2013-11-17T10:05:10.1Z</time>
      </trkpt>
      <trkpt lat="48.33911" lon="-3.18912">
        <ele>176</ele>
        <time>2013-11-17T10:05:13.1Z</time>
      </trkpt>
      <trkpt lat="48.33911" lon="-3.1891">
        <ele>176</ele>
        <time>2013-11-17T10:05:16.1Z</time>
      </trkpt>
      <trkpt lat="48.33912" lon="-3.18907">
        <ele>176</ele>
        <time>2013-11-17T10:05:19.1Z</time>
      </trkpt>
      <trkpt lat="48.33912" lon="-3.18906">
        <ele>176</ele>
        <time>2013-11-17T10:05:22.1Z</time>
      </trkpt>
      <trkpt lat="48.33913" lon="-3.18904">
        <ele>177</ele>
        <time>2013-11-17T10:05:25.1Z</time>
      </trkpt>
      <trkpt lat="48.33913" lon="-3.18904">
        <ele>177</ele>
        <time>2013-11-17T10:05:27.1Z</time>
      </trkpt>
      <trkpt lat="48.33914" lon="-3.18903">
        <ele>177</ele>
        <time>2013-11-17T10:05:29.1Z</time>
      </trkpt>
      <trkpt lat="48.33914" lon="-3.18901">
        <ele>177</ele>
        <time>2013-11-17T10:05:32.1Z</time>
      </trkpt>
      <trkpt lat="48.33914" lon="-3.189">
        <ele>177</ele>
        <time>2013-11-17T10:05:34.1Z</time>
      </trkpt>
      <trkpt lat="48.33915" lon="-3.18898">
        <ele>177</ele>
        <time>2013-11-17T10:05:37.1Z</time>
      </trkpt>
      <trkpt lat="48.33916" lon="-3.18896">
        <ele>177</ele>
        <time>2013-11-17T10:05:39.1Z</time>
      </trkpt>
      <trkpt lat="48.33917" lon="-3.18894">
        <ele>177</ele>
        <time>2013-11-17T10:05:41.1Z</time>
      </trkpt>
      <trkpt lat="48.33919" lon="-3.18892">
        <ele>177</ele>
        <time>2013-11-17T10:05:44.1Z</time>
      </trkpt>
      <trkpt lat="48.3392" lon="-3.1889">
        <ele>177</ele>
        <time>2013-11-17T10:05:47.1Z</time>
      </trkpt>
      <trkpt lat="48.33921" lon="-3.18888">
        <ele>177</ele>
        <time>2013-11-17T10:05:49.1Z</time>
      </trkpt>
      <trkpt lat="48.33923" lon="-3.18886">
        <ele>178</ele>
        <time>2013-11-17T10:05:52.1Z</time>
      </trkpt>
      <trkpt lat="48.33924" lon="-3.18884">
        <ele>178</ele>
        <time>2013-11-17T10:05:54.1Z</time>
      </trkpt>
      <trkpt lat="48.33925" lon="-3.18882">
        <ele>178</ele>
        <time>2013-11-17T10:05:56.1Z</time>
      </trkpt>
      <trkpt lat="48.33927" lon="-3.1888">
        <ele>178</ele>
        <time>2013-11-17T10:05:59.1Z</time>
      </trkpt>
      <trkpt lat="48.33929" lon="-3.18878">
        <ele>178</ele>
        <time>2013-11-17T10:06:02.1Z</time>
      </trkpt>
      <trkpt lat="48.3393" lon="-3.18876">
        <ele>178</ele>
        <time>2013-11-17T10:06:05.1Z</time>
      </trkpt>
      <trkpt lat="48.33931" lon="-3.18875">
        <ele>178</ele>
        <time>2013-11-17T10:06:07.1Z</time>
      </trkpt>
      <trkpt lat="48.33932" lon="-3.18873">
        <ele>178</ele>
        <time>2013-11-17T10:06:09.1Z</time>
      </trkpt>
      <trkpt lat="48.33933" lon="-3.18872">
        <ele>178</ele>
        <time>2013-11-17T10:06:11.1Z</time>
      </trkpt>
      <trkpt lat="48.33936" lon="-3.18869">
        <ele>178</ele>
        <time>2013-11-17T10:06:14.1Z</time>
      </trkpt>
      <trkpt lat="48.33938" lon="-3.18868">
        <ele>178</ele>
        <time>2013-11-17T10:06:17.1Z</time>
      </trkpt>
      <trkpt lat="48.33939" lon="-3.18867">
        <ele>178</ele>
        <time>2013-11-17T10:06:19.1Z</time>
      </trkpt>
      <trkpt lat="48.33942" lon="-3.18865">
        <ele>178</ele>
        <time>2013-11-17T10:06:22.1Z</time>
      </trkpt>
      <trkpt lat="48.33944" lon="-3.18863">
        <ele>178</ele>
        <time>2013-11-17T10:06:24.1Z</time>
      </trkpt>
      <trkpt lat="48.33945" lon="-3.18862">
        <ele>178</ele>
        <time>2013-11-17T10:06:27.1Z</time>
      </trkpt>
      <trkpt lat="48.33946" lon="-3.1886">
        <ele>178</ele>
        <time>2013-11-17T10:06:30.1Z</time>
      </trkpt>
      <trkpt lat="48.33947" lon="-3.18859">
        <ele>178</ele>
        <time>2013-11-17T10:06:33.1Z</time>
      </trkpt>
      <trkpt lat="48.33948" lon="-3.18859">
        <ele>178</ele>
        <time>2013-11-17T10:06:38.1Z</time>
      </trkpt>
      <trkpt lat="48.33949" lon="-3.18859">
        <ele>178</ele>
        <time>2013-11-17T10:06:40.1Z</time>
      </trkpt>
      <trkpt lat="48.3395" lon="-3.18856">
        <ele>178</ele>
        <time>2013-11-17T10:06:43.1Z</time>
      </trkpt>
      <trkpt lat="48.33952" lon="-3.18853">
        <ele>178</ele>
        <time>2013-11-17T10:06:46.1Z</time>
      </trkpt>
      <trkpt lat="48.33953" lon="-3.18851">
        <ele>178</ele>
        <time>2013-11-17T10:06:48.1Z</time>
      </trkpt>
      <trkpt lat="48.33954" lon="-3.18848">
        <ele>178</ele>
        <time>2013-11-17T10:06:51.1Z</time>
      </trkpt>
      <trkpt lat="48.33955" lon="-3.18846">
        <ele>179</ele>
        <time>2013-11-17T10:06:53.1Z</time>
      </trkpt>
      <trkpt lat="48.33956" lon="-3.18844">
        <ele>179</ele>
        <time>2013-11-17T10:06:55.1Z</time>
      </trkpt>
      <trkpt lat="48.33957" lon="-3.18842">
        <ele>179</ele>
        <time>2013-11-17T10:06:58.1Z</time>
      </trkpt>
      <trkpt lat="48.33958" lon="-3.1884">
        <ele>179</ele>
        <time>2013-11-17T10:07:00.1Z</time>
      </trkpt>
      <trkpt lat="48.3396" lon="-3.18838">
        <ele>179</ele>
        <time>2013-11-17T10:07:02.1Z</time>
      </trkpt>
      <trkpt lat="48.3396" lon="-3.18836">
        <ele>179</ele>
        <time>2013-11-17T10:07:04.1Z</time>
      </trkpt>
      <trkpt lat="48.33962" lon="-3.18832">
        <ele>180</ele>
        <time>2013-11-17T10:07:07.1Z</time>
      </trkpt>
      <trkpt lat="48.33964" lon="-3.18828">
        <ele>180</ele>
        <time>2013-11-17T10:07:10.1Z</time>
      </trkpt>
      <trkpt lat="48.33965" lon="-3.18825">
        <ele>180</ele>
        <time>2013-11-17T10:07:12.1Z</time>
      </trkpt>
      <trkpt lat="48.33966" lon="-3.18822">
        <ele>180</ele>
        <time>2013-11-17T10:07:14.1Z</time>
      </trkpt>
      <trkpt lat="48.33967" lon="-3.1882">
        <ele>180</ele>
        <time>2013-11-17T10:07:16.1Z</time>
      </trkpt>
      <trkpt lat="48.33967" lon="-3.18819">
        <ele>181</ele>
        <time>2013-11-17T10:07:19.1Z</time>
      </trkpt>
      <trkpt lat="48.33968" lon="-3.18817">
        <ele>181</ele>
        <time>2013-11-17T10:07:22.1Z</time>
      </trkpt>
      <trkpt lat="48.33969" lon="-3.18814">
        <ele>181</ele>
        <time>2013-11-17T10:07:24.1Z</time>
      </trkpt>
      <trkpt lat="48.3397" lon="-3.18812">
        <ele>180</ele>
        <time>2013-11-17T10:07:27.1Z</time>
      </trkpt>
      <trkpt lat="48.33971" lon="-3.18809">
        <ele>181</ele>
        <time>2013-11-17T10:07:30.1Z</time>
      </trkpt>
      <trkpt lat="48.33972" lon="-3.18808">
        <ele>181</ele>
        <time>2013-11-17T10:07:32.1Z</time>
      </trkpt>
      <trkpt lat="48.33974" lon="-3.18806">
        <ele>181</ele>
        <time>2013-11-17T10:07:35.1Z</time>
      </trkpt>
      <trkpt lat="48.33975" lon="-3.18805">
        <ele>181</ele>
        <time>2013-11-17T10:07:37.1Z</time>
      </trkpt>
      <trkpt lat="48.33976" lon="-3.18804">
        <ele>181</ele>
        <time>2013-11-17T10:07:40.1Z</time>
      </trkpt>
      <trkpt lat="48.33977" lon="-3.18803">
        <ele>181</ele>
        <time>2013-11-17T10:07:43.1Z</time>
      </trkpt>
      <trkpt lat="48.33977" lon="-3.18803">
        <ele>181</ele>
        <time>2013-11-17T10:07:45.1Z</time>
      </trkpt>
      <trkpt lat="48.33978" lon="-3.18802">
        <ele>181</ele>
        <time>2013-11-17T10:07:48.1Z</time>
      </trkpt>
      <trkpt lat="48.33978" lon="-3.18802">
        <ele>181</ele>
        <time>2013-11-17T10:07:50.1Z</time>
      </trkpt>
      <trkpt lat="48.33979" lon="-3.18802">
        <ele>181</ele>
        <time>2013-11-17T10:07:53.1Z</time>
      </trkpt>
      <trkpt lat="48.3398" lon="-3.18802">
        <ele>181</ele>
        <time>2013-11-17T10:07:56.1Z</time>
      </trkpt>
      <trkpt lat="48.33979" lon="-3.18801">
        <ele>181</ele>
        <time>2013-11-17T10:07:59.1Z</time>
      </trkpt>
      <trkpt lat="48.3398" lon="-3.188">
        <ele>181</ele>
        <time>2013-11-17T10:08:01.1Z</time>
      </trkpt>
      <trkpt lat="48.33982" lon="-3.18799">
        <ele>181</ele>
        <time>2013-11-17T10:08:04.1Z</time>
      </trkpt>
      <trkpt lat="48.33983" lon="-3.18797">
        <ele>182</ele>
        <time>2013-11-17T10:08:06.1Z</time>
      </trkpt>
      <trkpt lat="48.33986" lon="-3.18794">
        <ele>182</ele>
        <time>2013-11-17T10:08:09.1Z</time>
      </trkpt>
      <trkpt lat="48.33988" lon="-3.18793">
        <ele>182</ele>
        <time>2013-11-17T10:08:12.1Z</time>
      </trkpt>
      <trkpt lat="48.33989" lon="-3.18792">
        <ele>182</ele>
        <time>2013-11-17T10:08:14.1Z</time>
      </trkpt>
      <trkpt lat="48.33993" lon="-3.18792">
        <ele>182</ele>
        <time>2013-11-17T10:08:17.1Z</time>
      </trkpt>
      <trkpt lat="48.33995" lon="-3.18792">
        <ele>182</ele>
        <time>2013-11-17T10:08:19.1Z</time>
      </trkpt>
      <trkpt lat="48.33997" lon="-3.18794">
        <ele>182</ele>
        <time>2013-11-17T10:08:22.1Z</time>
      </trkpt>
      <trkpt lat="48.33999" lon="-3.18796">
        <ele>182</ele>
        <time>2013-11-17T10:08:25.1Z</time>
      </trkpt>
      <trkpt lat="48.33999" lon="-3.18797">
        <ele>183</ele>
        <time>2013-11-17T10:08:28.1Z</time>
      </trkpt>
      <trkpt lat="48.33999" lon="-3.18798">
        <ele>183</ele>
        <time>2013-11-17T10:08:31.1Z</time>
      </trkpt>
      <trkpt lat="48.33999" lon="-3.18799">
        <ele>183</ele>
        <time>2013-11-17T10:08:34.1Z</time>
      </trkpt>
      <trkpt lat="48.33999" lon="-3.188">
        <ele>182</ele>
        <time>2013-11-17T10:08:36.1Z</time>
      </trkpt>
      <trkpt lat="48.33999" lon="-3.18799">
        <ele>182</ele>
        <time>2013-11-17T10:08:39.1Z</time>
      </trkpt>
      <trkpt lat="48.33997" lon="-3.18799">
        <ele>182</ele>
        <time>2013-11-17T10:08:42.1Z</time>
      </trkpt>
      <trkpt lat="48.33997" lon="-3.188">
        <ele>182</ele>
        <time>2013-11-17T10:08:45.1Z</time>
      </trkpt>
      <trkpt lat="48.33998" lon="-3.18797">
        <ele>182</ele>
        <time>2013-11-17T10:08:48.1Z</time>
      </trkpt>
      <trkpt lat="48.33997" lon="-3.18795">
        <ele>182</ele>
        <time>2013-11-17T10:08:50.1Z</time>
      </trkpt>
      <trkpt lat="48.33997" lon="-3.18794">
        <ele>182</ele>
        <time>2013-11-17T10:08:52.1Z</time>
      </trkpt>
      <trkpt lat="48.33995" lon="-3.18792">
        <ele>182</ele>
        <time>2013-11-17T10:08:55.1Z</time>
      </trkpt>
      <trkpt lat="48.33994" lon="-3.1879">
        <ele>182</ele>
        <time>2013-11-17T10:08:57.1Z</time>
      </trkpt>
      <trkpt lat="48.33993" lon="-3.18787">
        <ele>182</ele>
        <time>2013-11-17T10:09:00.1Z</time>
      </trkpt>
      <trkpt lat="48.33992" lon="-3.18786">
        <ele>182</ele>
        <time>2013-11-17T10:09:02.1Z</time>
      </trkpt>
      <trkpt lat="48.33992" lon="-3.18783">
        <ele>182</ele>
        <time>2013-11-17T10:09:04.1Z</time>
      </trkpt>
      <trkpt lat="48.33992" lon="-3.18782">
        <ele>182</ele>
        <time>2013-11-17T10:09:06.1Z</time>
      </trkpt>
      <trkpt lat="48.33993" lon="-3.1878">
        <ele>182</ele>
        <time>2013-11-17T10:09:09.1Z</time>
      </trkpt>
      <trkpt lat="48.33993" lon="-3.18779">
        <ele>182</ele>
        <time>2013-11-17T10:09:11.1Z</time>
      </trkpt>
      <trkpt lat="48.33994" lon="-3.18779">
        <ele>182</ele>
        <time>2013-11-17T10:09:14.1Z</time>
      </trkpt>
      <trkpt lat="48.33994" lon="-3.18779">
        <ele>182</ele>
        <time>2013-11-17T10:09:16.1Z</time>
      </trkpt>
      <trkpt lat="48.33992" lon="-3.18779">
        <ele>182</ele>
        <time>2013-11-17T10:09:19.1Z</time>
      </trkpt>
      <trkpt lat="48.33991" lon="-3.18779">
        <ele>182</ele>
        <time>2013-11-17T10:09:21.1Z</time>
      </trkpt>
      <trkpt lat="48.33991" lon="-3.18779">
        <ele>182</ele>
        <time>2013-11-17T10:09:24.1Z</time>
      </trkpt>
      <trkpt lat="48.33991" lon="-3.18778">
        <ele>182</ele>
        <time>2013-11-17T10:09:26.1Z</time>
      </trkpt>
      <trkpt lat="48.33992" lon="-3.18778">
        <ele>182</ele>
        <time>2013-11-17T10:09:28.1Z</time>
      </trkpt>
      <trkpt lat="48.33992" lon="-3.18778">
        <ele>183</ele>
        <time>2013-11-17T10:09:31.1Z</time>
      </trkpt>
      <trkpt lat="48.33992" lon="-3.18777">
        <ele>182</ele>
        <time>2013-11-17T10:09:33.1Z</time>
      </trkpt>
      <trkpt lat="48.33993" lon="-3.18776">
        <ele>182</ele>
        <time>2013-11-17T10:09:35.1Z</time>
      </trkpt>
      <trkpt lat="48.33995" lon="-3.18774">
        <ele>182</ele>
        <time>2013-11-17T10:09:38.1Z</time>
      </trkpt>
      <trkpt lat="48.33996" lon="-3.18771">
        <ele>182</ele>
        <time>2013-11-17T10:09:41.1Z</time>
      </trkpt>
      <trkpt lat="48.33999" lon="-3.18769">
        <ele>183</ele>
        <time>2013-11-17T10:09:44.1Z</time>
      </trkpt>
      <trkpt lat="48.34" lon="-3.18766">
        <ele>183</ele>
        <time>2013-11-17T10:09:47.1Z</time>
      </trkpt>
      <trkpt lat="48.34002" lon="-3.18763">
        <ele>183</ele>
        <time>2013-11-17T10:09:50.1Z</time>
      </trkpt>
      <trkpt lat="48.34004" lon="-3.18761">
        <ele>183</ele>
        <time>2013-11-17T10:09:52.1Z</time>
      </trkpt>
      <trkpt lat="48.34005" lon="-3.18758">
        <ele>184</ele>
        <time>2013-11-17T10:09:54.1Z</time>
      </trkpt>
      <trkpt lat="48.34006" lon="-3.18755">
        <ele>184</ele>
        <time>2013-11-17T10:09:57.1Z</time>
      </trkpt>
      <trkpt lat="48.34006" lon="-3.18752">
        <ele>184</ele>
        <time>2013-11-17T10:09:59.1Z</time>
      </trkpt>
      <trkpt lat="48.34007" lon="-3.18748">
        <ele>184</ele>
        <time>2013-11-17T10:10:02.1Z</time>
      </trkpt>
      <trkpt lat="48.34008" lon="-3.18746">
        <ele>184</ele>
        <time>2013-11-17T10:10:04.1Z</time>
      </trkpt>
      <trkpt lat="48.34008" lon="-3.18745">
        <ele>184</ele>
        <time>2013-11-17T10:10:06.1Z</time>
      </trkpt>
      <trkpt lat="48.34009" lon="-3.18745">
        <ele>184</ele>
        <time>2013-11-17T10:10:09.1Z</time>
      </trkpt>
      <trkpt lat="48.34009" lon="-3.18745">
        <ele>184</ele>
        <time>2013-11-17T10:10:11.1Z</time>
      </trkpt>
      <trkpt lat="48.3401" lon="-3.18745">
        <ele>184</ele>
        <time>2013-11-17T10:10:14.1Z</time>
      </trkpt>
      <trkpt lat="48.3401" lon="-3.18746">
        <ele>184</ele>
        <time>2013-11-17T10:10:16.1Z</time>
      </trkpt>
      <trkpt lat="48.3401" lon="-3.18747">
        <ele>185</ele>
        <time>2013-11-17T10:10:19.1Z</time>
      </trkpt>
      <trkpt lat="48.3401" lon="-3.18749">
        <ele>185</ele>
        <time>2013-11-17T10:10:22.1Z</time>
      </trkpt>
      <trkpt lat="48.34011" lon="-3.1875">
        <ele>185</ele>
        <time>2013-11-17T10:10:24.1Z</time>
      </trkpt>
      <trkpt lat="48.34013" lon="-3.18751">
        <ele>185</ele>
        <time>2013-11-17T10:10:27.1Z</time>
      </trkpt>
      <trkpt lat="48.34014" lon="-3.18752">
        <ele>185</ele>
        <time>2013-11-17T10:10:30.1Z</time>
      </trkpt>
      <trkpt lat="48.34014" lon="-3.18752">
        <ele>185</ele>
        <time>2013-11-17T10:10:32.1Z</time>
      </trkpt>
      <trkpt lat="48.34015" lon="-3.18751">
        <ele>185</ele>
        <time>2013-11-17T10:10:35.1Z</time>
      </trkpt>
      <trkpt lat="48.34015" lon="-3.18751">
        <ele>185</ele>
        <time>2013-11-17T10:10:38.1Z</time>
      </trkpt>
      <trkpt lat="48.34016" lon="-3.1875">
        <ele>185</ele>
        <time>2013-11-17T10:10:42.1Z</time>
      </trkpt>
      <trkpt lat="48.34016" lon="-3.18749">
        <ele>185</ele>
        <time>2013-11-17T10:10:45.1Z</time>
      </trkpt>
      <trkpt lat="48.34016" lon="-3.18749">
        <ele>185</ele>
        <time>2013-11-17T10:10:47.1Z</time>
      </trkpt>
      <trkpt lat="48.34016" lon="-3.1875">
        <ele>185</ele>
        <time>2013-11-17T10:10:50.1Z</time>
      </trkpt>
      <trkpt lat="48.34014" lon="-3.18753">
        <ele>185</ele>
        <time>2013-11-17T10:10:53.1Z</time>
      </trkpt>
      <trkpt lat="48.34014" lon="-3.18756">
        <ele>185</ele>
        <time>2013-11-17T10:10:55.1Z</time>
      </trkpt>
      <trkpt lat="48.34012" lon="-3.18759">
        <ele>185</ele>
        <time>2013-11-17T10:10:58.1Z</time>
      </trkpt>
      <trkpt lat="48.3401" lon="-3.18759">
        <ele>185</ele>
        <time>2013-11-17T10:11:00.1Z</time>
      </trkpt>
      <trkpt lat="48.34007" lon="-3.18761">
        <ele>185</ele>
        <time>2013-11-17T10:11:03.1Z</time>
      </trkpt>
      <trkpt lat="48.34006" lon="-3.18762">
        <ele>185</ele>
        <time>2013-11-17T10:11:05.1Z</time>
      </trkpt>
      <trkpt lat="48.34007" lon="-3.18759">
        <ele>185</ele>
        <time>2013-11-17T10:11:07.1Z</time>
      </trkpt>
      <trkpt lat="48.34008" lon="-3.18758">
        <ele>185</ele>
        <time>2013-11-17T10:11:10.1Z</time>
      </trkpt>
      <trkpt lat="48.34008" lon="-3.18758">
        <ele>185</ele>
        <time>2013-11-17T10:11:13.1Z</time>
      </trkpt>
      <trkpt lat="48.34008" lon="-3.18757">
        <ele>185</ele>
        <time>2013-11-17T10:11:16.1Z</time>
      </trkpt>
      <trkpt lat="48.34009" lon="-3.18756">
        <ele>185</ele>
        <time>2013-11-17T10:11:19.1Z</time>
      </trkpt>
      <trkpt lat="48.34008" lon="-3.18756">
        <ele>185</ele>
        <time>2013-11-17T10:11:21.1Z</time>
      </trkpt>
      <trkpt lat="48.34008" lon="-3.18756">
        <ele>185</ele>
        <time>2013-11-17T10:11:24.1Z</time>
      </trkpt>
      <trkpt lat="48.34008" lon="-3.18756">
        <ele>185</ele>
        <time>2013-11-17T10:11:27.1Z</time>
      </trkpt>
      <trkpt lat="48.34008" lon="-3.18753">
        <ele>185</ele>
        <time>2013-11-17T10:11:29.1Z</time>
      </trkpt>
      <trkpt lat="48.34007" lon="-3.18751">
        <ele>185</ele>
        <time>2013-11-17T10:11:31.1Z</time>
      </trkpt>
      <trkpt lat="48.34006" lon="-3.18751">
        <ele>185</ele>
        <time>2013-11-17T10:11:34.1Z</time>
      </trkpt>
      <trkpt lat="48.34006" lon="-3.18753">
        <ele>185</ele>
        <time>2013-11-17T10:11:37.1Z</time>
      </trkpt>
      <trkpt lat="48.34007" lon="-3.18753">
        <ele>185</ele>
        <time>2013-11-17T10:11:39.1Z</time>
      </trkpt>
      <trkpt lat="48.34007" lon="-3.18753">
        <ele>185</ele>
        <time>2013-11-17T10:11:43.1Z</time>
      </trkpt>
      <trkpt lat="48.34008" lon="-3.18753">
        <ele>185</ele>
        <time>2013-11-17T10:11:46.1Z</time>
      </trkpt>
      <trkpt lat="48.34008" lon="-3.18752">
        <ele>185</ele>
        <time>2013-11-17T10:11:48.1Z</time>
      </trkpt>
      <trkpt lat="48.34008" lon="-3.18752">
        <ele>185</ele>
        <time>2013-11-17T10:11:52.1Z</time>
      </trkpt>
      <trkpt lat="48.34006" lon="-3.18753">
        <ele>185</ele>
        <time>2013-11-17T10:11:55.1Z</time>
      </trkpt>
      <trkpt lat="48.34003" lon="-3.18756">
        <ele>185</ele>
        <time>2013-11-17T10:11:58.1Z</time>
      </trkpt>
      <trkpt lat="48.34001" lon="-3.18758">
        <ele>184</ele>
        <time>2013-11-17T10:12:00.1Z</time>
      </trkpt>
      <trkpt lat="48.33999" lon="-3.1876">
        <ele>183</ele>
        <time>2013-11-17T10:12:03.1Z</time>
      </trkpt>
      <trkpt lat="48.33997" lon="-3.18764">
        <ele>183</ele>
        <time>2013-11-17T10:12:06.1Z</time>
      </trkpt>
      <trkpt lat="48.33993" lon="-3.18767">
        <ele>183</ele>
        <time>2013-11-17T10:12:09.1Z</time>
      </trkpt>
      <trkpt lat="48.33991" lon="-3.18769">
        <ele>182</ele>
        <time>2013-11-17T10:12:11.1Z</time>
      </trkpt>
      <trkpt lat="48.33989" lon="-3.18772">
        <ele>182</ele>
        <time>2013-11-17T10:12:14.1Z</time>
      </trkpt>
      <trkpt lat="48.3399" lon="-3.18772">
        <ele>183</ele>
        <time>2013-11-17T10:12:16.1Z</time>
      </trkpt>
      <trkpt lat="48.33987" lon="-3.18774">
        <ele>182</ele>
        <time>2013-11-17T10:12:19.1Z</time>
      </trkpt>
      <trkpt lat="48.33985" lon="-3.18778">
        <ele>182</ele>
        <time>2013-11-17T10:12:22.1Z</time>
      </trkpt>
      <trkpt lat="48.33984" lon="-3.1878">
        <ele>182</ele>
        <time>2013-11-17T10:12:24.1Z</time>
      </trkpt>
      <trkpt lat="48.33981" lon="-3.18784">
        <ele>182</ele>
        <time>2013-11-17T10:12:27.1Z</time>
      </trkpt>
      <trkpt lat="48.33979" lon="-3.18786">
        <ele>182</ele>
        <time>2013-11-17T10:12:29.1Z</time>
      </trkpt>
      <trkpt lat="48.33976" lon="-3.18789">
        <ele>181</ele>
        <time>2013-11-17T10:12:32.1Z</time>
      </trkpt>
      <trkpt lat="48.33974" lon="-3.1879">
        <ele>181</ele>
        <time>2013-11-17T10:12:34.1Z</time>
      </trkpt>
      <trkpt lat="48.33973" lon="-3.18793">
        <ele>181</ele>
        <time>2013-11-17T10:12:37.1Z</time>
      </trkpt>
      <trkpt lat="48.33972" lon="-3.18792">
        <ele>182</ele>
        <time>2013-11-17T10:12:39.1Z</time>
      </trkpt>
      <trkpt lat="48.33972" lon="-3.18791">
        <ele>182</ele>
        <time>2013-11-17T10:12:42.1Z</time>
      </trkpt>
      <trkpt lat="48.3397" lon="-3.18793">
        <ele>181</ele>
        <time>2013-11-17T10:12:45.1Z</time>
      </trkpt>
      <trkpt lat="48.3397" lon="-3.18794">
        <ele>181</ele>
        <time>2013-11-17T10:12:49.1Z</time>
      </trkpt>
      <trkpt lat="48.3397" lon="-3.18793">
        <ele>181</ele>
        <time>2013-11-17T10:12:52.1Z</time>
      </trkpt>
      <trkpt lat="48.3397" lon="-3.18793">
        <ele>182</ele>
        <time>2013-11-17T10:12:55.1Z</time>
      </trkpt>
      <trkpt lat="48.3397" lon="-3.18796">
        <ele>182</ele>
        <time>2013-11-17T10:12:58.1Z</time>
      </trkpt>
      <trkpt lat="48.33971" lon="-3.18797">
        <ele>181</ele>
        <time>2013-11-17T10:13:00.1Z</time>
      </trkpt>
      <trkpt lat="48.33971" lon="-3.18798">
        <ele>181</ele>
        <time>2013-11-17T10:13:03.1Z</time>
      </trkpt>
      <trkpt lat="48.33971" lon="-3.18798">
        <ele>181</ele>
        <time>2013-11-17T10:13:05.1Z</time>
      </trkpt>
      <trkpt lat="48.33971" lon="-3.18799">
        <ele>181</ele>
        <time>2013-11-17T10:13:07.1Z</time>
      </trkpt>
      <trkpt lat="48.3397" lon="-3.18801">
        <ele>181</ele>
        <time>2013-11-17T10:13:10.1Z</time>
      </trkpt>
      <trkpt lat="48.33968" lon="-3.18804">
        <ele>181</ele>
        <time>2013-11-17T10:13:13.1Z</time>
      </trkpt>
      <trkpt lat="48.33968" lon="-3.18807">
        <ele>181</ele>
        <time>2013-11-17T10:13:15.1Z</time>
      </trkpt>
      <trkpt lat="48.33967" lon="-3.18808">
        <ele>181</ele>
        <time>2013-11-17T10:13:18.1Z</time>
      </trkpt>
      <trkpt lat="48.33965" lon="-3.18811">
        <ele>181</ele>
        <time>2013-11-17T10:13:21.1Z</time>
      </trkpt>
      <trkpt lat="48.33963" lon="-3.18815">
        <ele>181</ele>
        <time>2013-11-17T10:13:24.1Z</time>
      </trkpt>
      <trkpt lat="48.33963" lon="-3.18818">
        <ele>181</ele>
        <time>2013-11-17T10:13:26.1Z</time>
      </trkpt>
      <trkpt lat="48.33961" lon="-3.1882">
        <ele>181</ele>
        <time>2013-11-17T10:13:28.1Z</time>
      </trkpt>
      <trkpt lat="48.33958" lon="-3.18824">
        <ele>181</ele>
        <time>2013-11-17T10:13:31.1Z</time>
      </trkpt>
      <trkpt lat="48.33956" lon="-3.18828">
        <ele>180</ele>
        <time>2013-11-17T10:13:34.1Z</time>
      </trkpt>
      <trkpt lat="48.33954" lon="-3.1883">
        <ele>180</ele>
        <time>2013-11-17T10:13:36.1Z</time>
      </trkpt>
      <trkpt lat="48.33952" lon="-3.18834">
        <ele>180</ele>
        <time>2013-11-17T10:13:39.1Z</time>
      </trkpt>
      <trkpt lat="48.3395" lon="-3.18838">
        <ele>179</ele>
        <time>2013-11-17T10:13:42.1Z</time>
      </trkpt>
      <trkpt lat="48.33948" lon="-3.1884">
        <ele>179</ele>
        <time>2013-11-17T10:13:44.1Z</time>
      </trkpt>
      <trkpt lat="48.33946" lon="-3.18844">
        <ele>179</ele>
        <time>2013-11-17T10:13:47.1Z</time>
      </trkpt>
      <trkpt lat="48.33945" lon="-3.18846">
        <ele>179</ele>
        <time>2013-11-17T10:13:49.1Z</time>
      </trkpt>
      <trkpt lat="48.33942" lon="-3.18849">
        <ele>179</ele>
        <time>2013-11-17T10:13:52.1Z</time>
      </trkpt>
      <trkpt lat="48.33939" lon="-3.1885">
        <ele>179</ele>
        <time>2013-11-17T10:13:54.1Z</time>
      </trkpt>
      <trkpt lat="48.33938" lon="-3.1885">
        <ele>178</ele>
        <time>2013-11-17T10:13:56.1Z</time>
      </trkpt>
      <trkpt lat="48.33936" lon="-3.18853">
        <ele>179</ele>
        <time>2013-11-17T10:13:59.1Z</time>
      </trkpt>
      <trkpt lat="48.33932" lon="-3.18855">
        <ele>179</ele>
        <time>2013-11-17T10:14:02.1Z</time>
      </trkpt>
      <trkpt lat="48.3393" lon="-3.18859">
        <ele>179</ele>
        <time>2013-11-17T10:14:05.1Z</time>
      </trkpt>
      <trkpt lat="48.33926" lon="-3.18862">
        <ele>178</ele>
        <time>2013-11-17T10:14:08.1Z</time>
      </trkpt>
      <trkpt lat="48.33924" lon="-3.18865">
        <ele>178</ele>
        <time>2013-11-17T10:14:11.1Z</time>
      </trkpt>
      <trkpt lat="48.33923" lon="-3.18867">
        <ele>178</ele>
        <time>2013-11-17T10:14:13.1Z</time>
      </trkpt>
      <trkpt lat="48.33921" lon="-3.18871">
        <ele>178</ele>
        <time>2013-11-17T10:14:16.1Z</time>
      </trkpt>
      <trkpt lat="48.33918" lon="-3.18876">
        <ele>178</ele>
        <time>2013-11-17T10:14:19.1Z</time>
      </trkpt>
      <trkpt lat="48.33917" lon="-3.18878">
        <ele>178</ele>
        <time>2013-11-17T10:14:21.1Z</time>
      </trkpt>
      <trkpt lat="48.33914" lon="-3.18882">
        <ele>178</ele>
        <time>2013-11-17T10:14:24.1Z</time>
      </trkpt>
      <trkpt lat="48.33911" lon="-3.18884">
        <ele>178</ele>
        <time>2013-11-17T10:14:27.1Z</time>
      </trkpt>
      <trkpt lat="48.3391" lon="-3.18885">
        <ele>177</ele>
        <time>2013-11-17T10:14:29.1Z</time>
      </trkpt>
      <trkpt lat="48.33908" lon="-3.18887">
        <ele>177</ele>
        <time>2013-11-17T10:14:31.1Z</time>
      </trkpt>
      <trkpt lat="48.33907" lon="-3.18888">
        <ele>177</ele>
        <time>2013-11-17T10:14:34.1Z</time>
      </trkpt>
      <trkpt lat="48.33907" lon="-3.1889">
        <ele>177</ele>
        <time>2013-11-17T10:14:37.1Z</time>
      </trkpt>
      <trkpt lat="48.33907" lon="-3.18891">
        <ele>177</ele>
        <time>2013-11-17T10:14:39.1Z</time>
      </trkpt>
      <trkpt lat="48.33907" lon="-3.18893">
        <ele>177</ele>
        <time>2013-11-17T10:14:42.1Z</time>
      </trkpt>
      <trkpt lat="48.33908" lon="-3.18895">
        <ele>177</ele>
        <time>2013-11-17T10:14:45.1Z</time>
      </trkpt>
      <trkpt lat="48.33908" lon="-3.18896">
        <ele>177</ele>
        <time>2013-11-17T10:14:47.1Z</time>
      </trkpt>
      <trkpt lat="48.33907" lon="-3.18898">
        <ele>177</ele>
        <time>2013-11-17T10:14:50.1Z</time>
      </trkpt>
      <trkpt lat="48.33907" lon="-3.18898">
        <ele>177</ele>
        <time>2013-11-17T10:14:52.1Z</time>
      </trkpt>
      <trkpt lat="48.33906" lon="-3.18899">
        <ele>177</ele>
        <time>2013-11-17T10:14:55.1Z</time>
      </trkpt>
      <trkpt lat="48.33905" lon="-3.18899">
        <ele>177</ele>
        <time>2013-11-17T10:14:58.1Z</time>
      </trkpt>
      <trkpt lat="48.33905" lon="-3.189">
        <ele>177</ele>
        <time>2013-11-17T10:15:00.1Z</time>
      </trkpt>
      <trkpt lat="48.33904" lon="-3.18902">
        <ele>177</ele>
        <time>2013-11-17T10:15:03.1Z</time>
      </trkpt>
      <trkpt lat="48.33904" lon="-3.18903">
        <ele>177</ele>
        <time>2013-11-17T10:15:05.1Z</time>
      </trkpt>
      <trkpt lat="48.33905" lon="-3.18904">
        <ele>177</ele>
        <time>2013-11-17T10:15:08.1Z</time>
      </trkpt>
      <trkpt lat="48.33905" lon="-3.18904">
        <ele>177</ele>
        <time>2013-11-17T10:15:11.1Z</time>
      </trkpt>
      <trkpt lat="48.33905" lon="-3.18904">
        <ele>177</ele>
        <time>2013-11-17T10:15:13.1Z</time>
      </trkpt>
      <trkpt lat="48.33905" lon="-3.18904">
        <ele>177</ele>
        <time>2013-11-17T10:15:16.1Z</time>
      </trkpt>
      <trkpt lat="48.33906" lon="-3.18905">
        <ele>177</ele>
        <time>2013-11-17T10:15:19.1Z</time>
      </trkpt>
      <trkpt lat="48.33906" lon="-3.18906">
        <ele>176</ele>
        <time>2013-11-17T10:15:22.1Z</time>
      </trkpt>
      <trkpt lat="48.33907" lon="-3.18906">
        <ele>176</ele>
        <time>2013-11-17T10:15:24.1Z</time>
      </trkpt>
      <trkpt lat="48.33907" lon="-3.18905">
        <ele>177</ele>
        <time>2013-11-17T10:15:27.1Z</time>
      </trkpt>
      <trkpt lat="48.33907" lon="-3.18906">
        <ele>177</ele>
        <time>2013-11-17T10:15:30.1Z</time>
      </trkpt>
      <trkpt lat="48.33907" lon="-3.18906">
        <ele>177</ele>
        <time>2013-11-17T10:15:32.1Z</time>
      </trkpt>
      <trkpt lat="48.33907" lon="-3.18907">
        <ele>177</ele>
        <time>2013-11-17T10:15:35.1Z</time>
      </trkpt>
      <trkpt lat="48.33907" lon="-3.18907">
        <ele>177</ele>
        <time>2013-11-17T10:15:37.1Z</time>
      </trkpt>
      <trkpt lat="48.33908" lon="-3.18908">
        <ele>177</ele>
        <time>2013-11-17T10:15:39.1Z</time>
      </trkpt>
      <trkpt lat="48.33907" lon="-3.18909">
        <ele>177</ele>
        <time>2013-11-17T10:15:42.1Z</time>
      </trkpt>
      <trkpt lat="48.33907" lon="-3.18909">
        <ele>177</ele>
        <time>2013-11-17T10:15:45.1Z</time>
      </trkpt>
      <trkpt lat="48.33906" lon="-3.18909">
        <ele>177</ele>
        <time>2013-11-17T10:15:48.1Z</time>
      </trkpt>
      <trkpt lat="48.33907" lon="-3.18909">
        <ele>177</ele>
        <time>2013-11-17T10:15:51.1Z</time>
      </trkpt>
      <trkpt lat="48.33907" lon="-3.18909">
        <ele>177</ele>
        <time>2013-11-17T10:15:53.1Z</time>
      </trkpt>
      <trkpt lat="48.33906" lon="-3.18909">
        <ele>177</ele>
        <time>2013-11-17T10:15:56.1Z</time>
      </trkpt>
      <trkpt lat="48.33906" lon="-3.1891">
        <ele>177</ele>
        <time>2013-11-17T10:15:59.1Z</time>
      </trkpt>
      <trkpt lat="48.33906" lon="-3.18909">
        <ele>177</ele>
        <time>2013-11-17T10:16:01.1Z</time>
      </trkpt>
      <trkpt lat="48.33905" lon="-3.1891">
        <ele>177</ele>
        <time>2013-11-17T10:16:04.1Z</time>
      </trkpt>
      <trkpt lat="48.33904" lon="-3.1891">
        <ele>177</ele>
        <time>2013-11-17T10:16:06.1Z</time>
      </trkpt>
      <trkpt lat="48.33903" lon="-3.18911">
        <ele>177</ele>
        <time>2013-11-17T10:16:09.1Z</time>
      </trkpt>
      <trkpt lat="48.33903" lon="-3.1891">
        <ele>177</ele>
        <time>2013-11-17T10:16:13.1Z</time>
      </trkpt>
      <trkpt lat="48.33903" lon="-3.1891">
        <ele>177</ele>
        <time>2013-11-17T10:16:15.1Z</time>
      </trkpt>
      <trkpt lat="48.33903" lon="-3.1891">
        <ele>177</ele>
        <time>2013-11-17T10:16:18.1Z</time>
      </trkpt>
      <trkpt lat="48.33904" lon="-3.1891">
        <ele>177</ele>
        <time>2013-11-17T10:16:20.1Z</time>
      </trkpt>
      <trkpt lat="48.33903" lon="-3.1891">
        <ele>177</ele>
        <time>2013-11-17T10:16:23.1Z</time>
      </trkpt>
      <trkpt lat="48.33903" lon="-3.18909">
        <ele>177</ele>
        <time>2013-11-17T10:16:25.1Z</time>
      </trkpt>
      <trkpt lat="48.33904" lon="-3.1891">
        <ele>177</ele>
        <time>2013-11-17T10:16:28.1Z</time>
      </trkpt>
      <trkpt lat="48.33905" lon="-3.1891">
        <ele>177</ele>
        <time>2013-11-17T10:16:31.1Z</time>
      </trkpt>
      <trkpt lat="48.33905" lon="-3.1891">
        <ele>178</ele>
        <time>2013-11-17T10:16:33.1Z</time>
      </trkpt>
      <trkpt lat="48.33905" lon="-3.1891">
        <ele>178</ele>
        <time>2013-11-17T10:16:36.1Z</time>
      </trkpt>
      <trkpt lat="48.33906" lon="-3.1891">
        <ele>178</ele>
        <time>2013-11-17T10:16:39.1Z</time>
      </trkpt>
      <trkpt lat="48.33906" lon="-3.18909">
        <ele>178</ele>
        <time>2013-11-17T10:16:42.1Z</time>
      </trkpt>
      <trkpt lat="48.33906" lon="-3.18909">
        <ele>177</ele>
        <time>2013-11-17T10:16:45.1Z</time>
      </trkpt>
      <trkpt lat="48.33904" lon="-3.18911">
        <ele>177</ele>
        <time>2013-11-17T10:16:47.1Z</time>
      </trkpt>
      <trkpt lat="48.33904" lon="-3.18912">
        <ele>177</ele>
        <time>2013-11-17T10:16:50.1Z</time>
      </trkpt>
      <trkpt lat="48.33904" lon="-3.18912">
        <ele>177</ele>
        <time>2013-11-17T10:16:52.1Z</time>
      </trkpt>
      <trkpt lat="48.33903" lon="-3.18913">
        <ele>177</ele>
        <time>2013-11-17T10:16:55.1Z</time>
      </trkpt>
      <trkpt lat="48.33902" lon="-3.18913">
        <ele>177</ele>
        <time>2013-11-17T10:16:57.1Z</time>
      </trkpt>
      <trkpt lat="48.33902" lon="-3.18914">
        <ele>177</ele>
        <time>2013-11-17T10:17:00.1Z</time>
      </trkpt>
      <trkpt lat="48.33901" lon="-3.18914">
        <ele>177</ele>
        <time>2013-11-17T10:17:03.1Z</time>
      </trkpt>
      <trkpt lat="48.33901" lon="-3.18915">
        <ele>177</ele>
        <time>2013-11-17T10:17:05.1Z</time>
      </trkpt>
      <trkpt lat="48.339" lon="-3.18917">
        <ele>177</ele>
        <time>2013-11-17T10:17:08.1Z</time>
      </trkpt>
      <trkpt lat="48.339" lon="-3.18917">
        <ele>177</ele>
        <time>2013-11-17T10:17:10.1Z</time>
      </trkpt>
      <trkpt lat="48.33899" lon="-3.18918">
        <ele>177</ele>
        <time>2013-11-17T10:17:13.1Z</time>
      </trkpt>
      <trkpt lat="48.33899" lon="-3.18919">
        <ele>177</ele>
        <time>2013-11-17T10:17:15.1Z</time>
      </trkpt>
      <trkpt lat="48.33899" lon="-3.1892">
        <ele>177</ele>
        <time>2013-11-17T10:17:18.1Z</time>
      </trkpt>
      <trkpt lat="48.33899" lon="-3.18921">
        <ele>177</ele>
        <time>2013-11-17T10:17:20.1Z</time>
      </trkpt>
      <trkpt lat="48.33898" lon="-3.18921">
        <ele>177</ele>
        <time>2013-11-17T10:17:23.1Z</time>
      </trkpt>
      <trkpt lat="48.33898" lon="-3.1892">
        <ele>177</ele>
        <time>2013-11-17T10:17:25.1Z</time>
      </trkpt>
      <trkpt lat="48.33897" lon="-3.18919">
        <ele>177</ele>
        <time>2013-11-17T10:17:28.1Z</time>
      </trkpt>
      <trkpt lat="48.33896" lon="-3.18919">
        <ele>177</ele>
        <time>2013-11-17T10:17:31.1Z</time>
      </trkpt>
      <trkpt lat="48.33896" lon="-3.1892">
        <ele>178</ele>
        <time>2013-11-17T10:17:33.1Z</time>
      </trkpt>
      <trkpt lat="48.33896" lon="-3.1892">
        <ele>177</ele>
        <time>2013-11-17T10:17:37.1Z</time>
      </trkpt>
      <trkpt lat="48.33895" lon="-3.1892">
        <ele>177</ele>
        <time>2013-11-17T10:17:39.1Z</time>
      </trkpt>
      <trkpt lat="48.33893" lon="-3.1892">
        <ele>178</ele>
        <time>2013-11-17T10:17:42.1Z</time>
      </trkpt>
      <trkpt lat="48.33892" lon="-3.18921">
        <ele>178</ele>
        <time>2013-11-17T10:17:44.1Z</time>
      </trkpt>
      <trkpt lat="48.3389" lon="-3.1892">
        <ele>178</ele>
        <time>2013-11-17T10:17:47.1Z</time>
      </trkpt>
      <trkpt lat="48.33889" lon="-3.18918">
        <ele>178</ele>
        <time>2013-11-17T10:17:49.1Z</time>
      </trkpt>
      <trkpt lat="48.33887" lon="-3.18919">
        <ele>178</ele>
        <time>2013-11-17T10:17:51.1Z</time>
      </trkpt>
      <trkpt lat="48.33886" lon="-3.1892">
        <ele>179</ele>
        <time>2013-11-17T10:17:53.1Z</time>
      </trkpt>
      <trkpt lat="48.33883" lon="-3.18922">
        <ele>179</ele>
        <time>2013-11-17T10:17:56.1Z</time>
      </trkpt>
      <trkpt lat="48.33881" lon="-3.18922">
        <ele>179</ele>
        <time>2013-11-17T10:17:58.1Z</time>
      </trkpt>
      <trkpt lat="48.33877" lon="-3.18924">
        <ele>179</ele>
        <time>2013-11-17T10:18:01.1Z</time>
      </trkpt>
      <trkpt lat="48.33874" lon="-3.18925">
        <ele>179</ele>
        <time>2013-11-17T10:18:04.1Z</time>
      </trkpt>
      <trkpt lat="48.33871" lon="-3.18925">
        <ele>179</ele>
        <time>2013-11-17T10:18:07.1Z</time>
      </trkpt>
      <trkpt lat="48.33869" lon="-3.18925">
        <ele>179</ele>
        <time>2013-11-17T10:18:10.1Z</time>
      </trkpt>
      <trkpt lat="48.33867" lon="-3.18925">
        <ele>179</ele>
        <time>2013-11-17T10:18:12.1Z</time>
      </trkpt>
      <trkpt lat="48.33866" lon="-3.18925">
        <ele>180</ele>
        <time>2013-11-17T10:18:14.1Z</time>
      </trkpt>
      <trkpt lat="48.33863" lon="-3.18924">
        <ele>180</ele>
        <time>2013-11-17T10:18:17.1Z</time>
      </trkpt>
      <trkpt lat="48.33862" lon="-3.18925">
        <ele>180</ele>
        <time>2013-11-17T10:18:19.1Z</time>
      </trkpt>
      <trkpt lat="48.3386" lon="-3.18925">
        <ele>181</ele>
        <time>2013-11-17T10:18:22.1Z</time>
      </trkpt>
      <trkpt lat="48.33857" lon="-3.18926">
        <ele>181</ele>
        <time>2013-11-17T10:18:25.1Z</time>
      </trkpt>
      <trkpt lat="48.33855" lon="-3.18926">
        <ele>181</ele>
        <time>2013-11-17T10:18:27.1Z</time>
      </trkpt>
      <trkpt lat="48.33853" lon="-3.18926">
        <ele>181</ele>
        <time>2013-11-17T10:18:29.1Z</time>
      </trkpt>
      <trkpt lat="48.33851" lon="-3.18926">
        <ele>181</ele>
        <time>2013-11-17T10:18:31.1Z</time>
      </trkpt>
      <trkpt lat="48.33849" lon="-3.18925">
        <ele>181</ele>
        <time>2013-11-17T10:18:33.1Z</time>
      </trkpt>
      <trkpt lat="48.33847" lon="-3.18924">
        <ele>181</ele>
        <time>2013-11-17T10:18:35.1Z</time>
      </trkpt>
      <trkpt lat="48.33846" lon="-3.18922">
        <ele>181</ele>
        <time>2013-11-17T10:18:38.1Z</time>
      </trkpt>
      <trkpt lat="48.33844" lon="-3.18921">
        <ele>181</ele>
        <time>2013-11-17T10:18:41.1Z</time>
      </trkpt>
      <trkpt lat="48.33842" lon="-3.1892">
        <ele>181</ele>
        <time>2013-11-17T10:18:43.1Z</time>
      </trkpt>
      <trkpt lat="48.33841" lon="-3.18919">
        <ele>181</ele>
        <time>2013-11-17T10:18:45.1Z</time>
      </trkpt>
      <trkpt lat="48.3384" lon="-3.18917">
        <ele>181</ele>
        <time>2013-11-17T10:18:48.1Z</time>
      </trkpt>
      <trkpt lat="48.33839" lon="-3.18916">
        <ele>182</ele>
        <time>2013-11-17T10:18:51.1Z</time>
      </trkpt>
      <trkpt lat="48.33837" lon="-3.18914">
        <ele>181</ele>
        <time>2013-11-17T10:18:54.1Z</time>
      </trkpt>
      <trkpt lat="48.33836" lon="-3.18912">
        <ele>181</ele>
        <time>2013-11-17T10:18:56.1Z</time>
      </trkpt>
      <trkpt lat="48.33835" lon="-3.1891">
        <ele>181</ele>
        <time>2013-11-17T10:18:59.1Z</time>
      </trkpt>
      <trkpt lat="48.33834" lon="-3.18909">
        <ele>181</ele>
        <time>2013-11-17T10:19:01.1Z</time>
      </trkpt>
      <trkpt lat="48.33833" lon="-3.18907">
        <ele>180</ele>
        <time>2013-11-17T10:19:03.1Z</time>
      </trkpt>
      <trkpt lat="48.33831" lon="-3.18906">
        <ele>180</ele>
        <time>2013-11-17T10:19:05.1Z</time>
      </trkpt>
      <trkpt lat="48.33831" lon="-3.18905">
        <ele>180</ele>
        <time>2013-11-17T10:19:07.1Z</time>
      </trkpt>
      <trkpt lat="48.33829" lon="-3.18903">
        <ele>179</ele>
        <time>2013-11-17T10:19:09.1Z</time>
      </trkpt>
      <trkpt lat="48.33828" lon="-3.18901">
        <ele>179</ele>
        <time>2013-11-17T10:19:11.1Z</time>
      </trkpt>
      <trkpt lat="48.33826" lon="-3.189">
        <ele>179</ele>
        <time>2013-11-17T10:19:13.1Z</time>
      </trkpt>
      <trkpt lat="48.33826" lon="-3.18898">
        <ele>178</ele>
        <time>2013-11-17T10:19:15.1Z</time>
      </trkpt>
      <trkpt lat="48.33824" lon="-3.18897">
        <ele>178</ele>
        <time>2013-11-17T10:19:17.1Z</time>
      </trkpt>
      <trkpt lat="48.3382" lon="-3.18895">
        <ele>178</ele>
        <time>2013-11-17T10:19:20.1Z</time>
      </trkpt>
      <trkpt lat="48.33819" lon="-3.18895">
        <ele>178</ele>
        <time>2013-11-17T10:19:22.1Z</time>
      </trkpt>
      <trkpt lat="48.33818" lon="-3.18893">
        <ele>177</ele>
        <time>2013-11-17T10:19:25.1Z</time>
      </trkpt>
      <trkpt lat="48.33815" lon="-3.1889">
        <ele>176</ele>
        <time>2013-11-17T10:19:28.1Z</time>
      </trkpt>
      <trkpt lat="48.33813" lon="-3.18889">
        <ele>176</ele>
        <time>2013-11-17T10:19:31.1Z</time>
      </trkpt>
      <trkpt lat="48.33811" lon="-3.18888">
        <ele>175</ele>
        <time>2013-11-17T10:19:33.1Z</time>
      </trkpt>
      <trkpt lat="48.33807" lon="-3.18888">
        <ele>175</ele>
        <time>2013-11-17T10:19:36.1Z</time>
      </trkpt>
      <trkpt lat="48.33804" lon="-3.18886">
        <ele>174</ele>
        <time>2013-11-17T10:19:39.1Z</time>
      </trkpt>
      <trkpt lat="48.33801" lon="-3.18886">
        <ele>173</ele>
        <time>2013-11-17T10:19:41.1Z</time>
      </trkpt>
      <trkpt lat="48.33799" lon="-3.18885">
        <ele>173</ele>
        <time>2013-11-17T10:19:43.1Z</time>
      </trkpt>
      <trkpt lat="48.33795" lon="-3.18884">
        <ele>172</ele>
        <time>2013-11-17T10:19:46.1Z</time>
      </trkpt>
      <trkpt lat="48.33792" lon="-3.18883">
        <ele>172</ele>
        <time>2013-11-17T10:19:48.1Z</time>
      </trkpt>
      <trkpt lat="48.33789" lon="-3.18884">
        <ele>171</ele>
        <time>2013-11-17T10:19:51.1Z</time>
      </trkpt>
      <trkpt lat="48.33787" lon="-3.18884">
        <ele>171</ele>
        <time>2013-11-17T10:19:53.1Z</time>
      </trkpt>
      <trkpt lat="48.33783" lon="-3.18883">
        <ele>170</ele>
        <time>2013-11-17T10:19:56.1Z</time>
      </trkpt>
      <trkpt lat="48.33781" lon="-3.18883">
        <ele>170</ele>
        <time>2013-11-17T10:19:58.1Z</time>
      </trkpt>
      <trkpt lat="48.33778" lon="-3.18883">
        <ele>170</ele>
        <time>2013-11-17T10:20:01.1Z</time>
      </trkpt>
      <trkpt lat="48.33775" lon="-3.18882">
        <ele>169</ele>
        <time>2013-11-17T10:20:04.1Z</time>
      </trkpt>
      <trkpt lat="48.33773" lon="-3.18883">
        <ele>169</ele>
        <time>2013-11-17T10:20:06.1Z</time>
      </trkpt>
      <trkpt lat="48.33772" lon="-3.18883">
        <ele>169</ele>
        <time>2013-11-17T10:20:08.1Z</time>
      </trkpt>
      <trkpt lat="48.3377" lon="-3.18885">
        <ele>169</ele>
        <time>2013-11-17T10:20:11.1Z</time>
      </trkpt>
      <trkpt lat="48.33769" lon="-3.18885">
        <ele>169</ele>
        <time>2013-11-17T10:20:14.1Z</time>
      </trkpt>
      <trkpt lat="48.33768" lon="-3.18886">
        <ele>169</ele>
        <time>2013-11-17T10:20:16.1Z</time>
      </trkpt>
      <trkpt lat="48.33768" lon="-3.18887">
        <ele>170</ele>
        <time>2013-11-17T10:20:19.1Z</time>
      </trkpt>
      <trkpt lat="48.33766" lon="-3.18888">
        <ele>169</ele>
        <time>2013-11-17T10:20:21.1Z</time>
      </trkpt>
      <trkpt lat="48.33762" lon="-3.18889">
        <ele>169</ele>
        <time>2013-11-17T10:20:24.1Z</time>
      </trkpt>
      <trkpt lat="48.33758" lon="-3.18889">
        <ele>168</ele>
        <time>2013-11-17T10:20:26.1Z</time>
      </trkpt>
      <trkpt lat="48.33753" lon="-3.18891">
        <ele>167</ele>
        <time>2013-11-17T10:20:29.1Z</time>
      </trkpt>
      <trkpt lat="48.3375" lon="-3.18891">
        <ele>167</ele>
        <time>2013-11-17T10:20:32.1Z</time>
      </trkpt>
      <trkpt lat="48.33746" lon="-3.18891">
        <ele>167</ele>
        <time>2013-11-17T10:20:35.1Z</time>
      </trkpt>
      <trkpt lat="48.33744" lon="-3.18891">
        <ele>167</ele>
        <time>2013-11-17T10:20:37.1Z</time>
      </trkpt>
      <trkpt lat="48.33741" lon="-3.18891">
        <ele>166</ele>
        <time>2013-11-17T10:20:39.1Z</time>
      </trkpt>
      <trkpt lat="48.33739" lon="-3.1889">
        <ele>166</ele>
        <time>2013-11-17T10:20:42.1Z</time>
      </trkpt>
      <trkpt lat="48.33739" lon="-3.18888">
        <ele>166</ele>
        <time>2013-11-17T10:20:45.1Z</time>
      </trkpt>
      <trkpt lat="48.3374" lon="-3.18886">
        <ele>166</ele>
        <time>2013-11-17T10:20:47.1Z</time>
      </trkpt>
      <trkpt lat="48.33741" lon="-3.18884">
        <ele>166</ele>
        <time>2013-11-17T10:20:49.1Z</time>
      </trkpt>
      <trkpt lat="48.33741" lon="-3.18883">
        <ele>166</ele>
        <time>2013-11-17T10:20:51.1Z</time>
      </trkpt>
      <trkpt lat="48.33741" lon="-3.18879">
        <ele>166</ele>
        <time>2013-11-17T10:20:54.1Z</time>
      </trkpt>
      <trkpt lat="48.33741" lon="-3.18877">
        <ele>166</ele>
        <time>2013-11-17T10:20:56.1Z</time>
      </trkpt>
      <trkpt lat="48.33739" lon="-3.18873">
        <ele>166</ele>
        <time>2013-11-17T10:20:59.1Z</time>
      </trkpt>
      <trkpt lat="48.33739" lon="-3.1887">
        <ele>166</ele>
        <time>2013-11-17T10:21:01.1Z</time>
      </trkpt>
      <trkpt lat="48.33738" lon="-3.18866">
        <ele>165</ele>
        <time>2013-11-17T10:21:04.1Z</time>
      </trkpt>
      <trkpt lat="48.33737" lon="-3.18863">
        <ele>165</ele>
        <time>2013-11-17T10:21:06.1Z</time>
      </trkpt>
      <trkpt lat="48.33735" lon="-3.1886">
        <ele>165</ele>
        <time>2013-11-17T10:21:09.1Z</time>
      </trkpt>
      <trkpt lat="48.33734" lon="-3.18859">
        <ele>165</ele>
        <time>2013-11-17T10:21:11.1Z</time>
      </trkpt>
      <trkpt lat="48.33734" lon="-3.18857">
        <ele>165</ele>
        <time>2013-11-17T10:21:14.1Z</time>
      </trkpt>
      <trkpt lat="48.33733" lon="-3.18855">
        <ele>165</ele>
        <time>2013-11-17T10:21:16.1Z</time>
      </trkpt>
      <trkpt lat="48.33732" lon="-3.18852">
        <ele>166</ele>
        <time>2013-11-17T10:21:18.1Z</time>
      </trkpt>
      <trkpt lat="48.33731" lon="-3.18849">
        <ele>166</ele>
        <time>2013-11-17T10:21:21.1Z</time>
      </trkpt>
      <trkpt lat="48.33729" lon="-3.18846">
        <ele>166</ele>
        <time>2013-11-17T10:21:24.1Z</time>
      </trkpt>
      <trkpt lat="48.33728" lon="-3.18842">
        <ele>166</ele>
        <time>2013-11-17T10:21:27.1Z</time>
      </trkpt>
      <trkpt lat="48.33728" lon="-3.1884">
        <ele>166</ele>
        <time>2013-11-17T10:21:29.1Z</time>
      </trkpt>
      <trkpt lat="48.33726" lon="-3.18836">
        <ele>167</ele>
        <time>2013-11-17T10:21:32.1Z</time>
      </trkpt>
      <trkpt lat="48.33725" lon="-3.18833">
        <ele>166</ele>
        <time>2013-11-17T10:21:34.1Z</time>
      </trkpt>
      <trkpt lat="48.33723" lon="-3.18829">
        <ele>166</ele>
        <time>2013-11-17T10:21:37.1Z</time>
      </trkpt>
      <trkpt lat="48.33722" lon="-3.18825">
        <ele>166</ele>
        <time>2013-11-17T10:21:40.1Z</time>
      </trkpt>
      <trkpt lat="48.33721" lon="-3.18823">
        <ele>167</ele>
        <time>2013-11-17T10:21:42.1Z</time>
      </trkpt>
      <trkpt lat="48.3372" lon="-3.18819">
        <ele>167</ele>
        <time>2013-11-17T10:21:45.1Z</time>
      </trkpt>
      <trkpt lat="48.3372" lon="-3.18815">
        <ele>167</ele>
        <time>2013-11-17T10:21:48.1Z</time>
      </trkpt>
      <trkpt lat="48.33719" lon="-3.18811">
        <ele>166</ele>
        <time>2013-11-17T10:21:51.1Z</time>
      </trkpt>
      <trkpt lat="48.33718" lon="-3.18806">
        <ele>166</ele>
        <time>2013-11-17T10:21:54.1Z</time>
      </trkpt>
      <trkpt lat="48.33717" lon="-3.18803">
        <ele>166</ele>
        <time>2013-11-17T10:21:56.1Z</time>
      </trkpt>
      <trkpt lat="48.33716" lon="-3.188">
        <ele>166</ele>
        <time>2013-11-17T10:21:58.1Z</time>
      </trkpt>
      <trkpt lat="48.33715" lon="-3.18797">
        <ele>166</ele>
        <time>2013-11-17T10:22:01.1Z</time>
      </trkpt>
      <trkpt lat="48.33714" lon="-3.18795">
        <ele>166</ele>
        <time>2013-11-17T10:22:03.1Z</time>
      </trkpt>
      <trkpt lat="48.33713" lon="-3.18791">
        <ele>166</ele>
        <time>2013-11-17T10:22:06.1Z</time>
      </trkpt>
      <trkpt lat="48.33712" lon="-3.18789">
        <ele>166</ele>
        <time>2013-11-17T10:22:08.1Z</time>
      </trkpt>
      <trkpt lat="48.33712" lon="-3.18786">
        <ele>166</ele>
        <time>2013-11-17T10:22:11.1Z</time>
      </trkpt>
      <trkpt lat="48.33711" lon="-3.18783">
        <ele>166</ele>
        <time>2013-11-17T10:22:14.1Z</time>
      </trkpt>
      <trkpt lat="48.33709" lon="-3.18781">
        <ele>167</ele>
        <time>2013-11-17T10:22:17.1Z</time>
      </trkpt>
      <trkpt lat="48.33708" lon="-3.18781">
        <ele>167</ele>
        <time>2013-11-17T10:22:19.1Z</time>
      </trkpt>
      <trkpt lat="48.33707" lon="-3.18777">
        <ele>167</ele>
        <time>2013-11-17T10:22:22.1Z</time>
      </trkpt>
      <trkpt lat="48.33707" lon="-3.18775">
        <ele>167</ele>
        <time>2013-11-17T10:22:25.1Z</time>
      </trkpt>
      <trkpt lat="48.33706" lon="-3.18771">
        <ele>167</ele>
        <time>2013-11-17T10:22:28.1Z</time>
      </trkpt>
      <trkpt lat="48.33706" lon="-3.18768">
        <ele>166</ele>
        <time>2013-11-17T10:22:31.1Z</time>
      </trkpt>
      <trkpt lat="48.33706" lon="-3.18766">
        <ele>167</ele>
        <time>2013-11-17T10:22:34.1Z</time>
      </trkpt>
      <trkpt lat="48.33707" lon="-3.18764">
        <ele>167</ele>
        <time>2013-11-17T10:22:36.1Z</time>
      </trkpt>
      <trkpt lat="48.33707" lon="-3.18763">
        <ele>167</ele>
        <time>2013-11-17T10:22:38.1Z</time>
      </trkpt>
      <trkpt lat="48.33706" lon="-3.18761">
        <ele>167</ele>
        <time>2013-11-17T10:22:41.1Z</time>
      </trkpt>
      <trkpt lat="48.33707" lon="-3.18758">
        <ele>167</ele>
        <time>2013-11-17T10:22:44.1Z</time>
      </trkpt>
      <trkpt lat="48.33707" lon="-3.18757">
        <ele>167</ele>
        <time>2013-11-17T10:22:46.1Z</time>
      </trkpt>
      <trkpt lat="48.33706" lon="-3.18754">
        <ele>167</ele>
        <time>2013-11-17T10:22:49.1Z</time>
      </trkpt>
      <trkpt lat="48.33705" lon="-3.18752">
        <ele>167</ele>
        <time>2013-11-17T10:22:51.1Z</time>
      </trkpt>
      <trkpt lat="48.33703" lon="-3.1875">
        <ele>167</ele>
        <time>2013-11-17T10:22:54.1Z</time>
      </trkpt>
      <trkpt lat="48.33701" lon="-3.18747">
        <ele>167</ele>
        <time>2013-11-17T10:22:57.1Z</time>
      </trkpt>
      <trkpt lat="48.33701" lon="-3.18745">
        <ele>168</ele>
        <time>2013-11-17T10:22:59.1Z</time>
      </trkpt>
      <trkpt lat="48.33699" lon="-3.18743">
        <ele>168</ele>
        <time>2013-11-17T10:23:02.1Z</time>
      </trkpt>
      <trkpt lat="48.33699" lon="-3.18742">
        <ele>168</ele>
        <time>2013-11-17T10:23:04.1Z</time>
      </trkpt>
      <trkpt lat="48.33698" lon="-3.1874">
        <ele>168</ele>
        <time>2013-11-17T10:23:07.1Z</time>
      </trkpt>
      <trkpt lat="48.33697" lon="-3.18739">
        <ele>168</ele>
        <time>2013-11-17T10:23:10.1Z</time>
      </trkpt>
      <trkpt lat="48.33696" lon="-3.18739">
        <ele>169</ele>
        <time>2013-11-17T10:23:13.1Z</time>
      </trkpt>
      <trkpt lat="48.33695" lon="-3.18739">
        <ele>169</ele>
        <time>2013-11-17T10:23:15.1Z</time>
      </trkpt>
      <trkpt lat="48.33693" lon="-3.18739">
        <ele>169</ele>
        <time>2013-11-17T10:23:18.1Z</time>
      </trkpt>
      <trkpt lat="48.33691" lon="-3.18739">
        <ele>169</ele>
        <time>2013-11-17T10:23:20.1Z</time>
      </trkpt>
      <trkpt lat="48.3369" lon="-3.18738">
        <ele>168</ele>
        <time>2013-11-17T10:23:23.1Z</time>
      </trkpt>
      <trkpt lat="48.33689" lon="-3.18738">
        <ele>168</ele>
        <time>2013-11-17T10:23:26.1Z</time>
      </trkpt>
      <trkpt lat="48.33689" lon="-3.18738">
        <ele>168</ele>
        <time>2013-11-17T10:23:28.1Z</time>
      </trkpt>
      <trkpt lat="48.33688" lon="-3.18738">
        <ele>168</ele>
        <time>2013-11-17T10:23:32.1Z</time>
      </trkpt>
      <trkpt lat="48.33688" lon="-3.18738">
        <ele>168</ele>
        <time>2013-11-17T10:23:35.1Z</time>
      </trkpt>
      <trkpt lat="48.33689" lon="-3.18738">
        <ele>168</ele>
        <time>2013-11-17T10:23:38.1Z</time>
      </trkpt>
      <trkpt lat="48.3369" lon="-3.18738">
        <ele>168</ele>
        <time>2013-11-17T10:23:41.1Z</time>
      </trkpt>
      <trkpt lat="48.3369" lon="-3.18738">
        <ele>168</ele>
        <time>2013-11-17T10:23:44.1Z</time>
      </trkpt>
      <trkpt lat="48.33689" lon="-3.18738">
        <ele>168</ele>
        <time>2013-11-17T10:23:46.1Z</time>
      </trkpt>
      <trkpt lat="48.33689" lon="-3.18738">
        <ele>168</ele>
        <time>2013-11-17T10:23:49.1Z</time>
      </trkpt>
      <trkpt lat="48.33689" lon="-3.18738">
        <ele>168</ele>
        <time>2013-11-17T10:23:51.1Z</time>
      </trkpt>
      <trkpt lat="48.33689" lon="-3.18737">
        <ele>169</ele>
        <time>2013-11-17T10:23:54.1Z</time>
      </trkpt>
      <trkpt lat="48.33689" lon="-3.18737">
        <ele>169</ele>
        <time>2013-11-17T10:23:56.1Z</time>
      </trkpt>
      <trkpt lat="48.33688" lon="-3.18737">
        <ele>169</ele>
        <time>2013-11-17T10:23:59.1Z</time>
      </trkpt>
      <trkpt lat="48.33687" lon="-3.18737">
        <ele>168</ele>
        <time>2013-11-17T10:24:01.1Z</time>
      </trkpt>
      <trkpt lat="48.33687" lon="-3.18737">
        <ele>168</ele>
        <time>2013-11-17T10:24:03.1Z</time>
      </trkpt>
      <trkpt lat="48.33688" lon="-3.18738">
        <ele>168</ele>
        <time>2013-11-17T10:24:06.1Z</time>
      </trkpt>
      <trkpt lat="48.33688" lon="-3.18738">
        <ele>168</ele>
        <time>2013-11-17T10:24:08.1Z</time>
      </trkpt>
      <trkpt lat="48.33689" lon="-3.18739">
        <ele>167</ele>
        <time>2013-11-17T10:24:10.1Z</time>
      </trkpt>
      <trkpt lat="48.33689" lon="-3.1874">
        <ele>167</ele>
        <time>2013-11-17T10:24:13.1Z</time>
      </trkpt>
      <trkpt lat="48.33691" lon="-3.1874">
        <ele>167</ele>
        <time>2013-11-17T10:24:16.1Z</time>
      </trkpt>
      <trkpt lat="48.33692" lon="-3.1874">
        <ele>167</ele>
        <time>2013-11-17T10:24:18.1Z</time>
      </trkpt>
      <trkpt lat="48.33694" lon="-3.1874">
        <ele>167</ele>
        <time>2013-11-17T10:24:21.1Z</time>
      </trkpt>
      <trkpt lat="48.33696" lon="-3.1874">
        <ele>167</ele>
        <time>2013-11-17T10:24:23.1Z</time>
      </trkpt>
      <trkpt lat="48.33697" lon="-3.18739">
        <ele>167</ele>
        <time>2013-11-17T10:24:25.1Z</time>
      </trkpt>
      <trkpt lat="48.33698" lon="-3.18739">
        <ele>167</ele>
        <time>2013-11-17T10:24:27.1Z</time>
      </trkpt>
      <trkpt lat="48.337" lon="-3.1874">
        <ele>167</ele>
        <time>2013-11-17T10:24:29.1Z</time>
      </trkpt>
      <trkpt lat="48.33702" lon="-3.18739">
        <ele>167</ele>
        <time>2013-11-17T10:24:31.1Z</time>
      </trkpt>
      <trkpt lat="48.33704" lon="-3.18738">
        <ele>167</ele>
        <time>2013-11-17T10:24:33.1Z</time>
      </trkpt>
      <trkpt lat="48.33707" lon="-3.18738">
        <ele>167</ele>
        <time>2013-11-17T10:24:36.1Z</time>
      </trkpt>
      <trkpt lat="48.33708" lon="-3.18737">
        <ele>167</ele>
        <time>2013-11-17T10:24:38.1Z</time>
      </trkpt>
      <trkpt lat="48.3371" lon="-3.18736">
        <ele>167</ele>
        <time>2013-11-17T10:24:41.1Z</time>
      </trkpt>
      <trkpt lat="48.3371" lon="-3.18735">
        <ele>168</ele>
        <time>2013-11-17T10:24:44.1Z</time>
      </trkpt>
      <trkpt lat="48.3371" lon="-3.18733">
        <ele>168</ele>
        <time>2013-11-17T10:24:47.1Z</time>
      </trkpt>
      <trkpt lat="48.3371" lon="-3.18732">
        <ele>168</ele>
        <time>2013-11-17T10:24:50.1Z</time>
      </trkpt>
      <trkpt lat="48.33709" lon="-3.18732">
        <ele>168</ele>
        <time>2013-11-17T10:24:52.1Z</time>
      </trkpt>
      <trkpt lat="48.33708" lon="-3.18732">
        <ele>168</ele>
        <time>2013-11-17T10:24:55.1Z</time>
      </trkpt>
      <trkpt lat="48.33708" lon="-3.18731">
        <ele>168</ele>
        <time>2013-11-17T10:24:57.1Z</time>
      </trkpt>
      <trkpt lat="48.33707" lon="-3.1873">
        <ele>168</ele>
        <time>2013-11-17T10:25:00.1Z</time>
      </trkpt>
      <trkpt lat="48.33705" lon="-3.18729">
        <ele>167</ele>
        <time>2013-11-17T10:25:02.1Z</time>
      </trkpt>
      <trkpt lat="48.33704" lon="-3.18729">
        <ele>167</ele>
        <time>2013-11-17T10:25:04.1Z</time>
      </trkpt>
      <trkpt lat="48.33703" lon="-3.18729">
        <ele>167</ele>
        <time>2013-11-17T10:25:06.1Z</time>
      </trkpt>
      <trkpt lat="48.33701" lon="-3.18729">
        <ele>167</ele>
        <time>2013-11-17T10:25:09.1Z</time>
      </trkpt>
      <trkpt lat="48.33701" lon="-3.18729">
        <ele>167</ele>
        <time>2013-11-17T10:25:11.1Z</time>
      </trkpt>
      <trkpt lat="48.337" lon="-3.18731">
        <ele>167</ele>
        <time>2013-11-17T10:25:14.1Z</time>
      </trkpt>
      <trkpt lat="48.33699" lon="-3.18733">
        <ele>167</ele>
        <time>2013-11-17T10:25:17.1Z</time>
      </trkpt>
      <trkpt lat="48.33698" lon="-3.18734">
        <ele>167</ele>
        <time>2013-11-17T10:25:19.1Z</time>
      </trkpt>
      <trkpt lat="48.33699" lon="-3.18735">
        <ele>167</ele>
        <time>2013-11-17T10:25:22.1Z</time>
      </trkpt>
      <trkpt lat="48.33698" lon="-3.18735">
        <ele>167</ele>
        <time>2013-11-17T10:25:25.1Z</time>
      </trkpt>
      <trkpt lat="48.33697" lon="-3.18735">
        <ele>167</ele>
        <time>2013-11-17T10:25:27.1Z</time>
      </trkpt>
      <trkpt lat="48.33696" lon="-3.18736">
        <ele>167</ele>
        <time>2013-11-17T10:25:30.1Z</time>
      </trkpt>
      <trkpt lat="48.33695" lon="-3.18735">
        <ele>168</ele>
        <time>2013-11-17T10:25:32.1Z</time>
      </trkpt>
      <trkpt lat="48.33693" lon="-3.18735">
        <ele>168</ele>
        <time>2013-11-17T10:25:35.1Z</time>
      </trkpt>
      <trkpt lat="48.33692" lon="-3.18734">
        <ele>168</ele>
        <time>2013-11-17T10:25:38.1Z</time>
      </trkpt>
      <trkpt lat="48.3369" lon="-3.18733">
        <ele>168</ele>
        <time>2013-11-17T10:25:40.1Z</time>
      </trkpt>
      <trkpt lat="48.33689" lon="-3.18733">
        <ele>167</ele>
        <time>2013-11-17T10:25:43.1Z</time>
      </trkpt>
      <trkpt lat="48.33689" lon="-3.18737">
        <ele>167</ele>
        <time>2013-11-17T10:25:46.1Z</time>
      </trkpt>
      <trkpt lat="48.33691" lon="-3.18735">
        <ele>168</ele>
        <time>2013-11-17T10:25:49.1Z</time>
      </trkpt>
      <trkpt lat="48.33691" lon="-3.18735">
        <ele>168</ele>
        <time>2013-11-17T10:25:51.1Z</time>
      </trkpt>
      <trkpt lat="48.33691" lon="-3.18734">
        <ele>168</ele>
        <time>2013-11-17T10:25:54.1Z</time>
      </trkpt>
      <trkpt lat="48.33689" lon="-3.18732">
        <ele>168</ele>
        <time>2013-11-17T10:25:57.1Z</time>
      </trkpt>
      <trkpt lat="48.33686" lon="-3.18731">
        <ele>168</ele>
        <time>2013-11-17T10:26:00.1Z</time>
      </trkpt>
      <trkpt lat="48.33684" lon="-3.18729">
        <ele>169</ele>
        <time>2013-11-17T10:26:03.1Z</time>
      </trkpt>
      <trkpt lat="48.33681" lon="-3.18728">
        <ele>169</ele>
        <time>2013-11-17T10:26:06.1Z</time>
      </trkpt>
      <trkpt lat="48.33679" lon="-3.18726">
        <ele>169</ele>
        <time>2013-11-17T10:26:08.1Z</time>
      </trkpt>
      <trkpt lat="48.33677" lon="-3.18724">
        <ele>169</ele>
        <time>2013-11-17T10:26:11.1Z</time>
      </trkpt>
      <trkpt lat="48.33675" lon="-3.18722">
        <ele>169</ele>
        <time>2013-11-17T10:26:14.1Z</time>
      </trkpt>
      <trkpt lat="48.33672" lon="-3.1872">
        <ele>169</ele>
        <time>2013-11-17T10:26:17.1Z</time>
      </trkpt>
      <trkpt lat="48.3367" lon="-3.18718">
        <ele>169</ele>
        <time>2013-11-17T10:26:19.1Z</time>
      </trkpt>
      <trkpt lat="48.3367" lon="-3.18717">
        <ele>170</ele>
        <time>2013-11-17T10:26:21.1Z</time>
      </trkpt>
      <trkpt lat="48.33668" lon="-3.18715">
        <ele>170</ele>
        <time>2013-11-17T10:26:24.1Z</time>
      </trkpt>
      <trkpt lat="48.33666" lon="-3.18713">
        <ele>170</ele>
        <time>2013-11-17T10:26:27.1Z</time>
      </trkpt>
      <trkpt lat="48.33664" lon="-3.18712">
        <ele>170</ele>
        <time>2013-11-17T10:26:29.1Z</time>
      </trkpt>
      <trkpt lat="48.33661" lon="-3.18711">
        <ele>171</ele>
        <time>2013-11-17T10:26:32.1Z</time>
      </trkpt>
      <trkpt lat="48.33658" lon="-3.1871">
        <ele>171</ele>
        <time>2013-11-17T10:26:34.1Z</time>
      </trkpt>
      <trkpt lat="48.33654" lon="-3.18708">
        <ele>172</ele>
        <time>2013-11-17T10:26:37.1Z</time>
      </trkpt>
      <trkpt lat="48.33653" lon="-3.18707">
        <ele>172</ele>
        <time>2013-11-17T10:26:39.1Z</time>
      </trkpt>
      <trkpt lat="48.33651" lon="-3.18707">
        <ele>172</ele>
        <time>2013-11-17T10:26:41.1Z</time>
      </trkpt>
      <trkpt lat="48.33649" lon="-3.18707">
        <ele>173</ele>
        <time>2013-11-17T10:26:44.1Z</time>
      </trkpt>
      <trkpt lat="48.33646" lon="-3.18707">
        <ele>173</ele>
        <time>2013-11-17T10:26:47.1Z</time>
      </trkpt>
      <trkpt lat="48.33643" lon="-3.18706">
        <ele>173</ele>
        <time>2013-11-17T10:26:50.1Z</time>
      </trkpt>
      <trkpt lat="48.33641" lon="-3.18707">
        <ele>173</ele>
        <time>2013-11-17T10:26:52.1Z</time>
      </trkpt>
      <trkpt lat="48.33639" lon="-3.18707">
        <ele>174</ele>
        <time>2013-11-17T10:26:55.1Z</time>
      </trkpt>
      <trkpt lat="48.33638" lon="-3.18709">
        <ele>174</ele>
        <time>2013-11-17T10:26:57.1Z</time>
      </trkpt>
      <trkpt lat="48.33638" lon="-3.1871">
        <ele>175</ele>
        <time>2013-11-17T10:27:00.1Z</time>
      </trkpt>
      <trkpt lat="48.33635" lon="-3.18711">
        <ele>175</ele>
        <time>2013-11-17T10:27:02.1Z</time>
      </trkpt>
      <trkpt lat="48.33633" lon="-3.18713">
        <ele>175</ele>
        <time>2013-11-17T10:27:04.1Z</time>
      </trkpt>
      <trkpt lat="48.33631" lon="-3.18715">
        <ele>176</ele>
        <time>2013-11-17T10:27:06.1Z</time>
      </trkpt>
      <trkpt lat="48.33627" lon="-3.18716">
        <ele>176</ele>
        <time>2013-11-17T10:27:09.1Z</time>
      </trkpt>
      <trkpt lat="48.33625" lon="-3.18718">
        <ele>177</ele>
        <time>2013-11-17T10:27:11.1Z</time>
      </trkpt>
      <trkpt lat="48.33622" lon="-3.1872">
        <ele>177</ele>
        <time>2013-11-17T10:27:13.1Z</time>
      </trkpt>
      <trkpt lat="48.33621" lon="-3.18721">
        <ele>177</ele>
        <time>2013-11-17T10:27:15.1Z</time>
      </trkpt>
      <trkpt lat="48.3362" lon="-3.18724">
        <ele>177</ele>
        <time>2013-11-17T10:27:18.1Z</time>
      </trkpt>
      <trkpt lat="48.33619" lon="-3.18725">
        <ele>178</ele>
        <time>2013-11-17T10:27:20.1Z</time>
      </trkpt>
      <trkpt lat="48.33618" lon="-3.18725">
        <ele>178</ele>
        <time>2013-11-17T10:27:22.1Z</time>
      </trkpt>
      <trkpt lat="48.33616" lon="-3.18727">
        <ele>179</ele>
        <time>2013-11-17T10:27:25.1Z</time>
      </trkpt>
      <trkpt lat="48.33614" lon="-3.1873">
        <ele>179</ele>
        <time>2013-11-17T10:27:27.1Z</time>
      </trkpt>
      <trkpt lat="48.33612" lon="-3.18732">
        <ele>180</ele>
        <time>2013-11-17T10:27:29.1Z</time>
      </trkpt>
      <trkpt lat="48.3361" lon="-3.18734">
        <ele>180</ele>
        <time>2013-11-17T10:27:31.1Z</time>
      </trkpt>
      <trkpt lat="48.33609" lon="-3.18737">
        <ele>180</ele>
        <time>2013-11-17T10:27:34.1Z</time>
      </trkpt>
      <trkpt lat="48.33608" lon="-3.18737">
        <ele>180</ele>
        <time>2013-11-17T10:27:36.1Z</time>
      </trkpt>
      <trkpt lat="48.33607" lon="-3.18738">
        <ele>181</ele>
        <time>2013-11-17T10:27:40.1Z</time>
      </trkpt>
      <trkpt lat="48.33604" lon="-3.18739">
        <ele>181</ele>
        <time>2013-11-17T10:27:42.1Z</time>
      </trkpt>
      <trkpt lat="48.33602" lon="-3.1874">
        <ele>181</ele>
        <time>2013-11-17T10:27:45.1Z</time>
      </trkpt>
      <trkpt lat="48.336" lon="-3.18742">
        <ele>181</ele>
        <time>2013-11-17T10:27:47.1Z</time>
      </trkpt>
      <trkpt lat="48.33598" lon="-3.18744">
        <ele>181</ele>
        <time>2013-11-17T10:27:50.1Z</time>
      </trkpt>
      <trkpt lat="48.33596" lon="-3.18745">
        <ele>181</ele>
        <time>2013-11-17T10:27:53.1Z</time>
      </trkpt>
      <trkpt lat="48.33595" lon="-3.18746">
        <ele>181</ele>
        <time>2013-11-17T10:27:55.1Z</time>
      </trkpt>
      <trkpt lat="48.33591" lon="-3.18748">
        <ele>181</ele>
        <time>2013-11-17T10:27:58.1Z</time>
      </trkpt>
      <trkpt lat="48.33589" lon="-3.18748">
        <ele>181</ele>
        <time>2013-11-17T10:28:00.1Z</time>
      </trkpt>
      <trkpt lat="48.33587" lon="-3.18749">
        <ele>182</ele>
        <time>2013-11-17T10:28:02.1Z</time>
      </trkpt>
      <trkpt lat="48.33584" lon="-3.18749">
        <ele>182</ele>
        <time>2013-11-17T10:28:05.1Z</time>
      </trkpt>
      <trkpt lat="48.3358" lon="-3.1875">
        <ele>182</ele>
        <time>2013-11-17T10:28:08.1Z</time>
      </trkpt>
      <trkpt lat="48.33578" lon="-3.1875">
        <ele>182</ele>
        <time>2013-11-17T10:28:10.1Z</time>
      </trkpt>
      <trkpt lat="48.33575" lon="-3.18751">
        <ele>182</ele>
        <time>2013-11-17T10:28:13.1Z</time>
      </trkpt>
      <trkpt lat="48.33573" lon="-3.18751">
        <ele>182</ele>
        <time>2013-11-17T10:28:16.1Z</time>
      </trkpt>
      <trkpt lat="48.33569" lon="-3.18752">
        <ele>182</ele>
        <time>2013-11-17T10:28:19.1Z</time>
      </trkpt>
      <trkpt lat="48.33567" lon="-3.18753">
        <ele>182</ele>
        <time>2013-11-17T10:28:21.1Z</time>
      </trkpt>
      <trkpt lat="48.33566" lon="-3.18755">
        <ele>182</ele>
        <time>2013-11-17T10:28:23.1Z</time>
      </trkpt>
      <trkpt lat="48.33564" lon="-3.18756">
        <ele>182</ele>
        <time>2013-11-17T10:28:26.1Z</time>
      </trkpt>
      <trkpt lat="48.33562" lon="-3.18757">
        <ele>182</ele>
        <time>2013-11-17T10:28:28.1Z</time>
      </trkpt>
      <trkpt lat="48.33559" lon="-3.18758">
        <ele>182</ele>
        <time>2013-11-17T10:28:31.1Z</time>
      </trkpt>
      <trkpt lat="48.33555" lon="-3.18759">
        <ele>182</ele>
        <time>2013-11-17T10:28:34.1Z</time>
      </trkpt>
      <trkpt lat="48.33552" lon="-3.18758">
        <ele>182</ele>
        <time>2013-11-17T10:28:37.1Z</time>
      </trkpt>
      <trkpt lat="48.33548" lon="-3.18759">
        <ele>182</ele>
        <time>2013-11-17T10:28:40.1Z</time>
      </trkpt>
      <trkpt lat="48.33546" lon="-3.18759">
        <ele>182</ele>
        <time>2013-11-17T10:28:42.1Z</time>
      </trkpt>
      <trkpt lat="48.33543" lon="-3.1876">
        <ele>182</ele>
        <time>2013-11-17T10:28:45.1Z</time>
      </trkpt>
      <trkpt lat="48.33541" lon="-3.18761">
        <ele>182</ele>
        <time>2013-11-17T10:28:47.1Z</time>
      </trkpt>
      <trkpt lat="48.33538" lon="-3.18761">
        <ele>181</ele>
        <time>2013-11-17T10:28:50.1Z</time>
      </trkpt>
      <trkpt lat="48.33537" lon="-3.18762">
        <ele>181</ele>
        <time>2013-11-17T10:28:53.1Z</time>
      </trkpt>
      <trkpt lat="48.33533" lon="-3.18762">
        <ele>181</ele>
        <time>2013-11-17T10:28:56.1Z</time>
      </trkpt>
      <trkpt lat="48.33532" lon="-3.18763">
        <ele>181</ele>
        <time>2013-11-17T10:28:58.1Z</time>
      </trkpt>
      <trkpt lat="48.33529" lon="-3.18764">
        <ele>181</ele>
        <time>2013-11-17T10:29:01.1Z</time>
      </trkpt>
      <trkpt lat="48.33527" lon="-3.18766">
        <ele>181</ele>
        <time>2013-11-17T10:29:03.1Z</time>
      </trkpt>
      <trkpt lat="48.33524" lon="-3.18767">
        <ele>181</ele>
        <time>2013-11-17T10:29:06.1Z</time>
      </trkpt>
      <trkpt lat="48.33521" lon="-3.18768">
        <ele>181</ele>
        <time>2013-11-17T10:29:08.1Z</time>
      </trkpt>
      <trkpt lat="48.33518" lon="-3.18769">
        <ele>181</ele>
        <time>2013-11-17T10:29:11.1Z</time>
      </trkpt>
      <trkpt lat="48.33516" lon="-3.18769">
        <ele>181</ele>
        <time>2013-11-17T10:29:13.1Z</time>
      </trkpt>
      <trkpt lat="48.33514" lon="-3.1877">
        <ele>181</ele>
        <time>2013-11-17T10:29:15.1Z</time>
      </trkpt>
      <trkpt lat="48.33509" lon="-3.1877">
        <ele>181</ele>
        <time>2013-11-17T10:29:18.1Z</time>
      </trkpt>
      <trkpt lat="48.33506" lon="-3.1877">
        <ele>181</ele>
        <time>2013-11-17T10:29:21.1Z</time>
      </trkpt>
      <trkpt lat="48.33504" lon="-3.18771">
        <ele>180</ele>
        <time>2013-11-17T10:29:24.1Z</time>
      </trkpt>
      <trkpt lat="48.33502" lon="-3.18771">
        <ele>180</ele>
        <time>2013-11-17T10:29:27.1Z</time>
      </trkpt>
      <trkpt lat="48.335" lon="-3.1877">
        <ele>180</ele>
        <time>2013-11-17T10:29:30.1Z</time>
      </trkpt>
      <trkpt lat="48.33498" lon="-3.18771">
        <ele>180</ele>
        <time>2013-11-17T10:29:32.1Z</time>
      </trkpt>
      <trkpt lat="48.33498" lon="-3.18774">
        <ele>180</ele>
        <time>2013-11-17T10:29:34.1Z</time>
      </trkpt>
      <trkpt lat="48.335" lon="-3.18776">
        <ele>180</ele>
        <time>2013-11-17T10:29:37.1Z</time>
      </trkpt>
      <trkpt lat="48.33503" lon="-3.18778">
        <ele>181</ele>
        <time>2013-11-17T10:29:39.1Z</time>
      </trkpt>
      <trkpt lat="48.33507" lon="-3.18779">
        <ele>181</ele>
        <time>2013-11-17T10:29:42.1Z</time>
      </trkpt>
      <trkpt lat="48.33508" lon="-3.1878">
        <ele>181</ele>
        <time>2013-11-17T10:29:45.1Z</time>
      </trkpt>
      <trkpt lat="48.33507" lon="-3.18779">
        <ele>181</ele>
        <time>2013-11-17T10:29:47.1Z</time>
      </trkpt>
      <trkpt lat="48.33504" lon="-3.18777">
        <ele>180</ele>
        <time>2013-11-17T10:29:50.1Z</time>
      </trkpt>
      <trkpt lat="48.33501" lon="-3.18777">
        <ele>180</ele>
        <time>2013-11-17T10:29:53.1Z</time>
      </trkpt>
      <trkpt lat="48.33498" lon="-3.18777">
        <ele>180</ele>
        <time>2013-11-17T10:29:55.1Z</time>
      </trkpt>
      <trkpt lat="48.33495" lon="-3.18777">
        <ele>180</ele>
        <time>2013-11-17T10:29:57.1Z</time>
      </trkpt>
      <trkpt lat="48.33491" lon="-3.18776">
        <ele>180</ele>
        <time>2013-11-17T10:30:00.1Z</time>
      </trkpt>
      <trkpt lat="48.33488" lon="-3.18776">
        <ele>180</ele>
        <time>2013-11-17T10:30:02.1Z</time>
      </trkpt>
      <trkpt lat="48.33485" lon="-3.18775">
        <ele>180</ele>
        <time>2013-11-17T10:30:05.1Z</time>
      </trkpt>
      <trkpt lat="48.33481" lon="-3.18775">
        <ele>180</ele>
        <time>2013-11-17T10:30:08.1Z</time>
      </trkpt>
      <trkpt lat="48.3348" lon="-3.18775">
        <ele>180</ele>
        <time>2013-11-17T10:30:10.1Z</time>
      </trkpt>
      <trkpt lat="48.33479" lon="-3.18776">
        <ele>180</ele>
        <time>2013-11-17T10:30:12.1Z</time>
      </trkpt>
      <trkpt lat="48.33476" lon="-3.18776">
        <ele>180</ele>
        <time>2013-11-17T10:30:15.1Z</time>
      </trkpt>
      <trkpt lat="48.33474" lon="-3.18776">
        <ele>180</ele>
        <time>2013-11-17T10:30:17.1Z</time>
      </trkpt>
      <trkpt lat="48.33471" lon="-3.18777">
        <ele>180</ele>
        <time>2013-11-17T10:30:20.1Z</time>
      </trkpt>
      <trkpt lat="48.33469" lon="-3.18776">
        <ele>180</ele>
        <time>2013-11-17T10:30:22.1Z</time>
      </trkpt>
      <trkpt lat="48.33465" lon="-3.18778">
        <ele>180</ele>
        <time>2013-11-17T10:30:25.1Z</time>
      </trkpt>
      <trkpt lat="48.33461" lon="-3.1878">
        <ele>180</ele>
        <time>2013-11-17T10:30:28.1Z</time>
      </trkpt>
      <trkpt lat="48.3346" lon="-3.18781">
        <ele>180</ele>
        <time>2013-11-17T10:30:30.1Z</time>
      </trkpt>
      <trkpt lat="48.33457" lon="-3.18781">
        <ele>180</ele>
        <time>2013-11-17T10:30:33.1Z</time>
      </trkpt>
      <trkpt lat="48.33455" lon="-3.18781">
        <ele>181</ele>
        <time>2013-11-17T10:30:35.1Z</time>
      </trkpt>
      <trkpt lat="48.33452" lon="-3.18781">
        <ele>181</ele>
        <time>2013-11-17T10:30:38.1Z</time>
      </trkpt>
      <trkpt lat="48.33449" lon="-3.18781">
        <ele>181</ele>
        <time>2013-11-17T10:30:40.1Z</time>
      </trkpt>
      <trkpt lat="48.33446" lon="-3.18781">
        <ele>181</ele>
        <time>2013-11-17T10:30:43.1Z</time>
      </trkpt>
      <trkpt lat="48.33444" lon="-3.18781">
        <ele>181</ele>
        <time>2013-11-17T10:30:45.1Z</time>
      </trkpt>
      <trkpt lat="48.3344" lon="-3.1878">
        <ele>181</ele>
        <time>2013-11-17T10:30:48.1Z</time>
      </trkpt>
      <trkpt lat="48.33437" lon="-3.18782">
        <ele>182</ele>
        <time>2013-11-17T10:30:51.1Z</time>
      </trkpt>
      <trkpt lat="48.33434" lon="-3.18783">
        <ele>182</ele>
        <time>2013-11-17T10:30:54.1Z</time>
      </trkpt>
      <trkpt lat="48.3343" lon="-3.18783">
        <ele>181</ele>
        <time>2013-11-17T10:30:57.1Z</time>
      </trkpt>
      <trkpt lat="48.33429" lon="-3.18782">
        <ele>181</ele>
        <time>2013-11-17T10:31:00.1Z</time>
      </trkpt>
      <trkpt lat="48.33425" lon="-3.18783">
        <ele>182</ele>
        <time>2013-11-17T10:31:04.1Z</time>
      </trkpt>
      <trkpt lat="48.33422" lon="-3.18784">
        <ele>182</ele>
        <time>2013-11-17T10:31:07.1Z</time>
      </trkpt>
      <trkpt lat="48.33419" lon="-3.18785">
        <ele>182</ele>
        <time>2013-11-17T10:31:09.1Z</time>
      </trkpt>
      <trkpt lat="48.33416" lon="-3.18786">
        <ele>182</ele>
        <time>2013-11-17T10:31:12.1Z</time>
      </trkpt>
      <trkpt lat="48.33412" lon="-3.18787">
        <ele>182</ele>
        <time>2013-11-17T10:31:15.1Z</time>
      </trkpt>
      <trkpt lat="48.33411" lon="-3.18788">
        <ele>183</ele>
        <time>2013-11-17T10:31:17.1Z</time>
      </trkpt>
      <trkpt lat="48.33408" lon="-3.18788">
        <ele>183</ele>
        <time>2013-11-17T10:31:20.1Z</time>
      </trkpt>
      <trkpt lat="48.33404" lon="-3.18788">
        <ele>184</ele>
        <time>2013-11-17T10:31:23.1Z</time>
      </trkpt>
      <trkpt lat="48.33401" lon="-3.18788">
        <ele>184</ele>
        <time>2013-11-17T10:31:26.1Z</time>
      </trkpt>
      <trkpt lat="48.33399" lon="-3.18788">
        <ele>184</ele>
        <time>2013-11-17T10:31:28.1Z</time>
      </trkpt>
      <trkpt lat="48.33396" lon="-3.18788">
        <ele>184</ele>
        <time>2013-11-17T10:31:31.1Z</time>
      </trkpt>
      <trkpt lat="48.33395" lon="-3.18789">
        <ele>184</ele>
        <time>2013-11-17T10:31:34.1Z</time>
      </trkpt>
      <trkpt lat="48.33395" lon="-3.18789">
        <ele>185</ele>
        <time>2013-11-17T10:31:36.1Z</time>
      </trkpt>
      <trkpt lat="48.33394" lon="-3.18788">
        <ele>185</ele>
        <time>2013-11-17T10:31:39.1Z</time>
      </trkpt>
      <trkpt lat="48.33392" lon="-3.18788">
        <ele>185</ele>
        <time>2013-11-17T10:31:41.1Z</time>
      </trkpt>
      <trkpt lat="48.3339" lon="-3.18787">
        <ele>184</ele>
        <time>2013-11-17T10:31:44.1Z</time>
      </trkpt>
      <trkpt lat="48.33388" lon="-3.18785">
        <ele>184</ele>
        <time>2013-11-17T10:31:47.1Z</time>
      </trkpt>
      <trkpt lat="48.33386" lon="-3.18784">
        <ele>184</ele>
        <time>2013-11-17T10:31:50.1Z</time>
      </trkpt>
      <trkpt lat="48.33383" lon="-3.18782">
        <ele>184</ele>
        <time>2013-11-17T10:31:53.1Z</time>
      </trkpt>
      <trkpt lat="48.33379" lon="-3.1878">
        <ele>184</ele>
        <time>2013-11-17T10:31:56.1Z</time>
      </trkpt>
      <trkpt lat="48.33377" lon="-3.18779">
        <ele>184</ele>
        <time>2013-11-17T10:31:58.1Z</time>
      </trkpt>
      <trkpt lat="48.33374" lon="-3.18777">
        <ele>184</ele>
        <time>2013-11-17T10:32:01.1Z</time>
      </trkpt>
      <trkpt lat="48.33372" lon="-3.18776">
        <ele>184</ele>
        <time>2013-11-17T10:32:04.1Z</time>
      </trkpt>
      <trkpt lat="48.3337" lon="-3.18774">
        <ele>184</ele>
        <time>2013-11-17T10:32:07.1Z</time>
      </trkpt>
      <trkpt lat="48.33368" lon="-3.18773">
        <ele>184</ele>
        <time>2013-11-17T10:32:09.1Z</time>
      </trkpt>
      <trkpt lat="48.33365" lon="-3.1877">
        <ele>184</ele>
        <time>2013-11-17T10:32:12.1Z</time>
      </trkpt>
      <trkpt lat="48.33361" lon="-3.18767">
        <ele>184</ele>
        <time>2013-11-17T10:32:15.1Z</time>
      </trkpt>
      <trkpt lat="48.33358" lon="-3.18765">
        <ele>184</ele>
        <time>2013-11-17T10:32:18.1Z</time>
      </trkpt>
      <trkpt lat="48.33355" lon="-3.18764">
        <ele>184</ele>
        <time>2013-11-17T10:32:20.1Z</time>
      </trkpt>
      <trkpt lat="48.33354" lon="-3.18763">
        <ele>184</ele>
        <time>2013-11-17T10:32:22.1Z</time>
      </trkpt>
      <trkpt lat="48.33351" lon="-3.18761">
        <ele>184</ele>
        <time>2013-11-17T10:32:25.1Z</time>
      </trkpt>
      <trkpt lat="48.33348" lon="-3.18759">
        <ele>184</ele>
        <time>2013-11-17T10:32:27.1Z</time>
      </trkpt>
      <trkpt lat="48.33346" lon="-3.18757">
        <ele>184</ele>
        <time>2013-11-17T10:32:30.1Z</time>
      </trkpt>
      <trkpt lat="48.33344" lon="-3.18755">
        <ele>183</ele>
        <time>2013-11-17T10:32:32.1Z</time>
      </trkpt>
      <trkpt lat="48.33342" lon="-3.18754">
        <ele>184</ele>
        <time>2013-11-17T10:32:35.1Z</time>
      </trkpt>
      <trkpt lat="48.3334" lon="-3.18753">
        <ele>184</ele>
        <time>2013-11-17T10:32:37.1Z</time>
      </trkpt>
      <trkpt lat="48.33338" lon="-3.1875">
        <ele>183</ele>
        <time>2013-11-17T10:32:40.1Z</time>
      </trkpt>
      <trkpt lat="48.33336" lon="-3.18747">
        <ele>183</ele>
        <time>2013-11-17T10:32:43.1Z</time>
      </trkpt>
      <trkpt lat="48.33333" lon="-3.18744">
        <ele>183</ele>
        <time>2013-11-17T10:32:46.1Z</time>
      </trkpt>
      <trkpt lat="48.33331" lon="-3.18743">
        <ele>183</ele>
        <time>2013-11-17T10:32:48.1Z</time>
      </trkpt>
      <trkpt lat="48.33328" lon="-3.18741">
        <ele>183</ele>
        <time>2013-11-17T10:32:51.1Z</time>
      </trkpt>
      <trkpt lat="48.33325" lon="-3.18738">
        <ele>183</ele>
        <time>2013-11-17T10:32:54.1Z</time>
      </trkpt>
      <trkpt lat="48.33324" lon="-3.18736">
        <ele>183</ele>
        <time>2013-11-17T10:32:56.1Z</time>
      </trkpt>
      <trkpt lat="48.33323" lon="-3.18735">
        <ele>182</ele>
        <time>2013-11-17T10:32:58.1Z</time>
      </trkpt>
      <trkpt lat="48.3332" lon="-3.18731">
        <ele>182</ele>
        <time>2013-11-17T10:33:01.1Z</time>
      </trkpt>
      <trkpt lat="48.33318" lon="-3.18728">
        <ele>182</ele>
        <time>2013-11-17T10:33:04.1Z</time>
      </trkpt>
      <trkpt lat="48.33317" lon="-3.18726">
        <ele>182</ele>
        <time>2013-11-17T10:33:06.1Z</time>
      </trkpt>
      <trkpt lat="48.33316" lon="-3.18726">
        <ele>181</ele>
        <time>2013-11-17T10:33:08.1Z</time>
      </trkpt>
      <trkpt lat="48.33314" lon="-3.18726">
        <ele>181</ele>
        <time>2013-11-17T10:33:10.1Z</time>
      </trkpt>
      <trkpt lat="48.33313" lon="-3.18726">
        <ele>181</ele>
        <time>2013-11-17T10:33:13.1Z</time>
      </trkpt>
      <trkpt lat="48.33312" lon="-3.18726">
        <ele>180</ele>
        <time>2013-11-17T10:33:15.1Z</time>
      </trkpt>
      <trkpt lat="48.33312" lon="-3.18724">
        <ele>181</ele>
        <time>2013-11-17T10:33:18.1Z</time>
      </trkpt>
      <trkpt lat="48.33311" lon="-3.18724">
        <ele>181</ele>
        <time>2013-11-17T10:33:20.1Z</time>
      </trkpt>
      <trkpt lat="48.3331" lon="-3.1872">
        <ele>181</ele>
        <time>2013-11-17T10:33:23.1Z</time>
      </trkpt>
      <trkpt lat="48.33309" lon="-3.18718">
        <ele>182</ele>
        <time>2013-11-17T10:33:26.1Z</time>
      </trkpt>
      <trkpt lat="48.33307" lon="-3.18717">
        <ele>182</ele>
        <time>2013-11-17T10:33:28.1Z</time>
      </trkpt>
      <trkpt lat="48.33305" lon="-3.18716">
        <ele>181</ele>
        <time>2013-11-17T10:33:30.1Z</time>
      </trkpt>
      <trkpt lat="48.33303" lon="-3.18715">
        <ele>181</ele>
        <time>2013-11-17T10:33:33.1Z</time>
      </trkpt>
      <trkpt lat="48.33301" lon="-3.18714">
        <ele>180</ele>
        <time>2013-11-17T10:33:36.1Z</time>
      </trkpt>
      <trkpt lat="48.333" lon="-3.18713">
        <ele>180</ele>
        <time>2013-11-17T10:33:39.1Z</time>
      </trkpt>
      <trkpt lat="48.33299" lon="-3.18713">
        <ele>180</ele>
        <time>2013-11-17T10:33:41.1Z</time>
      </trkpt>
      <trkpt lat="48.33298" lon="-3.18712">
        <ele>179</ele>
        <time>2013-11-17T10:33:44.1Z</time>
      </trkpt>
      <trkpt lat="48.33296" lon="-3.18711">
        <ele>179</ele>
        <time>2013-11-17T10:33:46.1Z</time>
      </trkpt>
      <trkpt lat="48.33293" lon="-3.18711">
        <ele>179</ele>
        <time>2013-11-17T10:33:49.1Z</time>
      </trkpt>
      <trkpt lat="48.33289" lon="-3.1871">
        <ele>179</ele>
        <time>2013-11-17T10:33:52.1Z</time>
      </trkpt>
      <trkpt lat="48.33287" lon="-3.1871">
        <ele>179</ele>
        <time>2013-11-17T10:33:54.1Z</time>
      </trkpt>
      <trkpt lat="48.33283" lon="-3.1871">
        <ele>179</ele>
        <time>2013-11-17T10:33:57.1Z</time>
      </trkpt>
      <trkpt lat="48.33281" lon="-3.18709">
        <ele>179</ele>
        <time>2013-11-17T10:33:59.1Z</time>
      </trkpt>
      <trkpt lat="48.33278" lon="-3.18708">
        <ele>179</ele>
        <time>2013-11-17T10:34:02.1Z</time>
      </trkpt>
      <trkpt lat="48.33276" lon="-3.18707">
        <ele>179</ele>
        <time>2013-11-17T10:34:04.1Z</time>
      </trkpt>
      <trkpt lat="48.33274" lon="-3.18705">
        <ele>178</ele>
        <time>2013-11-17T10:34:07.1Z</time>
      </trkpt>
      <trkpt lat="48.3327" lon="-3.18704">
        <ele>178</ele>
        <time>2013-11-17T10:34:10.1Z</time>
      </trkpt>
      <trkpt lat="48.33267" lon="-3.18702">
        <ele>178</ele>
        <time>2013-11-17T10:34:13.1Z</time>
      </trkpt>
      <trkpt lat="48.33266" lon="-3.18702">
        <ele>178</ele>
        <time>2013-11-17T10:34:15.1Z</time>
      </trkpt>
      <trkpt lat="48.33264" lon="-3.18701">
        <ele>177</ele>
        <time>2013-11-17T10:34:17.1Z</time>
      </trkpt>
      <trkpt lat="48.33262" lon="-3.187">
        <ele>177</ele>
        <time>2013-11-17T10:34:20.1Z</time>
      </trkpt>
      <trkpt lat="48.3326" lon="-3.187">
        <ele>177</ele>
        <time>2013-11-17T10:34:22.1Z</time>
      </trkpt>
      <trkpt lat="48.33258" lon="-3.18699">
        <ele>177</ele>
        <time>2013-11-17T10:34:24.1Z</time>
      </trkpt>
      <trkpt lat="48.33255" lon="-3.18698">
        <ele>177</ele>
        <time>2013-11-17T10:34:27.1Z</time>
      </trkpt>
      <trkpt lat="48.33252" lon="-3.18696">
        <ele>177</ele>
        <time>2013-11-17T10:34:30.1Z</time>
      </trkpt>
      <trkpt lat="48.33249" lon="-3.18696">
        <ele>176</ele>
        <time>2013-11-17T10:34:32.1Z</time>
      </trkpt>
      <trkpt lat="48.33246" lon="-3.18695">
        <ele>176</ele>
        <time>2013-11-17T10:34:34.1Z</time>
      </trkpt>
      <trkpt lat="48.33244" lon="-3.18692">
        <ele>176</ele>
        <time>2013-11-17T10:34:37.1Z</time>
      </trkpt>
      <trkpt lat="48.33242" lon="-3.18692">
        <ele>176</ele>
        <time>2013-11-17T10:34:39.1Z</time>
      </trkpt>
      <trkpt lat="48.33236" lon="-3.1869">
        <ele>175</ele>
        <time>2013-11-17T10:34:42.1Z</time>
      </trkpt>
      <trkpt lat="48.33234" lon="-3.18688">
        <ele>175</ele>
        <time>2013-11-17T10:34:44.1Z</time>
      </trkpt>
      <trkpt lat="48.3323" lon="-3.18687">
        <ele>175</ele>
        <time>2013-11-17T10:34:47.1Z</time>
      </trkpt>
      <trkpt lat="48.33228" lon="-3.18686">
        <ele>175</ele>
        <time>2013-11-17T10:34:49.1Z</time>
      </trkpt>
      <trkpt lat="48.33225" lon="-3.18685">
        <ele>175</ele>
        <time>2013-11-17T10:34:52.1Z</time>
      </trkpt>
      <trkpt lat="48.33223" lon="-3.18683">
        <ele>175</ele>
        <time>2013-11-17T10:34:54.1Z</time>
      </trkpt>
      <trkpt lat="48.33221" lon="-3.18681">
        <ele>175</ele>
        <time>2013-11-17T10:34:57.1Z</time>
      </trkpt>
      <trkpt lat="48.33218" lon="-3.18679">
        <ele>174</ele>
        <time>2013-11-17T10:35:00.1Z</time>
      </trkpt>
      <trkpt lat="48.33216" lon="-3.18677">
        <ele>174</ele>
        <time>2013-11-17T10:35:03.1Z</time>
      </trkpt>
      <trkpt lat="48.33215" lon="-3.18676">
        <ele>174</ele>
        <time>2013-11-17T10:35:05.1Z</time>
      </trkpt>
      <trkpt lat="48.33213" lon="-3.18675">
        <ele>174</ele>
        <time>2013-11-17T10:35:07.1Z</time>
      </trkpt>
      <trkpt lat="48.3321" lon="-3.18673">
        <ele>174</ele>
        <time>2013-11-17T10:35:10.1Z</time>
      </trkpt>
      <trkpt lat="48.33209" lon="-3.18672">
        <ele>174</ele>
        <time>2013-11-17T10:35:12.1Z</time>
      </trkpt>
      <trkpt lat="48.33207" lon="-3.18671">
        <ele>174</ele>
        <time>2013-11-17T10:35:15.1Z</time>
      </trkpt>
      <trkpt lat="48.33205" lon="-3.1867">
        <ele>174</ele>
        <time>2013-11-17T10:35:17.1Z</time>
      </trkpt>
      <trkpt lat="48.33204" lon="-3.18669">
        <ele>174</ele>
        <time>2013-11-17T10:35:19.1Z</time>
      </trkpt>
      <trkpt lat="48.33202" lon="-3.18668">
        <ele>174</ele>
        <time>2013-11-17T10:35:22.1Z</time>
      </trkpt>
      <trkpt lat="48.33199" lon="-3.18665">
        <ele>174</ele>
        <time>2013-11-17T10:35:25.1Z</time>
      </trkpt>
      <trkpt lat="48.33198" lon="-3.18663">
        <ele>173</ele>
        <time>2013-11-17T10:35:27.1Z</time>
      </trkpt>
      <trkpt lat="48.33196" lon="-3.18662">
        <ele>173</ele>
        <time>2013-11-17T10:35:30.1Z</time>
      </trkpt>
      <trkpt lat="48.33194" lon="-3.1866">
        <ele>173</ele>
        <time>2013-11-17T10:35:32.1Z</time>
      </trkpt>
      <trkpt lat="48.33191" lon="-3.18657">
        <ele>172</ele>
        <time>2013-11-17T10:35:35.1Z</time>
      </trkpt>
      <trkpt lat="48.33189" lon="-3.18655">
        <ele>172</ele>
        <time>2013-11-17T10:35:37.1Z</time>
      </trkpt>
      <trkpt lat="48.33186" lon="-3.18653">
        <ele>171</ele>
        <time>2013-11-17T10:35:40.1Z</time>
      </trkpt>
      <trkpt lat="48.33183" lon="-3.1865">
        <ele>171</ele>
        <time>2013-11-17T10:35:43.1Z</time>
      </trkpt>
      <trkpt lat="48.33179" lon="-3.18647">
        <ele>171</ele>
        <time>2013-11-17T10:35:46.1Z</time>
      </trkpt>
      <trkpt lat="48.33178" lon="-3.18645">
        <ele>171</ele>
        <time>2013-11-17T10:35:48.1Z</time>
      </trkpt>
      <trkpt lat="48.33176" lon="-3.18643">
        <ele>170</ele>
        <time>2013-11-17T10:35:51.1Z</time>
      </trkpt>
      <trkpt lat="48.33174" lon="-3.1864">
        <ele>169</ele>
        <time>2013-11-17T10:35:54.1Z</time>
      </trkpt>
      <trkpt lat="48.33172" lon="-3.18638">
        <ele>169</ele>
        <time>2013-11-17T10:35:57.1Z</time>
      </trkpt>
      <trkpt lat="48.33169" lon="-3.18634">
        <ele>168</ele>
        <time>2013-11-17T10:36:00.1Z</time>
      </trkpt>
      <trkpt lat="48.33168" lon="-3.18631">
        <ele>167</ele>
        <time>2013-11-17T10:36:03.1Z</time>
      </trkpt>
      <trkpt lat="48.33166" lon="-3.18628">
        <ele>167</ele>
        <time>2013-11-17T10:36:06.1Z</time>
      </trkpt>
      <trkpt lat="48.33164" lon="-3.18625">
        <ele>166</ele>
        <time>2013-11-17T10:36:08.1Z</time>
      </trkpt>
      <trkpt lat="48.33161" lon="-3.18623">
        <ele>166</ele>
        <time>2013-11-17T10:36:11.1Z</time>
      </trkpt>
      <trkpt lat="48.33158" lon="-3.18622">
        <ele>166</ele>
        <time>2013-11-17T10:36:14.1Z</time>
      </trkpt>
      <trkpt lat="48.33155" lon="-3.1862">
        <ele>165</ele>
        <time>2013-11-17T10:36:17.1Z</time>
      </trkpt>
      <trkpt lat="48.33154" lon="-3.18619">
        <ele>165</ele>
        <time>2013-11-17T10:36:19.1Z</time>
      </trkpt>
      <trkpt lat="48.3315" lon="-3.18618">
        <ele>165</ele>
        <time>2013-11-17T10:36:22.1Z</time>
      </trkpt>
      <trkpt lat="48.33148" lon="-3.18617">
        <ele>165</ele>
        <time>2013-11-17T10:36:24.1Z</time>
      </trkpt>
      <trkpt lat="48.33144" lon="-3.18618">
        <ele>165</ele>
        <time>2013-11-17T10:36:27.1Z</time>
      </trkpt>
      <trkpt lat="48.33142" lon="-3.1862">
        <ele>164</ele>
        <time>2013-11-17T10:36:30.1Z</time>
      </trkpt>
      <trkpt lat="48.33141" lon="-3.18622">
        <ele>164</ele>
        <time>2013-11-17T10:36:32.1Z</time>
      </trkpt>
      <trkpt lat="48.33138" lon="-3.18624">
        <ele>164</ele>
        <time>2013-11-17T10:36:35.1Z</time>
      </trkpt>
      <trkpt lat="48.33136" lon="-3.18625">
        <ele>165</ele>
        <time>2013-11-17T10:36:37.1Z</time>
      </trkpt>
      <trkpt lat="48.33133" lon="-3.18626">
        <ele>164</ele>
        <time>2013-11-17T10:36:40.1Z</time>
      </trkpt>
      <trkpt lat="48.33131" lon="-3.18627">
        <ele>164</ele>
        <time>2013-11-17T10:36:42.1Z</time>
      </trkpt>
      <trkpt lat="48.3313" lon="-3.18627">
        <ele>164</ele>
        <time>2013-11-17T10:36:44.1Z</time>
      </trkpt>
      <trkpt lat="48.33129" lon="-3.18628">
        <ele>163</ele>
        <time>2013-11-17T10:36:47.1Z</time>
      </trkpt>
      <trkpt lat="48.33128" lon="-3.18629">
        <ele>163</ele>
        <time>2013-11-17T10:36:49.1Z</time>
      </trkpt>
      <trkpt lat="48.33126" lon="-3.18628">
        <ele>163</ele>
        <time>2013-11-17T10:36:52.1Z</time>
      </trkpt>
      <trkpt lat="48.33125" lon="-3.18628">
        <ele>163</ele>
        <time>2013-11-17T10:36:54.1Z</time>
      </trkpt>
      <trkpt lat="48.33123" lon="-3.18628">
        <ele>163</ele>
        <time>2013-11-17T10:36:56.1Z</time>
      </trkpt>
      <trkpt lat="48.3312" lon="-3.18629">
        <ele>163</ele>
        <time>2013-11-17T10:36:59.1Z</time>
      </trkpt>
      <trkpt lat="48.33119" lon="-3.18629">
        <ele>163</ele>
        <time>2013-11-17T10:37:01.1Z</time>
      </trkpt>
      <trkpt lat="48.33115" lon="-3.18629">
        <ele>163</ele>
        <time>2013-11-17T10:37:04.1Z</time>
      </trkpt>
      <trkpt lat="48.33113" lon="-3.1863">
        <ele>163</ele>
        <time>2013-11-17T10:37:06.1Z</time>
      </trkpt>
      <trkpt lat="48.33111" lon="-3.1863">
        <ele>162</ele>
        <time>2013-11-17T10:37:08.1Z</time>
      </trkpt>
      <trkpt lat="48.3311" lon="-3.1863">
        <ele>161</ele>
        <time>2013-11-17T10:37:10.1Z</time>
      </trkpt>
      <trkpt lat="48.3311" lon="-3.1863">
        <ele>161</ele>
        <time>2013-11-17T10:37:12.1Z</time>
      </trkpt>
      <trkpt lat="48.33108" lon="-3.18629">
        <ele>161</ele>
        <time>2013-11-17T10:37:15.1Z</time>
      </trkpt>
      <trkpt lat="48.33106" lon="-3.18628">
        <ele>161</ele>
        <time>2013-11-17T10:37:18.1Z</time>
      </trkpt>
      <trkpt lat="48.33105" lon="-3.18628">
        <ele>161</ele>
        <time>2013-11-17T10:37:20.1Z</time>
      </trkpt>
      <trkpt lat="48.33104" lon="-3.18628">
        <ele>160</ele>
        <time>2013-11-17T10:37:23.1Z</time>
      </trkpt>
      <trkpt lat="48.33102" lon="-3.18627">
        <ele>160</ele>
        <time>2013-11-17T10:37:25.1Z</time>
      </trkpt>
      <trkpt lat="48.33101" lon="-3.18627">
        <ele>160</ele>
        <time>2013-11-17T10:37:27.1Z</time>
      </trkpt>
      <trkpt lat="48.331" lon="-3.18626">
        <ele>159</ele>
        <time>2013-11-17T10:37:30.1Z</time>
      </trkpt>
      <trkpt lat="48.33099" lon="-3.18625">
        <ele>159</ele>
        <time>2013-11-17T10:37:32.1Z</time>
      </trkpt>
      <trkpt lat="48.33098" lon="-3.18626">
        <ele>159</ele>
        <time>2013-11-17T10:37:35.1Z</time>
      </trkpt>
      <trkpt lat="48.33096" lon="-3.18626">
        <ele>159</ele>
        <time>2013-11-17T10:37:37.1Z</time>
      </trkpt>
      <trkpt lat="48.33094" lon="-3.18624">
        <ele>158</ele>
        <time>2013-11-17T10:37:40.1Z</time>
      </trkpt>
      <trkpt lat="48.33091" lon="-3.18622">
        <ele>158</ele>
        <time>2013-11-17T10:37:43.1Z</time>
      </trkpt>
      <trkpt lat="48.33089" lon="-3.1862">
        <ele>157</ele>
        <time>2013-11-17T10:37:46.1Z</time>
      </trkpt>
      <trkpt lat="48.33087" lon="-3.18618">
        <ele>156</ele>
        <time>2013-11-17T10:37:49.1Z</time>
      </trkpt>
      <trkpt lat="48.33085" lon="-3.18616">
        <ele>156</ele>
        <time>2013-11-17T10:37:52.1Z</time>
      </trkpt>
      <trkpt lat="48.33084" lon="-3.18615">
        <ele>155</ele>
        <time>2013-11-17T10:37:54.1Z</time>
      </trkpt>
      <trkpt lat="48.33084" lon="-3.18612">
        <ele>154</ele>
        <time>2013-11-17T10:37:57.1Z</time>
      </trkpt>
      <trkpt lat="48.33083" lon="-3.18612">
        <ele>154</ele>
        <time>2013-11-17T10:37:59.1Z</time>
      </trkpt>
      <trkpt lat="48.33081" lon="-3.18611">
        <ele>153</ele>
        <time>2013-11-17T10:38:02.1Z</time>
      </trkpt>
      <trkpt lat="48.33079" lon="-3.1861">
        <ele>153</ele>
        <time>2013-11-17T10:38:04.1Z</time>
      </trkpt>
      <trkpt lat="48.33077" lon="-3.1861">
        <ele>153</ele>
        <time>2013-11-17T10:38:06.1Z</time>
      </trkpt>
      <trkpt lat="48.33074" lon="-3.18609">
        <ele>152</ele>
        <time>2013-11-17T10:38:09.1Z</time>
      </trkpt>
      <trkpt lat="48.33071" lon="-3.18608">
        <ele>152</ele>
        <time>2013-11-17T10:38:12.1Z</time>
      </trkpt>
      <trkpt lat="48.33069" lon="-3.18608">
        <ele>152</ele>
        <time>2013-11-17T10:38:14.1Z</time>
      </trkpt>
      <trkpt lat="48.33067" lon="-3.18607">
        <ele>151</ele>
        <time>2013-11-17T10:38:17.1Z</time>
      </trkpt>
      <trkpt lat="48.33065" lon="-3.18606">
        <ele>151</ele>
        <time>2013-11-17T10:38:19.1Z</time>
      </trkpt>
      <trkpt lat="48.33063" lon="-3.18607">
        <ele>152</ele>
        <time>2013-11-17T10:38:21.1Z</time>
      </trkpt>
      <trkpt lat="48.33062" lon="-3.18607">
        <ele>152</ele>
        <time>2013-11-17T10:38:24.1Z</time>
      </trkpt>
      <trkpt lat="48.3306" lon="-3.18606">
        <ele>151</ele>
        <time>2013-11-17T10:38:26.1Z</time>
      </trkpt>
      <trkpt lat="48.33057" lon="-3.18605">
        <ele>150</ele>
        <time>2013-11-17T10:38:29.1Z</time>
      </trkpt>
      <trkpt lat="48.33054" lon="-3.18605">
        <ele>150</ele>
        <time>2013-11-17T10:38:31.1Z</time>
      </trkpt>
      <trkpt lat="48.3305" lon="-3.18604">
        <ele>150</ele>
        <time>2013-11-17T10:38:34.1Z</time>
      </trkpt>
      <trkpt lat="48.33046" lon="-3.18603">
        <ele>150</ele>
        <time>2013-11-17T10:38:37.1Z</time>
      </trkpt>
      <trkpt lat="48.33045" lon="-3.18602">
        <ele>149</ele>
        <time>2013-11-17T10:38:39.1Z</time>
      </trkpt>
      <trkpt lat="48.33041" lon="-3.18601">
        <ele>149</ele>
        <time>2013-11-17T10:38:42.1Z</time>
      </trkpt>
      <trkpt lat="48.33039" lon="-3.186">
        <ele>149</ele>
        <time>2013-11-17T10:38:44.1Z</time>
      </trkpt>
      <trkpt lat="48.33036" lon="-3.18599">
        <ele>149</ele>
        <time>2013-11-17T10:38:47.1Z</time>
      </trkpt>
      <trkpt lat="48.33033" lon="-3.18598">
        <ele>149</ele>
        <time>2013-11-17T10:38:50.1Z</time>
      </trkpt>
      <trkpt lat="48.33031" lon="-3.18599">
        <ele>148</ele>
        <time>2013-11-17T10:38:52.1Z</time>
      </trkpt>
      <trkpt lat="48.33029" lon="-3.18598">
        <ele>148</ele>
        <time>2013-11-17T10:38:55.1Z</time>
      </trkpt>
      <trkpt lat="48.33028" lon="-3.18597">
        <ele>148</ele>
        <time>2013-11-17T10:38:57.1Z</time>
      </trkpt>
      <trkpt lat="48.33027" lon="-3.18596">
        <ele>148</ele>
        <time>2013-11-17T10:38:59.1Z</time>
      </trkpt>
      <trkpt lat="48.33025" lon="-3.18596">
        <ele>148</ele>
        <time>2013-11-17T10:39:02.1Z</time>
      </trkpt>
      <trkpt lat="48.33025" lon="-3.18595">
        <ele>147</ele>
        <time>2013-11-17T10:39:04.1Z</time>
      </trkpt>
      <trkpt lat="48.33023" lon="-3.18595">
        <ele>147</ele>
        <time>2013-11-17T10:39:07.1Z</time>
      </trkpt>
      <trkpt lat="48.33021" lon="-3.18595">
        <ele>146</ele>
        <time>2013-11-17T10:39:10.1Z</time>
      </trkpt>
      <trkpt lat="48.33018" lon="-3.18595">
        <ele>146</ele>
        <time>2013-11-17T10:39:13.1Z</time>
      </trkpt>
      <trkpt lat="48.33017" lon="-3.18594">
        <ele>145</ele>
        <time>2013-11-17T10:39:15.1Z</time>
      </trkpt>
      <trkpt lat="48.33015" lon="-3.18593">
        <ele>144</ele>
        <time>2013-11-17T10:39:18.1Z</time>
      </trkpt>
      <trkpt lat="48.33014" lon="-3.18593">
        <ele>144</ele>
        <time>2013-11-17T10:39:21.1Z</time>
      </trkpt>
      <trkpt lat="48.33014" lon="-3.18592">
        <ele>144</ele>
        <time>2013-11-17T10:39:23.1Z</time>
      </trkpt>
      <trkpt lat="48.33013" lon="-3.18593">
        <ele>143</ele>
        <time>2013-11-17T10:39:25.1Z</time>
      </trkpt>
      <trkpt lat="48.33011" lon="-3.18593">
        <ele>143</ele>
        <time>2013-11-17T10:39:28.1Z</time>
      </trkpt>
      <trkpt lat="48.33009" lon="-3.18593">
        <ele>142</ele>
        <time>2013-11-17T10:39:30.1Z</time>
      </trkpt>
      <trkpt lat="48.33007" lon="-3.18593">
        <ele>142</ele>
        <time>2013-11-17T10:39:32.1Z</time>
      </trkpt>
      <trkpt lat="48.33005" lon="-3.18592">
        <ele>142</ele>
        <time>2013-11-17T10:39:35.1Z</time>
      </trkpt>
      <trkpt lat="48.33004" lon="-3.18592">
        <ele>142</ele>
        <time>2013-11-17T10:39:37.1Z</time>
      </trkpt>
      <trkpt lat="48.33001" lon="-3.18593">
        <ele>142</ele>
        <time>2013-11-17T10:39:40.1Z</time>
      </trkpt>
      <trkpt lat="48.32999" lon="-3.18594">
        <ele>142</ele>
        <time>2013-11-17T10:39:42.1Z</time>
      </trkpt>
      <trkpt lat="48.32998" lon="-3.18598">
        <ele>141</ele>
        <time>2013-11-17T10:39:44.1Z</time>
      </trkpt>
      <trkpt lat="48.32998" lon="-3.186">
        <ele>141</ele>
        <time>2013-11-17T10:39:46.1Z</time>
      </trkpt>
      <trkpt lat="48.32997" lon="-3.18601">
        <ele>141</ele>
        <time>2013-11-17T10:39:48.1Z</time>
      </trkpt>
      <trkpt lat="48.32997" lon="-3.18604">
        <ele>141</ele>
        <time>2013-11-17T10:39:51.1Z</time>
      </trkpt>
      <trkpt lat="48.32996" lon="-3.18606">
        <ele>141</ele>
        <time>2013-11-17T10:39:53.1Z</time>
      </trkpt>
      <trkpt lat="48.32996" lon="-3.18608">
        <ele>141</ele>
        <time>2013-11-17T10:39:55.1Z</time>
      </trkpt>
      <trkpt lat="48.32996" lon="-3.18609">
        <ele>142</ele>
        <time>2013-11-17T10:39:57.1Z</time>
      </trkpt>
      <trkpt lat="48.32996" lon="-3.18611">
        <ele>142</ele>
        <time>2013-11-17T10:39:59.1Z</time>
      </trkpt>
      <trkpt lat="48.32996" lon="-3.18612">
        <ele>143</ele>
        <time>2013-11-17T10:40:02.1Z</time>
      </trkpt>
      <trkpt lat="48.32995" lon="-3.18615">
        <ele>143</ele>
        <time>2013-11-17T10:40:05.1Z</time>
      </trkpt>
      <trkpt lat="48.32995" lon="-3.18617">
        <ele>143</ele>
        <time>2013-11-17T10:40:07.1Z</time>
      </trkpt>
      <trkpt lat="48.32995" lon="-3.18619">
        <ele>143</ele>
        <time>2013-11-17T10:40:10.1Z</time>
      </trkpt>
      <trkpt lat="48.32996" lon="-3.1862">
        <ele>142</ele>
        <time>2013-11-17T10:40:13.1Z</time>
      </trkpt>
      <trkpt lat="48.32996" lon="-3.1862">
        <ele>142</ele>
        <time>2013-11-17T10:40:16.1Z</time>
      </trkpt>
      <trkpt lat="48.32997" lon="-3.18621">
        <ele>141</ele>
        <time>2013-11-17T10:40:18.1Z</time>
      </trkpt>
      <trkpt lat="48.32997" lon="-3.18621">
        <ele>141</ele>
        <time>2013-11-17T10:40:20.1Z</time>
      </trkpt>
      <trkpt lat="48.32996" lon="-3.18623">
        <ele>141</ele>
        <time>2013-11-17T10:40:23.1Z</time>
      </trkpt>
      <trkpt lat="48.32996" lon="-3.18626">
        <ele>141</ele>
        <time>2013-11-17T10:40:26.1Z</time>
      </trkpt>
      <trkpt lat="48.32996" lon="-3.18628">
        <ele>141</ele>
        <time>2013-11-17T10:40:28.1Z</time>
      </trkpt>
      <trkpt lat="48.32996" lon="-3.1863">
        <ele>141</ele>
        <time>2013-11-17T10:40:30.1Z</time>
      </trkpt>
      <trkpt lat="48.32995" lon="-3.18632">
        <ele>140</ele>
        <time>2013-11-17T10:40:32.1Z</time>
      </trkpt>
      <trkpt lat="48.32995" lon="-3.18635">
        <ele>140</ele>
        <time>2013-11-17T10:40:34.1Z</time>
      </trkpt>
      <trkpt lat="48.32995" lon="-3.18637">
        <ele>140</ele>
        <time>2013-11-17T10:40:36.1Z</time>
      </trkpt>
      <trkpt lat="48.32994" lon="-3.18639">
        <ele>141</ele>
        <time>2013-11-17T10:40:38.1Z</time>
      </trkpt>
      <trkpt lat="48.32995" lon="-3.18641">
        <ele>141</ele>
        <time>2013-11-17T10:40:40.1Z</time>
      </trkpt>
      <trkpt lat="48.32995" lon="-3.18645">
        <ele>141</ele>
        <time>2013-11-17T10:40:43.1Z</time>
      </trkpt>
      <trkpt lat="48.32995" lon="-3.18648">
        <ele>142</ele>
        <time>2013-11-17T10:40:45.1Z</time>
      </trkpt>
      <trkpt lat="48.32996" lon="-3.18652">
        <ele>141</ele>
        <time>2013-11-17T10:40:47.1Z</time>
      </trkpt>
      <trkpt lat="48.32997" lon="-3.18656">
        <ele>141</ele>
        <time>2013-11-17T10:40:50.1Z</time>
      </trkpt>
      <trkpt lat="48.32997" lon="-3.18659">
        <ele>141</ele>
        <time>2013-11-17T10:40:53.1Z</time>
      </trkpt>
      <trkpt lat="48.32996" lon="-3.18663">
        <ele>141</ele>
        <time>2013-11-17T10:40:56.1Z</time>
      </trkpt>
      <trkpt lat="48.32996" lon="-3.18668">
        <ele>141</ele>
        <time>2013-11-17T10:40:59.1Z</time>
      </trkpt>
      <trkpt lat="48.32997" lon="-3.18671">
        <ele>141</ele>
        <time>2013-11-17T10:41:01.1Z</time>
      </trkpt>
      <trkpt lat="48.32997" lon="-3.18674">
        <ele>141</ele>
        <time>2013-11-17T10:41:04.1Z</time>
      </trkpt>
      <trkpt lat="48.32998" lon="-3.18679">
        <ele>141</ele>
        <time>2013-11-17T10:41:07.1Z</time>
      </trkpt>
      <trkpt lat="48.32998" lon="-3.18682">
        <ele>141</ele>
        <time>2013-11-17T10:41:10.1Z</time>
      </trkpt>
      <trkpt lat="48.32998" lon="-3.18684">
        <ele>141</ele>
        <time>2013-11-17T10:41:12.1Z</time>
      </trkpt>
      <trkpt lat="48.32999" lon="-3.18686">
        <ele>142</ele>
        <time>2013-11-17T10:41:14.1Z</time>
      </trkpt>
      <trkpt lat="48.32999" lon="-3.18689">
        <ele>142</ele>
        <time>2013-11-17T10:41:17.1Z</time>
      </trkpt>
      <trkpt lat="48.32999" lon="-3.18691">
        <ele>141</ele>
        <time>2013-11-17T10:41:20.1Z</time>
      </trkpt>
      <trkpt lat="48.32998" lon="-3.18692">
        <ele>141</ele>
        <time>2013-11-17T10:41:22.1Z</time>
      </trkpt>
      <trkpt lat="48.32997" lon="-3.18693">
        <ele>140</ele>
        <time>2013-11-17T10:41:25.1Z</time>
      </trkpt>
      <trkpt lat="48.32996" lon="-3.18693">
        <ele>139</ele>
        <time>2013-11-17T10:41:28.1Z</time>
      </trkpt>
      <trkpt lat="48.32996" lon="-3.18693">
        <ele>139</ele>
        <time>2013-11-17T10:41:30.1Z</time>
      </trkpt>
      <trkpt lat="48.32995" lon="-3.18693">
        <ele>138</ele>
        <time>2013-11-17T10:41:33.1Z</time>
      </trkpt>
      <trkpt lat="48.32994" lon="-3.18693">
        <ele>138</ele>
        <time>2013-11-17T10:41:36.1Z</time>
      </trkpt>
      <trkpt lat="48.32994" lon="-3.18693">
        <ele>138</ele>
        <time>2013-11-17T10:41:39.1Z</time>
      </trkpt>
      <trkpt lat="48.32994" lon="-3.18693">
        <ele>138</ele>
        <time>2013-11-17T10:41:41.1Z</time>
      </trkpt>
      <trkpt lat="48.32993" lon="-3.18693">
        <ele>138</ele>
        <time>2013-11-17T10:41:44.1Z</time>
      </trkpt>
      <trkpt lat="48.32992" lon="-3.18693">
        <ele>139</ele>
        <time>2013-11-17T10:41:47.1Z</time>
      </trkpt>
      <trkpt lat="48.32992" lon="-3.18695">
        <ele>140</ele>
        <time>2013-11-17T10:41:49.1Z</time>
      </trkpt>
      <trkpt lat="48.32991" lon="-3.18697">
        <ele>140</ele>
        <time>2013-11-17T10:41:52.1Z</time>
      </trkpt>
      <trkpt lat="48.32991" lon="-3.18698">
        <ele>140</ele>
        <time>2013-11-17T10:41:54.1Z</time>
      </trkpt>
      <trkpt lat="48.32991" lon="-3.18701">
        <ele>140</ele>
        <time>2013-11-17T10:41:57.1Z</time>
      </trkpt>
      <trkpt lat="48.32991" lon="-3.18703">
        <ele>141</ele>
        <time>2013-11-17T10:41:59.1Z</time>
      </trkpt>
      <trkpt lat="48.32991" lon="-3.18705">
        <ele>141</ele>
        <time>2013-11-17T10:42:02.1Z</time>
      </trkpt>
      <trkpt lat="48.32991" lon="-3.18707">
        <ele>141</ele>
        <time>2013-11-17T10:42:04.1Z</time>
      </trkpt>
      <trkpt lat="48.32991" lon="-3.18708">
        <ele>141</ele>
        <time>2013-11-17T10:42:07.1Z</time>
      </trkpt>
      <trkpt lat="48.32988" lon="-3.18709">
        <ele>141</ele>
        <time>2013-11-17T10:42:10.1Z</time>
      </trkpt>
      <trkpt lat="48.32987" lon="-3.18709">
        <ele>141</ele>
        <time>2013-11-17T10:42:13.1Z</time>
      </trkpt>
      <trkpt lat="48.32986" lon="-3.18711">
        <ele>141</ele>
        <time>2013-11-17T10:42:16.1Z</time>
      </trkpt>
      <trkpt lat="48.32986" lon="-3.18713">
        <ele>141</ele>
        <time>2013-11-17T10:42:19.1Z</time>
      </trkpt>
      <trkpt lat="48.32984" lon="-3.18715">
        <ele>141</ele>
        <time>2013-11-17T10:42:22.1Z</time>
      </trkpt>
      <trkpt lat="48.32984" lon="-3.18717">
        <ele>141</ele>
        <time>2013-11-17T10:42:25.1Z</time>
      </trkpt>
      <trkpt lat="48.32984" lon="-3.18719">
        <ele>141</ele>
        <time>2013-11-17T10:42:27.1Z</time>
      </trkpt>
      <trkpt lat="48.32984" lon="-3.18719">
        <ele>141</ele>
        <time>2013-11-17T10:42:29.1Z</time>
      </trkpt>
      <trkpt lat="48.32983" lon="-3.1872">
        <ele>141</ele>
        <time>2013-11-17T10:42:32.1Z</time>
      </trkpt>
      <trkpt lat="48.32983" lon="-3.18721">
        <ele>141</ele>
        <time>2013-11-17T10:42:34.1Z</time>
      </trkpt>
      <trkpt lat="48.32981" lon="-3.18722">
        <ele>140</ele>
        <time>2013-11-17T10:42:37.1Z</time>
      </trkpt>
      <trkpt lat="48.32981" lon="-3.18723">
        <ele>141</ele>
        <time>2013-11-17T10:42:39.1Z</time>
      </trkpt>
      <trkpt lat="48.3298" lon="-3.18725">
        <ele>141</ele>
        <time>2013-11-17T10:42:42.1Z</time>
      </trkpt>
      <trkpt lat="48.32979" lon="-3.18725">
        <ele>141</ele>
        <time>2013-11-17T10:42:44.1Z</time>
      </trkpt>
      <trkpt lat="48.32979" lon="-3.18726">
        <ele>141</ele>
        <time>2013-11-17T10:42:46.1Z</time>
      </trkpt>
      <trkpt lat="48.32978" lon="-3.18727">
        <ele>141</ele>
        <time>2013-11-17T10:42:49.1Z</time>
      </trkpt>
      <trkpt lat="48.32978" lon="-3.18728">
        <ele>141</ele>
        <time>2013-11-17T10:42:52.1Z</time>
      </trkpt>
      <trkpt lat="48.32978" lon="-3.18729">
        <ele>141</ele>
        <time>2013-11-17T10:42:55.1Z</time>
      </trkpt>
      <trkpt lat="48.32979" lon="-3.18729">
        <ele>141</ele>
        <time>2013-11-17T10:42:57.1Z</time>
      </trkpt>
      <trkpt lat="48.32979" lon="-3.18729">
        <ele>141</ele>
        <time>2013-11-17T10:42:59.1Z</time>
      </trkpt>
      <trkpt lat="48.32979" lon="-3.18729">
        <ele>141</ele>
        <time>2013-11-17T10:43:02.1Z</time>
      </trkpt>
      <trkpt lat="48.3298" lon="-3.18729">
        <ele>141</ele>
        <time>2013-11-17T10:43:05.1Z</time>
      </trkpt>
      <trkpt lat="48.32981" lon="-3.18728">
        <ele>141</ele>
        <time>2013-11-17T10:43:08.1Z</time>
      </trkpt>
      <trkpt lat="48.32983" lon="-3.18728">
        <ele>141</ele>
        <time>2013-11-17T10:43:11.1Z</time>
      </trkpt>
      <trkpt lat="48.32984" lon="-3.18728">
        <ele>141</ele>
        <time>2013-11-17T10:43:13.1Z</time>
      </trkpt>
      <trkpt lat="48.32984" lon="-3.18728">
        <ele>141</ele>
        <time>2013-11-17T10:43:15.1Z</time>
      </trkpt>
      <trkpt lat="48.32986" lon="-3.18727">
        <ele>141</ele>
        <time>2013-11-17T10:43:18.1Z</time>
      </trkpt>
      <trkpt lat="48.32987" lon="-3.18728">
        <ele>141</ele>
        <time>2013-11-17T10:43:20.1Z</time>
      </trkpt>
      <trkpt lat="48.32986" lon="-3.18728">
        <ele>141</ele>
        <time>2013-11-17T10:43:22.1Z</time>
      </trkpt>
      <trkpt lat="48.32986" lon="-3.18729">
        <ele>141</ele>
        <time>2013-11-17T10:43:25.1Z</time>
      </trkpt>
      <trkpt lat="48.32985" lon="-3.18732">
        <ele>141</ele>
        <time>2013-11-17T10:43:28.1Z</time>
      </trkpt>
      <trkpt lat="48.32985" lon="-3.18735">
        <ele>141</ele>
        <time>2013-11-17T10:43:31.1Z</time>
      </trkpt>
      <trkpt lat="48.32983" lon="-3.18737">
        <ele>141</ele>
        <time>2013-11-17T10:43:33.1Z</time>
      </trkpt>
      <trkpt lat="48.32983" lon="-3.18737">
        <ele>141</ele>
        <time>2013-11-17T10:43:35.1Z</time>
      </trkpt>
      <trkpt lat="48.32982" lon="-3.18738">
        <ele>140</ele>
        <time>2013-11-17T10:43:38.1Z</time>
      </trkpt>
      <trkpt lat="48.3298" lon="-3.18739">
        <ele>140</ele>
        <time>2013-11-17T10:43:41.1Z</time>
      </trkpt>
      <trkpt lat="48.32979" lon="-3.18742">
        <ele>140</ele>
        <time>2013-11-17T10:43:44.1Z</time>
      </trkpt>
      <trkpt lat="48.32978" lon="-3.18744">
        <ele>140</ele>
        <time>2013-11-17T10:43:47.1Z</time>
      </trkpt>
      <trkpt lat="48.32976" lon="-3.18746">
        <ele>139</ele>
        <time>2013-11-17T10:43:49.1Z</time>
      </trkpt>
      <trkpt lat="48.32975" lon="-3.18749">
        <ele>139</ele>
        <time>2013-11-17T10:43:52.1Z</time>
      </trkpt>
      <trkpt lat="48.32973" lon="-3.18751">
        <ele>139</ele>
        <time>2013-11-17T10:43:54.1Z</time>
      </trkpt>
      <trkpt lat="48.32972" lon="-3.18751">
        <ele>139</ele>
        <time>2013-11-17T10:43:56.1Z</time>
      </trkpt>
      <trkpt lat="48.32971" lon="-3.18751">
        <ele>138</ele>
        <time>2013-11-17T10:43:59.1Z</time>
      </trkpt>
      <trkpt lat="48.32969" lon="-3.18752">
        <ele>138</ele>
        <time>2013-11-17T10:44:02.1Z</time>
      </trkpt>
      <trkpt lat="48.32967" lon="-3.18753">
        <ele>139</ele>
        <time>2013-11-17T10:44:05.1Z</time>
      </trkpt>
      <trkpt lat="48.32966" lon="-3.18753">
        <ele>139</ele>
        <time>2013-11-17T10:44:07.1Z</time>
      </trkpt>
      <trkpt lat="48.32964" lon="-3.18755">
        <ele>139</ele>
        <time>2013-11-17T10:44:10.1Z</time>
      </trkpt>
      <trkpt lat="48.32962" lon="-3.18756">
        <ele>139</ele>
        <time>2013-11-17T10:44:12.1Z</time>
      </trkpt>
      <trkpt lat="48.32959" lon="-3.18758">
        <ele>139</ele>
        <time>2013-11-17T10:44:14.1Z</time>
      </trkpt>
      <trkpt lat="48.32956" lon="-3.1876">
        <ele>139</ele>
        <time>2013-11-17T10:44:17.1Z</time>
      </trkpt>
      <trkpt lat="48.32954" lon="-3.18764">
        <ele>140</ele>
        <time>2013-11-17T10:44:20.1Z</time>
      </trkpt>
      <trkpt lat="48.32952" lon="-3.18768">
        <ele>139</ele>
        <time>2013-11-17T10:44:23.1Z</time>
      </trkpt>
      <trkpt lat="48.32952" lon="-3.18771">
        <ele>139</ele>
        <time>2013-11-17T10:44:25.1Z</time>
      </trkpt>
      <trkpt lat="48.32952" lon="-3.18773">
        <ele>139</ele>
        <time>2013-11-17T10:44:27.1Z</time>
      </trkpt>
      <trkpt lat="48.32949" lon="-3.18776">
        <ele>139</ele>
        <time>2013-11-17T10:44:30.1Z</time>
      </trkpt>
      <trkpt lat="48.32947" lon="-3.1878">
        <ele>139</ele>
        <time>2013-11-17T10:44:33.1Z</time>
      </trkpt>
      <trkpt lat="48.32944" lon="-3.18783">
        <ele>138</ele>
        <time>2013-11-17T10:44:36.1Z</time>
      </trkpt>
      <trkpt lat="48.32942" lon="-3.18786">
        <ele>138</ele>
        <time>2013-11-17T10:44:39.1Z</time>
      </trkpt>
      <trkpt lat="48.32938" lon="-3.1879">
        <ele>138</ele>
        <time>2013-11-17T10:44:42.1Z</time>
      </trkpt>
      <trkpt lat="48.32935" lon="-3.18792">
        <ele>138</ele>
        <time>2013-11-17T10:44:45.1Z</time>
      </trkpt>
      <trkpt lat="48.32932" lon="-3.18794">
        <ele>138</ele>
        <time>2013-11-17T10:44:48.1Z</time>
      </trkpt>
      <trkpt lat="48.3293" lon="-3.18796">
        <ele>138</ele>
        <time>2013-11-17T10:44:50.1Z</time>
      </trkpt>
      <trkpt lat="48.32928" lon="-3.18797">
        <ele>138</ele>
        <time>2013-11-17T10:44:52.1Z</time>
      </trkpt>
      <trkpt lat="48.32924" lon="-3.18798">
        <ele>138</ele>
        <time>2013-11-17T10:44:55.1Z</time>
      </trkpt>
      <trkpt lat="48.32921" lon="-3.18799">
        <ele>138</ele>
        <time>2013-11-17T10:44:57.1Z</time>
      </trkpt>
      <trkpt lat="48.32918" lon="-3.18801">
        <ele>138</ele>
        <time>2013-11-17T10:45:00.1Z</time>
      </trkpt>
      <trkpt lat="48.32916" lon="-3.18804">
        <ele>138</ele>
        <time>2013-11-17T10:45:02.1Z</time>
      </trkpt>
      <trkpt lat="48.32915" lon="-3.18806">
        <ele>138</ele>
        <time>2013-11-17T10:45:04.1Z</time>
      </trkpt>
      <trkpt lat="48.32914" lon="-3.1881">
        <ele>138</ele>
        <time>2013-11-17T10:45:07.1Z</time>
      </trkpt>
      <trkpt lat="48.32913" lon="-3.18813">
        <ele>138</ele>
        <time>2013-11-17T10:45:09.1Z</time>
      </trkpt>
      <trkpt lat="48.32912" lon="-3.18815">
        <ele>138</ele>
        <time>2013-11-17T10:45:11.1Z</time>
      </trkpt>
      <trkpt lat="48.32911" lon="-3.1882">
        <ele>138</ele>
        <time>2013-11-17T10:45:14.1Z</time>
      </trkpt>
      <trkpt lat="48.32911" lon="-3.18823">
        <ele>138</ele>
        <time>2013-11-17T10:45:16.1Z</time>
      </trkpt>
      <trkpt lat="48.32909" lon="-3.18828">
        <ele>138</ele>
        <time>2013-11-17T10:45:19.1Z</time>
      </trkpt>
      <trkpt lat="48.32907" lon="-3.18831">
        <ele>139</ele>
        <time>2013-11-17T10:45:22.1Z</time>
      </trkpt>
      <trkpt lat="48.32905" lon="-3.18835">
        <ele>139</ele>
        <time>2013-11-17T10:45:25.1Z</time>
      </trkpt>
      <trkpt lat="48.32904" lon="-3.18838">
        <ele>139</ele>
        <time>2013-11-17T10:45:27.1Z</time>
      </trkpt>
      <trkpt lat="48.32905" lon="-3.18841">
        <ele>139</ele>
        <time>2013-11-17T10:45:30.1Z</time>
      </trkpt>
      <trkpt lat="48.32904" lon="-3.18844">
        <ele>140</ele>
        <time>2013-11-17T10:45:33.1Z</time>
      </trkpt>
      <trkpt lat="48.32903" lon="-3.18848">
        <ele>140</ele>
        <time>2013-11-17T10:45:36.1Z</time>
      </trkpt>
      <trkpt lat="48.32902" lon="-3.18851">
        <ele>140</ele>
        <time>2013-11-17T10:45:39.1Z</time>
      </trkpt>
      <trkpt lat="48.32901" lon="-3.18855">
        <ele>140</ele>
        <time>2013-11-17T10:45:42.1Z</time>
      </trkpt>
      <trkpt lat="48.329" lon="-3.18858">
        <ele>141</ele>
        <time>2013-11-17T10:45:45.1Z</time>
      </trkpt>
      <trkpt lat="48.32898" lon="-3.18861">
        <ele>141</ele>
        <time>2013-11-17T10:45:48.1Z</time>
      </trkpt>
      <trkpt lat="48.32896" lon="-3.18865">
        <ele>141</ele>
        <time>2013-11-17T10:45:51.1Z</time>
      </trkpt>
      <trkpt lat="48.32894" lon="-3.18867">
        <ele>141</ele>
        <time>2013-11-17T10:45:54.1Z</time>
      </trkpt>
      <trkpt lat="48.32891" lon="-3.1887">
        <ele>141</ele>
        <time>2013-11-17T10:45:57.1Z</time>
      </trkpt>
      <trkpt lat="48.32889" lon="-3.18873">
        <ele>141</ele>
        <time>2013-11-17T10:45:59.1Z</time>
      </trkpt>
      <trkpt lat="48.32886" lon="-3.18876">
        <ele>141</ele>
        <time>2013-11-17T10:46:02.1Z</time>
      </trkpt>
      <trkpt lat="48.32884" lon="-3.18879">
        <ele>140</ele>
        <time>2013-11-17T10:46:05.1Z</time>
      </trkpt>
      <trkpt lat="48.32882" lon="-3.18883">
        <ele>140</ele>
        <time>2013-11-17T10:46:08.1Z</time>
      </trkpt>
      <trkpt lat="48.32881" lon="-3.18887">
        <ele>140</ele>
        <time>2013-11-17T10:46:11.1Z</time>
      </trkpt>
      <trkpt lat="48.3288" lon="-3.18889">
        <ele>140</ele>
        <time>2013-11-17T10:46:14.1Z</time>
      </trkpt>
      <trkpt lat="48.32879" lon="-3.18892">
        <ele>139</ele>
        <time>2013-11-17T10:46:16.1Z</time>
      </trkpt>
      <trkpt lat="48.32877" lon="-3.18896">
        <ele>139</ele>
        <time>2013-11-17T10:46:19.1Z</time>
      </trkpt>
      <trkpt lat="48.32876" lon="-3.18899">
        <ele>139</ele>
        <time>2013-11-17T10:46:22.1Z</time>
      </trkpt>
      <trkpt lat="48.32874" lon="-3.18904">
        <ele>138</ele>
        <time>2013-11-17T10:46:25.1Z</time>
      </trkpt>
      <trkpt lat="48.32872" lon="-3.18907">
        <ele>139</ele>
        <time>2013-11-17T10:46:28.1Z</time>
      </trkpt>
      <trkpt lat="48.32871" lon="-3.18908">
        <ele>139</ele>
        <time>2013-11-17T10:46:30.1Z</time>
      </trkpt>
      <trkpt lat="48.32868" lon="-3.18911">
        <ele>139</ele>
        <time>2013-11-17T10:46:33.1Z</time>
      </trkpt>
      <trkpt lat="48.32867" lon="-3.18913">
        <ele>139</ele>
        <time>2013-11-17T10:46:36.1Z</time>
      </trkpt>
      <trkpt lat="48.32864" lon="-3.18916">
        <ele>138</ele>
        <time>2013-11-17T10:46:39.1Z</time>
      </trkpt>
      <trkpt lat="48.32862" lon="-3.18917">
        <ele>138</ele>
        <time>2013-11-17T10:46:41.1Z</time>
      </trkpt>
      <trkpt lat="48.32859" lon="-3.18919">
        <ele>138</ele>
        <time>2013-11-17T10:46:44.1Z</time>
      </trkpt>
      <trkpt lat="48.32858" lon="-3.18921">
        <ele>138</ele>
        <time>2013-11-17T10:46:46.1Z</time>
      </trkpt>
      <trkpt lat="48.32855" lon="-3.18923">
        <ele>139</ele>
        <time>2013-11-17T10:46:49.1Z</time>
      </trkpt>
      <trkpt lat="48.32854" lon="-3.18924">
        <ele>139</ele>
        <time>2013-11-17T10:46:51.1Z</time>
      </trkpt>
      <trkpt lat="48.32851" lon="-3.18927">
        <ele>139</ele>
        <time>2013-11-17T10:46:54.1Z</time>
      </trkpt>
      <trkpt lat="48.32848" lon="-3.1893">
        <ele>139</ele>
        <time>2013-11-17T10:46:57.1Z</time>
      </trkpt>
      <trkpt lat="48.32846" lon="-3.18931">
        <ele>139</ele>
        <time>2013-11-17T10:46:59.1Z</time>
      </trkpt>
      <trkpt lat="48.32843" lon="-3.18932">
        <ele>139</ele>
        <time>2013-11-17T10:47:01.1Z</time>
      </trkpt>
      <trkpt lat="48.32843" lon="-3.18935">
        <ele>139</ele>
        <time>2013-11-17T10:47:04.1Z</time>
      </trkpt>
      <trkpt lat="48.3284" lon="-3.18937">
        <ele>139</ele>
        <time>2013-11-17T10:47:07.1Z</time>
      </trkpt>
      <trkpt lat="48.32838" lon="-3.18939">
        <ele>139</ele>
        <time>2013-11-17T10:47:09.1Z</time>
      </trkpt>
      <trkpt lat="48.32836" lon="-3.18941">
        <ele>139</ele>
        <time>2013-11-17T10:47:11.1Z</time>
      </trkpt>
      <trkpt lat="48.32833" lon="-3.18944">
        <ele>139</ele>
        <time>2013-11-17T10:47:14.1Z</time>
      </trkpt>
      <trkpt lat="48.3283" lon="-3.18946">
        <ele>139</ele>
        <time>2013-11-17T10:47:17.1Z</time>
      </trkpt>
      <trkpt lat="48.32828" lon="-3.1895">
        <ele>139</ele>
        <time>2013-11-17T10:47:20.1Z</time>
      </trkpt>
      <trkpt lat="48.32827" lon="-3.18952">
        <ele>139</ele>
        <time>2013-11-17T10:47:22.1Z</time>
      </trkpt>
      <trkpt lat="48.32825" lon="-3.18954">
        <ele>139</ele>
        <time>2013-11-17T10:47:25.1Z</time>
      </trkpt>
      <trkpt lat="48.32824" lon="-3.18955">
        <ele>139</ele>
        <time>2013-11-17T10:47:27.1Z</time>
      </trkpt>
      <trkpt lat="48.32823" lon="-3.18956">
        <ele>139</ele>
        <time>2013-11-17T10:47:29.1Z</time>
      </trkpt>
      <trkpt lat="48.32821" lon="-3.18959">
        <ele>139</ele>
        <time>2013-11-17T10:47:32.1Z</time>
      </trkpt>
      <trkpt lat="48.32819" lon="-3.18962">
        <ele>139</ele>
        <time>2013-11-17T10:47:34.1Z</time>
      </trkpt>
      <trkpt lat="48.32816" lon="-3.18966">
        <ele>139</ele>
        <time>2013-11-17T10:47:37.1Z</time>
      </trkpt>
      <trkpt lat="48.32814" lon="-3.18967">
        <ele>139</ele>
        <time>2013-11-17T10:47:39.1Z</time>
      </trkpt>
      <trkpt lat="48.32813" lon="-3.18968">
        <ele>139</ele>
        <time>2013-11-17T10:47:41.1Z</time>
      </trkpt>
      <trkpt lat="48.32811" lon="-3.1897">
        <ele>139</ele>
        <time>2013-11-17T10:47:43.1Z</time>
      </trkpt>
      <trkpt lat="48.32807" lon="-3.18973">
        <ele>139</ele>
        <time>2013-11-17T10:47:46.1Z</time>
      </trkpt>
      <trkpt lat="48.32803" lon="-3.18975">
        <ele>139</ele>
        <time>2013-11-17T10:47:48.1Z</time>
      </trkpt>
      <trkpt lat="48.32799" lon="-3.18977">
        <ele>139</ele>
        <time>2013-11-17T10:47:51.1Z</time>
      </trkpt>
      <trkpt lat="48.32797" lon="-3.18977">
        <ele>139</ele>
        <time>2013-11-17T10:47:53.1Z</time>
      </trkpt>
      <trkpt lat="48.32793" lon="-3.18978">
        <ele>139</ele>
        <time>2013-11-17T10:47:55.1Z</time>
      </trkpt>
      <trkpt lat="48.32791" lon="-3.18979">
        <ele>139</ele>
        <time>2013-11-17T10:47:57.1Z</time>
      </trkpt>
      <trkpt lat="48.32787" lon="-3.1898">
        <ele>139</ele>
        <time>2013-11-17T10:48:00.1Z</time>
      </trkpt>
      <trkpt lat="48.32784" lon="-3.18981">
        <ele>139</ele>
        <time>2013-11-17T10:48:02.1Z</time>
      </trkpt>
      <trkpt lat="48.32782" lon="-3.18981">
        <ele>139</ele>
        <time>2013-11-17T10:48:04.1Z</time>
      </trkpt>
      <trkpt lat="48.3278" lon="-3.18982">
        <ele>139</ele>
        <time>2013-11-17T10:48:06.1Z</time>
      </trkpt>
      <trkpt lat="48.32777" lon="-3.18983">
        <ele>139</ele>
        <time>2013-11-17T10:48:09.1Z</time>
      </trkpt>
      <trkpt lat="48.32773" lon="-3.18984">
        <ele>139</ele>
        <time>2013-11-17T10:48:12.1Z</time>
      </trkpt>
      <trkpt lat="48.3277" lon="-3.18985">
        <ele>138</ele>
        <time>2013-11-17T10:48:14.1Z</time>
      </trkpt>
      <trkpt lat="48.32767" lon="-3.18986">
        <ele>138</ele>
        <time>2013-11-17T10:48:17.1Z</time>
      </trkpt>
      <trkpt lat="48.32764" lon="-3.18986">
        <ele>138</ele>
        <time>2013-11-17T10:48:19.1Z</time>
      </trkpt>
      <trkpt lat="48.32762" lon="-3.18986">
        <ele>138</ele>
        <time>2013-11-17T10:48:21.1Z</time>
      </trkpt>
      <trkpt lat="48.32759" lon="-3.18985">
        <ele>138</ele>
        <time>2013-11-17T10:48:23.1Z</time>
      </trkpt>
      <trkpt lat="48.32757" lon="-3.18985">
        <ele>139</ele>
        <time>2013-11-17T10:48:25.1Z</time>
      </trkpt>
      <trkpt lat="48.32753" lon="-3.18984">
        <ele>138</ele>
        <time>2013-11-17T10:48:28.1Z</time>
      </trkpt>
      <trkpt lat="48.3275" lon="-3.18984">
        <ele>138</ele>
        <time>2013-11-17T10:48:30.1Z</time>
      </trkpt>
      <trkpt lat="48.32747" lon="-3.18985">
        <ele>138</ele>
        <time>2013-11-17T10:48:32.1Z</time>
      </trkpt>
      <trkpt lat="48.32745" lon="-3.18986">
        <ele>138</ele>
        <time>2013-11-17T10:48:34.1Z</time>
      </trkpt>
      <trkpt lat="48.32743" lon="-3.18987">
        <ele>138</ele>
        <time>2013-11-17T10:48:37.1Z</time>
      </trkpt>
      <trkpt lat="48.32741" lon="-3.18987">
        <ele>138</ele>
        <time>2013-11-17T10:48:39.1Z</time>
      </trkpt>
      <trkpt lat="48.32739" lon="-3.18988">
        <ele>138</ele>
        <time>2013-11-17T10:48:42.1Z</time>
      </trkpt>
      <trkpt lat="48.32738" lon="-3.18988">
        <ele>138</ele>
        <time>2013-11-17T10:48:44.1Z</time>
      </trkpt>
      <trkpt lat="48.32737" lon="-3.18988">
        <ele>138</ele>
        <time>2013-11-17T10:48:47.1Z</time>
      </trkpt>
      <trkpt lat="48.32735" lon="-3.18988">
        <ele>138</ele>
        <time>2013-11-17T10:48:49.1Z</time>
      </trkpt>
      <trkpt lat="48.32733" lon="-3.18989">
        <ele>138</ele>
        <time>2013-11-17T10:48:52.1Z</time>
      </trkpt>
      <trkpt lat="48.32731" lon="-3.18989">
        <ele>138</ele>
        <time>2013-11-17T10:48:54.1Z</time>
      </trkpt>
      <trkpt lat="48.32728" lon="-3.18989">
        <ele>138</ele>
        <time>2013-11-17T10:48:56.1Z</time>
      </trkpt>
      <trkpt lat="48.32726" lon="-3.1899">
        <ele>138</ele>
        <time>2013-11-17T10:48:58.1Z</time>
      </trkpt>
      <trkpt lat="48.3272" lon="-3.1899">
        <ele>138</ele>
        <time>2013-11-17T10:49:01.1Z</time>
      </trkpt>
      <trkpt lat="48.32716" lon="-3.1899">
        <ele>138</ele>
        <time>2013-11-17T10:49:03.1Z</time>
      </trkpt>
      <trkpt lat="48.32713" lon="-3.1899">
        <ele>137</ele>
        <time>2013-11-17T10:49:05.1Z</time>
      </trkpt>
      <trkpt lat="48.3271" lon="-3.1899">
        <ele>138</ele>
        <time>2013-11-17T10:49:07.1Z</time>
      </trkpt>
      <trkpt lat="48.32708" lon="-3.1899">
        <ele>138</ele>
        <time>2013-11-17T10:49:09.1Z</time>
      </trkpt>
      <trkpt lat="48.32703" lon="-3.1899">
        <ele>138</ele>
        <time>2013-11-17T10:49:12.1Z</time>
      </trkpt>
      <trkpt lat="48.32701" lon="-3.18989">
        <ele>138</ele>
        <time>2013-11-17T10:49:15.1Z</time>
      </trkpt>
      <trkpt lat="48.32699" lon="-3.18988">
        <ele>138</ele>
        <time>2013-11-17T10:49:17.1Z</time>
      </trkpt>
      <trkpt lat="48.32697" lon="-3.18987">
        <ele>138</ele>
        <time>2013-11-17T10:49:19.1Z</time>
      </trkpt>
      <trkpt lat="48.32694" lon="-3.18986">
        <ele>138</ele>
        <time>2013-11-17T10:49:22.1Z</time>
      </trkpt>
      <trkpt lat="48.32692" lon="-3.18985">
        <ele>138</ele>
        <time>2013-11-17T10:49:24.1Z</time>
      </trkpt>
      <trkpt lat="48.3269" lon="-3.18983">
        <ele>138</ele>
        <time>2013-11-17T10:49:26.1Z</time>
      </trkpt>
      <trkpt lat="48.32689" lon="-3.18981">
        <ele>138</ele>
        <time>2013-11-17T10:49:28.1Z</time>
      </trkpt>
      <trkpt lat="48.32687" lon="-3.18979">
        <ele>138</ele>
        <time>2013-11-17T10:49:30.1Z</time>
      </trkpt>
      <trkpt lat="48.32685" lon="-3.18978">
        <ele>138</ele>
        <time>2013-11-17T10:49:32.1Z</time>
      </trkpt>
      <trkpt lat="48.32683" lon="-3.18976">
        <ele>138</ele>
        <time>2013-11-17T10:49:34.1Z</time>
      </trkpt>
      <trkpt lat="48.32681" lon="-3.18974">
        <ele>138</ele>
        <time>2013-11-17T10:49:37.1Z</time>
      </trkpt>
      <trkpt lat="48.3268" lon="-3.18972">
        <ele>138</ele>
        <time>2013-11-17T10:49:40.1Z</time>
      </trkpt>
      <trkpt lat="48.32678" lon="-3.18969">
        <ele>138</ele>
        <time>2013-11-17T10:49:43.1Z</time>
      </trkpt>
      <trkpt lat="48.32675" lon="-3.18968">
        <ele>138</ele>
        <time>2013-11-17T10:49:46.1Z</time>
      </trkpt>
      <trkpt lat="48.32674" lon="-3.18966">
        <ele>138</ele>
        <time>2013-11-17T10:49:48.1Z</time>
      </trkpt>
      <trkpt lat="48.32671" lon="-3.18964">
        <ele>138</ele>
        <time>2013-11-17T10:49:51.1Z</time>
      </trkpt>
      <trkpt lat="48.3267" lon="-3.18963">
        <ele>138</ele>
        <time>2013-11-17T10:49:53.1Z</time>
      </trkpt>
      <trkpt lat="48.32669" lon="-3.18959">
        <ele>138</ele>
        <time>2013-11-17T10:49:56.1Z</time>
      </trkpt>
      <trkpt lat="48.32667" lon="-3.18958">
        <ele>137</ele>
        <time>2013-11-17T10:49:58.1Z</time>
      </trkpt>
      <trkpt lat="48.32666" lon="-3.18957">
        <ele>138</ele>
        <time>2013-11-17T10:50:00.1Z</time>
      </trkpt>
      <trkpt lat="48.32665" lon="-3.18954">
        <ele>138</ele>
        <time>2013-11-17T10:50:03.1Z</time>
      </trkpt>
      <trkpt lat="48.32664" lon="-3.18952">
        <ele>138</ele>
        <time>2013-11-17T10:50:06.1Z</time>
      </trkpt>
      <trkpt lat="48.32663" lon="-3.1895">
        <ele>138</ele>
        <time>2013-11-17T10:50:08.1Z</time>
      </trkpt>
      <trkpt lat="48.32661" lon="-3.18947">
        <ele>138</ele>
        <time>2013-11-17T10:50:11.1Z</time>
      </trkpt>
      <trkpt lat="48.32661" lon="-3.18945">
        <ele>137</ele>
        <time>2013-11-17T10:50:13.1Z</time>
      </trkpt>
      <trkpt lat="48.32659" lon="-3.18943">
        <ele>138</ele>
        <time>2013-11-17T10:50:16.1Z</time>
      </trkpt>
      <trkpt lat="48.32658" lon="-3.18941">
        <ele>137</ele>
        <time>2013-11-17T10:50:18.1Z</time>
      </trkpt>
      <trkpt lat="48.32656" lon="-3.18938">
        <ele>137</ele>
        <time>2013-11-17T10:50:21.1Z</time>
      </trkpt>
      <trkpt lat="48.32653" lon="-3.18937">
        <ele>137</ele>
        <time>2013-11-17T10:50:23.1Z</time>
      </trkpt>
      <trkpt lat="48.32651" lon="-3.18935">
        <ele>137</ele>
        <time>2013-11-17T10:50:25.1Z</time>
      </trkpt>
      <trkpt lat="48.32648" lon="-3.18932">
        <ele>137</ele>
        <time>2013-11-17T10:50:28.1Z</time>
      </trkpt>
      <trkpt lat="48.32644" lon="-3.18931">
        <ele>137</ele>
        <time>2013-11-17T10:50:30.1Z</time>
      </trkpt>
      <trkpt lat="48.32641" lon="-3.1893">
        <ele>137</ele>
        <time>2013-11-17T10:50:32.1Z</time>
      </trkpt>
      <trkpt lat="48.32638" lon="-3.18929">
        <ele>137</ele>
        <time>2013-11-17T10:50:34.1Z</time>
      </trkpt>
      <trkpt lat="48.32634" lon="-3.18928">
        <ele>137</ele>
        <time>2013-11-17T10:50:37.1Z</time>
      </trkpt>
      <trkpt lat="48.32629" lon="-3.18927">
        <ele>137</ele>
        <time>2013-11-17T10:50:40.1Z</time>
      </trkpt>
      <trkpt lat="48.32627" lon="-3.18926">
        <ele>137</ele>
        <time>2013-11-17T10:50:42.1Z</time>
      </trkpt>
      <trkpt lat="48.32624" lon="-3.18923">
        <ele>137</ele>
        <time>2013-11-17T10:50:45.1Z</time>
      </trkpt>
      <trkpt lat="48.32621" lon="-3.1892">
        <ele>137</ele>
        <time>2013-11-17T10:50:48.1Z</time>
      </trkpt>
      <trkpt lat="48.32618" lon="-3.18917">
        <ele>137</ele>
        <time>2013-11-17T10:50:51.1Z</time>
      </trkpt>
      <trkpt lat="48.32616" lon="-3.18914">
        <ele>137</ele>
        <time>2013-11-17T10:50:54.1Z</time>
      </trkpt>
      <trkpt lat="48.32613" lon="-3.18911">
        <ele>137</ele>
        <time>2013-11-17T10:50:57.1Z</time>
      </trkpt>
      <trkpt lat="48.32611" lon="-3.18909">
        <ele>137</ele>
        <time>2013-11-17T10:50:59.1Z</time>
      </trkpt>
      <trkpt lat="48.32608" lon="-3.18905">
        <ele>137</ele>
        <time>2013-11-17T10:51:02.1Z</time>
      </trkpt>
      <trkpt lat="48.32605" lon="-3.18903">
        <ele>137</ele>
        <time>2013-11-17T10:51:05.1Z</time>
      </trkpt>
      <trkpt lat="48.32603" lon="-3.18902">
        <ele>137</ele>
        <time>2013-11-17T10:51:07.1Z</time>
      </trkpt>
      <trkpt lat="48.32601" lon="-3.189">
        <ele>136</ele>
        <time>2013-11-17T10:51:10.1Z</time>
      </trkpt>
      <trkpt lat="48.326" lon="-3.18898">
        <ele>137</ele>
        <time>2013-11-17T10:51:13.1Z</time>
      </trkpt>
      <trkpt lat="48.32598" lon="-3.18897">
        <ele>137</ele>
        <time>2013-11-17T10:51:15.1Z</time>
      </trkpt>
      <trkpt lat="48.32595" lon="-3.18895">
        <ele>137</ele>
        <time>2013-11-17T10:51:18.1Z</time>
      </trkpt>
      <trkpt lat="48.32593" lon="-3.18893">
        <ele>137</ele>
        <time>2013-11-17T10:51:20.1Z</time>
      </trkpt>
      <trkpt lat="48.3259" lon="-3.18889">
        <ele>137</ele>
        <time>2013-11-17T10:51:23.1Z</time>
      </trkpt>
      <trkpt lat="48.32588" lon="-3.18885">
        <ele>137</ele>
        <time>2013-11-17T10:51:26.1Z</time>
      </trkpt>
      <trkpt lat="48.32584" lon="-3.18885">
        <ele>136</ele>
        <time>2013-11-17T10:51:29.1Z</time>
      </trkpt>
      <trkpt lat="48.32581" lon="-3.18885">
        <ele>136</ele>
        <time>2013-11-17T10:51:31.1Z</time>
      </trkpt>
      <trkpt lat="48.32578" lon="-3.18883">
        <ele>136</ele>
        <time>2013-11-17T10:51:34.1Z</time>
      </trkpt>
      <trkpt lat="48.32574" lon="-3.1888">
        <ele>137</ele>
        <time>2013-11-17T10:51:37.1Z</time>
      </trkpt>
      <trkpt lat="48.32571" lon="-3.18876">
        <ele>137</ele>
        <time>2013-11-17T10:51:40.1Z</time>
      </trkpt>
      <trkpt lat="48.3257" lon="-3.18874">
        <ele>137</ele>
        <time>2013-11-17T10:51:42.1Z</time>
      </trkpt>
      <trkpt lat="48.32567" lon="-3.18871">
        <ele>137</ele>
        <time>2013-11-17T10:51:45.1Z</time>
      </trkpt>
      <trkpt lat="48.32566" lon="-3.18868">
        <ele>136</ele>
        <time>2013-11-17T10:51:47.1Z</time>
      </trkpt>
      <trkpt lat="48.32563" lon="-3.18865">
        <ele>137</ele>
        <time>2013-11-17T10:51:50.1Z</time>
      </trkpt>
      <trkpt lat="48.32559" lon="-3.18862">
        <ele>137</ele>
        <time>2013-11-17T10:51:53.1Z</time>
      </trkpt>
      <trkpt lat="48.32556" lon="-3.18858">
        <ele>137</ele>
        <time>2013-11-17T10:51:56.1Z</time>
      </trkpt>
      <trkpt lat="48.32555" lon="-3.18855">
        <ele>137</ele>
        <time>2013-11-17T10:51:58.1Z</time>
      </trkpt>
      <trkpt lat="48.32553" lon="-3.18854">
        <ele>137</ele>
        <time>2013-11-17T10:52:00.1Z</time>
      </trkpt>
      <trkpt lat="48.3255" lon="-3.18851">
        <ele>137</ele>
        <time>2013-11-17T10:52:03.1Z</time>
      </trkpt>
      <trkpt lat="48.32547" lon="-3.18849">
        <ele>137</ele>
        <time>2013-11-17T10:52:05.1Z</time>
      </trkpt>
      <trkpt lat="48.32546" lon="-3.18846">
        <ele>136</ele>
        <time>2013-11-17T10:52:08.1Z</time>
      </trkpt>
      <trkpt lat="48.32542" lon="-3.18844">
        <ele>136</ele>
        <time>2013-11-17T10:52:11.1Z</time>
      </trkpt>
      <trkpt lat="48.32541" lon="-3.18842">
        <ele>136</ele>
        <time>2013-11-17T10:52:13.1Z</time>
      </trkpt>
      <trkpt lat="48.32538" lon="-3.18839">
        <ele>136</ele>
        <time>2013-11-17T10:52:16.1Z</time>
      </trkpt>
      <trkpt lat="48.32534" lon="-3.18836">
        <ele>136</ele>
        <time>2013-11-17T10:52:19.1Z</time>
      </trkpt>
      <trkpt lat="48.32531" lon="-3.18832">
        <ele>136</ele>
        <time>2013-11-17T10:52:22.1Z</time>
      </trkpt>
      <trkpt lat="48.32529" lon="-3.18829">
        <ele>136</ele>
        <time>2013-11-17T10:52:24.1Z</time>
      </trkpt>
      <trkpt lat="48.32525" lon="-3.18827">
        <ele>136</ele>
        <time>2013-11-17T10:52:27.1Z</time>
      </trkpt>
      <trkpt lat="48.32523" lon="-3.18824">
        <ele>136</ele>
        <time>2013-11-17T10:52:30.1Z</time>
      </trkpt>
      <trkpt lat="48.32521" lon="-3.18822">
        <ele>136</ele>
        <time>2013-11-17T10:52:33.1Z</time>
      </trkpt>
      <trkpt lat="48.32519" lon="-3.1882">
        <ele>136</ele>
        <time>2013-11-17T10:52:35.1Z</time>
      </trkpt>
      <trkpt lat="48.32517" lon="-3.18819">
        <ele>136</ele>
        <time>2013-11-17T10:52:37.1Z</time>
      </trkpt>
      <trkpt lat="48.32513" lon="-3.18818">
        <ele>136</ele>
        <time>2013-11-17T10:52:40.1Z</time>
      </trkpt>
      <trkpt lat="48.3251" lon="-3.18817">
        <ele>136</ele>
        <time>2013-11-17T10:52:42.1Z</time>
      </trkpt>
      <trkpt lat="48.32506" lon="-3.18814">
        <ele>136</ele>
        <time>2013-11-17T10:52:45.1Z</time>
      </trkpt>
      <trkpt lat="48.32503" lon="-3.18812">
        <ele>136</ele>
        <time>2013-11-17T10:52:47.1Z</time>
      </trkpt>
      <trkpt lat="48.32499" lon="-3.18807">
        <ele>136</ele>
        <time>2013-11-17T10:52:50.1Z</time>
      </trkpt>
      <trkpt lat="48.32497" lon="-3.18805">
        <ele>136</ele>
        <time>2013-11-17T10:52:52.1Z</time>
      </trkpt>
      <trkpt lat="48.32492" lon="-3.18801">
        <ele>136</ele>
        <time>2013-11-17T10:52:55.1Z</time>
      </trkpt>
      <trkpt lat="48.3249" lon="-3.18799">
        <ele>136</ele>
        <time>2013-11-17T10:52:57.1Z</time>
      </trkpt>
      <trkpt lat="48.32487" lon="-3.18796">
        <ele>136</ele>
        <time>2013-11-17T10:53:00.1Z</time>
      </trkpt>
      <trkpt lat="48.32483" lon="-3.18794">
        <ele>136</ele>
        <time>2013-11-17T10:53:03.1Z</time>
      </trkpt>
      <trkpt lat="48.32481" lon="-3.18793">
        <ele>136</ele>
        <time>2013-11-17T10:53:05.1Z</time>
      </trkpt>
      <trkpt lat="48.32478" lon="-3.18792">
        <ele>136</ele>
        <time>2013-11-17T10:53:08.1Z</time>
      </trkpt>
      <trkpt lat="48.32475" lon="-3.18789">
        <ele>136</ele>
        <time>2013-11-17T10:53:11.1Z</time>
      </trkpt>
      <trkpt lat="48.32472" lon="-3.18787">
        <ele>136</ele>
        <time>2013-11-17T10:53:14.1Z</time>
      </trkpt>
      <trkpt lat="48.3247" lon="-3.18786">
        <ele>136</ele>
        <time>2013-11-17T10:53:16.1Z</time>
      </trkpt>
      <trkpt lat="48.32469" lon="-3.18784">
        <ele>136</ele>
        <time>2013-11-17T10:53:18.1Z</time>
      </trkpt>
      <trkpt lat="48.32467" lon="-3.18783">
        <ele>136</ele>
        <time>2013-11-17T10:53:21.1Z</time>
      </trkpt>
      <trkpt lat="48.32466" lon="-3.18782">
        <ele>135</ele>
        <time>2013-11-17T10:53:23.1Z</time>
      </trkpt>
      <trkpt lat="48.32463" lon="-3.18779">
        <ele>135</ele>
        <time>2013-11-17T10:53:26.1Z</time>
      </trkpt>
      <trkpt lat="48.32461" lon="-3.18777">
        <ele>136</ele>
        <time>2013-11-17T10:53:29.1Z</time>
      </trkpt>
      <trkpt lat="48.32459" lon="-3.18775">
        <ele>136</ele>
        <time>2013-11-17T10:53:32.1Z</time>
      </trkpt>
      <trkpt lat="48.32458" lon="-3.18774">
        <ele>135</ele>
        <time>2013-11-17T10:53:34.1Z</time>
      </trkpt>
      <trkpt lat="48.32454" lon="-3.18771">
        <ele>135</ele>
        <time>2013-11-17T10:53:37.1Z</time>
      </trkpt>
      <trkpt lat="48.32452" lon="-3.18769">
        <ele>135</ele>
        <time>2013-11-17T10:53:40.1Z</time>
      </trkpt>
      <trkpt lat="48.32449" lon="-3.18767">
        <ele>136</ele>
        <time>2013-11-17T10:53:43.1Z</time>
      </trkpt>
      <trkpt lat="48.32446" lon="-3.18766">
        <ele>136</ele>
        <time>2013-11-17T10:53:45.1Z</time>
      </trkpt>
      <trkpt lat="48.32444" lon="-3.18764">
        <ele>136</ele>
        <time>2013-11-17T10:53:47.1Z</time>
      </trkpt>
      <trkpt lat="48.32441" lon="-3.18763">
        <ele>136</ele>
        <time>2013-11-17T10:53:49.1Z</time>
      </trkpt>
      <trkpt lat="48.32439" lon="-3.18761">
        <ele>136</ele>
        <time>2013-11-17T10:53:52.1Z</time>
      </trkpt>
      <trkpt lat="48.32437" lon="-3.18759">
        <ele>136</ele>
        <time>2013-11-17T10:53:54.1Z</time>
      </trkpt>
      <trkpt lat="48.32433" lon="-3.18756">
        <ele>136</ele>
        <time>2013-11-17T10:53:57.1Z</time>
      </trkpt>
      <trkpt lat="48.32431" lon="-3.18754">
        <ele>136</ele>
        <time>2013-11-17T10:54:00.1Z</time>
      </trkpt>
      <trkpt lat="48.32429" lon="-3.18752">
        <ele>136</ele>
        <time>2013-11-17T10:54:02.1Z</time>
      </trkpt>
      <trkpt lat="48.32426" lon="-3.1875">
        <ele>136</ele>
        <time>2013-11-17T10:54:05.1Z</time>
      </trkpt>
      <trkpt lat="48.32422" lon="-3.18748">
        <ele>135</ele>
        <time>2013-11-17T10:54:08.1Z</time>
      </trkpt>
      <trkpt lat="48.3242" lon="-3.18747">
        <ele>135</ele>
        <time>2013-11-17T10:54:10.1Z</time>
      </trkpt>
      <trkpt lat="48.32417" lon="-3.18746">
        <ele>135</ele>
        <time>2013-11-17T10:54:12.1Z</time>
      </trkpt>
      <trkpt lat="48.32413" lon="-3.18745">
        <ele>135</ele>
        <time>2013-11-17T10:54:15.1Z</time>
      </trkpt>
      <trkpt lat="48.3241" lon="-3.18743">
        <ele>135</ele>
        <time>2013-11-17T10:54:17.1Z</time>
      </trkpt>
      <trkpt lat="48.32407" lon="-3.18741">
        <ele>135</ele>
        <time>2013-11-17T10:54:20.1Z</time>
      </trkpt>
      <trkpt lat="48.32403" lon="-3.18739">
        <ele>135</ele>
        <time>2013-11-17T10:54:23.1Z</time>
      </trkpt>
      <trkpt lat="48.32401" lon="-3.18739">
        <ele>136</ele>
        <time>2013-11-17T10:54:25.1Z</time>
      </trkpt>
      <trkpt lat="48.32396" lon="-3.18739">
        <ele>135</ele>
        <time>2013-11-17T10:54:28.1Z</time>
      </trkpt>
      <trkpt lat="48.32394" lon="-3.18738">
        <ele>136</ele>
        <time>2013-11-17T10:54:30.1Z</time>
      </trkpt>
      <trkpt lat="48.32391" lon="-3.18739">
        <ele>136</ele>
        <time>2013-11-17T10:54:33.1Z</time>
      </trkpt>
      <trkpt lat="48.32389" lon="-3.18739">
        <ele>136</ele>
        <time>2013-11-17T10:54:35.1Z</time>
      </trkpt>
      <trkpt lat="48.32386" lon="-3.18739">
        <ele>136</ele>
        <time>2013-11-17T10:54:37.1Z</time>
      </trkpt>
      <trkpt lat="48.32383" lon="-3.1874">
        <ele>136</ele>
        <time>2013-11-17T10:54:39.1Z</time>
      </trkpt>
      <trkpt lat="48.3238" lon="-3.1874">
        <ele>136</ele>
        <time>2013-11-17T10:54:41.1Z</time>
      </trkpt>
      <trkpt lat="48.32378" lon="-3.18741">
        <ele>135</ele>
        <time>2013-11-17T10:54:43.1Z</time>
      </trkpt>
      <trkpt lat="48.32375" lon="-3.1874">
        <ele>135</ele>
        <time>2013-11-17T10:54:45.1Z</time>
      </trkpt>
      <trkpt lat="48.3237" lon="-3.18739">
        <ele>136</ele>
        <time>2013-11-17T10:54:48.1Z</time>
      </trkpt>
      <trkpt lat="48.32367" lon="-3.18739">
        <ele>136</ele>
        <time>2013-11-17T10:54:50.1Z</time>
      </trkpt>
      <trkpt lat="48.32364" lon="-3.18738">
        <ele>136</ele>
        <time>2013-11-17T10:54:52.1Z</time>
      </trkpt>
      <trkpt lat="48.32362" lon="-3.18739">
        <ele>136</ele>
        <time>2013-11-17T10:54:54.1Z</time>
      </trkpt>
      <trkpt lat="48.32358" lon="-3.18738">
        <ele>135</ele>
        <time>2013-11-17T10:54:56.1Z</time>
      </trkpt>
      <trkpt lat="48.32356" lon="-3.18739">
        <ele>135</ele>
        <time>2013-11-17T10:54:58.1Z</time>
      </trkpt>
      <trkpt lat="48.32352" lon="-3.18739">
        <ele>135</ele>
        <time>2013-11-17T10:55:01.1Z</time>
      </trkpt>
      <trkpt lat="48.32349" lon="-3.1874">
        <ele>135</ele>
        <time>2013-11-17T10:55:03.1Z</time>
      </trkpt>
      <trkpt lat="48.32346" lon="-3.18739">
        <ele>135</ele>
        <time>2013-11-17T10:55:06.1Z</time>
      </trkpt>
      <trkpt lat="48.32341" lon="-3.18739">
        <ele>135</ele>
        <time>2013-11-17T10:55:09.1Z</time>
      </trkpt>
      <trkpt lat="48.32338" lon="-3.18739">
        <ele>135</ele>
        <time>2013-11-17T10:55:11.1Z</time>
      </trkpt>
      <trkpt lat="48.32336" lon="-3.18739">
        <ele>135</ele>
        <time>2013-11-17T10:55:13.1Z</time>
      </trkpt>
      <trkpt lat="48.32332" lon="-3.1874">
        <ele>135</ele>
        <time>2013-11-17T10:55:16.1Z</time>
      </trkpt>
      <trkpt lat="48.32329" lon="-3.18741">
        <ele>135</ele>
        <time>2013-11-17T10:55:18.1Z</time>
      </trkpt>
      <trkpt lat="48.32327" lon="-3.18741">
        <ele>135</ele>
        <time>2013-11-17T10:55:20.1Z</time>
      </trkpt>
      <trkpt lat="48.32323" lon="-3.18741">
        <ele>135</ele>
        <time>2013-11-17T10:55:23.1Z</time>
      </trkpt>
      <trkpt lat="48.3232" lon="-3.18742">
        <ele>135</ele>
        <time>2013-11-17T10:55:25.1Z</time>
      </trkpt>
      <trkpt lat="48.32318" lon="-3.18743">
        <ele>135</ele>
        <time>2013-11-17T10:55:27.1Z</time>
      </trkpt>
      <trkpt lat="48.32314" lon="-3.18742">
        <ele>135</ele>
        <time>2013-11-17T10:55:30.1Z</time>
      </trkpt>
      <trkpt lat="48.32312" lon="-3.18743">
        <ele>135</ele>
        <time>2013-11-17T10:55:32.1Z</time>
      </trkpt>
      <trkpt lat="48.32309" lon="-3.18744">
        <ele>135</ele>
        <time>2013-11-17T10:55:34.1Z</time>
      </trkpt>
      <trkpt lat="48.32307" lon="-3.18744">
        <ele>135</ele>
        <time>2013-11-17T10:55:36.1Z</time>
      </trkpt>
      <trkpt lat="48.32304" lon="-3.18744">
        <ele>135</ele>
        <time>2013-11-17T10:55:39.1Z</time>
      </trkpt>
      <trkpt lat="48.32302" lon="-3.18744">
        <ele>135</ele>
        <time>2013-11-17T10:55:41.1Z</time>
      </trkpt>
      <trkpt lat="48.32301" lon="-3.18744">
        <ele>135</ele>
        <time>2013-11-17T10:55:43.1Z</time>
      </trkpt>
      <trkpt lat="48.32299" lon="-3.18744">
        <ele>135</ele>
        <time>2013-11-17T10:55:45.1Z</time>
      </trkpt>
      <trkpt lat="48.32297" lon="-3.18744">
        <ele>135</ele>
        <time>2013-11-17T10:55:47.1Z</time>
      </trkpt>
      <trkpt lat="48.32295" lon="-3.18745">
        <ele>135</ele>
        <time>2013-11-17T10:55:49.1Z</time>
      </trkpt>
      <trkpt lat="48.32293" lon="-3.18745">
        <ele>135</ele>
        <time>2013-11-17T10:55:51.1Z</time>
      </trkpt>
      <trkpt lat="48.32289" lon="-3.18745">
        <ele>135</ele>
        <time>2013-11-17T10:55:54.1Z</time>
      </trkpt>
      <trkpt lat="48.32287" lon="-3.18746">
        <ele>135</ele>
        <time>2013-11-17T10:55:56.1Z</time>
      </trkpt>
      <trkpt lat="48.32285" lon="-3.18748">
        <ele>135</ele>
        <time>2013-11-17T10:55:59.1Z</time>
      </trkpt>
      <trkpt lat="48.32283" lon="-3.18748">
        <ele>135</ele>
        <time>2013-11-17T10:56:02.1Z</time>
      </trkpt>
      <trkpt lat="48.3228" lon="-3.18749">
        <ele>135</ele>
        <time>2013-11-17T10:56:05.1Z</time>
      </trkpt>
      <trkpt lat="48.32279" lon="-3.18751">
        <ele>135</ele>
        <time>2013-11-17T10:56:07.1Z</time>
      </trkpt>
      <trkpt lat="48.32279" lon="-3.18752">
        <ele>135</ele>
        <time>2013-11-17T10:56:10.1Z</time>
      </trkpt>
      <trkpt lat="48.32278" lon="-3.18751">
        <ele>135</ele>
        <time>2013-11-17T10:56:13.1Z</time>
      </trkpt>
      <trkpt lat="48.32277" lon="-3.18751">
        <ele>134</ele>
        <time>2013-11-17T10:56:16.1Z</time>
      </trkpt>
      <trkpt lat="48.32277" lon="-3.18751">
        <ele>135</ele>
        <time>2013-11-17T10:56:19.1Z</time>
      </trkpt>
      <trkpt lat="48.32277" lon="-3.18751">
        <ele>135</ele>
        <time>2013-11-17T10:56:22.1Z</time>
      </trkpt>
      <trkpt lat="48.32276" lon="-3.18751">
        <ele>135</ele>
        <time>2013-11-17T10:56:25.1Z</time>
      </trkpt>
      <trkpt lat="48.32276" lon="-3.18751">
        <ele>135</ele>
        <time>2013-11-17T10:56:30.1Z</time>
      </trkpt>
      <trkpt lat="48.32276" lon="-3.1875">
        <ele>135</ele>
        <time>2013-11-17T10:56:32.1Z</time>
      </trkpt>
      <trkpt lat="48.32277" lon="-3.1875">
        <ele>135</ele>
        <time>2013-11-17T10:56:34.1Z</time>
      </trkpt>
      <trkpt lat="48.32277" lon="-3.1875">
        <ele>135</ele>
        <time>2013-11-17T10:56:37.1Z</time>
      </trkpt>
      <trkpt lat="48.32276" lon="-3.1875">
        <ele>135</ele>
        <time>2013-11-17T10:56:39.1Z</time>
      </trkpt>
      <trkpt lat="48.32275" lon="-3.18749">
        <ele>135</ele>
        <time>2013-11-17T10:56:41.1Z</time>
      </trkpt>
      <trkpt lat="48.32272" lon="-3.18748">
        <ele>135</ele>
        <time>2013-11-17T10:56:44.1Z</time>
      </trkpt>
      <trkpt lat="48.32269" lon="-3.18748">
        <ele>136</ele>
        <time>2013-11-17T10:56:47.1Z</time>
      </trkpt>
      <trkpt lat="48.32265" lon="-3.18749">
        <ele>136</ele>
        <time>2013-11-17T10:56:50.1Z</time>
      </trkpt>
      <trkpt lat="48.32261" lon="-3.1875">
        <ele>135</ele>
        <time>2013-11-17T10:56:53.1Z</time>
      </trkpt>
      <trkpt lat="48.32259" lon="-3.18751">
        <ele>135</ele>
        <time>2013-11-17T10:56:55.1Z</time>
      </trkpt>
      <trkpt lat="48.32257" lon="-3.18751">
        <ele>135</ele>
        <time>2013-11-17T10:56:57.1Z</time>
      </trkpt>
      <trkpt lat="48.32253" lon="-3.18752">
        <ele>135</ele>
        <time>2013-11-17T10:57:00.1Z</time>
      </trkpt>
      <trkpt lat="48.3225" lon="-3.18753">
        <ele>135</ele>
        <time>2013-11-17T10:57:03.1Z</time>
      </trkpt>
      <trkpt lat="48.32248" lon="-3.18754">
        <ele>135</ele>
        <time>2013-11-17T10:57:05.1Z</time>
      </trkpt>
      <trkpt lat="48.32244" lon="-3.18755">
        <ele>135</ele>
        <time>2013-11-17T10:57:08.1Z</time>
      </trkpt>
      <trkpt lat="48.32242" lon="-3.18756">
        <ele>135</ele>
        <time>2013-11-17T10:57:10.1Z</time>
      </trkpt>
      <trkpt lat="48.3224" lon="-3.18757">
        <ele>135</ele>
        <time>2013-11-17T10:57:12.1Z</time>
      </trkpt>
      <trkpt lat="48.32238" lon="-3.18758">
        <ele>134</ele>
        <time>2013-11-17T10:57:14.1Z</time>
      </trkpt>
      <trkpt lat="48.32235" lon="-3.18758">
        <ele>134</ele>
        <time>2013-11-17T10:57:16.1Z</time>
      </trkpt>
      <trkpt lat="48.32233" lon="-3.18758">
        <ele>134</ele>
        <time>2013-11-17T10:57:19.1Z</time>
      </trkpt>
      <trkpt lat="48.32231" lon="-3.18759">
        <ele>134</ele>
        <time>2013-11-17T10:57:21.1Z</time>
      </trkpt>
      <trkpt lat="48.32229" lon="-3.18759">
        <ele>134</ele>
        <time>2013-11-17T10:57:23.1Z</time>
      </trkpt>
      <trkpt lat="48.32227" lon="-3.1876">
        <ele>134</ele>
        <time>2013-11-17T10:57:25.1Z</time>
      </trkpt>
      <trkpt lat="48.32224" lon="-3.1876">
        <ele>134</ele>
        <time>2013-11-17T10:57:28.1Z</time>
      </trkpt>
      <trkpt lat="48.32222" lon="-3.18761">
        <ele>135</ele>
        <time>2013-11-17T10:57:31.1Z</time>
      </trkpt>
      <trkpt lat="48.3222" lon="-3.18761">
        <ele>135</ele>
        <time>2013-11-17T10:57:34.1Z</time>
      </trkpt>
      <trkpt lat="48.32219" lon="-3.18762">
        <ele>135</ele>
        <time>2013-11-17T10:57:36.1Z</time>
      </trkpt>
      <trkpt lat="48.32217" lon="-3.18763">
        <ele>134</ele>
        <time>2013-11-17T10:57:39.1Z</time>
      </trkpt>
      <trkpt lat="48.32215" lon="-3.18763">
        <ele>134</ele>
        <time>2013-11-17T10:57:41.1Z</time>
      </trkpt>
      <trkpt lat="48.32214" lon="-3.18763">
        <ele>134</ele>
        <time>2013-11-17T10:57:43.1Z</time>
      </trkpt>
      <trkpt lat="48.32212" lon="-3.18764">
        <ele>134</ele>
        <time>2013-11-17T10:57:45.1Z</time>
      </trkpt>
      <trkpt lat="48.3221" lon="-3.18764">
        <ele>134</ele>
        <time>2013-11-17T10:57:47.1Z</time>
      </trkpt>
      <trkpt lat="48.32208" lon="-3.18764">
        <ele>134</ele>
        <time>2013-11-17T10:57:50.1Z</time>
      </trkpt>
      <trkpt lat="48.32206" lon="-3.18764">
        <ele>134</ele>
        <time>2013-11-17T10:57:52.1Z</time>
      </trkpt>
      <trkpt lat="48.32203" lon="-3.18764">
        <ele>134</ele>
        <time>2013-11-17T10:57:55.1Z</time>
      </trkpt>
      <trkpt lat="48.322" lon="-3.18764">
        <ele>134</ele>
        <time>2013-11-17T10:57:57.1Z</time>
      </trkpt>
      <trkpt lat="48.32196" lon="-3.18765">
        <ele>134</ele>
        <time>2013-11-17T10:58:00.1Z</time>
      </trkpt>
      <trkpt lat="48.32193" lon="-3.18765">
        <ele>134</ele>
        <time>2013-11-17T10:58:03.1Z</time>
      </trkpt>
      <trkpt lat="48.32189" lon="-3.18767">
        <ele>133</ele>
        <time>2013-11-17T10:58:06.1Z</time>
      </trkpt>
      <trkpt lat="48.32186" lon="-3.18767">
        <ele>133</ele>
        <time>2013-11-17T10:58:08.1Z</time>
      </trkpt>
      <trkpt lat="48.32182" lon="-3.18767">
        <ele>134</ele>
        <time>2013-11-17T10:58:11.1Z</time>
      </trkpt>
      <trkpt lat="48.3218" lon="-3.18767">
        <ele>134</ele>
        <time>2013-11-17T10:58:13.1Z</time>
      </trkpt>
      <trkpt lat="48.32175" lon="-3.18768">
        <ele>134</ele>
        <time>2013-11-17T10:58:16.1Z</time>
      </trkpt>
      <trkpt lat="48.32173" lon="-3.18768">
        <ele>133</ele>
        <time>2013-11-17T10:58:18.1Z</time>
      </trkpt>
      <trkpt lat="48.32171" lon="-3.18768">
        <ele>133</ele>
        <time>2013-11-17T10:58:20.1Z</time>
      </trkpt>
      <trkpt lat="48.32169" lon="-3.18768">
        <ele>133</ele>
        <time>2013-11-17T10:58:22.1Z</time>
      </trkpt>
      <trkpt lat="48.32165" lon="-3.18768">
        <ele>134</ele>
        <time>2013-11-17T10:58:25.1Z</time>
      </trkpt>
      <trkpt lat="48.32161" lon="-3.18767">
        <ele>134</ele>
        <time>2013-11-17T10:58:28.1Z</time>
      </trkpt>
      <trkpt lat="48.32158" lon="-3.18767">
        <ele>134</ele>
        <time>2013-11-17T10:58:30.1Z</time>
      </trkpt>
      <trkpt lat="48.32155" lon="-3.18767">
        <ele>134</ele>
        <time>2013-11-17T10:58:33.1Z</time>
      </trkpt>
      <trkpt lat="48.32154" lon="-3.18766">
        <ele>134</ele>
        <time>2013-11-17T10:58:35.1Z</time>
      </trkpt>
      <trkpt lat="48.32152" lon="-3.18766">
        <ele>134</ele>
        <time>2013-11-17T10:58:38.1Z</time>
      </trkpt>
      <trkpt lat="48.3215" lon="-3.18766">
        <ele>134</ele>
        <time>2013-11-17T10:58:41.1Z</time>
      </trkpt>
      <trkpt lat="48.32148" lon="-3.18767">
        <ele>134</ele>
        <time>2013-11-17T10:58:43.1Z</time>
      </trkpt>
      <trkpt lat="48.32147" lon="-3.18768">
        <ele>134</ele>
        <time>2013-11-17T10:58:45.1Z</time>
      </trkpt>
      <trkpt lat="48.32145" lon="-3.18769">
        <ele>134</ele>
        <time>2013-11-17T10:58:47.1Z</time>
      </trkpt>
      <trkpt lat="48.32141" lon="-3.1877">
        <ele>133</ele>
        <time>2013-11-17T10:58:50.1Z</time>
      </trkpt>
      <trkpt lat="48.32138" lon="-3.1877">
        <ele>133</ele>
        <time>2013-11-17T10:58:53.1Z</time>
      </trkpt>
      <trkpt lat="48.32134" lon="-3.1877">
        <ele>133</ele>
        <time>2013-11-17T10:58:56.1Z</time>
      </trkpt>
      <trkpt lat="48.32132" lon="-3.18771">
        <ele>134</ele>
        <time>2013-11-17T10:58:58.1Z</time>
      </trkpt>
      <trkpt lat="48.32129" lon="-3.18771">
        <ele>133</ele>
        <time>2013-11-17T10:59:01.1Z</time>
      </trkpt>
      <trkpt lat="48.32126" lon="-3.18772">
        <ele>134</ele>
        <time>2013-11-17T10:59:03.1Z</time>
      </trkpt>
      <trkpt lat="48.32122" lon="-3.18773">
        <ele>134</ele>
        <time>2013-11-17T10:59:06.1Z</time>
      </trkpt>
      <trkpt lat="48.32119" lon="-3.18774">
        <ele>134</ele>
        <time>2013-11-17T10:59:08.1Z</time>
      </trkpt>
      <trkpt lat="48.32117" lon="-3.18775">
        <ele>134</ele>
        <time>2013-11-17T10:59:10.1Z</time>
      </trkpt>
      <trkpt lat="48.32113" lon="-3.18774">
        <ele>134</ele>
        <time>2013-11-17T10:59:13.1Z</time>
      </trkpt>
      <trkpt lat="48.32111" lon="-3.18775">
        <ele>134</ele>
        <time>2013-11-17T10:59:15.1Z</time>
      </trkpt>
      <trkpt lat="48.32107" lon="-3.18776">
        <ele>134</ele>
        <time>2013-11-17T10:59:18.1Z</time>
      </trkpt>
      <trkpt lat="48.32104" lon="-3.18776">
        <ele>134</ele>
        <time>2013-11-17T10:59:20.1Z</time>
      </trkpt>
      <trkpt lat="48.32103" lon="-3.18778">
        <ele>134</ele>
        <time>2013-11-17T10:59:22.1Z</time>
      </trkpt>
      <trkpt lat="48.32101" lon="-3.1878">
        <ele>134</ele>
        <time>2013-11-17T10:59:25.1Z</time>
      </trkpt>
      <trkpt lat="48.32099" lon="-3.18781">
        <ele>134</ele>
        <time>2013-11-17T10:59:27.1Z</time>
      </trkpt>
      <trkpt lat="48.32097" lon="-3.18781">
        <ele>133</ele>
        <time>2013-11-17T10:59:29.1Z</time>
      </trkpt>
      <trkpt lat="48.32093" lon="-3.18782">
        <ele>134</ele>
        <time>2013-11-17T10:59:32.1Z</time>
      </trkpt>
      <trkpt lat="48.3209" lon="-3.18783">
        <ele>134</ele>
        <time>2013-11-17T10:59:35.1Z</time>
      </trkpt>
      <trkpt lat="48.32089" lon="-3.18784">
        <ele>134</ele>
        <time>2013-11-17T10:59:37.1Z</time>
      </trkpt>
      <trkpt lat="48.32087" lon="-3.18786">
        <ele>134</ele>
        <time>2013-11-17T10:59:39.1Z</time>
      </trkpt>
      <trkpt lat="48.32085" lon="-3.18788">
        <ele>134</ele>
        <time>2013-11-17T10:59:41.1Z</time>
      </trkpt>
      <trkpt lat="48.32082" lon="-3.18789">
        <ele>134</ele>
        <time>2013-11-17T10:59:44.1Z</time>
      </trkpt>
      <trkpt lat="48.3208" lon="-3.18791">
        <ele>134</ele>
        <time>2013-11-17T10:59:46.1Z</time>
      </trkpt>
      <trkpt lat="48.32076" lon="-3.18792">
        <ele>134</ele>
        <time>2013-11-17T10:59:49.1Z</time>
      </trkpt>
      <trkpt lat="48.32074" lon="-3.18793">
        <ele>134</ele>
        <time>2013-11-17T10:59:51.1Z</time>
      </trkpt>
      <trkpt lat="48.3207" lon="-3.18793">
        <ele>133</ele>
        <time>2013-11-17T10:59:54.1Z</time>
      </trkpt>
      <trkpt lat="48.32067" lon="-3.18792">
        <ele>134</ele>
        <time>2013-11-17T10:59:57.1Z</time>
      </trkpt>
      <trkpt lat="48.32064" lon="-3.18793">
        <ele>133</ele>
        <time>2013-11-17T11:00:00.1Z</time>
      </trkpt>
      <trkpt lat="48.32063" lon="-3.18792">
        <ele>133</ele>
        <time>2013-11-17T11:00:02.1Z</time>
      </trkpt>
      <trkpt lat="48.3206" lon="-3.18791">
        <ele>133</ele>
        <time>2013-11-17T11:00:05.1Z</time>
      </trkpt>
      <trkpt lat="48.32058" lon="-3.1879">
        <ele>133</ele>
        <time>2013-11-17T11:00:07.1Z</time>
      </trkpt>
      <trkpt lat="48.32056" lon="-3.18789">
        <ele>133</ele>
        <time>2013-11-17T11:00:09.1Z</time>
      </trkpt>
      <trkpt lat="48.32053" lon="-3.18788">
        <ele>133</ele>
        <time>2013-11-17T11:00:12.1Z</time>
      </trkpt>
      <trkpt lat="48.3205" lon="-3.18788">
        <ele>133</ele>
        <time>2013-11-17T11:00:14.1Z</time>
      </trkpt>
      <trkpt lat="48.32048" lon="-3.18787">
        <ele>133</ele>
        <time>2013-11-17T11:00:16.1Z</time>
      </trkpt>
      <trkpt lat="48.32045" lon="-3.18786">
        <ele>133</ele>
        <time>2013-11-17T11:00:19.1Z</time>
      </trkpt>
      <trkpt lat="48.32044" lon="-3.18785">
        <ele>133</ele>
        <time>2013-11-17T11:00:21.1Z</time>
      </trkpt>
      <trkpt lat="48.32042" lon="-3.18784">
        <ele>133</ele>
        <time>2013-11-17T11:00:23.1Z</time>
      </trkpt>
      <trkpt lat="48.32039" lon="-3.18783">
        <ele>133</ele>
        <time>2013-11-17T11:00:25.1Z</time>
      </trkpt>
      <trkpt lat="48.32036" lon="-3.1878">
        <ele>133</ele>
        <time>2013-11-17T11:00:28.1Z</time>
      </trkpt>
      <trkpt lat="48.32032" lon="-3.18779">
        <ele>133</ele>
        <time>2013-11-17T11:00:31.1Z</time>
      </trkpt>
      <trkpt lat="48.32029" lon="-3.18776">
        <ele>133</ele>
        <time>2013-11-17T11:00:34.1Z</time>
      </trkpt>
      <trkpt lat="48.32028" lon="-3.18774">
        <ele>133</ele>
        <time>2013-11-17T11:00:36.1Z</time>
      </trkpt>
      <trkpt lat="48.32027" lon="-3.18772">
        <ele>133</ele>
        <time>2013-11-17T11:00:38.1Z</time>
      </trkpt>
      <trkpt lat="48.32024" lon="-3.18767">
        <ele>133</ele>
        <time>2013-11-17T11:00:41.1Z</time>
      </trkpt>
      <trkpt lat="48.32023" lon="-3.18766">
        <ele>133</ele>
        <time>2013-11-17T11:00:43.1Z</time>
      </trkpt>
      <trkpt lat="48.32021" lon="-3.18763">
        <ele>133</ele>
        <time>2013-11-17T11:00:46.1Z</time>
      </trkpt>
      <trkpt lat="48.32021" lon="-3.18761">
        <ele>133</ele>
        <time>2013-11-17T11:00:48.1Z</time>
      </trkpt>
      <trkpt lat="48.3202" lon="-3.18759">
        <ele>133</ele>
        <time>2013-11-17T11:00:50.1Z</time>
      </trkpt>
      <trkpt lat="48.32019" lon="-3.18755">
        <ele>133</ele>
        <time>2013-11-17T11:00:53.1Z</time>
      </trkpt>
      <trkpt lat="48.32017" lon="-3.18752">
        <ele>133</ele>
        <time>2013-11-17T11:00:55.1Z</time>
      </trkpt>
      <trkpt lat="48.32016" lon="-3.18749">
        <ele>133</ele>
        <time>2013-11-17T11:00:57.1Z</time>
      </trkpt>
      <trkpt lat="48.32014" lon="-3.18744">
        <ele>133</ele>
        <time>2013-11-17T11:01:00.1Z</time>
      </trkpt>
      <trkpt lat="48.32013" lon="-3.18741">
        <ele>133</ele>
        <time>2013-11-17T11:01:02.1Z</time>
      </trkpt>
      <trkpt lat="48.32012" lon="-3.18739">
        <ele>133</ele>
        <time>2013-11-17T11:01:04.1Z</time>
      </trkpt>
      <trkpt lat="48.32011" lon="-3.18735">
        <ele>133</ele>
        <time>2013-11-17T11:01:06.1Z</time>
      </trkpt>
      <trkpt lat="48.32009" lon="-3.18731">
        <ele>133</ele>
        <time>2013-11-17T11:01:08.1Z</time>
      </trkpt>
      <trkpt lat="48.32006" lon="-3.18729">
        <ele>132</ele>
        <time>2013-11-17T11:01:10.1Z</time>
      </trkpt>
      <trkpt lat="48.32001" lon="-3.18725">
        <ele>132</ele>
        <time>2013-11-17T11:01:13.1Z</time>
      </trkpt>
      <trkpt lat="48.31999" lon="-3.18723">
        <ele>132</ele>
        <time>2013-11-17T11:01:15.1Z</time>
      </trkpt>
      <trkpt lat="48.31995" lon="-3.18719">
        <ele>132</ele>
        <time>2013-11-17T11:01:18.1Z</time>
      </trkpt>
      <trkpt lat="48.31993" lon="-3.18716">
        <ele>132</ele>
        <time>2013-11-17T11:01:20.1Z</time>
      </trkpt>
      <trkpt lat="48.31992" lon="-3.18713">
        <ele>132</ele>
        <time>2013-11-17T11:01:23.1Z</time>
      </trkpt>
      <trkpt lat="48.31991" lon="-3.1871">
        <ele>132</ele>
        <time>2013-11-17T11:01:25.1Z</time>
      </trkpt>
      <trkpt lat="48.31989" lon="-3.18708">
        <ele>132</ele>
        <time>2013-11-17T11:01:28.1Z</time>
      </trkpt>
      <trkpt lat="48.31988" lon="-3.18706">
        <ele>132</ele>
        <time>2013-11-17T11:01:30.1Z</time>
      </trkpt>
      <trkpt lat="48.31987" lon="-3.18703">
        <ele>132</ele>
        <time>2013-11-17T11:01:33.1Z</time>
      </trkpt>
      <trkpt lat="48.31985" lon="-3.187">
        <ele>132</ele>
        <time>2013-11-17T11:01:35.1Z</time>
      </trkpt>
      <trkpt lat="48.31985" lon="-3.18696">
        <ele>132</ele>
        <time>2013-11-17T11:01:37.1Z</time>
      </trkpt>
      <trkpt lat="48.31984" lon="-3.18694">
        <ele>132</ele>
        <time>2013-11-17T11:01:39.1Z</time>
      </trkpt>
      <trkpt lat="48.31982" lon="-3.18691">
        <ele>132</ele>
        <time>2013-11-17T11:01:41.1Z</time>
      </trkpt>
      <trkpt lat="48.31982" lon="-3.18688">
        <ele>132</ele>
        <time>2013-11-17T11:01:43.1Z</time>
      </trkpt>
      <trkpt lat="48.31981" lon="-3.18685">
        <ele>132</ele>
        <time>2013-11-17T11:01:45.1Z</time>
      </trkpt>
      <trkpt lat="48.31979" lon="-3.18682">
        <ele>132</ele>
        <time>2013-11-17T11:01:47.1Z</time>
      </trkpt>
      <trkpt lat="48.31978" lon="-3.18678">
        <ele>132</ele>
        <time>2013-11-17T11:01:50.1Z</time>
      </trkpt>
      <trkpt lat="48.31977" lon="-3.18676">
        <ele>132</ele>
        <time>2013-11-17T11:01:52.1Z</time>
      </trkpt>
      <trkpt lat="48.31976" lon="-3.18673">
        <ele>132</ele>
        <time>2013-11-17T11:01:54.1Z</time>
      </trkpt>
      <trkpt lat="48.31974" lon="-3.18671">
        <ele>132</ele>
        <time>2013-11-17T11:01:56.1Z</time>
      </trkpt>
      <trkpt lat="48.31971" lon="-3.18667">
        <ele>132</ele>
        <time>2013-11-17T11:01:59.1Z</time>
      </trkpt>
      <trkpt lat="48.31969" lon="-3.18664">
        <ele>132</ele>
        <time>2013-11-17T11:02:01.1Z</time>
      </trkpt>
      <trkpt lat="48.31966" lon="-3.1866">
        <ele>132</ele>
        <time>2013-11-17T11:02:04.1Z</time>
      </trkpt>
      <trkpt lat="48.31965" lon="-3.18657">
        <ele>132</ele>
        <time>2013-11-17T11:02:06.1Z</time>
      </trkpt>
      <trkpt lat="48.31962" lon="-3.18653">
        <ele>132</ele>
        <time>2013-11-17T11:02:09.1Z</time>
      </trkpt>
      <trkpt lat="48.31961" lon="-3.18651">
        <ele>132</ele>
        <time>2013-11-17T11:02:11.1Z</time>
      </trkpt>
      <trkpt lat="48.31958" lon="-3.18648">
        <ele>132</ele>
        <time>2013-11-17T11:02:14.1Z</time>
      </trkpt>
      <trkpt lat="48.31956" lon="-3.18646">
        <ele>132</ele>
        <time>2013-11-17T11:02:16.1Z</time>
      </trkpt>
      <trkpt lat="48.31954" lon="-3.18643">
        <ele>132</ele>
        <time>2013-11-17T11:02:19.1Z</time>
      </trkpt>
      <trkpt lat="48.31953" lon="-3.18641">
        <ele>132</ele>
        <time>2013-11-17T11:02:21.1Z</time>
      </trkpt>
      <trkpt lat="48.31952" lon="-3.18638">
        <ele>132</ele>
        <time>2013-11-17T11:02:24.1Z</time>
      </trkpt>
      <trkpt lat="48.31948" lon="-3.18635">
        <ele>132</ele>
        <time>2013-11-17T11:02:27.1Z</time>
      </trkpt>
      <trkpt lat="48.31946" lon="-3.18633">
        <ele>132</ele>
        <time>2013-11-17T11:02:29.1Z</time>
      </trkpt>
      <trkpt lat="48.31943" lon="-3.1863">
        <ele>132</ele>
        <time>2013-11-17T11:02:32.1Z</time>
      </trkpt>
      <trkpt lat="48.31939" lon="-3.18628">
        <ele>132</ele>
        <time>2013-11-17T11:02:35.1Z</time>
      </trkpt>
      <trkpt lat="48.31936" lon="-3.18625">
        <ele>132</ele>
        <time>2013-11-17T11:02:38.1Z</time>
      </trkpt>
      <trkpt lat="48.31934" lon="-3.18623">
        <ele>132</ele>
        <time>2013-11-17T11:02:40.1Z</time>
      </trkpt>
      <trkpt lat="48.31931" lon="-3.1862">
        <ele>132</ele>
        <time>2013-11-17T11:02:43.1Z</time>
      </trkpt>
      <trkpt lat="48.31929" lon="-3.18619">
        <ele>132</ele>
        <time>2013-11-17T11:02:45.1Z</time>
      </trkpt>
      <trkpt lat="48.31926" lon="-3.18617">
        <ele>132</ele>
        <time>2013-11-17T11:02:48.1Z</time>
      </trkpt>
      <trkpt lat="48.31924" lon="-3.18614">
        <ele>132</ele>
        <time>2013-11-17T11:02:51.1Z</time>
      </trkpt>
      <trkpt lat="48.31921" lon="-3.18612">
        <ele>132</ele>
        <time>2013-11-17T11:02:53.1Z</time>
      </trkpt>
      <trkpt lat="48.3192" lon="-3.18612">
        <ele>131</ele>
        <time>2013-11-17T11:02:55.1Z</time>
      </trkpt>
      <trkpt lat="48.31917" lon="-3.1861">
        <ele>132</ele>
        <time>2013-11-17T11:02:58.1Z</time>
      </trkpt>
      <trkpt lat="48.31915" lon="-3.18607">
        <ele>132</ele>
        <time>2013-11-17T11:03:01.1Z</time>
      </trkpt>
      <trkpt lat="48.31913" lon="-3.18604">
        <ele>131</ele>
        <time>2013-11-17T11:03:03.1Z</time>
      </trkpt>
      <trkpt lat="48.3191" lon="-3.18603">
        <ele>131</ele>
        <time>2013-11-17T11:03:05.1Z</time>
      </trkpt>
      <trkpt lat="48.31906" lon="-3.18601">
        <ele>131</ele>
        <time>2013-11-17T11:03:08.1Z</time>
      </trkpt>
      <trkpt lat="48.31904" lon="-3.18599">
        <ele>131</ele>
        <time>2013-11-17T11:03:10.1Z</time>
      </trkpt>
      <trkpt lat="48.319" lon="-3.18597">
        <ele>132</ele>
        <time>2013-11-17T11:03:13.1Z</time>
      </trkpt>
      <trkpt lat="48.31897" lon="-3.18595">
        <ele>132</ele>
        <time>2013-11-17T11:03:15.1Z</time>
      </trkpt>
      <trkpt lat="48.31893" lon="-3.18593">
        <ele>132</ele>
        <time>2013-11-17T11:03:18.1Z</time>
      </trkpt>
      <trkpt lat="48.3189" lon="-3.18592">
        <ele>132</ele>
        <time>2013-11-17T11:03:20.1Z</time>
      </trkpt>
      <trkpt lat="48.31884" lon="-3.1859">
        <ele>132</ele>
        <time>2013-11-17T11:03:23.1Z</time>
      </trkpt>
      <trkpt lat="48.3188" lon="-3.18588">
        <ele>132</ele>
        <time>2013-11-17T11:03:25.1Z</time>
      </trkpt>
      <trkpt lat="48.31875" lon="-3.18585">
        <ele>131</ele>
        <time>2013-11-17T11:03:28.1Z</time>
      </trkpt>
      <trkpt lat="48.31873" lon="-3.18584">
        <ele>131</ele>
        <time>2013-11-17T11:03:30.1Z</time>
      </trkpt>
      <trkpt lat="48.31869" lon="-3.18583">
        <ele>131</ele>
        <time>2013-11-17T11:03:33.1Z</time>
      </trkpt>
      <trkpt lat="48.31865" lon="-3.18581">
        <ele>131</ele>
        <time>2013-11-17T11:03:36.1Z</time>
      </trkpt>
      <trkpt lat="48.31862" lon="-3.1858">
        <ele>131</ele>
        <time>2013-11-17T11:03:39.1Z</time>
      </trkpt>
      <trkpt lat="48.3186" lon="-3.18578">
        <ele>131</ele>
        <time>2013-11-17T11:03:41.1Z</time>
      </trkpt>
      <trkpt lat="48.31857" lon="-3.18576">
        <ele>131</ele>
        <time>2013-11-17T11:03:44.1Z</time>
      </trkpt>
      <trkpt lat="48.31855" lon="-3.18575">
        <ele>131</ele>
        <time>2013-11-17T11:03:46.1Z</time>
      </trkpt>
      <trkpt lat="48.31853" lon="-3.18574">
        <ele>131</ele>
        <time>2013-11-17T11:03:48.1Z</time>
      </trkpt>
      <trkpt lat="48.3185" lon="-3.18571">
        <ele>131</ele>
        <time>2013-11-17T11:03:51.1Z</time>
      </trkpt>
      <trkpt lat="48.31849" lon="-3.18568">
        <ele>131</ele>
        <time>2013-11-17T11:03:53.1Z</time>
      </trkpt>
      <trkpt lat="48.31846" lon="-3.18566">
        <ele>131</ele>
        <time>2013-11-17T11:03:55.1Z</time>
      </trkpt>
      <trkpt lat="48.31843" lon="-3.18565">
        <ele>131</ele>
        <time>2013-11-17T11:03:57.1Z</time>
      </trkpt>
      <trkpt lat="48.31839" lon="-3.18563">
        <ele>131</ele>
        <time>2013-11-17T11:04:00.1Z</time>
      </trkpt>
      <trkpt lat="48.31837" lon="-3.18561">
        <ele>131</ele>
        <time>2013-11-17T11:04:02.1Z</time>
      </trkpt>
      <trkpt lat="48.31835" lon="-3.18559">
        <ele>131</ele>
        <time>2013-11-17T11:04:05.1Z</time>
      </trkpt>
      <trkpt lat="48.31833" lon="-3.18557">
        <ele>131</ele>
        <time>2013-11-17T11:04:08.1Z</time>
      </trkpt>
      <trkpt lat="48.31832" lon="-3.18555">
        <ele>131</ele>
        <time>2013-11-17T11:04:10.1Z</time>
      </trkpt>
      <trkpt lat="48.3183" lon="-3.18555">
        <ele>131</ele>
        <time>2013-11-17T11:04:12.1Z</time>
      </trkpt>
      <trkpt lat="48.31827" lon="-3.18553">
        <ele>131</ele>
        <time>2013-11-17T11:04:15.1Z</time>
      </trkpt>
      <trkpt lat="48.31823" lon="-3.1855">
        <ele>131</ele>
        <time>2013-11-17T11:04:18.1Z</time>
      </trkpt>
      <trkpt lat="48.31821" lon="-3.18549">
        <ele>130</ele>
        <time>2013-11-17T11:04:20.1Z</time>
      </trkpt>
      <trkpt lat="48.31819" lon="-3.18547">
        <ele>131</ele>
        <time>2013-11-17T11:04:22.1Z</time>
      </trkpt>
      <trkpt lat="48.31815" lon="-3.18544">
        <ele>131</ele>
        <time>2013-11-17T11:04:25.1Z</time>
      </trkpt>
      <trkpt lat="48.31812" lon="-3.18541">
        <ele>131</ele>
        <time>2013-11-17T11:04:28.1Z</time>
      </trkpt>
      <trkpt lat="48.31809" lon="-3.1854">
        <ele>131</ele>
        <time>2013-11-17T11:04:30.1Z</time>
      </trkpt>
      <trkpt lat="48.31807" lon="-3.18538">
        <ele>130</ele>
        <time>2013-11-17T11:04:33.1Z</time>
      </trkpt>
      <trkpt lat="48.31805" lon="-3.18537">
        <ele>131</ele>
        <time>2013-11-17T11:04:35.1Z</time>
      </trkpt>
      <trkpt lat="48.31802" lon="-3.18535">
        <ele>131</ele>
        <time>2013-11-17T11:04:38.1Z</time>
      </trkpt>
      <trkpt lat="48.31799" lon="-3.18532">
        <ele>131</ele>
        <time>2013-11-17T11:04:41.1Z</time>
      </trkpt>
      <trkpt lat="48.31797" lon="-3.18531">
        <ele>130</ele>
        <time>2013-11-17T11:04:43.1Z</time>
      </trkpt>
      <trkpt lat="48.31794" lon="-3.18528">
        <ele>130</ele>
        <time>2013-11-17T11:04:46.1Z</time>
      </trkpt>
      <trkpt lat="48.31792" lon="-3.18526">
        <ele>130</ele>
        <time>2013-11-17T11:04:48.1Z</time>
      </trkpt>
      <trkpt lat="48.3179" lon="-3.18525">
        <ele>130</ele>
        <time>2013-11-17T11:04:50.1Z</time>
      </trkpt>
      <trkpt lat="48.31786" lon="-3.18522">
        <ele>130</ele>
        <time>2013-11-17T11:04:53.1Z</time>
      </trkpt>
      <trkpt lat="48.31784" lon="-3.18518">
        <ele>130</ele>
        <time>2013-11-17T11:04:56.1Z</time>
      </trkpt>
      <trkpt lat="48.31781" lon="-3.18515">
        <ele>130</ele>
        <time>2013-11-17T11:04:59.1Z</time>
      </trkpt>
      <trkpt lat="48.31778" lon="-3.18512">
        <ele>130</ele>
        <time>2013-11-17T11:05:02.1Z</time>
      </trkpt>
      <trkpt lat="48.31776" lon="-3.1851">
        <ele>130</ele>
        <time>2013-11-17T11:05:04.1Z</time>
      </trkpt>
      <trkpt lat="48.31773" lon="-3.18508">
        <ele>130</ele>
        <time>2013-11-17T11:05:06.1Z</time>
      </trkpt>
      <trkpt lat="48.3177" lon="-3.18505">
        <ele>130</ele>
        <time>2013-11-17T11:05:09.1Z</time>
      </trkpt>
      <trkpt lat="48.31767" lon="-3.18503">
        <ele>130</ele>
        <time>2013-11-17T11:05:12.1Z</time>
      </trkpt>
      <trkpt lat="48.31764" lon="-3.185">
        <ele>130</ele>
        <time>2013-11-17T11:05:15.1Z</time>
      </trkpt>
      <trkpt lat="48.31762" lon="-3.18498">
        <ele>130</ele>
        <time>2013-11-17T11:05:17.1Z</time>
      </trkpt>
      <trkpt lat="48.31761" lon="-3.18496">
        <ele>130</ele>
        <time>2013-11-17T11:05:19.1Z</time>
      </trkpt>
      <trkpt lat="48.3176" lon="-3.18494">
        <ele>130</ele>
        <time>2013-11-17T11:05:21.1Z</time>
      </trkpt>
      <trkpt lat="48.31758" lon="-3.18491">
        <ele>130</ele>
        <time>2013-11-17T11:05:24.1Z</time>
      </trkpt>
      <trkpt lat="48.31757" lon="-3.18489">
        <ele>130</ele>
        <time>2013-11-17T11:05:26.1Z</time>
      </trkpt>
      <trkpt lat="48.31755" lon="-3.18487">
        <ele>130</ele>
        <time>2013-11-17T11:05:28.1Z</time>
      </trkpt>
      <trkpt lat="48.31751" lon="-3.18484">
        <ele>130</ele>
        <time>2013-11-17T11:05:31.1Z</time>
      </trkpt>
      <trkpt lat="48.31748" lon="-3.18481">
        <ele>131</ele>
        <time>2013-11-17T11:05:34.1Z</time>
      </trkpt>
      <trkpt lat="48.31745" lon="-3.18479">
        <ele>130</ele>
        <time>2013-11-17T11:05:36.1Z</time>
      </trkpt>
      <trkpt lat="48.31741" lon="-3.18476">
        <ele>130</ele>
        <time>2013-11-17T11:05:39.1Z</time>
      </trkpt>
      <trkpt lat="48.31738" lon="-3.18474">
        <ele>130</ele>
        <time>2013-11-17T11:05:41.1Z</time>
      </trkpt>
      <trkpt lat="48.31734" lon="-3.1847">
        <ele>130</ele>
        <time>2013-11-17T11:05:44.1Z</time>
      </trkpt>
      <trkpt lat="48.31731" lon="-3.18468">
        <ele>130</ele>
        <time>2013-11-17T11:05:46.1Z</time>
      </trkpt>
      <trkpt lat="48.31728" lon="-3.18464">
        <ele>129</ele>
        <time>2013-11-17T11:05:49.1Z</time>
      </trkpt>
      <trkpt lat="48.31725" lon="-3.18462">
        <ele>130</ele>
        <time>2013-11-17T11:05:52.1Z</time>
      </trkpt>
      <trkpt lat="48.31723" lon="-3.1846">
        <ele>130</ele>
        <time>2013-11-17T11:05:55.1Z</time>
      </trkpt>
      <trkpt lat="48.31722" lon="-3.18457">
        <ele>130</ele>
        <time>2013-11-17T11:05:57.1Z</time>
      </trkpt>
      <trkpt lat="48.31721" lon="-3.18455">
        <ele>129</ele>
        <time>2013-11-17T11:05:59.1Z</time>
      </trkpt>
      <trkpt lat="48.31721" lon="-3.18453">
        <ele>130</ele>
        <time>2013-11-17T11:06:01.1Z</time>
      </trkpt>
      <trkpt lat="48.3172" lon="-3.18448">
        <ele>129</ele>
        <time>2013-11-17T11:06:04.1Z</time>
      </trkpt>
      <trkpt lat="48.31718" lon="-3.18446">
        <ele>130</ele>
        <time>2013-11-17T11:06:06.1Z</time>
      </trkpt>
      <trkpt lat="48.31714" lon="-3.18443">
        <ele>130</ele>
        <time>2013-11-17T11:06:09.1Z</time>
      </trkpt>
      <trkpt lat="48.31712" lon="-3.18441">
        <ele>130</ele>
        <time>2013-11-17T11:06:11.1Z</time>
      </trkpt>
      <trkpt lat="48.31711" lon="-3.18439">
        <ele>130</ele>
        <time>2013-11-17T11:06:13.1Z</time>
      </trkpt>
      <trkpt lat="48.31709" lon="-3.18437">
        <ele>130</ele>
        <time>2013-11-17T11:06:15.1Z</time>
      </trkpt>
      <trkpt lat="48.31707" lon="-3.18435">
        <ele>130</ele>
        <time>2013-11-17T11:06:17.1Z</time>
      </trkpt>
      <trkpt lat="48.31705" lon="-3.18432">
        <ele>130</ele>
        <time>2013-11-17T11:06:19.1Z</time>
      </trkpt>
      <trkpt lat="48.31704" lon="-3.1843">
        <ele>130</ele>
        <time>2013-11-17T11:06:21.1Z</time>
      </trkpt>
      <trkpt lat="48.31703" lon="-3.18427">
        <ele>129</ele>
        <time>2013-11-17T11:06:23.1Z</time>
      </trkpt>
      <trkpt lat="48.31701" lon="-3.18424">
        <ele>129</ele>
        <time>2013-11-17T11:06:26.1Z</time>
      </trkpt>
      <trkpt lat="48.31699" lon="-3.18421">
        <ele>129</ele>
        <time>2013-11-17T11:06:29.1Z</time>
      </trkpt>
      <trkpt lat="48.31699" lon="-3.18419">
        <ele>129</ele>
        <time>2013-11-17T11:06:31.1Z</time>
      </trkpt>
      <trkpt lat="48.31699" lon="-3.18417">
        <ele>129</ele>
        <time>2013-11-17T11:06:33.1Z</time>
      </trkpt>
      <trkpt lat="48.317" lon="-3.18414">
        <ele>129</ele>
        <time>2013-11-17T11:06:36.1Z</time>
      </trkpt>
      <trkpt lat="48.31699" lon="-3.18413">
        <ele>129</ele>
        <time>2013-11-17T11:06:38.1Z</time>
      </trkpt>
      <trkpt lat="48.31698" lon="-3.18411">
        <ele>129</ele>
        <time>2013-11-17T11:06:40.1Z</time>
      </trkpt>
      <trkpt lat="48.31697" lon="-3.18409">
        <ele>129</ele>
        <time>2013-11-17T11:06:42.1Z</time>
      </trkpt>
      <trkpt lat="48.31694" lon="-3.18408">
        <ele>129</ele>
        <time>2013-11-17T11:06:45.1Z</time>
      </trkpt>
      <trkpt lat="48.3169" lon="-3.18406">
        <ele>129</ele>
        <time>2013-11-17T11:06:47.1Z</time>
      </trkpt>
      <trkpt lat="48.31686" lon="-3.18404">
        <ele>129</ele>
        <time>2013-11-17T11:06:50.1Z</time>
      </trkpt>
      <trkpt lat="48.31683" lon="-3.18401">
        <ele>129</ele>
        <time>2013-11-17T11:06:53.1Z</time>
      </trkpt>
      <trkpt lat="48.3168" lon="-3.18397">
        <ele>128</ele>
        <time>2013-11-17T11:06:56.1Z</time>
      </trkpt>
      <trkpt lat="48.31677" lon="-3.18394">
        <ele>128</ele>
        <time>2013-11-17T11:06:58.1Z</time>
      </trkpt>
      <trkpt lat="48.31674" lon="-3.1839">
        <ele>128</ele>
        <time>2013-11-17T11:07:01.1Z</time>
      </trkpt>
      <trkpt lat="48.31672" lon="-3.18386">
        <ele>128</ele>
        <time>2013-11-17T11:07:03.1Z</time>
      </trkpt>
      <trkpt lat="48.3167" lon="-3.18382">
        <ele>128</ele>
        <time>2013-11-17T11:07:06.1Z</time>
      </trkpt>
      <trkpt lat="48.31668" lon="-3.18378">
        <ele>128</ele>
        <time>2013-11-17T11:07:08.1Z</time>
      </trkpt>
      <trkpt lat="48.31666" lon="-3.18375">
        <ele>128</ele>
        <time>2013-11-17T11:07:10.1Z</time>
      </trkpt>
      <trkpt lat="48.31663" lon="-3.18372">
        <ele>128</ele>
        <time>2013-11-17T11:07:13.1Z</time>
      </trkpt>
      <trkpt lat="48.31659" lon="-3.1837">
        <ele>128</ele>
        <time>2013-11-17T11:07:16.1Z</time>
      </trkpt>
      <trkpt lat="48.31656" lon="-3.18367">
        <ele>127</ele>
        <time>2013-11-17T11:07:19.1Z</time>
      </trkpt>
      <trkpt lat="48.31651" lon="-3.18365">
        <ele>127</ele>
        <time>2013-11-17T11:07:22.1Z</time>
      </trkpt>
      <trkpt lat="48.3165" lon="-3.18362">
        <ele>127</ele>
        <time>2013-11-17T11:07:25.1Z</time>
      </trkpt>
      <trkpt lat="48.31648" lon="-3.18358">
        <ele>127</ele>
        <time>2013-11-17T11:07:28.1Z</time>
      </trkpt>
      <trkpt lat="48.31644" lon="-3.18356">
        <ele>127</ele>
        <time>2013-11-17T11:07:31.1Z</time>
      </trkpt>
      <trkpt lat="48.31641" lon="-3.18354">
        <ele>127</ele>
        <time>2013-11-17T11:07:33.1Z</time>
      </trkpt>
      <trkpt lat="48.31637" lon="-3.18352">
        <ele>127</ele>
        <time>2013-11-17T11:07:36.1Z</time>
      </trkpt>
      <trkpt lat="48.31633" lon="-3.1835">
        <ele>127</ele>
        <time>2013-11-17T11:07:39.1Z</time>
      </trkpt>
      <trkpt lat="48.31631" lon="-3.18348">
        <ele>127</ele>
        <time>2013-11-17T11:07:41.1Z</time>
      </trkpt>
      <trkpt lat="48.31629" lon="-3.18347">
        <ele>126</ele>
        <time>2013-11-17T11:07:43.1Z</time>
      </trkpt>
      <trkpt lat="48.31627" lon="-3.18346">
        <ele>126</ele>
        <time>2013-11-17T11:07:45.1Z</time>
      </trkpt>
      <trkpt lat="48.31624" lon="-3.18342">
        <ele>126</ele>
        <time>2013-11-17T11:07:48.1Z</time>
      </trkpt>
      <trkpt lat="48.31622" lon="-3.18339">
        <ele>126</ele>
        <time>2013-11-17T11:07:50.1Z</time>
      </trkpt>
      <trkpt lat="48.3162" lon="-3.18335">
        <ele>126</ele>
        <time>2013-11-17T11:07:53.1Z</time>
      </trkpt>
      <trkpt lat="48.31617" lon="-3.18333">
        <ele>126</ele>
        <time>2013-11-17T11:07:55.1Z</time>
      </trkpt>
      <trkpt lat="48.31613" lon="-3.18329">
        <ele>126</ele>
        <time>2013-11-17T11:07:58.1Z</time>
      </trkpt>
      <trkpt lat="48.31609" lon="-3.18324">
        <ele>126</ele>
        <time>2013-11-17T11:08:01.1Z</time>
      </trkpt>
      <trkpt lat="48.31607" lon="-3.18319">
        <ele>125</ele>
        <time>2013-11-17T11:08:04.1Z</time>
      </trkpt>
      <trkpt lat="48.31605" lon="-3.18316">
        <ele>125</ele>
        <time>2013-11-17T11:08:06.1Z</time>
      </trkpt>
      <trkpt lat="48.31602" lon="-3.18312">
        <ele>125</ele>
        <time>2013-11-17T11:08:09.1Z</time>
      </trkpt>
      <trkpt lat="48.31599" lon="-3.18309">
        <ele>125</ele>
        <time>2013-11-17T11:08:12.1Z</time>
      </trkpt>
      <trkpt lat="48.31597" lon="-3.18307">
        <ele>125</ele>
        <time>2013-11-17T11:08:14.1Z</time>
      </trkpt>
      <trkpt lat="48.31593" lon="-3.18304">
        <ele>125</ele>
        <time>2013-11-17T11:08:17.1Z</time>
      </trkpt>
      <trkpt lat="48.3159" lon="-3.18302">
        <ele>125</ele>
        <time>2013-11-17T11:08:20.1Z</time>
      </trkpt>
      <trkpt lat="48.31587" lon="-3.18299">
        <ele>125</ele>
        <time>2013-11-17T11:08:22.1Z</time>
      </trkpt>
      <trkpt lat="48.31584" lon="-3.18297">
        <ele>125</ele>
        <time>2013-11-17T11:08:25.1Z</time>
      </trkpt>
      <trkpt lat="48.31581" lon="-3.18294">
        <ele>125</ele>
        <time>2013-11-17T11:08:28.1Z</time>
      </trkpt>
      <trkpt lat="48.31579" lon="-3.18289">
        <ele>124</ele>
        <time>2013-11-17T11:08:31.1Z</time>
      </trkpt>
      <trkpt lat="48.31576" lon="-3.18287">
        <ele>124</ele>
        <time>2013-11-17T11:08:34.1Z</time>
      </trkpt>
      <trkpt lat="48.31573" lon="-3.18284">
        <ele>124</ele>
        <time>2013-11-17T11:08:37.1Z</time>
      </trkpt>
      <trkpt lat="48.3157" lon="-3.1828">
        <ele>124</ele>
        <time>2013-11-17T11:08:40.1Z</time>
      </trkpt>
      <trkpt lat="48.31567" lon="-3.18278">
        <ele>124</ele>
        <time>2013-11-17T11:08:43.1Z</time>
      </trkpt>
      <trkpt lat="48.31566" lon="-3.18276">
        <ele>124</ele>
        <time>2013-11-17T11:08:45.1Z</time>
      </trkpt>
      <trkpt lat="48.31564" lon="-3.18272">
        <ele>124</ele>
        <time>2013-11-17T11:08:48.1Z</time>
      </trkpt>
      <trkpt lat="48.31561" lon="-3.1827">
        <ele>123</ele>
        <time>2013-11-17T11:08:51.1Z</time>
      </trkpt>
      <trkpt lat="48.31559" lon="-3.18269">
        <ele>123</ele>
        <time>2013-11-17T11:08:53.1Z</time>
      </trkpt>
      <trkpt lat="48.31557" lon="-3.18267">
        <ele>123</ele>
        <time>2013-11-17T11:08:56.1Z</time>
      </trkpt>
      <trkpt lat="48.31556" lon="-3.18267">
        <ele>123</ele>
        <time>2013-11-17T11:08:58.1Z</time>
      </trkpt>
      <trkpt lat="48.31553" lon="-3.18263">
        <ele>123</ele>
        <time>2013-11-17T11:09:01.1Z</time>
      </trkpt>
      <trkpt lat="48.31551" lon="-3.1826">
        <ele>123</ele>
        <time>2013-11-17T11:09:04.1Z</time>
      </trkpt>
      <trkpt lat="48.31548" lon="-3.18258">
        <ele>123</ele>
        <time>2013-11-17T11:09:06.1Z</time>
      </trkpt>
      <trkpt lat="48.31546" lon="-3.18256">
        <ele>123</ele>
        <time>2013-11-17T11:09:09.1Z</time>
      </trkpt>
      <trkpt lat="48.31543" lon="-3.18254">
        <ele>123</ele>
        <time>2013-11-17T11:09:12.1Z</time>
      </trkpt>
      <trkpt lat="48.31541" lon="-3.18251">
        <ele>123</ele>
        <time>2013-11-17T11:09:15.1Z</time>
      </trkpt>
      <trkpt lat="48.3154" lon="-3.1825">
        <ele>122</ele>
        <time>2013-11-17T11:09:17.1Z</time>
      </trkpt>
      <trkpt lat="48.31538" lon="-3.18247">
        <ele>122</ele>
        <time>2013-11-17T11:09:19.1Z</time>
      </trkpt>
      <trkpt lat="48.31535" lon="-3.18246">
        <ele>123</ele>
        <time>2013-11-17T11:09:21.1Z</time>
      </trkpt>
      <trkpt lat="48.31533" lon="-3.18244">
        <ele>122</ele>
        <time>2013-11-17T11:09:23.1Z</time>
      </trkpt>
      <trkpt lat="48.3153" lon="-3.18242">
        <ele>122</ele>
        <time>2013-11-17T11:09:26.1Z</time>
      </trkpt>
      <trkpt lat="48.31528" lon="-3.18241">
        <ele>122</ele>
        <time>2013-11-17T11:09:28.1Z</time>
      </trkpt>
      <trkpt lat="48.31525" lon="-3.18238">
        <ele>122</ele>
        <time>2013-11-17T11:09:31.1Z</time>
      </trkpt>
      <trkpt lat="48.31523" lon="-3.18237">
        <ele>122</ele>
        <time>2013-11-17T11:09:33.1Z</time>
      </trkpt>
      <trkpt lat="48.31521" lon="-3.18235">
        <ele>122</ele>
        <time>2013-11-17T11:09:35.1Z</time>
      </trkpt>
      <trkpt lat="48.31517" lon="-3.18232">
        <ele>122</ele>
        <time>2013-11-17T11:09:38.1Z</time>
      </trkpt>
      <trkpt lat="48.31513" lon="-3.1823">
        <ele>122</ele>
        <time>2013-11-17T11:09:41.1Z</time>
      </trkpt>
      <trkpt lat="48.31509" lon="-3.18228">
        <ele>121</ele>
        <time>2013-11-17T11:09:44.1Z</time>
      </trkpt>
      <trkpt lat="48.31505" lon="-3.18226">
        <ele>121</ele>
        <time>2013-11-17T11:09:47.1Z</time>
      </trkpt>
      <trkpt lat="48.31501" lon="-3.18225">
        <ele>121</ele>
        <time>2013-11-17T11:09:50.1Z</time>
      </trkpt>
      <trkpt lat="48.31498" lon="-3.18224">
        <ele>121</ele>
        <time>2013-11-17T11:09:52.1Z</time>
      </trkpt>
      <trkpt lat="48.31495" lon="-3.18221">
        <ele>121</ele>
        <time>2013-11-17T11:09:55.1Z</time>
      </trkpt>
      <trkpt lat="48.31492" lon="-3.1822">
        <ele>121</ele>
        <time>2013-11-17T11:09:57.1Z</time>
      </trkpt>
      <trkpt lat="48.31489" lon="-3.18219">
        <ele>121</ele>
        <time>2013-11-17T11:10:00.1Z</time>
      </trkpt>
      <trkpt lat="48.31485" lon="-3.18217">
        <ele>121</ele>
        <time>2013-11-17T11:10:03.1Z</time>
      </trkpt>
      <trkpt lat="48.31483" lon="-3.18216">
        <ele>120</ele>
        <time>2013-11-17T11:10:05.1Z</time>
      </trkpt>
      <trkpt lat="48.3148" lon="-3.18214">
        <ele>120</ele>
        <time>2013-11-17T11:10:08.1Z</time>
      </trkpt>
      <trkpt lat="48.31477" lon="-3.18212">
        <ele>120</ele>
        <time>2013-11-17T11:10:10.1Z</time>
      </trkpt>
      <trkpt lat="48.31475" lon="-3.18211">
        <ele>120</ele>
        <time>2013-11-17T11:10:12.1Z</time>
      </trkpt>
      <trkpt lat="48.3147" lon="-3.18209">
        <ele>120</ele>
        <time>2013-11-17T11:10:15.1Z</time>
      </trkpt>
      <trkpt lat="48.31467" lon="-3.18209">
        <ele>120</ele>
        <time>2013-11-17T11:10:17.1Z</time>
      </trkpt>
      <trkpt lat="48.31466" lon="-3.18208">
        <ele>120</ele>
        <time>2013-11-17T11:10:19.1Z</time>
      </trkpt>
      <trkpt lat="48.31464" lon="-3.18207">
        <ele>120</ele>
        <time>2013-11-17T11:10:21.1Z</time>
      </trkpt>
      <trkpt lat="48.31461" lon="-3.18206">
        <ele>120</ele>
        <time>2013-11-17T11:10:24.1Z</time>
      </trkpt>
      <trkpt lat="48.3146" lon="-3.18205">
        <ele>119</ele>
        <time>2013-11-17T11:10:26.1Z</time>
      </trkpt>
      <trkpt lat="48.31457" lon="-3.18203">
        <ele>119</ele>
        <time>2013-11-17T11:10:28.1Z</time>
      </trkpt>
      <trkpt lat="48.31456" lon="-3.18202">
        <ele>119</ele>
        <time>2013-11-17T11:10:30.1Z</time>
      </trkpt>
      <trkpt lat="48.31454" lon="-3.18201">
        <ele>119</ele>
        <time>2013-11-17T11:10:33.1Z</time>
      </trkpt>
      <trkpt lat="48.31452" lon="-3.182">
        <ele>119</ele>
        <time>2013-11-17T11:10:35.1Z</time>
      </trkpt>
      <trkpt lat="48.31451" lon="-3.182">
        <ele>119</ele>
        <time>2013-11-17T11:10:38.1Z</time>
      </trkpt>
      <trkpt lat="48.31448" lon="-3.18198">
        <ele>119</ele>
        <time>2013-11-17T11:10:40.1Z</time>
      </trkpt>
      <trkpt lat="48.31446" lon="-3.18196">
        <ele>119</ele>
        <time>2013-11-17T11:10:42.1Z</time>
      </trkpt>
      <trkpt lat="48.31444" lon="-3.18194">
        <ele>119</ele>
        <time>2013-11-17T11:10:45.1Z</time>
      </trkpt>
      <trkpt lat="48.31442" lon="-3.18192">
        <ele>119</ele>
        <time>2013-11-17T11:10:48.1Z</time>
      </trkpt>
      <trkpt lat="48.3144" lon="-3.18191">
        <ele>118</ele>
        <time>2013-11-17T11:10:50.1Z</time>
      </trkpt>
      <trkpt lat="48.31437" lon="-3.18189">
        <ele>118</ele>
        <time>2013-11-17T11:10:52.1Z</time>
      </trkpt>
      <trkpt lat="48.31435" lon="-3.18187">
        <ele>118</ele>
        <time>2013-11-17T11:10:54.1Z</time>
      </trkpt>
      <trkpt lat="48.31433" lon="-3.18186">
        <ele>118</ele>
        <time>2013-11-17T11:10:57.1Z</time>
      </trkpt>
      <trkpt lat="48.31431" lon="-3.18184">
        <ele>118</ele>
        <time>2013-11-17T11:11:00.1Z</time>
      </trkpt>
      <trkpt lat="48.31429" lon="-3.18181">
        <ele>118</ele>
        <time>2013-11-17T11:11:03.1Z</time>
      </trkpt>
      <trkpt lat="48.31428" lon="-3.18179">
        <ele>118</ele>
        <time>2013-11-17T11:11:06.1Z</time>
      </trkpt>
      <trkpt lat="48.31427" lon="-3.18177">
        <ele>117</ele>
        <time>2013-11-17T11:11:08.1Z</time>
      </trkpt>
      <trkpt lat="48.31424" lon="-3.18173">
        <ele>117</ele>
        <time>2013-11-17T11:11:11.1Z</time>
      </trkpt>
      <trkpt lat="48.31421" lon="-3.1817">
        <ele>117</ele>
        <time>2013-11-17T11:11:14.1Z</time>
      </trkpt>
      <trkpt lat="48.31418" lon="-3.18169">
        <ele>117</ele>
        <time>2013-11-17T11:11:16.1Z</time>
      </trkpt>
      <trkpt lat="48.31416" lon="-3.18167">
        <ele>117</ele>
        <time>2013-11-17T11:11:18.1Z</time>
      </trkpt>
      <trkpt lat="48.31413" lon="-3.18166">
        <ele>117</ele>
        <time>2013-11-17T11:11:21.1Z</time>
      </trkpt>
      <trkpt lat="48.31409" lon="-3.18165">
        <ele>118</ele>
        <time>2013-11-17T11:11:24.1Z</time>
      </trkpt>
      <trkpt lat="48.31404" lon="-3.18165">
        <ele>117</ele>
        <time>2013-11-17T11:11:27.1Z</time>
      </trkpt>
      <trkpt lat="48.31399" lon="-3.18164">
        <ele>117</ele>
        <time>2013-11-17T11:11:30.1Z</time>
      </trkpt>
      <trkpt lat="48.31393" lon="-3.18162">
        <ele>117</ele>
        <time>2013-11-17T11:11:32.1Z</time>
      </trkpt>
      <trkpt lat="48.3139" lon="-3.1816">
        <ele>117</ele>
        <time>2013-11-17T11:11:35.1Z</time>
      </trkpt>
      <trkpt lat="48.31387" lon="-3.1816">
        <ele>117</ele>
        <time>2013-11-17T11:11:37.1Z</time>
      </trkpt>
      <trkpt lat="48.3138" lon="-3.18158">
        <ele>117</ele>
        <time>2013-11-17T11:11:40.1Z</time>
      </trkpt>
      <trkpt lat="48.31377" lon="-3.18158">
        <ele>117</ele>
        <time>2013-11-17T11:11:42.1Z</time>
      </trkpt>
      <trkpt lat="48.31373" lon="-3.18158">
        <ele>117</ele>
        <time>2013-11-17T11:11:44.1Z</time>
      </trkpt>
      <trkpt lat="48.31368" lon="-3.18158">
        <ele>117</ele>
        <time>2013-11-17T11:11:46.1Z</time>
      </trkpt>
      <trkpt lat="48.31363" lon="-3.18157">
        <ele>117</ele>
        <time>2013-11-17T11:11:50.1Z</time>
      </trkpt>
      <trkpt lat="48.31359" lon="-3.18156">
        <ele>116</ele>
        <time>2013-11-17T11:11:52.1Z</time>
      </trkpt>
      <trkpt lat="48.31354" lon="-3.18154">
        <ele>116</ele>
        <time>2013-11-17T11:11:55.1Z</time>
      </trkpt>
      <trkpt lat="48.31349" lon="-3.18154">
        <ele>116</ele>
        <time>2013-11-17T11:11:57.1Z</time>
      </trkpt>
      <trkpt lat="48.31345" lon="-3.18154">
        <ele>116</ele>
        <time>2013-11-17T11:12:00.1Z</time>
      </trkpt>
      <trkpt lat="48.31341" lon="-3.18153">
        <ele>116</ele>
        <time>2013-11-17T11:12:02.1Z</time>
      </trkpt>
      <trkpt lat="48.31337" lon="-3.18151">
        <ele>115</ele>
        <time>2013-11-17T11:12:05.1Z</time>
      </trkpt>
      <trkpt lat="48.31334" lon="-3.1815">
        <ele>115</ele>
        <time>2013-11-17T11:12:07.1Z</time>
      </trkpt>
      <trkpt lat="48.31332" lon="-3.18149">
        <ele>115</ele>
        <time>2013-11-17T11:12:10.1Z</time>
      </trkpt>
      <trkpt lat="48.3133" lon="-3.18147">
        <ele>115</ele>
        <time>2013-11-17T11:12:12.1Z</time>
      </trkpt>
      <trkpt lat="48.31329" lon="-3.18146">
        <ele>115</ele>
        <time>2013-11-17T11:12:15.1Z</time>
      </trkpt>
      <trkpt lat="48.31327" lon="-3.18145">
        <ele>115</ele>
        <time>2013-11-17T11:12:18.1Z</time>
      </trkpt>
      <trkpt lat="48.31325" lon="-3.18144">
        <ele>115</ele>
        <time>2013-11-17T11:12:21.1Z</time>
      </trkpt>
      <trkpt lat="48.31322" lon="-3.18144">
        <ele>115</ele>
        <time>2013-11-17T11:12:24.1Z</time>
      </trkpt>
      <trkpt lat="48.31319" lon="-3.18143">
        <ele>114</ele>
        <time>2013-11-17T11:12:27.1Z</time>
      </trkpt>
      <trkpt lat="48.31316" lon="-3.18144">
        <ele>114</ele>
        <time>2013-11-17T11:12:30.1Z</time>
      </trkpt>
      <trkpt lat="48.31313" lon="-3.18144">
        <ele>114</ele>
        <time>2013-11-17T11:12:32.1Z</time>
      </trkpt>
      <trkpt lat="48.3131" lon="-3.18143">
        <ele>114</ele>
        <time>2013-11-17T11:12:34.1Z</time>
      </trkpt>
      <trkpt lat="48.31307" lon="-3.18143">
        <ele>114</ele>
        <time>2013-11-17T11:12:37.1Z</time>
      </trkpt>
      <trkpt lat="48.31304" lon="-3.18142">
        <ele>114</ele>
        <time>2013-11-17T11:12:40.1Z</time>
      </trkpt>
      <trkpt lat="48.31302" lon="-3.18142">
        <ele>114</ele>
        <time>2013-11-17T11:12:42.1Z</time>
      </trkpt>
      <trkpt lat="48.313" lon="-3.18142">
        <ele>113</ele>
        <time>2013-11-17T11:12:45.1Z</time>
      </trkpt>
      <trkpt lat="48.31298" lon="-3.18143">
        <ele>113</ele>
        <time>2013-11-17T11:12:47.1Z</time>
      </trkpt>
      <trkpt lat="48.31297" lon="-3.18142">
        <ele>113</ele>
        <time>2013-11-17T11:12:49.1Z</time>
      </trkpt>
      <trkpt lat="48.31295" lon="-3.18143">
        <ele>113</ele>
        <time>2013-11-17T11:12:51.1Z</time>
      </trkpt>
      <trkpt lat="48.31293" lon="-3.18144">
        <ele>113</ele>
        <time>2013-11-17T11:12:54.1Z</time>
      </trkpt>
      <trkpt lat="48.3129" lon="-3.18143">
        <ele>113</ele>
        <time>2013-11-17T11:12:56.1Z</time>
      </trkpt>
      <trkpt lat="48.31288" lon="-3.18142">
        <ele>113</ele>
        <time>2013-11-17T11:12:59.1Z</time>
      </trkpt>
      <trkpt lat="48.31286" lon="-3.18142">
        <ele>112</ele>
        <time>2013-11-17T11:13:02.1Z</time>
      </trkpt>
      <trkpt lat="48.31283" lon="-3.18142">
        <ele>112</ele>
        <time>2013-11-17T11:13:04.1Z</time>
      </trkpt>
      <trkpt lat="48.3128" lon="-3.1814">
        <ele>112</ele>
        <time>2013-11-17T11:13:06.1Z</time>
      </trkpt>
      <trkpt lat="48.31277" lon="-3.18139">
        <ele>112</ele>
        <time>2013-11-17T11:13:09.1Z</time>
      </trkpt>
      <trkpt lat="48.31275" lon="-3.18138">
        <ele>113</ele>
        <time>2013-11-17T11:13:11.1Z</time>
      </trkpt>
      <trkpt lat="48.31273" lon="-3.18137">
        <ele>113</ele>
        <time>2013-11-17T11:13:14.1Z</time>
      </trkpt>
      <trkpt lat="48.31271" lon="-3.18136">
        <ele>113</ele>
        <time>2013-11-17T11:13:16.1Z</time>
      </trkpt>
      <trkpt lat="48.31268" lon="-3.18135">
        <ele>112</ele>
        <time>2013-11-17T11:13:18.1Z</time>
      </trkpt>
      <trkpt lat="48.31266" lon="-3.18134">
        <ele>112</ele>
        <time>2013-11-17T11:13:21.1Z</time>
      </trkpt>
      <trkpt lat="48.31264" lon="-3.18134">
        <ele>111</ele>
        <time>2013-11-17T11:13:23.1Z</time>
      </trkpt>
      <trkpt lat="48.31261" lon="-3.18133">
        <ele>111</ele>
        <time>2013-11-17T11:13:26.1Z</time>
      </trkpt>
      <trkpt lat="48.31258" lon="-3.18132">
        <ele>111</ele>
        <time>2013-11-17T11:13:28.1Z</time>
      </trkpt>
      <trkpt lat="48.31256" lon="-3.1813">
        <ele>111</ele>
        <time>2013-11-17T11:13:30.1Z</time>
      </trkpt>
      <trkpt lat="48.31252" lon="-3.18129">
        <ele>111</ele>
        <time>2013-11-17T11:13:33.1Z</time>
      </trkpt>
      <trkpt lat="48.31249" lon="-3.18128">
        <ele>111</ele>
        <time>2013-11-17T11:13:36.1Z</time>
      </trkpt>
      <trkpt lat="48.31247" lon="-3.18127">
        <ele>111</ele>
        <time>2013-11-17T11:13:38.1Z</time>
      </trkpt>
      <trkpt lat="48.31244" lon="-3.18125">
        <ele>111</ele>
        <time>2013-11-17T11:13:40.1Z</time>
      </trkpt>
      <trkpt lat="48.31242" lon="-3.18124">
        <ele>111</ele>
        <time>2013-11-17T11:13:43.1Z</time>
      </trkpt>
      <trkpt lat="48.31237" lon="-3.18122">
        <ele>110</ele>
        <time>2013-11-17T11:13:46.1Z</time>
      </trkpt>
      <trkpt lat="48.31234" lon="-3.18119">
        <ele>110</ele>
        <time>2013-11-17T11:13:48.1Z</time>
      </trkpt>
      <trkpt lat="48.31232" lon="-3.18117">
        <ele>110</ele>
        <time>2013-11-17T11:13:50.1Z</time>
      </trkpt>
      <trkpt lat="48.31229" lon="-3.18115">
        <ele>110</ele>
        <time>2013-11-17T11:13:53.1Z</time>
      </trkpt>
      <trkpt lat="48.31227" lon="-3.18112">
        <ele>110</ele>
        <time>2013-11-17T11:13:55.1Z</time>
      </trkpt>
      <trkpt lat="48.31224" lon="-3.1811">
        <ele>111</ele>
        <time>2013-11-17T11:13:59.1Z</time>
      </trkpt>
      <trkpt lat="48.31221" lon="-3.18108">
        <ele>110</ele>
        <time>2013-11-17T11:14:01.1Z</time>
      </trkpt>
      <trkpt lat="48.31219" lon="-3.18107">
        <ele>110</ele>
        <time>2013-11-17T11:14:03.1Z</time>
      </trkpt>
      <trkpt lat="48.31217" lon="-3.18105">
        <ele>110</ele>
        <time>2013-11-17T11:14:06.1Z</time>
      </trkpt>
      <trkpt lat="48.31214" lon="-3.18103">
        <ele>110</ele>
        <time>2013-11-17T11:14:09.1Z</time>
      </trkpt>
      <trkpt lat="48.31211" lon="-3.18099">
        <ele>110</ele>
        <time>2013-11-17T11:14:11.1Z</time>
      </trkpt>
      <trkpt lat="48.31209" lon="-3.18097">
        <ele>110</ele>
        <time>2013-11-17T11:14:14.1Z</time>
      </trkpt>
      <trkpt lat="48.31206" lon="-3.18094">
        <ele>110</ele>
        <time>2013-11-17T11:14:16.1Z</time>
      </trkpt>
      <trkpt lat="48.31203" lon="-3.1809">
        <ele>110</ele>
        <time>2013-11-17T11:14:19.1Z</time>
      </trkpt>
      <trkpt lat="48.31201" lon="-3.18087">
        <ele>110</ele>
        <time>2013-11-17T11:14:21.1Z</time>
      </trkpt>
      <trkpt lat="48.31198" lon="-3.18084">
        <ele>110</ele>
        <time>2013-11-17T11:14:24.1Z</time>
      </trkpt>
      <trkpt lat="48.31196" lon="-3.18082">
        <ele>110</ele>
        <time>2013-11-17T11:14:27.1Z</time>
      </trkpt>
      <trkpt lat="48.31192" lon="-3.18078">
        <ele>110</ele>
        <time>2013-11-17T11:14:30.1Z</time>
      </trkpt>
      <trkpt lat="48.31189" lon="-3.18075">
        <ele>110</ele>
        <time>2013-11-17T11:14:32.1Z</time>
      </trkpt>
      <trkpt lat="48.31187" lon="-3.18073">
        <ele>110</ele>
        <time>2013-11-17T11:14:35.1Z</time>
      </trkpt>
      <trkpt lat="48.31185" lon="-3.18071">
        <ele>110</ele>
        <time>2013-11-17T11:14:37.1Z</time>
      </trkpt>
      <trkpt lat="48.31183" lon="-3.18069">
        <ele>110</ele>
        <time>2013-11-17T11:14:39.1Z</time>
      </trkpt>
      <trkpt lat="48.31181" lon="-3.18067">
        <ele>110</ele>
        <time>2013-11-17T11:14:42.1Z</time>
      </trkpt>
      <trkpt lat="48.3118" lon="-3.18067">
        <ele>110</ele>
        <time>2013-11-17T11:14:44.1Z</time>
      </trkpt>
      <trkpt lat="48.31179" lon="-3.18065">
        <ele>110</ele>
        <time>2013-11-17T11:14:47.1Z</time>
      </trkpt>
      <trkpt lat="48.31176" lon="-3.18063">
        <ele>110</ele>
        <time>2013-11-17T11:14:49.1Z</time>
      </trkpt>
      <trkpt lat="48.31173" lon="-3.18061">
        <ele>110</ele>
        <time>2013-11-17T11:14:51.1Z</time>
      </trkpt>
      <trkpt lat="48.31171" lon="-3.18057">
        <ele>110</ele>
        <time>2013-11-17T11:14:54.1Z</time>
      </trkpt>
      <trkpt lat="48.31168" lon="-3.18054">
        <ele>110</ele>
        <time>2013-11-17T11:14:57.1Z</time>
      </trkpt>
      <trkpt lat="48.31166" lon="-3.18051">
        <ele>110</ele>
        <time>2013-11-17T11:14:59.1Z</time>
      </trkpt>
      <trkpt lat="48.31165" lon="-3.18049">
        <ele>110</ele>
        <time>2013-11-17T11:15:02.1Z</time>
      </trkpt>
      <trkpt lat="48.31163" lon="-3.18046">
        <ele>110</ele>
        <time>2013-11-17T11:15:04.1Z</time>
      </trkpt>
      <trkpt lat="48.31161" lon="-3.18042">
        <ele>110</ele>
        <time>2013-11-17T11:15:07.1Z</time>
      </trkpt>
      <trkpt lat="48.3116" lon="-3.18041">
        <ele>110</ele>
        <time>2013-11-17T11:15:09.1Z</time>
      </trkpt>
      <trkpt lat="48.31158" lon="-3.18039">
        <ele>110</ele>
        <time>2013-11-17T11:15:11.1Z</time>
      </trkpt>
      <trkpt lat="48.31157" lon="-3.18037">
        <ele>110</ele>
        <time>2013-11-17T11:15:13.1Z</time>
      </trkpt>
      <trkpt lat="48.31155" lon="-3.18034">
        <ele>110</ele>
        <time>2013-11-17T11:15:16.1Z</time>
      </trkpt>
      <trkpt lat="48.31152" lon="-3.1803">
        <ele>110</ele>
        <time>2013-11-17T11:15:19.1Z</time>
      </trkpt>
      <trkpt lat="48.31151" lon="-3.18026">
        <ele>110</ele>
        <time>2013-11-17T11:15:21.1Z</time>
      </trkpt>
      <trkpt lat="48.31149" lon="-3.18023">
        <ele>110</ele>
        <time>2013-11-17T11:15:24.1Z</time>
      </trkpt>
      <trkpt lat="48.31148" lon="-3.1802">
        <ele>110</ele>
        <time>2013-11-17T11:15:26.1Z</time>
      </trkpt>
      <trkpt lat="48.31147" lon="-3.18018">
        <ele>110</ele>
        <time>2013-11-17T11:15:28.1Z</time>
      </trkpt>
      <trkpt lat="48.31145" lon="-3.18015">
        <ele>110</ele>
        <time>2013-11-17T11:15:30.1Z</time>
      </trkpt>
      <trkpt lat="48.31142" lon="-3.1801">
        <ele>110</ele>
        <time>2013-11-17T11:15:32.1Z</time>
      </trkpt>
      <trkpt lat="48.31141" lon="-3.18007">
        <ele>110</ele>
        <time>2013-11-17T11:15:34.1Z</time>
      </trkpt>
      <trkpt lat="48.31139" lon="-3.18004">
        <ele>110</ele>
        <time>2013-11-17T11:15:37.1Z</time>
      </trkpt>
      <trkpt lat="48.31137" lon="-3.18003">
        <ele>110</ele>
        <time>2013-11-17T11:15:39.1Z</time>
      </trkpt>
      <trkpt lat="48.31136" lon="-3.18001">
        <ele>110</ele>
        <time>2013-11-17T11:15:41.1Z</time>
      </trkpt>
      <trkpt lat="48.31135" lon="-3.17999">
        <ele>110</ele>
        <time>2013-11-17T11:15:43.1Z</time>
      </trkpt>
      <trkpt lat="48.31132" lon="-3.17997">
        <ele>110</ele>
        <time>2013-11-17T11:15:46.1Z</time>
      </trkpt>
      <trkpt lat="48.31129" lon="-3.17994">
        <ele>110</ele>
        <time>2013-11-17T11:15:49.1Z</time>
      </trkpt>
      <trkpt lat="48.31128" lon="-3.17992">
        <ele>110</ele>
        <time>2013-11-17T11:15:51.1Z</time>
      </trkpt>
      <trkpt lat="48.31126" lon="-3.17989">
        <ele>110</ele>
        <time>2013-11-17T11:15:54.1Z</time>
      </trkpt>
      <trkpt lat="48.31126" lon="-3.17987">
        <ele>109</ele>
        <time>2013-11-17T11:15:56.1Z</time>
      </trkpt>
      <trkpt lat="48.31125" lon="-3.17984">
        <ele>109</ele>
        <time>2013-11-17T11:15:59.1Z</time>
      </trkpt>
      <trkpt lat="48.31123" lon="-3.1798">
        <ele>109</ele>
        <time>2013-11-17T11:16:01.1Z</time>
      </trkpt>
      <trkpt lat="48.31122" lon="-3.17977">
        <ele>109</ele>
        <time>2013-11-17T11:16:03.1Z</time>
      </trkpt>
      <trkpt lat="48.31121" lon="-3.17973">
        <ele>109</ele>
        <time>2013-11-17T11:16:06.1Z</time>
      </trkpt>
      <trkpt lat="48.31119" lon="-3.17969">
        <ele>109</ele>
        <time>2013-11-17T11:16:08.1Z</time>
      </trkpt>
      <trkpt lat="48.31117" lon="-3.17965">
        <ele>109</ele>
        <time>2013-11-17T11:16:11.1Z</time>
      </trkpt>
      <trkpt lat="48.31116" lon="-3.17962">
        <ele>109</ele>
        <time>2013-11-17T11:16:13.1Z</time>
      </trkpt>
      <trkpt lat="48.31115" lon="-3.17958">
        <ele>109</ele>
        <time>2013-11-17T11:16:16.1Z</time>
      </trkpt>
      <trkpt lat="48.31114" lon="-3.17955">
        <ele>109</ele>
        <time>2013-11-17T11:16:18.1Z</time>
      </trkpt>
      <trkpt lat="48.31113" lon="-3.17952">
        <ele>109</ele>
        <time>2013-11-17T11:16:20.1Z</time>
      </trkpt>
      <trkpt lat="48.31112" lon="-3.17949">
        <ele>109</ele>
        <time>2013-11-17T11:16:22.1Z</time>
      </trkpt>
      <trkpt lat="48.31111" lon="-3.17946">
        <ele>109</ele>
        <time>2013-11-17T11:16:24.1Z</time>
      </trkpt>
      <trkpt lat="48.31109" lon="-3.17942">
        <ele>109</ele>
        <time>2013-11-17T11:16:26.1Z</time>
      </trkpt>
      <trkpt lat="48.31106" lon="-3.17938">
        <ele>109</ele>
        <time>2013-11-17T11:16:29.1Z</time>
      </trkpt>
      <trkpt lat="48.31105" lon="-3.17936">
        <ele>109</ele>
        <time>2013-11-17T11:16:31.1Z</time>
      </trkpt>
      <trkpt lat="48.31103" lon="-3.17933">
        <ele>109</ele>
        <time>2013-11-17T11:16:33.1Z</time>
      </trkpt>
      <trkpt lat="48.31101" lon="-3.1793">
        <ele>109</ele>
        <time>2013-11-17T11:16:36.1Z</time>
      </trkpt>
      <trkpt lat="48.31099" lon="-3.17927">
        <ele>109</ele>
        <time>2013-11-17T11:16:38.1Z</time>
      </trkpt>
      <trkpt lat="48.31099" lon="-3.17923">
        <ele>110</ele>
        <time>2013-11-17T11:16:40.1Z</time>
      </trkpt>
      <trkpt lat="48.31097" lon="-3.1792">
        <ele>110</ele>
        <time>2013-11-17T11:16:43.1Z</time>
      </trkpt>
      <trkpt lat="48.31095" lon="-3.17916">
        <ele>110</ele>
        <time>2013-11-17T11:16:45.1Z</time>
      </trkpt>
      <trkpt lat="48.31093" lon="-3.17911">
        <ele>109</ele>
        <time>2013-11-17T11:16:48.1Z</time>
      </trkpt>
      <trkpt lat="48.31092" lon="-3.17908">
        <ele>109</ele>
        <time>2013-11-17T11:16:50.1Z</time>
      </trkpt>
      <trkpt lat="48.31091" lon="-3.17905">
        <ele>109</ele>
        <time>2013-11-17T11:16:53.1Z</time>
      </trkpt>
      <trkpt lat="48.3109" lon="-3.17902">
        <ele>109</ele>
        <time>2013-11-17T11:16:55.1Z</time>
      </trkpt>
      <trkpt lat="48.31088" lon="-3.17897">
        <ele>110</ele>
        <time>2013-11-17T11:16:57.1Z</time>
      </trkpt>
      <trkpt lat="48.31087" lon="-3.17893">
        <ele>110</ele>
        <time>2013-11-17T11:16:59.1Z</time>
      </trkpt>
      <trkpt lat="48.31085" lon="-3.1789">
        <ele>110</ele>
        <time>2013-11-17T11:17:01.1Z</time>
      </trkpt>
      <trkpt lat="48.31083" lon="-3.17886">
        <ele>110</ele>
        <time>2013-11-17T11:17:04.1Z</time>
      </trkpt>
      <trkpt lat="48.31081" lon="-3.17881">
        <ele>110</ele>
        <time>2013-11-17T11:17:07.1Z</time>
      </trkpt>
      <trkpt lat="48.3108" lon="-3.1788">
        <ele>110</ele>
        <time>2013-11-17T11:17:09.1Z</time>
      </trkpt>
      <trkpt lat="48.31079" lon="-3.17876">
        <ele>110</ele>
        <time>2013-11-17T11:17:12.1Z</time>
      </trkpt>
      <trkpt lat="48.31077" lon="-3.17873">
        <ele>110</ele>
        <time>2013-11-17T11:17:15.1Z</time>
      </trkpt>
      <trkpt lat="48.31076" lon="-3.1787">
        <ele>110</ele>
        <time>2013-11-17T11:17:17.1Z</time>
      </trkpt>
      <trkpt lat="48.31075" lon="-3.17866">
        <ele>110</ele>
        <time>2013-11-17T11:17:19.1Z</time>
      </trkpt>
      <trkpt lat="48.31074" lon="-3.17863">
        <ele>110</ele>
        <time>2013-11-17T11:17:21.1Z</time>
      </trkpt>
      <trkpt lat="48.31072" lon="-3.17858">
        <ele>110</ele>
        <time>2013-11-17T11:17:24.1Z</time>
      </trkpt>
      <trkpt lat="48.31071" lon="-3.17855">
        <ele>110</ele>
        <time>2013-11-17T11:17:26.1Z</time>
      </trkpt>
      <trkpt lat="48.3107" lon="-3.17852">
        <ele>110</ele>
        <time>2013-11-17T11:17:28.1Z</time>
      </trkpt>
      <trkpt lat="48.31069" lon="-3.17849">
        <ele>110</ele>
        <time>2013-11-17T11:17:31.1Z</time>
      </trkpt>
      <trkpt lat="48.31068" lon="-3.17846">
        <ele>110</ele>
        <time>2013-11-17T11:17:33.1Z</time>
      </trkpt>
      <trkpt lat="48.31067" lon="-3.17843">
        <ele>110</ele>
        <time>2013-11-17T11:17:35.1Z</time>
      </trkpt>
      <trkpt lat="48.31065" lon="-3.17839">
        <ele>110</ele>
        <time>2013-11-17T11:17:37.1Z</time>
      </trkpt>
      <trkpt lat="48.31063" lon="-3.17836">
        <ele>110</ele>
        <time>2013-11-17T11:17:41.1Z</time>
      </trkpt>
      <trkpt lat="48.3106" lon="-3.17832">
        <ele>110</ele>
        <time>2013-11-17T11:17:43.1Z</time>
      </trkpt>
      <trkpt lat="48.31058" lon="-3.17831">
        <ele>110</ele>
        <time>2013-11-17T11:17:46.1Z</time>
      </trkpt>
      <trkpt lat="48.31055" lon="-3.17829">
        <ele>110</ele>
        <time>2013-11-17T11:17:48.1Z</time>
      </trkpt>
      <trkpt lat="48.31052" lon="-3.17828">
        <ele>110</ele>
        <time>2013-11-17T11:17:51.1Z</time>
      </trkpt>
      <trkpt lat="48.31049" lon="-3.17825">
        <ele>110</ele>
        <time>2013-11-17T11:17:55.1Z</time>
      </trkpt>
      <trkpt lat="48.31046" lon="-3.17823">
        <ele>110</ele>
        <time>2013-11-17T11:17:57.1Z</time>
      </trkpt>
      <trkpt lat="48.31043" lon="-3.17822">
        <ele>111</ele>
        <time>2013-11-17T11:18:00.1Z</time>
      </trkpt>
      <trkpt lat="48.3104" lon="-3.17821">
        <ele>110</ele>
        <time>2013-11-17T11:18:02.1Z</time>
      </trkpt>
      <trkpt lat="48.31038" lon="-3.1782">
        <ele>110</ele>
        <time>2013-11-17T11:18:04.1Z</time>
      </trkpt>
      <trkpt lat="48.31035" lon="-3.17819">
        <ele>110</ele>
        <time>2013-11-17T11:18:07.1Z</time>
      </trkpt>
      <trkpt lat="48.31035" lon="-3.17819">
        <ele>110</ele>
        <time>2013-11-17T11:18:08.1Z</time>
      </trkpt>
    </trkseg>
  </trk>
</gpx>